<?xml version="1.0" encoding="UTF-8" standalone="no" ?>
<gpx xmlns="http://www.topografix.com/GPX/1/1" xmlns:xsi="http://www.w3.org/2001/XMLSchema-instance" xsi:schemaLocation="http://www.topografix.com/GPX/1/1 http://www.topografix.com/GPX/1/1/gpx.xsd" version="1.1" creator="VisuGPX - https://www.visugpx.com">
  <metadata>
    <name>La Ferté-Milon - Paris en longeant le canal de l'Ourcq</name>
  </metadata>
  <trk>
    <name><![CDATA[La Ferté-Milon]]></name>
    <trkseg>
      <trkpt lat="49.17936" lon="3.12066">
        <ele>98</ele>
        <time>2021-05-04T07:56:24.428Z</time>
      </trkpt>
      <trkpt lat="49.17936" lon="3.12066">
        <ele>98</ele>
        <time>2021-05-04T07:56:51.652Z</time>
      </trkpt>
      <trkpt lat="49.17938" lon="3.12085">
        <ele>102</ele>
        <time>2021-05-04T07:56:55.653Z</time>
      </trkpt>
      <trkpt lat="49.17937" lon="3.12102">
        <ele>103</ele>
        <time>2021-05-04T07:56:58.653Z</time>
      </trkpt>
      <trkpt lat="49.17939" lon="3.12121">
        <ele>104</ele>
        <time>2021-05-04T07:57:01.650Z</time>
      </trkpt>
      <trkpt lat="49.17942" lon="3.12148">
        <ele>105</ele>
        <time>2021-05-04T07:57:05.648Z</time>
      </trkpt>
      <trkpt lat="49.17945" lon="3.12176">
        <ele>106</ele>
        <time>2021-05-04T07:57:09.649Z</time>
      </trkpt>
      <trkpt lat="49.17949" lon="3.12206">
        <ele>107</ele>
        <time>2021-05-04T07:57:13.650Z</time>
      </trkpt>
      <trkpt lat="49.17954" lon="3.12235">
        <ele>108</ele>
        <time>2021-05-04T07:57:17.651Z</time>
      </trkpt>
      <trkpt lat="49.1796" lon="3.12267">
        <ele>108</ele>
        <time>2021-05-04T07:57:22.653Z</time>
      </trkpt>
      <trkpt lat="49.17963" lon="3.12295">
        <ele>108</ele>
        <time>2021-05-04T07:57:27.652Z</time>
      </trkpt>
      <trkpt lat="49.17968" lon="3.12318">
        <ele>109</ele>
        <time>2021-05-04T07:57:32.652Z</time>
      </trkpt>
      <trkpt lat="49.17969" lon="3.12344">
        <ele>109</ele>
        <time>2021-05-04T07:57:36.655Z</time>
      </trkpt>
      <trkpt lat="49.17972" lon="3.1237">
        <ele>110</ele>
        <time>2021-05-04T07:57:40.651Z</time>
      </trkpt>
      <trkpt lat="49.17976" lon="3.12396">
        <ele>110</ele>
        <time>2021-05-04T07:57:44.650Z</time>
      </trkpt>
      <trkpt lat="49.17979" lon="3.12424">
        <ele>110</ele>
        <time>2021-05-04T07:57:49.649Z</time>
      </trkpt>
      <trkpt lat="49.17974" lon="3.12438">
        <ele>110</ele>
        <time>2021-05-04T07:58:03.649Z</time>
      </trkpt>
      <trkpt lat="49.17964" lon="3.12444">
        <ele>110</ele>
        <time>2021-05-04T07:58:08.648Z</time>
      </trkpt>
      <trkpt lat="49.17947" lon="3.12453">
        <ele>111</ele>
        <time>2021-05-04T07:58:11.647Z</time>
      </trkpt>
      <trkpt lat="49.17937" lon="3.12459">
        <ele>111</ele>
        <time>2021-05-04T07:58:13.650Z</time>
      </trkpt>
      <trkpt lat="49.17921" lon="3.12466">
        <ele>111</ele>
        <time>2021-05-04T07:58:16.648Z</time>
      </trkpt>
      <trkpt lat="49.17893" lon="3.12477">
        <ele>112</ele>
        <time>2021-05-04T07:58:22.645Z</time>
      </trkpt>
      <trkpt lat="49.17871" lon="3.12486">
        <ele>112</ele>
        <time>2021-05-04T07:58:26.647Z</time>
      </trkpt>
      <trkpt lat="49.17845" lon="3.12502">
        <ele>112</ele>
        <time>2021-05-04T07:58:31.651Z</time>
      </trkpt>
      <trkpt lat="49.1782" lon="3.12512">
        <ele>113</ele>
        <time>2021-05-04T07:58:36.648Z</time>
      </trkpt>
      <trkpt lat="49.17795" lon="3.12519">
        <ele>113</ele>
        <time>2021-05-04T07:58:42.649Z</time>
      </trkpt>
      <trkpt lat="49.17774" lon="3.1253">
        <ele>113</ele>
        <time>2021-05-04T07:58:47.647Z</time>
      </trkpt>
      <trkpt lat="49.17749" lon="3.1254">
        <ele>113</ele>
        <time>2021-05-04T07:58:51.649Z</time>
      </trkpt>
      <trkpt lat="49.17724" lon="3.12551">
        <ele>113</ele>
        <time>2021-05-04T07:58:56.649Z</time>
      </trkpt>
      <trkpt lat="49.17707" lon="3.12558">
        <ele>112</ele>
        <time>2021-05-04T07:59:05.643Z</time>
      </trkpt>
      <trkpt lat="49.17719" lon="3.12561">
        <ele>113</ele>
        <time>2021-05-04T07:59:09.646Z</time>
      </trkpt>
      <trkpt lat="49.17711" lon="3.12561">
        <ele>115</ele>
        <time>2021-05-04T07:59:33.648Z</time>
      </trkpt>
      <trkpt lat="49.17711" lon="3.12561">
        <ele>115</ele>
        <time>2021-05-04T07:59:40.648Z</time>
      </trkpt>
      <trkpt lat="49.17687" lon="3.12566">
        <ele>116</ele>
        <time>2021-05-04T07:59:41.647Z</time>
      </trkpt>
      <trkpt lat="49.17675" lon="3.12571">
        <ele>117</ele>
        <time>2021-05-04T07:59:45.648Z</time>
      </trkpt>
      <trkpt lat="49.17661" lon="3.12573">
        <ele>117</ele>
        <time>2021-05-04T07:59:48.648Z</time>
      </trkpt>
      <trkpt lat="49.17648" lon="3.12579">
        <ele>117</ele>
        <time>2021-05-04T07:59:53.648Z</time>
      </trkpt>
      <trkpt lat="49.17632" lon="3.12586">
        <ele>117</ele>
        <time>2021-05-04T07:59:57.649Z</time>
      </trkpt>
      <trkpt lat="49.17619" lon="3.12588">
        <ele>116</ele>
        <time>2021-05-04T08:00:03.648Z</time>
      </trkpt>
      <trkpt lat="49.17623" lon="3.126">
        <ele>115</ele>
        <time>2021-05-04T08:00:17.658Z</time>
      </trkpt>
      <trkpt lat="49.17619" lon="3.12613">
        <ele>112</ele>
        <time>2021-05-04T08:00:29.650Z</time>
      </trkpt>
      <trkpt lat="49.17615" lon="3.12629">
        <ele>112</ele>
        <time>2021-05-04T08:00:33.653Z</time>
      </trkpt>
      <trkpt lat="49.17613" lon="3.12645">
        <ele>112</ele>
        <time>2021-05-04T08:00:36.650Z</time>
      </trkpt>
      <trkpt lat="49.17614" lon="3.12663">
        <ele>111</ele>
        <time>2021-05-04T08:00:40.652Z</time>
      </trkpt>
      <trkpt lat="49.17623" lon="3.12662">
        <ele>110</ele>
        <time>2021-05-04T08:00:55.650Z</time>
      </trkpt>
      <trkpt lat="49.17624" lon="3.1266">
        <ele>110</ele>
        <time>2021-05-04T08:01:04.652Z</time>
      </trkpt>
      <trkpt lat="49.17624" lon="3.1266">
        <ele>110</ele>
        <time>2021-05-04T08:02:24.652Z</time>
      </trkpt>
      <trkpt lat="49.17614" lon="3.12692">
        <ele>107</ele>
        <time>2021-05-04T08:02:25.652Z</time>
      </trkpt>
      <trkpt lat="49.17615" lon="3.12712">
        <ele>107</ele>
        <time>2021-05-04T08:02:28.648Z</time>
      </trkpt>
      <trkpt lat="49.17617" lon="3.12734">
        <ele>107</ele>
        <time>2021-05-04T08:02:31.650Z</time>
      </trkpt>
      <trkpt lat="49.17618" lon="3.12764">
        <ele>107</ele>
        <time>2021-05-04T08:02:35.646Z</time>
      </trkpt>
      <trkpt lat="49.17617" lon="3.12802">
        <ele>107</ele>
        <time>2021-05-04T08:02:40.656Z</time>
      </trkpt>
      <trkpt lat="49.17612" lon="3.12837">
        <ele>107</ele>
        <time>2021-05-04T08:02:45.651Z</time>
      </trkpt>
      <trkpt lat="49.17607" lon="3.12866">
        <ele>107</ele>
        <time>2021-05-04T08:02:51.653Z</time>
      </trkpt>
      <trkpt lat="49.17597" lon="3.12873">
        <ele>107</ele>
        <time>2021-05-04T08:02:58.648Z</time>
      </trkpt>
      <trkpt lat="49.17588" lon="3.12876">
        <ele>108</ele>
        <time>2021-05-04T08:03:03.649Z</time>
      </trkpt>
      <trkpt lat="49.17577" lon="3.12881">
        <ele>108</ele>
        <time>2021-05-04T08:03:07.647Z</time>
      </trkpt>
      <trkpt lat="49.17569" lon="3.12888">
        <ele>109</ele>
        <time>2021-05-04T08:03:13.647Z</time>
      </trkpt>
      <trkpt lat="49.17561" lon="3.12897">
        <ele>111</ele>
        <time>2021-05-04T08:03:28.648Z</time>
      </trkpt>
      <trkpt lat="49.17552" lon="3.129">
        <ele>112</ele>
        <time>2021-05-04T08:03:33.648Z</time>
      </trkpt>
      <trkpt lat="49.17543" lon="3.12899">
        <ele>113</ele>
        <time>2021-05-04T08:03:49.647Z</time>
      </trkpt>
      <trkpt lat="49.17543" lon="3.12899">
        <ele>113</ele>
        <time>2021-05-04T08:04:07.647Z</time>
      </trkpt>
      <trkpt lat="49.17533" lon="3.12866">
        <ele>111</ele>
        <time>2021-05-04T08:04:08.646Z</time>
      </trkpt>
      <trkpt lat="49.17528" lon="3.12851">
        <ele>111</ele>
        <time>2021-05-04T08:04:11.645Z</time>
      </trkpt>
      <trkpt lat="49.17525" lon="3.12833">
        <ele>111</ele>
        <time>2021-05-04T08:04:14.646Z</time>
      </trkpt>
      <trkpt lat="49.17522" lon="3.12809">
        <ele>110</ele>
        <time>2021-05-04T08:04:18.646Z</time>
      </trkpt>
      <trkpt lat="49.17517" lon="3.12786">
        <ele>110</ele>
        <time>2021-05-04T08:04:22.648Z</time>
      </trkpt>
      <trkpt lat="49.17514" lon="3.12769">
        <ele>110</ele>
        <time>2021-05-04T08:04:31.646Z</time>
      </trkpt>
      <trkpt lat="49.17514" lon="3.12767">
        <ele>112</ele>
        <time>2021-05-04T08:04:43.646Z</time>
      </trkpt>
      <trkpt lat="49.17514" lon="3.12767">
        <ele>112</ele>
        <time>2021-05-04T08:04:57.649Z</time>
      </trkpt>
      <trkpt lat="49.17521" lon="3.12731">
        <ele>115</ele>
        <time>2021-05-04T08:04:58.647Z</time>
      </trkpt>
      <trkpt lat="49.17513" lon="3.12725">
        <ele>115</ele>
        <time>2021-05-04T08:05:00.653Z</time>
      </trkpt>
      <trkpt lat="49.17504" lon="3.12724">
        <ele>116</ele>
        <time>2021-05-04T08:05:04.647Z</time>
      </trkpt>
      <trkpt lat="49.17514" lon="3.12726">
        <ele>116</ele>
        <time>2021-05-04T08:05:37.647Z</time>
      </trkpt>
      <trkpt lat="49.17523" lon="3.12717">
        <ele>116</ele>
        <time>2021-05-04T08:05:41.650Z</time>
      </trkpt>
      <trkpt lat="49.17524" lon="3.12701">
        <ele>116</ele>
        <time>2021-05-04T08:05:46.647Z</time>
      </trkpt>
      <trkpt lat="49.17529" lon="3.12689">
        <ele>116</ele>
        <time>2021-05-04T08:05:54.648Z</time>
      </trkpt>
      <trkpt lat="49.17533" lon="3.12675">
        <ele>116</ele>
        <time>2021-05-04T08:05:59.646Z</time>
      </trkpt>
      <trkpt lat="49.17538" lon="3.12652">
        <ele>116</ele>
        <time>2021-05-04T08:06:04.641Z</time>
      </trkpt>
      <trkpt lat="49.17542" lon="3.12632">
        <ele>116</ele>
        <time>2021-05-04T08:06:06.651Z</time>
      </trkpt>
      <trkpt lat="49.17555" lon="3.12617">
        <ele>117</ele>
        <time>2021-05-04T08:06:09.649Z</time>
      </trkpt>
      <trkpt lat="49.17573" lon="3.12609">
        <ele>117</ele>
        <time>2021-05-04T08:06:12.647Z</time>
      </trkpt>
      <trkpt lat="49.17595" lon="3.12601">
        <ele>118</ele>
        <time>2021-05-04T08:06:17.652Z</time>
      </trkpt>
      <trkpt lat="49.17601" lon="3.1257">
        <ele>118</ele>
        <time>2021-05-04T08:06:24.651Z</time>
      </trkpt>
      <trkpt lat="49.176" lon="3.12548">
        <ele>117</ele>
        <time>2021-05-04T08:06:28.649Z</time>
      </trkpt>
      <trkpt lat="49.17595" lon="3.1253">
        <ele>117</ele>
        <time>2021-05-04T08:06:31.648Z</time>
      </trkpt>
      <trkpt lat="49.17587" lon="3.12512">
        <ele>116</ele>
        <time>2021-05-04T08:06:38.651Z</time>
      </trkpt>
      <trkpt lat="49.17583" lon="3.12498">
        <ele>115</ele>
        <time>2021-05-04T08:06:43.653Z</time>
      </trkpt>
      <trkpt lat="49.1758" lon="3.12497">
        <ele>113</ele>
        <time>2021-05-04T08:06:57.652Z</time>
      </trkpt>
      <trkpt lat="49.1758" lon="3.12497">
        <ele>113</ele>
        <time>2021-05-04T08:08:08.650Z</time>
      </trkpt>
      <trkpt lat="49.17558" lon="3.12508">
        <ele>112</ele>
        <time>2021-05-04T08:08:09.649Z</time>
      </trkpt>
      <trkpt lat="49.17557" lon="3.12522">
        <ele>112</ele>
        <time>2021-05-04T08:08:18.650Z</time>
      </trkpt>
      <trkpt lat="49.17557" lon="3.12524">
        <ele>112</ele>
        <time>2021-05-04T08:08:32.650Z</time>
      </trkpt>
      <trkpt lat="49.17557" lon="3.12524">
        <ele>112</ele>
        <time>2021-05-04T08:12:55.650Z</time>
      </trkpt>
      <trkpt lat="49.17574" lon="3.12501">
        <ele>113</ele>
        <time>2021-05-04T08:12:56.650Z</time>
      </trkpt>
      <trkpt lat="49.17581" lon="3.12506">
        <ele>112</ele>
        <time>2021-05-04T08:13:13.659Z</time>
      </trkpt>
      <trkpt lat="49.17581" lon="3.12506">
        <ele>112</ele>
        <time>2021-05-04T08:13:26.653Z</time>
      </trkpt>
      <trkpt lat="49.1759" lon="3.12538">
        <ele>111</ele>
        <time>2021-05-04T08:13:27.649Z</time>
      </trkpt>
      <trkpt lat="49.17592" lon="3.12552">
        <ele>111</ele>
        <time>2021-05-04T08:13:30.647Z</time>
      </trkpt>
      <trkpt lat="49.17593" lon="3.1257">
        <ele>111</ele>
        <time>2021-05-04T08:13:35.653Z</time>
      </trkpt>
      <trkpt lat="49.17595" lon="3.12588">
        <ele>111</ele>
        <time>2021-05-04T08:13:39.649Z</time>
      </trkpt>
      <trkpt lat="49.17602" lon="3.126">
        <ele>111</ele>
        <time>2021-05-04T08:13:45.645Z</time>
      </trkpt>
      <trkpt lat="49.17613" lon="3.12598">
        <ele>111</ele>
        <time>2021-05-04T08:13:49.655Z</time>
      </trkpt>
      <trkpt lat="49.17625" lon="3.12596">
        <ele>112</ele>
        <time>2021-05-04T08:13:53.649Z</time>
      </trkpt>
      <trkpt lat="49.17632" lon="3.12608">
        <ele>112</ele>
        <time>2021-05-04T08:13:57.651Z</time>
      </trkpt>
      <trkpt lat="49.1763" lon="3.12627">
        <ele>112</ele>
        <time>2021-05-04T08:14:00.651Z</time>
      </trkpt>
      <trkpt lat="49.17631" lon="3.12645">
        <ele>112</ele>
        <time>2021-05-04T08:14:03.648Z</time>
      </trkpt>
      <trkpt lat="49.17632" lon="3.12669">
        <ele>112</ele>
        <time>2021-05-04T08:14:07.650Z</time>
      </trkpt>
      <trkpt lat="49.17635" lon="3.12694">
        <ele>112</ele>
        <time>2021-05-04T08:14:11.651Z</time>
      </trkpt>
      <trkpt lat="49.17637" lon="3.1272">
        <ele>112</ele>
        <time>2021-05-04T08:14:15.652Z</time>
      </trkpt>
      <trkpt lat="49.1764" lon="3.12747">
        <ele>112</ele>
        <time>2021-05-04T08:14:19.651Z</time>
      </trkpt>
      <trkpt lat="49.17641" lon="3.12775">
        <ele>112</ele>
        <time>2021-05-04T08:14:23.651Z</time>
      </trkpt>
      <trkpt lat="49.17642" lon="3.12802">
        <ele>112</ele>
        <time>2021-05-04T08:14:27.653Z</time>
      </trkpt>
      <trkpt lat="49.17643" lon="3.12831">
        <ele>112</ele>
        <time>2021-05-04T08:14:31.651Z</time>
      </trkpt>
      <trkpt lat="49.17638" lon="3.12863">
        <ele>112</ele>
        <time>2021-05-04T08:14:35.652Z</time>
      </trkpt>
      <trkpt lat="49.17632" lon="3.129">
        <ele>112</ele>
        <time>2021-05-04T08:14:40.652Z</time>
      </trkpt>
      <trkpt lat="49.17629" lon="3.12938">
        <ele>112</ele>
        <time>2021-05-04T08:14:45.653Z</time>
      </trkpt>
      <trkpt lat="49.17636" lon="3.1297">
        <ele>111</ele>
        <time>2021-05-04T08:14:49.651Z</time>
      </trkpt>
      <trkpt lat="49.17649" lon="3.13004">
        <ele>111</ele>
        <time>2021-05-04T08:14:54.653Z</time>
      </trkpt>
      <trkpt lat="49.17666" lon="3.13028">
        <ele>111</ele>
        <time>2021-05-04T08:14:58.650Z</time>
      </trkpt>
      <trkpt lat="49.17688" lon="3.13054">
        <ele>111</ele>
        <time>2021-05-04T08:15:03.651Z</time>
      </trkpt>
      <trkpt lat="49.17708" lon="3.13082">
        <ele>111</ele>
        <time>2021-05-04T08:15:08.646Z</time>
      </trkpt>
      <trkpt lat="49.17729" lon="3.13108">
        <ele>111</ele>
        <time>2021-05-04T08:15:13.651Z</time>
      </trkpt>
      <trkpt lat="49.1775" lon="3.13137">
        <ele>111</ele>
        <time>2021-05-04T08:15:18.650Z</time>
      </trkpt>
      <trkpt lat="49.17769" lon="3.1316">
        <ele>111</ele>
        <time>2021-05-04T08:15:23.646Z</time>
      </trkpt>
      <trkpt lat="49.17792" lon="3.13188">
        <ele>111</ele>
        <time>2021-05-04T08:15:29.648Z</time>
      </trkpt>
      <trkpt lat="49.17807" lon="3.132">
        <ele>111</ele>
        <time>2021-05-04T08:15:34.649Z</time>
      </trkpt>
      <trkpt lat="49.17821" lon="3.13208">
        <ele>111</ele>
        <time>2021-05-04T08:15:38.648Z</time>
      </trkpt>
      <trkpt lat="49.17836" lon="3.13213">
        <ele>112</ele>
        <time>2021-05-04T08:15:42.646Z</time>
      </trkpt>
      <trkpt lat="49.17852" lon="3.13218">
        <ele>112</ele>
        <time>2021-05-04T08:15:45.648Z</time>
      </trkpt>
      <trkpt lat="49.17873" lon="3.13222">
        <ele>112</ele>
        <time>2021-05-04T08:15:49.652Z</time>
      </trkpt>
      <trkpt lat="49.17896" lon="3.13227">
        <ele>112</ele>
        <time>2021-05-04T08:15:53.647Z</time>
      </trkpt>
      <trkpt lat="49.17925" lon="3.13236">
        <ele>112</ele>
        <time>2021-05-04T08:15:58.647Z</time>
      </trkpt>
      <trkpt lat="49.17952" lon="3.13253">
        <ele>113</ele>
        <time>2021-05-04T08:16:03.649Z</time>
      </trkpt>
      <trkpt lat="49.17977" lon="3.13274">
        <ele>113</ele>
        <time>2021-05-04T08:16:08.648Z</time>
      </trkpt>
      <trkpt lat="49.18001" lon="3.13298">
        <ele>113</ele>
        <time>2021-05-04T08:16:13.649Z</time>
      </trkpt>
      <trkpt lat="49.18022" lon="3.1333">
        <ele>113</ele>
        <time>2021-05-04T08:16:18.647Z</time>
      </trkpt>
      <trkpt lat="49.18139" lon="3.13522">
        <ele>113</ele>
        <time>2021-05-04T08:16:48.765Z</time>
      </trkpt>
      <trkpt lat="49.1816" lon="3.13549">
        <ele>113</ele>
        <time>2021-05-04T08:16:53.647Z</time>
      </trkpt>
      <trkpt lat="49.18171" lon="3.13584">
        <ele>113</ele>
        <time>2021-05-04T08:16:57.646Z</time>
      </trkpt>
      <trkpt lat="49.1817" lon="3.13621">
        <ele>113</ele>
        <time>2021-05-04T08:17:02.651Z</time>
      </trkpt>
      <trkpt lat="49.1817" lon="3.1366">
        <ele>113</ele>
        <time>2021-05-04T08:17:07.647Z</time>
      </trkpt>
      <trkpt lat="49.18173" lon="3.13699">
        <ele>113</ele>
        <time>2021-05-04T08:17:12.649Z</time>
      </trkpt>
      <trkpt lat="49.18173" lon="3.13732">
        <ele>112</ele>
        <time>2021-05-04T08:17:17.650Z</time>
      </trkpt>
      <trkpt lat="49.18175" lon="3.13761">
        <ele>112</ele>
        <time>2021-05-04T08:17:21.647Z</time>
      </trkpt>
      <trkpt lat="49.18178" lon="3.13793">
        <ele>112</ele>
        <time>2021-05-04T08:17:25.644Z</time>
      </trkpt>
      <trkpt lat="49.18183" lon="3.13824">
        <ele>112</ele>
        <time>2021-05-04T08:17:29.649Z</time>
      </trkpt>
      <trkpt lat="49.18195" lon="3.13862">
        <ele>111</ele>
        <time>2021-05-04T08:17:34.649Z</time>
      </trkpt>
      <trkpt lat="49.1821" lon="3.13894">
        <ele>111</ele>
        <time>2021-05-04T08:17:39.649Z</time>
      </trkpt>
      <trkpt lat="49.18227" lon="3.13921">
        <ele>112</ele>
        <time>2021-05-04T08:17:44.650Z</time>
      </trkpt>
      <trkpt lat="49.18241" lon="3.13946">
        <ele>111</ele>
        <time>2021-05-04T08:17:48.650Z</time>
      </trkpt>
      <trkpt lat="49.18257" lon="3.13972">
        <ele>111</ele>
        <time>2021-05-04T08:17:52.647Z</time>
      </trkpt>
      <trkpt lat="49.18274" lon="3.14006">
        <ele>111</ele>
        <time>2021-05-04T08:17:57.651Z</time>
      </trkpt>
      <trkpt lat="49.18289" lon="3.14035">
        <ele>111</ele>
        <time>2021-05-04T08:18:01.650Z</time>
      </trkpt>
      <trkpt lat="49.18307" lon="3.14069">
        <ele>111</ele>
        <time>2021-05-04T08:18:06.647Z</time>
      </trkpt>
      <trkpt lat="49.18325" lon="3.14102">
        <ele>112</ele>
        <time>2021-05-04T08:18:11.652Z</time>
      </trkpt>
      <trkpt lat="49.18341" lon="3.14136">
        <ele>112</ele>
        <time>2021-05-04T08:18:16.652Z</time>
      </trkpt>
      <trkpt lat="49.18359" lon="3.1417">
        <ele>112</ele>
        <time>2021-05-04T08:18:21.652Z</time>
      </trkpt>
      <trkpt lat="49.18376" lon="3.14204">
        <ele>112</ele>
        <time>2021-05-04T08:18:26.647Z</time>
      </trkpt>
      <trkpt lat="49.18393" lon="3.14236">
        <ele>112</ele>
        <time>2021-05-04T08:18:31.648Z</time>
      </trkpt>
      <trkpt lat="49.1841" lon="3.1427">
        <ele>112</ele>
        <time>2021-05-04T08:18:36.647Z</time>
      </trkpt>
      <trkpt lat="49.18426" lon="3.14299">
        <ele>113</ele>
        <time>2021-05-04T08:18:41.649Z</time>
      </trkpt>
      <trkpt lat="49.18441" lon="3.14327">
        <ele>113</ele>
        <time>2021-05-04T08:18:46.649Z</time>
      </trkpt>
      <trkpt lat="49.18456" lon="3.14352">
        <ele>113</ele>
        <time>2021-05-04T08:18:50.645Z</time>
      </trkpt>
      <trkpt lat="49.18469" lon="3.14383">
        <ele>113</ele>
        <time>2021-05-04T08:18:55.650Z</time>
      </trkpt>
      <trkpt lat="49.18482" lon="3.14416">
        <ele>112</ele>
        <time>2021-05-04T08:19:00.651Z</time>
      </trkpt>
      <trkpt lat="49.18489" lon="3.14446">
        <ele>113</ele>
        <time>2021-05-04T08:19:04.651Z</time>
      </trkpt>
      <trkpt lat="49.18499" lon="3.1448">
        <ele>113</ele>
        <time>2021-05-04T08:19:09.655Z</time>
      </trkpt>
      <trkpt lat="49.18511" lon="3.1451">
        <ele>113</ele>
        <time>2021-05-04T08:19:14.648Z</time>
      </trkpt>
      <trkpt lat="49.18527" lon="3.14534">
        <ele>113</ele>
        <time>2021-05-04T08:19:18.649Z</time>
      </trkpt>
      <trkpt lat="49.18544" lon="3.14554">
        <ele>113</ele>
        <time>2021-05-04T08:19:22.650Z</time>
      </trkpt>
      <trkpt lat="49.18564" lon="3.14573">
        <ele>113</ele>
        <time>2021-05-04T08:19:27.652Z</time>
      </trkpt>
      <trkpt lat="49.18586" lon="3.14588">
        <ele>113</ele>
        <time>2021-05-04T08:19:32.649Z</time>
      </trkpt>
      <trkpt lat="49.18607" lon="3.14602">
        <ele>113</ele>
        <time>2021-05-04T08:19:37.647Z</time>
      </trkpt>
      <trkpt lat="49.18624" lon="3.14617">
        <ele>114</ele>
        <time>2021-05-04T08:19:42.646Z</time>
      </trkpt>
      <trkpt lat="49.18644" lon="3.14635">
        <ele>114</ele>
        <time>2021-05-04T08:19:47.645Z</time>
      </trkpt>
      <trkpt lat="49.18661" lon="3.14654">
        <ele>114</ele>
        <time>2021-05-04T08:19:51.653Z</time>
      </trkpt>
      <trkpt lat="49.18679" lon="3.14674">
        <ele>114</ele>
        <time>2021-05-04T08:19:55.650Z</time>
      </trkpt>
      <trkpt lat="49.18699" lon="3.14703">
        <ele>114</ele>
        <time>2021-05-04T08:20:00.647Z</time>
      </trkpt>
      <trkpt lat="49.18716" lon="3.14732">
        <ele>114</ele>
        <time>2021-05-04T08:20:05.653Z</time>
      </trkpt>
      <trkpt lat="49.18734" lon="3.14761">
        <ele>114</ele>
        <time>2021-05-04T08:20:10.649Z</time>
      </trkpt>
      <trkpt lat="49.18754" lon="3.1479">
        <ele>113</ele>
        <time>2021-05-04T08:20:15.650Z</time>
      </trkpt>
      <trkpt lat="49.18772" lon="3.14817">
        <ele>113</ele>
        <time>2021-05-04T08:20:20.647Z</time>
      </trkpt>
      <trkpt lat="49.18788" lon="3.1484">
        <ele>112</ele>
        <time>2021-05-04T08:20:24.651Z</time>
      </trkpt>
      <trkpt lat="49.18805" lon="3.14865">
        <ele>112</ele>
        <time>2021-05-04T08:20:28.650Z</time>
      </trkpt>
      <trkpt lat="49.18824" lon="3.14894">
        <ele>111</ele>
        <time>2021-05-04T08:20:33.649Z</time>
      </trkpt>
      <trkpt lat="49.18844" lon="3.14925">
        <ele>111</ele>
        <time>2021-05-04T08:20:38.650Z</time>
      </trkpt>
      <trkpt lat="49.18862" lon="3.14955">
        <ele>111</ele>
        <time>2021-05-04T08:20:43.646Z</time>
      </trkpt>
      <trkpt lat="49.18881" lon="3.14986">
        <ele>110</ele>
        <time>2021-05-04T08:20:48.649Z</time>
      </trkpt>
      <trkpt lat="49.18898" lon="3.1501">
        <ele>110</ele>
        <time>2021-05-04T08:20:52.649Z</time>
      </trkpt>
      <trkpt lat="49.18919" lon="3.1504">
        <ele>110</ele>
        <time>2021-05-04T08:20:57.666Z</time>
      </trkpt>
      <trkpt lat="49.1894" lon="3.15059">
        <ele>111</ele>
        <time>2021-05-04T08:21:01.649Z</time>
      </trkpt>
      <trkpt lat="49.18962" lon="3.15086">
        <ele>111</ele>
        <time>2021-05-04T08:21:06.651Z</time>
      </trkpt>
      <trkpt lat="49.18983" lon="3.15111">
        <ele>111</ele>
        <time>2021-05-04T08:21:11.661Z</time>
      </trkpt>
      <trkpt lat="49.19001" lon="3.15135">
        <ele>111</ele>
        <time>2021-05-04T08:21:15.648Z</time>
      </trkpt>
      <trkpt lat="49.19023" lon="3.15162">
        <ele>112</ele>
        <time>2021-05-04T08:21:20.654Z</time>
      </trkpt>
      <trkpt lat="49.19043" lon="3.15194">
        <ele>112</ele>
        <time>2021-05-04T08:21:25.648Z</time>
      </trkpt>
      <trkpt lat="49.19063" lon="3.1522">
        <ele>112</ele>
        <time>2021-05-04T08:21:29.660Z</time>
      </trkpt>
      <trkpt lat="49.19088" lon="3.15251">
        <ele>113</ele>
        <time>2021-05-04T08:21:34.649Z</time>
      </trkpt>
      <trkpt lat="49.19109" lon="3.15278">
        <ele>113</ele>
        <time>2021-05-04T08:21:39.650Z</time>
      </trkpt>
      <trkpt lat="49.1913" lon="3.15303">
        <ele>113</ele>
        <time>2021-05-04T08:21:43.647Z</time>
      </trkpt>
      <trkpt lat="49.1915" lon="3.15331">
        <ele>114</ele>
        <time>2021-05-04T08:21:48.654Z</time>
      </trkpt>
      <trkpt lat="49.19171" lon="3.15357">
        <ele>114</ele>
        <time>2021-05-04T08:21:53.652Z</time>
      </trkpt>
      <trkpt lat="49.19194" lon="3.1538">
        <ele>115</ele>
        <time>2021-05-04T08:21:58.650Z</time>
      </trkpt>
      <trkpt lat="49.19216" lon="3.15398">
        <ele>115</ele>
        <time>2021-05-04T08:22:02.650Z</time>
      </trkpt>
      <trkpt lat="49.19243" lon="3.1542">
        <ele>116</ele>
        <time>2021-05-04T08:22:07.650Z</time>
      </trkpt>
      <trkpt lat="49.19268" lon="3.1544">
        <ele>116</ele>
        <time>2021-05-04T08:22:12.648Z</time>
      </trkpt>
      <trkpt lat="49.19291" lon="3.15459">
        <ele>117</ele>
        <time>2021-05-04T08:22:17.661Z</time>
      </trkpt>
      <trkpt lat="49.19314" lon="3.15474">
        <ele>117</ele>
        <time>2021-05-04T08:22:21.648Z</time>
      </trkpt>
      <trkpt lat="49.19338" lon="3.15495">
        <ele>118</ele>
        <time>2021-05-04T08:22:26.651Z</time>
      </trkpt>
      <trkpt lat="49.1936" lon="3.15511">
        <ele>118</ele>
        <time>2021-05-04T08:22:30.651Z</time>
      </trkpt>
      <trkpt lat="49.19382" lon="3.1553">
        <ele>118</ele>
        <time>2021-05-04T08:22:35.651Z</time>
      </trkpt>
      <trkpt lat="49.19402" lon="3.15546">
        <ele>118</ele>
        <time>2021-05-04T08:22:40.662Z</time>
      </trkpt>
      <trkpt lat="49.19422" lon="3.15562">
        <ele>117</ele>
        <time>2021-05-04T08:22:45.653Z</time>
      </trkpt>
      <trkpt lat="49.19439" lon="3.15576">
        <ele>117</ele>
        <time>2021-05-04T08:22:49.653Z</time>
      </trkpt>
      <trkpt lat="49.19451" lon="3.156">
        <ele>117</ele>
        <time>2021-05-04T08:22:53.650Z</time>
      </trkpt>
      <trkpt lat="49.19455" lon="3.15633">
        <ele>117</ele>
        <time>2021-05-04T08:22:57.650Z</time>
      </trkpt>
      <trkpt lat="49.19457" lon="3.15666">
        <ele>116</ele>
        <time>2021-05-04T08:23:01.651Z</time>
      </trkpt>
      <trkpt lat="49.19459" lon="3.15706">
        <ele>116</ele>
        <time>2021-05-04T08:23:06.651Z</time>
      </trkpt>
      <trkpt lat="49.19464" lon="3.15748">
        <ele>115</ele>
        <time>2021-05-04T08:23:11.649Z</time>
      </trkpt>
      <trkpt lat="49.19468" lon="3.15786">
        <ele>115</ele>
        <time>2021-05-04T08:23:15.650Z</time>
      </trkpt>
      <trkpt lat="49.19471" lon="3.15828">
        <ele>114</ele>
        <time>2021-05-04T08:23:20.664Z</time>
      </trkpt>
      <trkpt lat="49.19469" lon="3.15871">
        <ele>114</ele>
        <time>2021-05-04T08:23:25.650Z</time>
      </trkpt>
      <trkpt lat="49.19471" lon="3.15908">
        <ele>113</ele>
        <time>2021-05-04T08:23:29.650Z</time>
      </trkpt>
      <trkpt lat="49.19468" lon="3.15947">
        <ele>113</ele>
        <time>2021-05-04T08:23:35.650Z</time>
      </trkpt>
      <trkpt lat="49.19461" lon="3.15982">
        <ele>113</ele>
        <time>2021-05-04T08:23:40.656Z</time>
      </trkpt>
      <trkpt lat="49.19456" lon="3.16015">
        <ele>114</ele>
        <time>2021-05-04T08:23:45.646Z</time>
      </trkpt>
      <trkpt lat="49.19447" lon="3.16042">
        <ele>114</ele>
        <time>2021-05-04T08:23:50.649Z</time>
      </trkpt>
      <trkpt lat="49.19438" lon="3.16069">
        <ele>114</ele>
        <time>2021-05-04T08:23:54.654Z</time>
      </trkpt>
      <trkpt lat="49.19429" lon="3.16098">
        <ele>114</ele>
        <time>2021-05-04T08:23:58.654Z</time>
      </trkpt>
      <trkpt lat="49.19423" lon="3.1613">
        <ele>114</ele>
        <time>2021-05-04T08:24:02.678Z</time>
      </trkpt>
      <trkpt lat="49.19421" lon="3.16172">
        <ele>114</ele>
        <time>2021-05-04T08:24:07.649Z</time>
      </trkpt>
      <trkpt lat="49.19422" lon="3.16217">
        <ele>114</ele>
        <time>2021-05-04T08:24:12.651Z</time>
      </trkpt>
      <trkpt lat="49.19421" lon="3.16256">
        <ele>114</ele>
        <time>2021-05-04T08:24:17.650Z</time>
      </trkpt>
      <trkpt lat="49.19416" lon="3.16294">
        <ele>114</ele>
        <time>2021-05-04T08:24:23.651Z</time>
      </trkpt>
      <trkpt lat="49.19424" lon="3.16325">
        <ele>113</ele>
        <time>2021-05-04T08:24:28.648Z</time>
      </trkpt>
      <trkpt lat="49.19436" lon="3.16348">
        <ele>113</ele>
        <time>2021-05-04T08:24:32.655Z</time>
      </trkpt>
      <trkpt lat="49.19454" lon="3.16369">
        <ele>113</ele>
        <time>2021-05-04T08:24:37.651Z</time>
      </trkpt>
      <trkpt lat="49.19469" lon="3.16378">
        <ele>112</ele>
        <time>2021-05-04T08:24:43.650Z</time>
      </trkpt>
      <trkpt lat="49.19469" lon="3.16377">
        <ele>112</ele>
        <time>2021-05-04T08:24:56.650Z</time>
      </trkpt>
      <trkpt lat="49.19469" lon="3.16377">
        <ele>112</ele>
        <time>2021-05-04T08:25:09.649Z</time>
      </trkpt>
      <trkpt lat="49.19493" lon="3.16386">
        <ele>112</ele>
        <time>2021-05-04T08:25:10.648Z</time>
      </trkpt>
      <trkpt lat="49.19495" lon="3.16386">
        <ele>112</ele>
        <time>2021-05-04T08:25:24.761Z</time>
      </trkpt>
      <trkpt lat="49.19495" lon="3.16386">
        <ele>112</ele>
        <time>2021-05-04T08:25:50.656Z</time>
      </trkpt>
      <trkpt lat="49.1952" lon="3.16392">
        <ele>113</ele>
        <time>2021-05-04T08:25:51.663Z</time>
      </trkpt>
      <trkpt lat="49.19529" lon="3.16396">
        <ele>113</ele>
        <time>2021-05-04T08:25:54.654Z</time>
      </trkpt>
      <trkpt lat="49.19529" lon="3.16414">
        <ele>113</ele>
        <time>2021-05-04T08:25:59.656Z</time>
      </trkpt>
      <trkpt lat="49.19533" lon="3.16429">
        <ele>113</ele>
        <time>2021-05-04T08:26:03.655Z</time>
      </trkpt>
      <trkpt lat="49.19541" lon="3.16436">
        <ele>112</ele>
        <time>2021-05-04T08:26:08.653Z</time>
      </trkpt>
      <trkpt lat="49.19541" lon="3.16443">
        <ele>112</ele>
        <time>2021-05-04T08:26:26.648Z</time>
      </trkpt>
      <trkpt lat="49.19541" lon="3.16443">
        <ele>112</ele>
        <time>2021-05-04T08:27:00.654Z</time>
      </trkpt>
      <trkpt lat="49.19517" lon="3.16449">
        <ele>114</ele>
        <time>2021-05-04T08:27:01.657Z</time>
      </trkpt>
      <trkpt lat="49.19506" lon="3.1645">
        <ele>115</ele>
        <time>2021-05-04T08:27:04.654Z</time>
      </trkpt>
      <trkpt lat="49.1949" lon="3.16452">
        <ele>115</ele>
        <time>2021-05-04T08:27:08.656Z</time>
      </trkpt>
      <trkpt lat="49.19476" lon="3.16451">
        <ele>114</ele>
        <time>2021-05-04T08:27:11.651Z</time>
      </trkpt>
      <trkpt lat="49.19457" lon="3.16452">
        <ele>114</ele>
        <time>2021-05-04T08:27:15.659Z</time>
      </trkpt>
      <trkpt lat="49.19435" lon="3.16454">
        <ele>114</ele>
        <time>2021-05-04T08:27:20.653Z</time>
      </trkpt>
      <trkpt lat="49.19413" lon="3.16454">
        <ele>114</ele>
        <time>2021-05-04T08:27:25.654Z</time>
      </trkpt>
      <trkpt lat="49.19392" lon="3.16451">
        <ele>114</ele>
        <time>2021-05-04T08:27:30.654Z</time>
      </trkpt>
      <trkpt lat="49.19375" lon="3.16447">
        <ele>113</ele>
        <time>2021-05-04T08:27:34.650Z</time>
      </trkpt>
      <trkpt lat="49.19363" lon="3.16431">
        <ele>113</ele>
        <time>2021-05-04T08:27:40.652Z</time>
      </trkpt>
      <trkpt lat="49.19358" lon="3.16414">
        <ele>113</ele>
        <time>2021-05-04T08:27:45.655Z</time>
      </trkpt>
      <trkpt lat="49.19357" lon="3.16414">
        <ele>112</ele>
        <time>2021-05-04T08:27:58.652Z</time>
      </trkpt>
      <trkpt lat="49.19357" lon="3.16414">
        <ele>112</ele>
        <time>2021-05-04T08:28:21.652Z</time>
      </trkpt>
      <trkpt lat="49.19367" lon="3.16445">
        <ele>113</ele>
        <time>2021-05-04T08:28:22.654Z</time>
      </trkpt>
      <trkpt lat="49.19376" lon="3.16451">
        <ele>114</ele>
        <time>2021-05-04T08:28:30.655Z</time>
      </trkpt>
      <trkpt lat="49.19386" lon="3.16452">
        <ele>114</ele>
        <time>2021-05-04T08:28:33.654Z</time>
      </trkpt>
      <trkpt lat="49.19398" lon="3.16457">
        <ele>114</ele>
        <time>2021-05-04T08:28:36.656Z</time>
      </trkpt>
      <trkpt lat="49.19411" lon="3.16459">
        <ele>114</ele>
        <time>2021-05-04T08:28:39.655Z</time>
      </trkpt>
      <trkpt lat="49.19431" lon="3.16463">
        <ele>114</ele>
        <time>2021-05-04T08:28:44.655Z</time>
      </trkpt>
      <trkpt lat="49.19448" lon="3.1646">
        <ele>114</ele>
        <time>2021-05-04T08:28:48.657Z</time>
      </trkpt>
      <trkpt lat="49.19469" lon="3.16459">
        <ele>114</ele>
        <time>2021-05-04T08:28:53.651Z</time>
      </trkpt>
      <trkpt lat="49.19489" lon="3.16455">
        <ele>114</ele>
        <time>2021-05-04T08:28:58.656Z</time>
      </trkpt>
      <trkpt lat="49.19506" lon="3.16451">
        <ele>114</ele>
        <time>2021-05-04T08:29:03.653Z</time>
      </trkpt>
      <trkpt lat="49.19523" lon="3.16453">
        <ele>114</ele>
        <time>2021-05-04T08:29:08.656Z</time>
      </trkpt>
      <trkpt lat="49.19536" lon="3.16451">
        <ele>115</ele>
        <time>2021-05-04T08:29:12.654Z</time>
      </trkpt>
      <trkpt lat="49.19544" lon="3.16439">
        <ele>115</ele>
        <time>2021-05-04T08:29:17.664Z</time>
      </trkpt>
      <trkpt lat="49.19545" lon="3.16424">
        <ele>116</ele>
        <time>2021-05-04T08:29:32.655Z</time>
      </trkpt>
      <trkpt lat="49.19544" lon="3.16408">
        <ele>115</ele>
        <time>2021-05-04T08:29:36.648Z</time>
      </trkpt>
      <trkpt lat="49.19544" lon="3.16423">
        <ele>116</ele>
        <time>2021-05-04T08:29:50.657Z</time>
      </trkpt>
      <trkpt lat="49.19553" lon="3.16426">
        <ele>115</ele>
        <time>2021-05-04T08:30:05.645Z</time>
      </trkpt>
      <trkpt lat="49.19555" lon="3.16427">
        <ele>115</ele>
        <time>2021-05-04T08:30:24.650Z</time>
      </trkpt>
      <trkpt lat="49.19555" lon="3.16427">
        <ele>115</ele>
        <time>2021-05-04T08:31:35.652Z</time>
      </trkpt>
      <trkpt lat="49.19533" lon="3.1642">
        <ele>112</ele>
        <time>2021-05-04T08:31:36.653Z</time>
      </trkpt>
      <trkpt lat="49.19526" lon="3.16408">
        <ele>111</ele>
        <time>2021-05-04T08:31:42.650Z</time>
      </trkpt>
      <trkpt lat="49.19516" lon="3.16406">
        <ele>111</ele>
        <time>2021-05-04T08:31:48.655Z</time>
      </trkpt>
      <trkpt lat="49.19506" lon="3.16407">
        <ele>111</ele>
        <time>2021-05-04T08:31:57.657Z</time>
      </trkpt>
      <trkpt lat="49.19518" lon="3.16406">
        <ele>109</ele>
        <time>2021-05-04T08:32:33.675Z</time>
      </trkpt>
      <trkpt lat="49.19509" lon="3.16407">
        <ele>109</ele>
        <time>2021-05-04T08:32:39.704Z</time>
      </trkpt>
      <trkpt lat="49.19505" lon="3.16409">
        <ele>109</ele>
        <time>2021-05-04T08:32:59.651Z</time>
      </trkpt>
      <trkpt lat="49.19505" lon="3.16409">
        <ele>109</ele>
        <time>2021-05-04T08:35:28.654Z</time>
      </trkpt>
      <trkpt lat="49.19528" lon="3.16409">
        <ele>114</ele>
        <time>2021-05-04T08:35:29.654Z</time>
      </trkpt>
      <trkpt lat="49.19529" lon="3.16393">
        <ele>114</ele>
        <time>2021-05-04T08:35:33.653Z</time>
      </trkpt>
      <trkpt lat="49.1952" lon="3.16387">
        <ele>114</ele>
        <time>2021-05-04T08:35:37.672Z</time>
      </trkpt>
      <trkpt lat="49.19512" lon="3.16385">
        <ele>114</ele>
        <time>2021-05-04T08:35:54.658Z</time>
      </trkpt>
      <trkpt lat="49.19512" lon="3.16385">
        <ele>114</ele>
        <time>2021-05-04T08:36:14.659Z</time>
      </trkpt>
      <trkpt lat="49.19488" lon="3.16384">
        <ele>113</ele>
        <time>2021-05-04T08:36:15.653Z</time>
      </trkpt>
      <trkpt lat="49.19477" lon="3.16381">
        <ele>113</ele>
        <time>2021-05-04T08:36:18.655Z</time>
      </trkpt>
      <trkpt lat="49.1946" lon="3.16374">
        <ele>113</ele>
        <time>2021-05-04T08:36:22.653Z</time>
      </trkpt>
      <trkpt lat="49.19446" lon="3.16362">
        <ele>113</ele>
        <time>2021-05-04T08:36:26.653Z</time>
      </trkpt>
      <trkpt lat="49.19433" lon="3.16344">
        <ele>113</ele>
        <time>2021-05-04T08:36:30.651Z</time>
      </trkpt>
      <trkpt lat="49.19423" lon="3.16321">
        <ele>113</ele>
        <time>2021-05-04T08:36:34.653Z</time>
      </trkpt>
      <trkpt lat="49.19416" lon="3.1629">
        <ele>113</ele>
        <time>2021-05-04T08:36:39.644Z</time>
      </trkpt>
      <trkpt lat="49.19418" lon="3.16262">
        <ele>113</ele>
        <time>2021-05-04T08:36:44.653Z</time>
      </trkpt>
      <trkpt lat="49.19423" lon="3.16237">
        <ele>113</ele>
        <time>2021-05-04T08:36:49.655Z</time>
      </trkpt>
      <trkpt lat="49.19424" lon="3.16211">
        <ele>113</ele>
        <time>2021-05-04T08:36:53.654Z</time>
      </trkpt>
      <trkpt lat="49.19422" lon="3.16182">
        <ele>113</ele>
        <time>2021-05-04T08:36:57.649Z</time>
      </trkpt>
      <trkpt lat="49.19422" lon="3.1615">
        <ele>113</ele>
        <time>2021-05-04T08:37:01.652Z</time>
      </trkpt>
      <trkpt lat="49.19425" lon="3.16119">
        <ele>113</ele>
        <time>2021-05-04T08:37:05.652Z</time>
      </trkpt>
      <trkpt lat="49.19433" lon="3.16088">
        <ele>113</ele>
        <time>2021-05-04T08:37:09.654Z</time>
      </trkpt>
      <trkpt lat="49.1944" lon="3.16053">
        <ele>113</ele>
        <time>2021-05-04T08:37:14.659Z</time>
      </trkpt>
      <trkpt lat="49.19449" lon="3.16026">
        <ele>113</ele>
        <time>2021-05-04T08:37:20.651Z</time>
      </trkpt>
      <trkpt lat="49.19453" lon="3.15997">
        <ele>113</ele>
        <time>2021-05-04T08:37:25.648Z</time>
      </trkpt>
      <trkpt lat="49.19457" lon="3.15975">
        <ele>113</ele>
        <time>2021-05-04T08:37:28.651Z</time>
      </trkpt>
      <trkpt lat="49.19464" lon="3.15947">
        <ele>112</ele>
        <time>2021-05-04T08:37:32.653Z</time>
      </trkpt>
      <trkpt lat="49.19471" lon="3.15922">
        <ele>112</ele>
        <time>2021-05-04T08:37:39.652Z</time>
      </trkpt>
      <trkpt lat="49.19471" lon="3.15921">
        <ele>111</ele>
        <time>2021-05-04T08:37:49.662Z</time>
      </trkpt>
      <trkpt lat="49.19471" lon="3.15921">
        <ele>111</ele>
        <time>2021-05-04T08:38:35.649Z</time>
      </trkpt>
      <trkpt lat="49.1947" lon="3.15882">
        <ele>111</ele>
        <time>2021-05-04T08:38:36.651Z</time>
      </trkpt>
      <trkpt lat="49.1947" lon="3.15865">
        <ele>110</ele>
        <time>2021-05-04T08:38:38.651Z</time>
      </trkpt>
      <trkpt lat="49.19472" lon="3.1584">
        <ele>110</ele>
        <time>2021-05-04T08:38:41.648Z</time>
      </trkpt>
      <trkpt lat="49.19471" lon="3.15808">
        <ele>110</ele>
        <time>2021-05-04T08:38:45.647Z</time>
      </trkpt>
      <trkpt lat="49.19468" lon="3.15772">
        <ele>110</ele>
        <time>2021-05-04T08:38:50.646Z</time>
      </trkpt>
      <trkpt lat="49.19465" lon="3.15735">
        <ele>110</ele>
        <time>2021-05-04T08:38:55.661Z</time>
      </trkpt>
      <trkpt lat="49.1946" lon="3.15697">
        <ele>110</ele>
        <time>2021-05-04T08:39:00.668Z</time>
      </trkpt>
      <trkpt lat="49.19457" lon="3.15664">
        <ele>110</ele>
        <time>2021-05-04T08:39:04.654Z</time>
      </trkpt>
      <trkpt lat="49.19452" lon="3.15632">
        <ele>110</ele>
        <time>2021-05-04T08:39:08.653Z</time>
      </trkpt>
      <trkpt lat="49.19445" lon="3.15593">
        <ele>110</ele>
        <time>2021-05-04T08:39:13.649Z</time>
      </trkpt>
      <trkpt lat="49.19426" lon="3.15566">
        <ele>110</ele>
        <time>2021-05-04T08:39:18.650Z</time>
      </trkpt>
      <trkpt lat="49.19403" lon="3.15548">
        <ele>110</ele>
        <time>2021-05-04T08:39:23.654Z</time>
      </trkpt>
      <trkpt lat="49.19383" lon="3.15532">
        <ele>111</ele>
        <time>2021-05-04T08:39:27.651Z</time>
      </trkpt>
      <trkpt lat="49.19361" lon="3.15514">
        <ele>111</ele>
        <time>2021-05-04T08:39:32.656Z</time>
      </trkpt>
      <trkpt lat="49.1934" lon="3.15499">
        <ele>112</ele>
        <time>2021-05-04T08:39:37.655Z</time>
      </trkpt>
      <trkpt lat="49.19321" lon="3.15483">
        <ele>112</ele>
        <time>2021-05-04T08:39:41.664Z</time>
      </trkpt>
      <trkpt lat="49.19298" lon="3.15465">
        <ele>112</ele>
        <time>2021-05-04T08:39:46.656Z</time>
      </trkpt>
      <trkpt lat="49.19276" lon="3.15446">
        <ele>112</ele>
        <time>2021-05-04T08:39:51.690Z</time>
      </trkpt>
      <trkpt lat="49.19252" lon="3.15427">
        <ele>112</ele>
        <time>2021-05-04T08:39:56.654Z</time>
      </trkpt>
      <trkpt lat="49.1923" lon="3.15407">
        <ele>112</ele>
        <time>2021-05-04T08:40:01.651Z</time>
      </trkpt>
      <trkpt lat="49.19206" lon="3.15388">
        <ele>112</ele>
        <time>2021-05-04T08:40:06.652Z</time>
      </trkpt>
      <trkpt lat="49.19181" lon="3.1537">
        <ele>112</ele>
        <time>2021-05-04T08:40:11.647Z</time>
      </trkpt>
      <trkpt lat="49.19159" lon="3.15347">
        <ele>112</ele>
        <time>2021-05-04T08:40:16.656Z</time>
      </trkpt>
      <trkpt lat="49.19139" lon="3.15323">
        <ele>112</ele>
        <time>2021-05-04T08:40:21.665Z</time>
      </trkpt>
      <trkpt lat="49.19117" lon="3.1529">
        <ele>112</ele>
        <time>2021-05-04T08:40:27.942Z</time>
      </trkpt>
      <trkpt lat="49.19098" lon="3.15264">
        <ele>111</ele>
        <time>2021-05-04T08:40:32.654Z</time>
      </trkpt>
      <trkpt lat="49.19081" lon="3.15242">
        <ele>111</ele>
        <time>2021-05-04T08:40:36.661Z</time>
      </trkpt>
      <trkpt lat="49.1906" lon="3.15217">
        <ele>111</ele>
        <time>2021-05-04T08:40:41.652Z</time>
      </trkpt>
      <trkpt lat="49.19041" lon="3.15191">
        <ele>110</ele>
        <time>2021-05-04T08:40:46.649Z</time>
      </trkpt>
      <trkpt lat="49.19025" lon="3.15162">
        <ele>110</ele>
        <time>2021-05-04T08:40:51.652Z</time>
      </trkpt>
      <trkpt lat="49.19005" lon="3.15136">
        <ele>110</ele>
        <time>2021-05-04T08:40:56.650Z</time>
      </trkpt>
      <trkpt lat="49.18985" lon="3.15111">
        <ele>109</ele>
        <time>2021-05-04T08:41:01.658Z</time>
      </trkpt>
      <trkpt lat="49.18964" lon="3.15087">
        <ele>109</ele>
        <time>2021-05-04T08:41:06.652Z</time>
      </trkpt>
      <trkpt lat="49.18946" lon="3.15067">
        <ele>109</ele>
        <time>2021-05-04T08:41:10.653Z</time>
      </trkpt>
      <trkpt lat="49.18924" lon="3.15045">
        <ele>109</ele>
        <time>2021-05-04T08:41:15.649Z</time>
      </trkpt>
      <trkpt lat="49.18903" lon="3.1502">
        <ele>110</ele>
        <time>2021-05-04T08:41:20.692Z</time>
      </trkpt>
      <trkpt lat="49.18885" lon="3.14992">
        <ele>110</ele>
        <time>2021-05-04T08:41:25.657Z</time>
      </trkpt>
      <trkpt lat="49.18869" lon="3.14964">
        <ele>110</ele>
        <time>2021-05-04T08:41:30.695Z</time>
      </trkpt>
      <trkpt lat="49.18852" lon="3.14935">
        <ele>111</ele>
        <time>2021-05-04T08:41:35.652Z</time>
      </trkpt>
      <trkpt lat="49.18834" lon="3.14907">
        <ele>111</ele>
        <time>2021-05-04T08:41:40.652Z</time>
      </trkpt>
      <trkpt lat="49.18817" lon="3.14882">
        <ele>111</ele>
        <time>2021-05-04T08:41:45.650Z</time>
      </trkpt>
      <trkpt lat="49.188" lon="3.14856">
        <ele>111</ele>
        <time>2021-05-04T08:41:50.649Z</time>
      </trkpt>
      <trkpt lat="49.18783" lon="3.14831">
        <ele>111</ele>
        <time>2021-05-04T08:41:55.655Z</time>
      </trkpt>
      <trkpt lat="49.18766" lon="3.14807">
        <ele>111</ele>
        <time>2021-05-04T08:42:00.651Z</time>
      </trkpt>
      <trkpt lat="49.18752" lon="3.14785">
        <ele>111</ele>
        <time>2021-05-04T08:42:04.650Z</time>
      </trkpt>
      <trkpt lat="49.18736" lon="3.1476">
        <ele>111</ele>
        <time>2021-05-04T08:42:09.656Z</time>
      </trkpt>
      <trkpt lat="49.18722" lon="3.14739">
        <ele>111</ele>
        <time>2021-05-04T08:42:13.652Z</time>
      </trkpt>
      <trkpt lat="49.18708" lon="3.14718">
        <ele>111</ele>
        <time>2021-05-04T08:42:17.665Z</time>
      </trkpt>
      <trkpt lat="49.1869" lon="3.14693">
        <ele>112</ele>
        <time>2021-05-04T08:42:22.658Z</time>
      </trkpt>
      <trkpt lat="49.18672" lon="3.14669">
        <ele>112</ele>
        <time>2021-05-04T08:42:27.654Z</time>
      </trkpt>
      <trkpt lat="49.18653" lon="3.14647">
        <ele>113</ele>
        <time>2021-05-04T08:42:32.654Z</time>
      </trkpt>
      <trkpt lat="49.18633" lon="3.14627">
        <ele>114</ele>
        <time>2021-05-04T08:42:37.681Z</time>
      </trkpt>
      <trkpt lat="49.18612" lon="3.14608">
        <ele>115</ele>
        <time>2021-05-04T08:42:42.658Z</time>
      </trkpt>
      <trkpt lat="49.18596" lon="3.14594">
        <ele>115</ele>
        <time>2021-05-04T08:42:47.653Z</time>
      </trkpt>
      <trkpt lat="49.18577" lon="3.14583">
        <ele>115</ele>
        <time>2021-05-04T08:42:52.672Z</time>
      </trkpt>
      <trkpt lat="49.1856" lon="3.14572">
        <ele>115</ele>
        <time>2021-05-04T08:42:56.670Z</time>
      </trkpt>
      <trkpt lat="49.18542" lon="3.14555">
        <ele>115</ele>
        <time>2021-05-04T08:43:01.670Z</time>
      </trkpt>
      <trkpt lat="49.18529" lon="3.14537">
        <ele>115</ele>
        <time>2021-05-04T08:43:05.682Z</time>
      </trkpt>
      <trkpt lat="49.18517" lon="3.14517">
        <ele>115</ele>
        <time>2021-05-04T08:43:09.678Z</time>
      </trkpt>
      <trkpt lat="49.18507" lon="3.14495">
        <ele>115</ele>
        <time>2021-05-04T08:43:13.684Z</time>
      </trkpt>
      <trkpt lat="49.18497" lon="3.14471">
        <ele>114</ele>
        <time>2021-05-04T08:43:17.706Z</time>
      </trkpt>
      <trkpt lat="49.18491" lon="3.14444">
        <ele>114</ele>
        <time>2021-05-04T08:43:21.656Z</time>
      </trkpt>
      <trkpt lat="49.18482" lon="3.14412">
        <ele>113</ele>
        <time>2021-05-04T08:43:26.650Z</time>
      </trkpt>
      <trkpt lat="49.18471" lon="3.14385">
        <ele>113</ele>
        <time>2021-05-04T08:43:31.654Z</time>
      </trkpt>
      <trkpt lat="49.1846" lon="3.14362">
        <ele>113</ele>
        <time>2021-05-04T08:43:35.658Z</time>
      </trkpt>
      <trkpt lat="49.18448" lon="3.1434">
        <ele>112</ele>
        <time>2021-05-04T08:43:39.653Z</time>
      </trkpt>
      <trkpt lat="49.18434" lon="3.14314">
        <ele>112</ele>
        <time>2021-05-04T08:43:44.661Z</time>
      </trkpt>
      <trkpt lat="49.1842" lon="3.14288">
        <ele>112</ele>
        <time>2021-05-04T08:43:49.656Z</time>
      </trkpt>
      <trkpt lat="49.18409" lon="3.14266">
        <ele>111</ele>
        <time>2021-05-04T08:43:53.658Z</time>
      </trkpt>
      <trkpt lat="49.18396" lon="3.14239">
        <ele>111</ele>
        <time>2021-05-04T08:43:58.658Z</time>
      </trkpt>
      <trkpt lat="49.18383" lon="3.14213">
        <ele>111</ele>
        <time>2021-05-04T08:44:03.654Z</time>
      </trkpt>
      <trkpt lat="49.18373" lon="3.14192">
        <ele>110</ele>
        <time>2021-05-04T08:44:07.668Z</time>
      </trkpt>
      <trkpt lat="49.18362" lon="3.1417">
        <ele>110</ele>
        <time>2021-05-04T08:44:11.654Z</time>
      </trkpt>
      <trkpt lat="49.18349" lon="3.14149">
        <ele>110</ele>
        <time>2021-05-04T08:44:15.654Z</time>
      </trkpt>
      <trkpt lat="49.18336" lon="3.14123">
        <ele>110</ele>
        <time>2021-05-04T08:44:20.650Z</time>
      </trkpt>
      <trkpt lat="49.18324" lon="3.141">
        <ele>109</ele>
        <time>2021-05-04T08:44:24.657Z</time>
      </trkpt>
      <trkpt lat="49.18313" lon="3.14078">
        <ele>109</ele>
        <time>2021-05-04T08:44:28.654Z</time>
      </trkpt>
      <trkpt lat="49.18301" lon="3.14055">
        <ele>109</ele>
        <time>2021-05-04T08:44:32.656Z</time>
      </trkpt>
      <trkpt lat="49.18287" lon="3.14032">
        <ele>109</ele>
        <time>2021-05-04T08:44:36.657Z</time>
      </trkpt>
      <trkpt lat="49.18272" lon="3.14001">
        <ele>108</ele>
        <time>2021-05-04T08:44:41.657Z</time>
      </trkpt>
      <trkpt lat="49.18257" lon="3.13972">
        <ele>108</ele>
        <time>2021-05-04T08:44:46.657Z</time>
      </trkpt>
      <trkpt lat="49.18242" lon="3.13945">
        <ele>108</ele>
        <time>2021-05-04T08:44:51.657Z</time>
      </trkpt>
      <trkpt lat="49.18225" lon="3.1392">
        <ele>107</ele>
        <time>2021-05-04T08:44:56.659Z</time>
      </trkpt>
      <trkpt lat="49.1821" lon="3.13893">
        <ele>107</ele>
        <time>2021-05-04T08:45:01.657Z</time>
      </trkpt>
      <trkpt lat="49.18197" lon="3.13863">
        <ele>107</ele>
        <time>2021-05-04T08:45:06.660Z</time>
      </trkpt>
      <trkpt lat="49.18187" lon="3.13838">
        <ele>107</ele>
        <time>2021-05-04T08:45:10.653Z</time>
      </trkpt>
      <trkpt lat="49.18181" lon="3.13805">
        <ele>107</ele>
        <time>2021-05-04T08:45:15.656Z</time>
      </trkpt>
      <trkpt lat="49.18177" lon="3.13777">
        <ele>107</ele>
        <time>2021-05-04T08:45:19.658Z</time>
      </trkpt>
      <trkpt lat="49.18174" lon="3.13743">
        <ele>107</ele>
        <time>2021-05-04T08:45:24.656Z</time>
      </trkpt>
      <trkpt lat="49.1817" lon="3.13714">
        <ele>107</ele>
        <time>2021-05-04T08:45:28.660Z</time>
      </trkpt>
      <trkpt lat="49.1817" lon="3.13684">
        <ele>107</ele>
        <time>2021-05-04T08:45:32.658Z</time>
      </trkpt>
      <trkpt lat="49.18172" lon="3.13647">
        <ele>107</ele>
        <time>2021-05-04T08:45:37.655Z</time>
      </trkpt>
      <trkpt lat="49.1817" lon="3.13611">
        <ele>108</ele>
        <time>2021-05-04T08:45:42.659Z</time>
      </trkpt>
      <trkpt lat="49.18168" lon="3.13579">
        <ele>108</ele>
        <time>2021-05-04T08:45:47.659Z</time>
      </trkpt>
      <trkpt lat="49.18163" lon="3.13551">
        <ele>109</ele>
        <time>2021-05-04T08:45:52.658Z</time>
      </trkpt>
      <trkpt lat="49.18151" lon="3.13529">
        <ele>109</ele>
        <time>2021-05-04T08:45:57.659Z</time>
      </trkpt>
      <trkpt lat="49.18138" lon="3.13512">
        <ele>109</ele>
        <time>2021-05-04T08:46:01.655Z</time>
      </trkpt>
      <trkpt lat="49.1812" lon="3.13501">
        <ele>109</ele>
        <time>2021-05-04T08:46:05.656Z</time>
      </trkpt>
      <trkpt lat="49.18103" lon="3.13492">
        <ele>109</ele>
        <time>2021-05-04T08:46:09.655Z</time>
      </trkpt>
      <trkpt lat="49.18085" lon="3.1348">
        <ele>109</ele>
        <time>2021-05-04T08:46:14.657Z</time>
      </trkpt>
      <trkpt lat="49.18068" lon="3.13463">
        <ele>109</ele>
        <time>2021-05-04T08:46:19.656Z</time>
      </trkpt>
      <trkpt lat="49.18058" lon="3.13442">
        <ele>109</ele>
        <time>2021-05-04T08:46:23.683Z</time>
      </trkpt>
      <trkpt lat="49.1805" lon="3.13418">
        <ele>109</ele>
        <time>2021-05-04T08:46:27.656Z</time>
      </trkpt>
      <trkpt lat="49.18041" lon="3.13392">
        <ele>109</ele>
        <time>2021-05-04T08:46:31.658Z</time>
      </trkpt>
      <trkpt lat="49.18034" lon="3.13365">
        <ele>109</ele>
        <time>2021-05-04T08:46:35.656Z</time>
      </trkpt>
      <trkpt lat="49.18024" lon="3.13335">
        <ele>108</ele>
        <time>2021-05-04T08:46:40.656Z</time>
      </trkpt>
      <trkpt lat="49.18011" lon="3.13309">
        <ele>108</ele>
        <time>2021-05-04T08:46:45.651Z</time>
      </trkpt>
      <trkpt lat="49.17996" lon="3.1329">
        <ele>108</ele>
        <time>2021-05-04T08:46:49.661Z</time>
      </trkpt>
      <trkpt lat="49.1798" lon="3.13275">
        <ele>108</ele>
        <time>2021-05-04T08:46:53.650Z</time>
      </trkpt>
      <trkpt lat="49.17959" lon="3.13258">
        <ele>108</ele>
        <time>2021-05-04T08:46:58.656Z</time>
      </trkpt>
      <trkpt lat="49.17938" lon="3.13243">
        <ele>108</ele>
        <time>2021-05-04T08:47:03.652Z</time>
      </trkpt>
      <trkpt lat="49.17915" lon="3.13233">
        <ele>108</ele>
        <time>2021-05-04T08:47:08.658Z</time>
      </trkpt>
      <trkpt lat="49.17893" lon="3.13225">
        <ele>108</ele>
        <time>2021-05-04T08:47:13.659Z</time>
      </trkpt>
      <trkpt lat="49.1787" lon="3.1322">
        <ele>108</ele>
        <time>2021-05-04T08:47:18.654Z</time>
      </trkpt>
      <trkpt lat="49.17848" lon="3.13217">
        <ele>108</ele>
        <time>2021-05-04T08:47:23.655Z</time>
      </trkpt>
      <trkpt lat="49.17825" lon="3.13211">
        <ele>109</ele>
        <time>2021-05-04T08:47:28.652Z</time>
      </trkpt>
      <trkpt lat="49.17809" lon="3.13199">
        <ele>109</ele>
        <time>2021-05-04T08:47:32.655Z</time>
      </trkpt>
      <trkpt lat="49.17792" lon="3.13186">
        <ele>109</ele>
        <time>2021-05-04T08:47:36.654Z</time>
      </trkpt>
      <trkpt lat="49.17775" lon="3.1317">
        <ele>109</ele>
        <time>2021-05-04T08:47:40.655Z</time>
      </trkpt>
      <trkpt lat="49.17756" lon="3.13148">
        <ele>109</ele>
        <time>2021-05-04T08:47:45.657Z</time>
      </trkpt>
      <trkpt lat="49.17739" lon="3.13126">
        <ele>110</ele>
        <time>2021-05-04T08:47:50.655Z</time>
      </trkpt>
      <trkpt lat="49.17724" lon="3.13103">
        <ele>110</ele>
        <time>2021-05-04T08:47:55.654Z</time>
      </trkpt>
      <trkpt lat="49.17711" lon="3.13086">
        <ele>110</ele>
        <time>2021-05-04T08:47:59.656Z</time>
      </trkpt>
      <trkpt lat="49.17696" lon="3.13068">
        <ele>109</ele>
        <time>2021-05-04T08:48:03.660Z</time>
      </trkpt>
      <trkpt lat="49.17679" lon="3.13047">
        <ele>109</ele>
        <time>2021-05-04T08:48:08.661Z</time>
      </trkpt>
      <trkpt lat="49.17663" lon="3.13025">
        <ele>109</ele>
        <time>2021-05-04T08:48:13.656Z</time>
      </trkpt>
      <trkpt lat="49.17647" lon="3.13003">
        <ele>109</ele>
        <time>2021-05-04T08:48:18.657Z</time>
      </trkpt>
      <trkpt lat="49.17636" lon="3.12978">
        <ele>109</ele>
        <time>2021-05-04T08:48:23.662Z</time>
      </trkpt>
      <trkpt lat="49.1763" lon="3.12951">
        <ele>109</ele>
        <time>2021-05-04T08:48:28.658Z</time>
      </trkpt>
      <trkpt lat="49.17628" lon="3.12943">
        <ele>109</ele>
        <time>2021-05-04T08:48:43.874Z</time>
      </trkpt>
      <trkpt lat="49.17628" lon="3.12943">
        <ele>109</ele>
        <time>2021-05-04T08:49:36.655Z</time>
      </trkpt>
      <trkpt lat="49.17628" lon="3.12908">
        <ele>110</ele>
        <time>2021-05-04T08:49:37.652Z</time>
      </trkpt>
      <trkpt lat="49.1763" lon="3.1289">
        <ele>110</ele>
        <time>2021-05-04T08:49:40.654Z</time>
      </trkpt>
      <trkpt lat="49.17636" lon="3.12867">
        <ele>110</ele>
        <time>2021-05-04T08:49:44.656Z</time>
      </trkpt>
      <trkpt lat="49.17641" lon="3.12841">
        <ele>110</ele>
        <time>2021-05-04T08:49:48.655Z</time>
      </trkpt>
      <trkpt lat="49.1764" lon="3.12815">
        <ele>110</ele>
        <time>2021-05-04T08:49:52.653Z</time>
      </trkpt>
      <trkpt lat="49.17639" lon="3.12788">
        <ele>110</ele>
        <time>2021-05-04T08:49:56.654Z</time>
      </trkpt>
      <trkpt lat="49.17637" lon="3.1276">
        <ele>110</ele>
        <time>2021-05-04T08:50:00.655Z</time>
      </trkpt>
      <trkpt lat="49.17636" lon="3.1273">
        <ele>110</ele>
        <time>2021-05-04T08:50:04.649Z</time>
      </trkpt>
      <trkpt lat="49.17634" lon="3.12695">
        <ele>110</ele>
        <time>2021-05-04T08:50:09.653Z</time>
      </trkpt>
      <trkpt lat="49.1763" lon="3.12665">
        <ele>110</ele>
        <time>2021-05-04T08:50:14.653Z</time>
      </trkpt>
      <trkpt lat="49.17629" lon="3.12633">
        <ele>110</ele>
        <time>2021-05-04T08:50:19.653Z</time>
      </trkpt>
      <trkpt lat="49.17629" lon="3.12606">
        <ele>110</ele>
        <time>2021-05-04T08:50:24.650Z</time>
      </trkpt>
      <trkpt lat="49.17621" lon="3.126">
        <ele>110</ele>
        <time>2021-05-04T08:50:35.650Z</time>
      </trkpt>
      <trkpt lat="49.1762" lon="3.12609">
        <ele>110</ele>
        <time>2021-05-04T08:50:52.667Z</time>
      </trkpt>
      <trkpt lat="49.1762" lon="3.12609">
        <ele>110</ele>
        <time>2021-05-04T08:53:09.654Z</time>
      </trkpt>
      <trkpt lat="49.17621" lon="3.12574">
        <ele>115</ele>
        <time>2021-05-04T08:53:10.654Z</time>
      </trkpt>
      <trkpt lat="49.17622" lon="3.12559">
        <ele>115</ele>
        <time>2021-05-04T08:53:13.654Z</time>
      </trkpt>
      <trkpt lat="49.17621" lon="3.12545">
        <ele>115</ele>
        <time>2021-05-04T08:53:16.652Z</time>
      </trkpt>
      <trkpt lat="49.17618" lon="3.12527">
        <ele>115</ele>
        <time>2021-05-04T08:53:21.652Z</time>
      </trkpt>
      <trkpt lat="49.17615" lon="3.12511">
        <ele>115</ele>
        <time>2021-05-04T08:53:24.651Z</time>
      </trkpt>
      <trkpt lat="49.17611" lon="3.12492">
        <ele>115</ele>
        <time>2021-05-04T08:53:27.658Z</time>
      </trkpt>
      <trkpt lat="49.17611" lon="3.12465">
        <ele>115</ele>
        <time>2021-05-04T08:53:31.653Z</time>
      </trkpt>
      <trkpt lat="49.17611" lon="3.12438">
        <ele>115</ele>
        <time>2021-05-04T08:53:35.655Z</time>
      </trkpt>
      <trkpt lat="49.17609" lon="3.12412">
        <ele>114</ele>
        <time>2021-05-04T08:53:39.656Z</time>
      </trkpt>
      <trkpt lat="49.17607" lon="3.12385">
        <ele>114</ele>
        <time>2021-05-04T08:53:43.656Z</time>
      </trkpt>
      <trkpt lat="49.17605" lon="3.12357">
        <ele>114</ele>
        <time>2021-05-04T08:53:47.653Z</time>
      </trkpt>
      <trkpt lat="49.17603" lon="3.12324">
        <ele>113</ele>
        <time>2021-05-04T08:53:52.657Z</time>
      </trkpt>
      <trkpt lat="49.17601" lon="3.12297">
        <ele>113</ele>
        <time>2021-05-04T08:53:56.655Z</time>
      </trkpt>
      <trkpt lat="49.17598" lon="3.12264">
        <ele>112</ele>
        <time>2021-05-04T08:54:01.655Z</time>
      </trkpt>
      <trkpt lat="49.17596" lon="3.12232">
        <ele>111</ele>
        <time>2021-05-04T08:54:06.653Z</time>
      </trkpt>
      <trkpt lat="49.17592" lon="3.12206">
        <ele>111</ele>
        <time>2021-05-04T08:54:10.656Z</time>
      </trkpt>
      <trkpt lat="49.1759" lon="3.12179">
        <ele>110</ele>
        <time>2021-05-04T08:54:14.654Z</time>
      </trkpt>
      <trkpt lat="49.17587" lon="3.12149">
        <ele>110</ele>
        <time>2021-05-04T08:54:19.648Z</time>
      </trkpt>
      <trkpt lat="49.17583" lon="3.12127">
        <ele>109</ele>
        <time>2021-05-04T08:54:25.656Z</time>
      </trkpt>
      <trkpt lat="49.17579" lon="3.12114">
        <ele>110</ele>
        <time>2021-05-04T08:54:29.651Z</time>
      </trkpt>
      <trkpt lat="49.1758" lon="3.12094">
        <ele>110</ele>
        <time>2021-05-04T08:54:32.655Z</time>
      </trkpt>
      <trkpt lat="49.1758" lon="3.12077">
        <ele>110</ele>
        <time>2021-05-04T08:54:34.654Z</time>
      </trkpt>
      <trkpt lat="49.17581" lon="3.12049">
        <ele>109</ele>
        <time>2021-05-04T08:54:37.653Z</time>
      </trkpt>
      <trkpt lat="49.17591" lon="3.12025">
        <ele>110</ele>
        <time>2021-05-04T08:54:45.664Z</time>
      </trkpt>
      <trkpt lat="49.17595" lon="3.12027">
        <ele>110</ele>
        <time>2021-05-04T08:55:02.654Z</time>
      </trkpt>
      <trkpt lat="49.17595" lon="3.12027">
        <ele>110</ele>
        <time>2021-05-04T08:56:39.656Z</time>
      </trkpt>
      <trkpt lat="49.17606" lon="3.11995">
        <ele>108</ele>
        <time>2021-05-04T08:56:40.657Z</time>
      </trkpt>
      <trkpt lat="49.17614" lon="3.11984">
        <ele>108</ele>
        <time>2021-05-04T08:56:43.657Z</time>
      </trkpt>
      <trkpt lat="49.1762" lon="3.11975">
        <ele>108</ele>
        <time>2021-05-04T08:56:45.661Z</time>
      </trkpt>
      <trkpt lat="49.17629" lon="3.1196">
        <ele>107</ele>
        <time>2021-05-04T08:56:48.657Z</time>
      </trkpt>
      <trkpt lat="49.1764" lon="3.11938">
        <ele>107</ele>
        <time>2021-05-04T08:56:52.656Z</time>
      </trkpt>
      <trkpt lat="49.17649" lon="3.11915">
        <ele>108</ele>
        <time>2021-05-04T08:56:56.656Z</time>
      </trkpt>
      <trkpt lat="49.17651" lon="3.11885">
        <ele>108</ele>
        <time>2021-05-04T08:57:00.653Z</time>
      </trkpt>
      <trkpt lat="49.17648" lon="3.11855">
        <ele>108</ele>
        <time>2021-05-04T08:57:04.660Z</time>
      </trkpt>
      <trkpt lat="49.17645" lon="3.11824">
        <ele>108</ele>
        <time>2021-05-04T08:57:08.655Z</time>
      </trkpt>
      <trkpt lat="49.17645" lon="3.11792">
        <ele>108</ele>
        <time>2021-05-04T08:57:12.653Z</time>
      </trkpt>
      <trkpt lat="49.17644" lon="3.11754">
        <ele>108</ele>
        <time>2021-05-04T08:57:17.659Z</time>
      </trkpt>
      <trkpt lat="49.17636" lon="3.11719">
        <ele>108</ele>
        <time>2021-05-04T08:57:22.655Z</time>
      </trkpt>
      <trkpt lat="49.17621" lon="3.11689">
        <ele>107</ele>
        <time>2021-05-04T08:57:27.656Z</time>
      </trkpt>
      <trkpt lat="49.17605" lon="3.11665">
        <ele>107</ele>
        <time>2021-05-04T08:57:32.655Z</time>
      </trkpt>
      <trkpt lat="49.17588" lon="3.11643">
        <ele>107</ele>
        <time>2021-05-04T08:57:37.654Z</time>
      </trkpt>
      <trkpt lat="49.17574" lon="3.11621">
        <ele>107</ele>
        <time>2021-05-04T08:57:41.656Z</time>
      </trkpt>
      <trkpt lat="49.17563" lon="3.11598">
        <ele>107</ele>
        <time>2021-05-04T08:57:45.658Z</time>
      </trkpt>
      <trkpt lat="49.17554" lon="3.1157">
        <ele>106</ele>
        <time>2021-05-04T08:57:49.656Z</time>
      </trkpt>
      <trkpt lat="49.17544" lon="3.11535">
        <ele>106</ele>
        <time>2021-05-04T08:57:54.655Z</time>
      </trkpt>
      <trkpt lat="49.17533" lon="3.115">
        <ele>106</ele>
        <time>2021-05-04T08:57:59.655Z</time>
      </trkpt>
      <trkpt lat="49.17524" lon="3.1147">
        <ele>106</ele>
        <time>2021-05-04T08:58:03.652Z</time>
      </trkpt>
      <trkpt lat="49.17514" lon="3.11433">
        <ele>106</ele>
        <time>2021-05-04T08:58:08.660Z</time>
      </trkpt>
      <trkpt lat="49.17502" lon="3.11397">
        <ele>106</ele>
        <time>2021-05-04T08:58:13.660Z</time>
      </trkpt>
      <trkpt lat="49.17488" lon="3.11365">
        <ele>106</ele>
        <time>2021-05-04T08:58:18.658Z</time>
      </trkpt>
      <trkpt lat="49.17472" lon="3.11335">
        <ele>106</ele>
        <time>2021-05-04T08:58:23.658Z</time>
      </trkpt>
      <trkpt lat="49.17454" lon="3.1131">
        <ele>105</ele>
        <time>2021-05-04T08:58:28.655Z</time>
      </trkpt>
      <trkpt lat="49.17437" lon="3.11287">
        <ele>105</ele>
        <time>2021-05-04T08:58:33.658Z</time>
      </trkpt>
      <trkpt lat="49.17419" lon="3.11264">
        <ele>105</ele>
        <time>2021-05-04T08:58:38.656Z</time>
      </trkpt>
      <trkpt lat="49.17401" lon="3.11242">
        <ele>105</ele>
        <time>2021-05-04T08:58:43.660Z</time>
      </trkpt>
      <trkpt lat="49.17383" lon="3.11224">
        <ele>105</ele>
        <time>2021-05-04T08:58:47.662Z</time>
      </trkpt>
      <trkpt lat="49.17366" lon="3.11204">
        <ele>105</ele>
        <time>2021-05-04T08:58:51.656Z</time>
      </trkpt>
      <trkpt lat="49.17347" lon="3.11181">
        <ele>105</ele>
        <time>2021-05-04T08:58:56.657Z</time>
      </trkpt>
      <trkpt lat="49.17326" lon="3.11157">
        <ele>105</ele>
        <time>2021-05-04T08:59:01.656Z</time>
      </trkpt>
      <trkpt lat="49.17307" lon="3.11133">
        <ele>105</ele>
        <time>2021-05-04T08:59:06.657Z</time>
      </trkpt>
      <trkpt lat="49.17287" lon="3.11109">
        <ele>106</ele>
        <time>2021-05-04T08:59:11.656Z</time>
      </trkpt>
      <trkpt lat="49.17269" lon="3.11086">
        <ele>106</ele>
        <time>2021-05-04T08:59:16.659Z</time>
      </trkpt>
      <trkpt lat="49.1725" lon="3.11065">
        <ele>105</ele>
        <time>2021-05-04T08:59:21.658Z</time>
      </trkpt>
      <trkpt lat="49.17235" lon="3.11046">
        <ele>105</ele>
        <time>2021-05-04T08:59:25.656Z</time>
      </trkpt>
      <trkpt lat="49.17219" lon="3.11027">
        <ele>105</ele>
        <time>2021-05-04T08:59:29.658Z</time>
      </trkpt>
      <trkpt lat="49.17201" lon="3.11005">
        <ele>104</ele>
        <time>2021-05-04T08:59:34.658Z</time>
      </trkpt>
      <trkpt lat="49.17186" lon="3.10986">
        <ele>104</ele>
        <time>2021-05-04T08:59:38.655Z</time>
      </trkpt>
      <trkpt lat="49.17167" lon="3.10963">
        <ele>104</ele>
        <time>2021-05-04T08:59:43.652Z</time>
      </trkpt>
      <trkpt lat="49.17148" lon="3.1094">
        <ele>104</ele>
        <time>2021-05-04T08:59:48.656Z</time>
      </trkpt>
      <trkpt lat="49.17129" lon="3.10918">
        <ele>104</ele>
        <time>2021-05-04T08:59:53.651Z</time>
      </trkpt>
      <trkpt lat="49.1711" lon="3.10895">
        <ele>104</ele>
        <time>2021-05-04T08:59:58.657Z</time>
      </trkpt>
      <trkpt lat="49.17092" lon="3.10872">
        <ele>104</ele>
        <time>2021-05-04T09:00:03.656Z</time>
      </trkpt>
      <trkpt lat="49.17076" lon="3.10854">
        <ele>104</ele>
        <time>2021-05-04T09:00:07.654Z</time>
      </trkpt>
      <trkpt lat="49.17058" lon="3.10831">
        <ele>104</ele>
        <time>2021-05-04T09:00:12.654Z</time>
      </trkpt>
      <trkpt lat="49.17037" lon="3.10816">
        <ele>104</ele>
        <time>2021-05-04T09:00:17.653Z</time>
      </trkpt>
      <trkpt lat="49.17016" lon="3.10806">
        <ele>104</ele>
        <time>2021-05-04T09:00:22.656Z</time>
      </trkpt>
      <trkpt lat="49.16994" lon="3.10803">
        <ele>105</ele>
        <time>2021-05-04T09:00:27.656Z</time>
      </trkpt>
      <trkpt lat="49.16976" lon="3.108">
        <ele>105</ele>
        <time>2021-05-04T09:00:32.655Z</time>
      </trkpt>
      <trkpt lat="49.16961" lon="3.108">
        <ele>105</ele>
        <time>2021-05-04T09:00:37.661Z</time>
      </trkpt>
      <trkpt lat="49.16948" lon="3.10799">
        <ele>105</ele>
        <time>2021-05-04T09:00:41.656Z</time>
      </trkpt>
      <trkpt lat="49.16936" lon="3.10799">
        <ele>105</ele>
        <time>2021-05-04T09:00:44.653Z</time>
      </trkpt>
      <trkpt lat="49.16919" lon="3.10801">
        <ele>105</ele>
        <time>2021-05-04T09:00:48.654Z</time>
      </trkpt>
      <trkpt lat="49.16903" lon="3.10803">
        <ele>106</ele>
        <time>2021-05-04T09:00:52.653Z</time>
      </trkpt>
      <trkpt lat="49.16885" lon="3.10802">
        <ele>106</ele>
        <time>2021-05-04T09:00:56.656Z</time>
      </trkpt>
      <trkpt lat="49.16865" lon="3.10802">
        <ele>106</ele>
        <time>2021-05-04T09:01:00.657Z</time>
      </trkpt>
      <trkpt lat="49.16842" lon="3.10801">
        <ele>107</ele>
        <time>2021-05-04T09:01:05.651Z</time>
      </trkpt>
      <trkpt lat="49.16823" lon="3.10802">
        <ele>107</ele>
        <time>2021-05-04T09:01:09.657Z</time>
      </trkpt>
      <trkpt lat="49.16803" lon="3.10801">
        <ele>107</ele>
        <time>2021-05-04T09:01:13.658Z</time>
      </trkpt>
      <trkpt lat="49.16783" lon="3.10801">
        <ele>107</ele>
        <time>2021-05-04T09:01:17.660Z</time>
      </trkpt>
      <trkpt lat="49.16759" lon="3.10799">
        <ele>108</ele>
        <time>2021-05-04T09:01:22.664Z</time>
      </trkpt>
      <trkpt lat="49.16734" lon="3.10796">
        <ele>108</ele>
        <time>2021-05-04T09:01:27.661Z</time>
      </trkpt>
      <trkpt lat="49.1671" lon="3.10789">
        <ele>108</ele>
        <time>2021-05-04T09:01:32.659Z</time>
      </trkpt>
      <trkpt lat="49.16691" lon="3.1078">
        <ele>108</ele>
        <time>2021-05-04T09:01:38.656Z</time>
      </trkpt>
      <trkpt lat="49.16682" lon="3.1077">
        <ele>108</ele>
        <time>2021-05-04T09:01:45.655Z</time>
      </trkpt>
      <trkpt lat="49.16679" lon="3.10756">
        <ele>108</ele>
        <time>2021-05-04T09:01:49.656Z</time>
      </trkpt>
      <trkpt lat="49.16674" lon="3.10744">
        <ele>109</ele>
        <time>2021-05-04T09:01:51.658Z</time>
      </trkpt>
      <trkpt lat="49.16664" lon="3.10732">
        <ele>109</ele>
        <time>2021-05-04T09:01:53.657Z</time>
      </trkpt>
      <trkpt lat="49.16655" lon="3.10721">
        <ele>108</ele>
        <time>2021-05-04T09:01:55.655Z</time>
      </trkpt>
      <trkpt lat="49.16637" lon="3.10703">
        <ele>109</ele>
        <time>2021-05-04T09:01:59.656Z</time>
      </trkpt>
      <trkpt lat="49.16616" lon="3.10682">
        <ele>108</ele>
        <time>2021-05-04T09:02:04.654Z</time>
      </trkpt>
      <trkpt lat="49.16594" lon="3.10663">
        <ele>109</ele>
        <time>2021-05-04T09:02:09.654Z</time>
      </trkpt>
      <trkpt lat="49.16572" lon="3.10647">
        <ele>109</ele>
        <time>2021-05-04T09:02:14.656Z</time>
      </trkpt>
      <trkpt lat="49.16549" lon="3.10631">
        <ele>109</ele>
        <time>2021-05-04T09:02:19.652Z</time>
      </trkpt>
      <trkpt lat="49.16528" lon="3.10612">
        <ele>109</ele>
        <time>2021-05-04T09:02:24.654Z</time>
      </trkpt>
      <trkpt lat="49.16511" lon="3.1059">
        <ele>108</ele>
        <time>2021-05-04T09:02:29.658Z</time>
      </trkpt>
      <trkpt lat="49.16497" lon="3.10571">
        <ele>108</ele>
        <time>2021-05-04T09:02:33.658Z</time>
      </trkpt>
      <trkpt lat="49.16485" lon="3.10547">
        <ele>108</ele>
        <time>2021-05-04T09:02:37.661Z</time>
      </trkpt>
      <trkpt lat="49.16478" lon="3.10513">
        <ele>108</ele>
        <time>2021-05-04T09:02:42.656Z</time>
      </trkpt>
      <trkpt lat="49.1648" lon="3.10482">
        <ele>108</ele>
        <time>2021-05-04T09:02:46.658Z</time>
      </trkpt>
      <trkpt lat="49.16486" lon="3.10446">
        <ele>108</ele>
        <time>2021-05-04T09:02:51.653Z</time>
      </trkpt>
      <trkpt lat="49.1649" lon="3.10409">
        <ele>108</ele>
        <time>2021-05-04T09:02:56.659Z</time>
      </trkpt>
      <trkpt lat="49.1649" lon="3.10371">
        <ele>108</ele>
        <time>2021-05-04T09:03:01.655Z</time>
      </trkpt>
      <trkpt lat="49.16482" lon="3.10342">
        <ele>108</ele>
        <time>2021-05-04T09:03:05.656Z</time>
      </trkpt>
      <trkpt lat="49.16465" lon="3.10315">
        <ele>108</ele>
        <time>2021-05-04T09:03:10.661Z</time>
      </trkpt>
      <trkpt lat="49.16451" lon="3.10286">
        <ele>107</ele>
        <time>2021-05-04T09:03:15.654Z</time>
      </trkpt>
      <trkpt lat="49.16439" lon="3.10253">
        <ele>107</ele>
        <time>2021-05-04T09:03:20.655Z</time>
      </trkpt>
      <trkpt lat="49.16427" lon="3.10221">
        <ele>107</ele>
        <time>2021-05-04T09:03:25.655Z</time>
      </trkpt>
      <trkpt lat="49.16415" lon="3.10194">
        <ele>107</ele>
        <time>2021-05-04T09:03:29.660Z</time>
      </trkpt>
      <trkpt lat="49.16409" lon="3.10157">
        <ele>107</ele>
        <time>2021-05-04T09:03:34.659Z</time>
      </trkpt>
      <trkpt lat="49.1641" lon="3.10121">
        <ele>107</ele>
        <time>2021-05-04T09:03:39.652Z</time>
      </trkpt>
      <trkpt lat="49.16415" lon="3.10087">
        <ele>106</ele>
        <time>2021-05-04T09:03:44.656Z</time>
      </trkpt>
      <trkpt lat="49.16414" lon="3.10058">
        <ele>106</ele>
        <time>2021-05-04T09:03:48.655Z</time>
      </trkpt>
      <trkpt lat="49.16398" lon="3.10035">
        <ele>106</ele>
        <time>2021-05-04T09:03:53.656Z</time>
      </trkpt>
      <trkpt lat="49.16374" lon="3.10029">
        <ele>106</ele>
        <time>2021-05-04T09:03:58.661Z</time>
      </trkpt>
      <trkpt lat="49.1635" lon="3.10014">
        <ele>106</ele>
        <time>2021-05-04T09:04:03.657Z</time>
      </trkpt>
      <trkpt lat="49.16338" lon="3.09985">
        <ele>106</ele>
        <time>2021-05-04T09:04:08.657Z</time>
      </trkpt>
      <trkpt lat="49.16329" lon="3.09951">
        <ele>106</ele>
        <time>2021-05-04T09:04:13.657Z</time>
      </trkpt>
      <trkpt lat="49.16328" lon="3.09913">
        <ele>106</ele>
        <time>2021-05-04T09:04:18.658Z</time>
      </trkpt>
      <trkpt lat="49.16329" lon="3.0988">
        <ele>106</ele>
        <time>2021-05-04T09:04:23.655Z</time>
      </trkpt>
      <trkpt lat="49.16339" lon="3.09692">
        <ele>107</ele>
        <time>2021-05-04T09:04:54.645Z</time>
      </trkpt>
      <trkpt lat="49.16357" lon="3.09632">
        <ele>108</ele>
        <time>2021-05-04T09:04:57.658Z</time>
      </trkpt>
      <trkpt lat="49.16362" lon="3.09584">
        <ele>108</ele>
        <time>2021-05-04T09:05:03.657Z</time>
      </trkpt>
      <trkpt lat="49.16354" lon="3.09548">
        <ele>108</ele>
        <time>2021-05-04T09:05:08.650Z</time>
      </trkpt>
      <trkpt lat="49.16339" lon="3.09524">
        <ele>108</ele>
        <time>2021-05-04T09:05:13.655Z</time>
      </trkpt>
      <trkpt lat="49.16323" lon="3.09507">
        <ele>109</ele>
        <time>2021-05-04T09:05:17.656Z</time>
      </trkpt>
      <trkpt lat="49.16304" lon="3.09498">
        <ele>109</ele>
        <time>2021-05-04T09:05:20.656Z</time>
      </trkpt>
      <trkpt lat="49.16282" lon="3.09486">
        <ele>109</ele>
        <time>2021-05-04T09:05:25.655Z</time>
      </trkpt>
      <trkpt lat="49.16258" lon="3.09467">
        <ele>109</ele>
        <time>2021-05-04T09:05:30.653Z</time>
      </trkpt>
      <trkpt lat="49.16234" lon="3.09448">
        <ele>110</ele>
        <time>2021-05-04T09:05:35.655Z</time>
      </trkpt>
      <trkpt lat="49.16211" lon="3.09436">
        <ele>109</ele>
        <time>2021-05-04T09:05:39.659Z</time>
      </trkpt>
      <trkpt lat="49.16185" lon="3.09432">
        <ele>109</ele>
        <time>2021-05-04T09:05:44.653Z</time>
      </trkpt>
      <trkpt lat="49.16158" lon="3.09425">
        <ele>109</ele>
        <time>2021-05-04T09:05:49.654Z</time>
      </trkpt>
      <trkpt lat="49.16131" lon="3.09421">
        <ele>108</ele>
        <time>2021-05-04T09:05:54.655Z</time>
      </trkpt>
      <trkpt lat="49.16106" lon="3.09424">
        <ele>108</ele>
        <time>2021-05-04T09:05:59.655Z</time>
      </trkpt>
      <trkpt lat="49.16085" lon="3.09432">
        <ele>108</ele>
        <time>2021-05-04T09:06:03.652Z</time>
      </trkpt>
      <trkpt lat="49.16065" lon="3.09447">
        <ele>107</ele>
        <time>2021-05-04T09:06:07.655Z</time>
      </trkpt>
      <trkpt lat="49.16046" lon="3.09465">
        <ele>107</ele>
        <time>2021-05-04T09:06:11.657Z</time>
      </trkpt>
      <trkpt lat="49.16028" lon="3.09493">
        <ele>107</ele>
        <time>2021-05-04T09:06:16.655Z</time>
      </trkpt>
      <trkpt lat="49.1601" lon="3.09523">
        <ele>106</ele>
        <time>2021-05-04T09:06:21.658Z</time>
      </trkpt>
      <trkpt lat="49.15992" lon="3.09551">
        <ele>105</ele>
        <time>2021-05-04T09:06:26.654Z</time>
      </trkpt>
      <trkpt lat="49.15973" lon="3.0958">
        <ele>105</ele>
        <time>2021-05-04T09:06:31.657Z</time>
      </trkpt>
      <trkpt lat="49.15953" lon="3.09598">
        <ele>105</ele>
        <time>2021-05-04T09:06:35.654Z</time>
      </trkpt>
      <trkpt lat="49.15931" lon="3.09617">
        <ele>104</ele>
        <time>2021-05-04T09:06:40.653Z</time>
      </trkpt>
      <trkpt lat="49.15905" lon="3.09632">
        <ele>104</ele>
        <time>2021-05-04T09:06:45.659Z</time>
      </trkpt>
      <trkpt lat="49.1588" lon="3.09648">
        <ele>104</ele>
        <time>2021-05-04T09:06:50.658Z</time>
      </trkpt>
      <trkpt lat="49.15855" lon="3.09661">
        <ele>103</ele>
        <time>2021-05-04T09:06:55.657Z</time>
      </trkpt>
      <trkpt lat="49.15834" lon="3.09675">
        <ele>103</ele>
        <time>2021-05-04T09:06:59.655Z</time>
      </trkpt>
      <trkpt lat="49.15809" lon="3.09693">
        <ele>102</ele>
        <time>2021-05-04T09:07:04.654Z</time>
      </trkpt>
      <trkpt lat="49.15785" lon="3.09707">
        <ele>102</ele>
        <time>2021-05-04T09:07:09.655Z</time>
      </trkpt>
      <trkpt lat="49.1576" lon="3.09717">
        <ele>102</ele>
        <time>2021-05-04T09:07:14.656Z</time>
      </trkpt>
      <trkpt lat="49.15734" lon="3.09727">
        <ele>102</ele>
        <time>2021-05-04T09:07:19.655Z</time>
      </trkpt>
      <trkpt lat="49.15712" lon="3.0975">
        <ele>102</ele>
        <time>2021-05-04T09:07:24.657Z</time>
      </trkpt>
      <trkpt lat="49.15695" lon="3.09774">
        <ele>102</ele>
        <time>2021-05-04T09:07:28.657Z</time>
      </trkpt>
      <trkpt lat="49.15675" lon="3.09794">
        <ele>102</ele>
        <time>2021-05-04T09:07:33.654Z</time>
      </trkpt>
      <trkpt lat="49.15655" lon="3.09808">
        <ele>102</ele>
        <time>2021-05-04T09:07:37.659Z</time>
      </trkpt>
      <trkpt lat="49.15636" lon="3.09827">
        <ele>102</ele>
        <time>2021-05-04T09:07:41.660Z</time>
      </trkpt>
      <trkpt lat="49.15617" lon="3.09854">
        <ele>103</ele>
        <time>2021-05-04T09:07:46.656Z</time>
      </trkpt>
      <trkpt lat="49.15603" lon="3.09886">
        <ele>103</ele>
        <time>2021-05-04T09:07:51.659Z</time>
      </trkpt>
      <trkpt lat="49.15589" lon="3.09917">
        <ele>103</ele>
        <time>2021-05-04T09:07:56.658Z</time>
      </trkpt>
      <trkpt lat="49.15577" lon="3.09944">
        <ele>103</ele>
        <time>2021-05-04T09:08:00.657Z</time>
      </trkpt>
      <trkpt lat="49.15566" lon="3.09977">
        <ele>102</ele>
        <time>2021-05-04T09:08:05.655Z</time>
      </trkpt>
      <trkpt lat="49.15556" lon="3.10015">
        <ele>102</ele>
        <time>2021-05-04T09:08:10.655Z</time>
      </trkpt>
      <trkpt lat="49.15546" lon="3.10053">
        <ele>102</ele>
        <time>2021-05-04T09:08:15.657Z</time>
      </trkpt>
      <trkpt lat="49.15536" lon="3.10091">
        <ele>102</ele>
        <time>2021-05-04T09:08:20.653Z</time>
      </trkpt>
      <trkpt lat="49.15528" lon="3.10122">
        <ele>102</ele>
        <time>2021-05-04T09:08:24.659Z</time>
      </trkpt>
      <trkpt lat="49.15519" lon="3.10161">
        <ele>101</ele>
        <time>2021-05-04T09:08:29.653Z</time>
      </trkpt>
      <trkpt lat="49.15509" lon="3.10195">
        <ele>101</ele>
        <time>2021-05-04T09:08:34.655Z</time>
      </trkpt>
      <trkpt lat="49.15492" lon="3.10223">
        <ele>101</ele>
        <time>2021-05-04T09:08:39.668Z</time>
      </trkpt>
      <trkpt lat="49.1547" lon="3.10228">
        <ele>102</ele>
        <time>2021-05-04T09:08:44.656Z</time>
      </trkpt>
      <trkpt lat="49.15448" lon="3.10225">
        <ele>102</ele>
        <time>2021-05-04T09:08:49.655Z</time>
      </trkpt>
      <trkpt lat="49.15428" lon="3.10222">
        <ele>102</ele>
        <time>2021-05-04T09:08:54.655Z</time>
      </trkpt>
      <trkpt lat="49.15411" lon="3.10217">
        <ele>102</ele>
        <time>2021-05-04T09:08:59.656Z</time>
      </trkpt>
      <trkpt lat="49.15394" lon="3.10214">
        <ele>103</ele>
        <time>2021-05-04T09:09:04.653Z</time>
      </trkpt>
      <trkpt lat="49.1538" lon="3.10209">
        <ele>103</ele>
        <time>2021-05-04T09:09:08.653Z</time>
      </trkpt>
      <trkpt lat="49.15366" lon="3.10207">
        <ele>103</ele>
        <time>2021-05-04T09:09:12.674Z</time>
      </trkpt>
      <trkpt lat="49.1536" lon="3.10206">
        <ele>104</ele>
        <time>2021-05-04T09:09:27.673Z</time>
      </trkpt>
      <trkpt lat="49.1536" lon="3.10206">
        <ele>104</ele>
        <time>2021-05-04T09:10:41.744Z</time>
      </trkpt>
      <trkpt lat="49.15335" lon="3.10201">
        <ele>106</ele>
        <time>2021-05-04T09:10:42.671Z</time>
      </trkpt>
      <trkpt lat="49.15323" lon="3.10197">
        <ele>106</ele>
        <time>2021-05-04T09:10:45.663Z</time>
      </trkpt>
      <trkpt lat="49.15307" lon="3.10194">
        <ele>106</ele>
        <time>2021-05-04T09:10:48.772Z</time>
      </trkpt>
      <trkpt lat="49.15287" lon="3.1019">
        <ele>106</ele>
        <time>2021-05-04T09:10:52.683Z</time>
      </trkpt>
      <trkpt lat="49.15261" lon="3.10186">
        <ele>106</ele>
        <time>2021-05-04T09:10:57.690Z</time>
      </trkpt>
      <trkpt lat="49.15237" lon="3.10178">
        <ele>106</ele>
        <time>2021-05-04T09:11:02.751Z</time>
      </trkpt>
      <trkpt lat="49.15212" lon="3.10174">
        <ele>106</ele>
        <time>2021-05-04T09:11:07.682Z</time>
      </trkpt>
      <trkpt lat="49.15187" lon="3.10169">
        <ele>106</ele>
        <time>2021-05-04T09:11:12.722Z</time>
      </trkpt>
      <trkpt lat="49.15161" lon="3.10163">
        <ele>106</ele>
        <time>2021-05-04T09:11:17.687Z</time>
      </trkpt>
      <trkpt lat="49.15136" lon="3.10158">
        <ele>106</ele>
        <time>2021-05-04T09:11:22.650Z</time>
      </trkpt>
      <trkpt lat="49.15112" lon="3.10152">
        <ele>106</ele>
        <time>2021-05-04T09:11:27.654Z</time>
      </trkpt>
      <trkpt lat="49.15089" lon="3.10147">
        <ele>106</ele>
        <time>2021-05-04T09:11:32.657Z</time>
      </trkpt>
      <trkpt lat="49.15069" lon="3.10142">
        <ele>106</ele>
        <time>2021-05-04T09:11:36.660Z</time>
      </trkpt>
      <trkpt lat="49.15048" lon="3.10136">
        <ele>105</ele>
        <time>2021-05-04T09:11:40.655Z</time>
      </trkpt>
      <trkpt lat="49.15027" lon="3.1013">
        <ele>105</ele>
        <time>2021-05-04T09:11:44.657Z</time>
      </trkpt>
      <trkpt lat="49.15003" lon="3.10125">
        <ele>105</ele>
        <time>2021-05-04T09:11:48.657Z</time>
      </trkpt>
      <trkpt lat="49.14976" lon="3.10119">
        <ele>104</ele>
        <time>2021-05-04T09:11:53.656Z</time>
      </trkpt>
      <trkpt lat="49.14949" lon="3.10109">
        <ele>104</ele>
        <time>2021-05-04T09:11:58.655Z</time>
      </trkpt>
      <trkpt lat="49.14924" lon="3.10093">
        <ele>104</ele>
        <time>2021-05-04T09:12:03.659Z</time>
      </trkpt>
      <trkpt lat="49.14901" lon="3.10074">
        <ele>103</ele>
        <time>2021-05-04T09:12:08.657Z</time>
      </trkpt>
      <trkpt lat="49.14883" lon="3.10047">
        <ele>103</ele>
        <time>2021-05-04T09:12:13.658Z</time>
      </trkpt>
      <trkpt lat="49.14865" lon="3.10021">
        <ele>103</ele>
        <time>2021-05-04T09:12:18.656Z</time>
      </trkpt>
      <trkpt lat="49.14852" lon="3.09989">
        <ele>103</ele>
        <time>2021-05-04T09:12:23.655Z</time>
      </trkpt>
      <trkpt lat="49.14842" lon="3.09961">
        <ele>103</ele>
        <time>2021-05-04T09:12:27.657Z</time>
      </trkpt>
      <trkpt lat="49.14832" lon="3.09934">
        <ele>103</ele>
        <time>2021-05-04T09:12:31.657Z</time>
      </trkpt>
      <trkpt lat="49.14819" lon="3.09901">
        <ele>103</ele>
        <time>2021-05-04T09:12:36.657Z</time>
      </trkpt>
      <trkpt lat="49.14803" lon="3.09868">
        <ele>103</ele>
        <time>2021-05-04T09:12:41.652Z</time>
      </trkpt>
      <trkpt lat="49.14792" lon="3.09836">
        <ele>103</ele>
        <time>2021-05-04T09:12:46.655Z</time>
      </trkpt>
      <trkpt lat="49.14781" lon="3.09807">
        <ele>103</ele>
        <time>2021-05-04T09:12:50.657Z</time>
      </trkpt>
      <trkpt lat="49.1477" lon="3.09781">
        <ele>103</ele>
        <time>2021-05-04T09:12:54.658Z</time>
      </trkpt>
      <trkpt lat="49.14756" lon="3.09747">
        <ele>104</ele>
        <time>2021-05-04T09:12:59.658Z</time>
      </trkpt>
      <trkpt lat="49.14743" lon="3.09714">
        <ele>104</ele>
        <time>2021-05-04T09:13:04.655Z</time>
      </trkpt>
      <trkpt lat="49.14728" lon="3.09682">
        <ele>104</ele>
        <time>2021-05-04T09:13:09.655Z</time>
      </trkpt>
      <trkpt lat="49.14719" lon="3.09653">
        <ele>104</ele>
        <time>2021-05-04T09:13:13.654Z</time>
      </trkpt>
      <trkpt lat="49.14706" lon="3.09618">
        <ele>104</ele>
        <time>2021-05-04T09:13:18.651Z</time>
      </trkpt>
      <trkpt lat="49.14697" lon="3.09582">
        <ele>105</ele>
        <time>2021-05-04T09:13:23.659Z</time>
      </trkpt>
      <trkpt lat="49.14694" lon="3.09545">
        <ele>105</ele>
        <time>2021-05-04T09:13:28.655Z</time>
      </trkpt>
      <trkpt lat="49.14697" lon="3.09508">
        <ele>105</ele>
        <time>2021-05-04T09:13:33.658Z</time>
      </trkpt>
      <trkpt lat="49.14697" lon="3.09469">
        <ele>106</ele>
        <time>2021-05-04T09:13:38.660Z</time>
      </trkpt>
      <trkpt lat="49.14692" lon="3.09438">
        <ele>106</ele>
        <time>2021-05-04T09:13:42.663Z</time>
      </trkpt>
      <trkpt lat="49.14676" lon="3.09407">
        <ele>107</ele>
        <time>2021-05-04T09:13:47.658Z</time>
      </trkpt>
      <trkpt lat="49.14655" lon="3.09381">
        <ele>107</ele>
        <time>2021-05-04T09:13:52.655Z</time>
      </trkpt>
      <trkpt lat="49.14633" lon="3.09355">
        <ele>107</ele>
        <time>2021-05-04T09:13:57.664Z</time>
      </trkpt>
      <trkpt lat="49.14614" lon="3.09327">
        <ele>107</ele>
        <time>2021-05-04T09:14:02.657Z</time>
      </trkpt>
      <trkpt lat="49.14595" lon="3.09299">
        <ele>107</ele>
        <time>2021-05-04T09:14:07.657Z</time>
      </trkpt>
      <trkpt lat="49.14577" lon="3.09268">
        <ele>107</ele>
        <time>2021-05-04T09:14:12.651Z</time>
      </trkpt>
      <trkpt lat="49.14565" lon="3.09236">
        <ele>106</ele>
        <time>2021-05-04T09:14:17.655Z</time>
      </trkpt>
      <trkpt lat="49.14553" lon="3.09205">
        <ele>106</ele>
        <time>2021-05-04T09:14:22.659Z</time>
      </trkpt>
      <trkpt lat="49.14541" lon="3.09172">
        <ele>105</ele>
        <time>2021-05-04T09:14:27.659Z</time>
      </trkpt>
      <trkpt lat="49.1453" lon="3.09142">
        <ele>105</ele>
        <time>2021-05-04T09:14:32.653Z</time>
      </trkpt>
      <trkpt lat="49.14521" lon="3.09115">
        <ele>104</ele>
        <time>2021-05-04T09:14:36.655Z</time>
      </trkpt>
      <trkpt lat="49.14514" lon="3.09082">
        <ele>104</ele>
        <time>2021-05-04T09:14:41.650Z</time>
      </trkpt>
      <trkpt lat="49.14504" lon="3.09056">
        <ele>104</ele>
        <time>2021-05-04T09:14:45.655Z</time>
      </trkpt>
      <trkpt lat="49.14493" lon="3.09023">
        <ele>104</ele>
        <time>2021-05-04T09:14:50.658Z</time>
      </trkpt>
      <trkpt lat="49.14489" lon="3.0899">
        <ele>104</ele>
        <time>2021-05-04T09:14:54.654Z</time>
      </trkpt>
      <trkpt lat="49.14482" lon="3.08951">
        <ele>104</ele>
        <time>2021-05-04T09:14:59.659Z</time>
      </trkpt>
      <trkpt lat="49.14471" lon="3.08914">
        <ele>104</ele>
        <time>2021-05-04T09:15:04.654Z</time>
      </trkpt>
      <trkpt lat="49.14462" lon="3.08875">
        <ele>104</ele>
        <time>2021-05-04T09:15:09.657Z</time>
      </trkpt>
      <trkpt lat="49.14456" lon="3.08833">
        <ele>104</ele>
        <time>2021-05-04T09:15:14.652Z</time>
      </trkpt>
      <trkpt lat="49.14452" lon="3.08799">
        <ele>104</ele>
        <time>2021-05-04T09:15:19.655Z</time>
      </trkpt>
      <trkpt lat="49.14449" lon="3.08766">
        <ele>104</ele>
        <time>2021-05-04T09:15:24.657Z</time>
      </trkpt>
      <trkpt lat="49.14445" lon="3.08738">
        <ele>104</ele>
        <time>2021-05-04T09:15:28.657Z</time>
      </trkpt>
      <trkpt lat="49.14444" lon="3.0871">
        <ele>105</ele>
        <time>2021-05-04T09:15:32.661Z</time>
      </trkpt>
      <trkpt lat="49.1444" lon="3.08678">
        <ele>105</ele>
        <time>2021-05-04T09:15:36.659Z</time>
      </trkpt>
      <trkpt lat="49.14437" lon="3.08647">
        <ele>105</ele>
        <time>2021-05-04T09:15:40.656Z</time>
      </trkpt>
      <trkpt lat="49.14434" lon="3.08609">
        <ele>105</ele>
        <time>2021-05-04T09:15:45.654Z</time>
      </trkpt>
      <trkpt lat="49.1443" lon="3.08569">
        <ele>105</ele>
        <time>2021-05-04T09:15:50.660Z</time>
      </trkpt>
      <trkpt lat="49.1442" lon="3.08536">
        <ele>106</ele>
        <time>2021-05-04T09:15:55.654Z</time>
      </trkpt>
      <trkpt lat="49.14406" lon="3.08504">
        <ele>106</ele>
        <time>2021-05-04T09:16:00.659Z</time>
      </trkpt>
      <trkpt lat="49.14389" lon="3.08476">
        <ele>106</ele>
        <time>2021-05-04T09:16:05.656Z</time>
      </trkpt>
      <trkpt lat="49.14374" lon="3.08449">
        <ele>106</ele>
        <time>2021-05-04T09:16:10.655Z</time>
      </trkpt>
      <trkpt lat="49.14357" lon="3.08422">
        <ele>106</ele>
        <time>2021-05-04T09:16:15.660Z</time>
      </trkpt>
      <trkpt lat="49.14346" lon="3.08398">
        <ele>106</ele>
        <time>2021-05-04T09:16:19.649Z</time>
      </trkpt>
      <trkpt lat="49.14336" lon="3.08369">
        <ele>105</ele>
        <time>2021-05-04T09:16:23.653Z</time>
      </trkpt>
      <trkpt lat="49.14333" lon="3.08337">
        <ele>105</ele>
        <time>2021-05-04T09:16:27.653Z</time>
      </trkpt>
      <trkpt lat="49.14343" lon="3.08299">
        <ele>105</ele>
        <time>2021-05-04T09:16:32.658Z</time>
      </trkpt>
      <trkpt lat="49.14357" lon="3.08264">
        <ele>105</ele>
        <time>2021-05-04T09:16:37.658Z</time>
      </trkpt>
      <trkpt lat="49.14358" lon="3.08223">
        <ele>105</ele>
        <time>2021-05-04T09:16:42.655Z</time>
      </trkpt>
      <trkpt lat="49.14347" lon="3.08187">
        <ele>104</ele>
        <time>2021-05-04T09:16:47.653Z</time>
      </trkpt>
      <trkpt lat="49.14335" lon="3.0815">
        <ele>104</ele>
        <time>2021-05-04T09:16:52.656Z</time>
      </trkpt>
      <trkpt lat="49.14327" lon="3.08111">
        <ele>104</ele>
        <time>2021-05-04T09:16:57.657Z</time>
      </trkpt>
      <trkpt lat="49.14322" lon="3.08073">
        <ele>104</ele>
        <time>2021-05-04T09:17:02.657Z</time>
      </trkpt>
      <trkpt lat="49.14304" lon="3.08047">
        <ele>104</ele>
        <time>2021-05-04T09:17:07.654Z</time>
      </trkpt>
      <trkpt lat="49.14288" lon="3.08029">
        <ele>104</ele>
        <time>2021-05-04T09:17:12.659Z</time>
      </trkpt>
      <trkpt lat="49.14268" lon="3.08023">
        <ele>104</ele>
        <time>2021-05-04T09:17:15.657Z</time>
      </trkpt>
      <trkpt lat="49.14246" lon="3.08016">
        <ele>104</ele>
        <time>2021-05-04T09:17:19.655Z</time>
      </trkpt>
      <trkpt lat="49.14223" lon="3.08015">
        <ele>104</ele>
        <time>2021-05-04T09:17:24.660Z</time>
      </trkpt>
      <trkpt lat="49.142" lon="3.08019">
        <ele>104</ele>
        <time>2021-05-04T09:17:29.657Z</time>
      </trkpt>
      <trkpt lat="49.14183" lon="3.08009">
        <ele>105</ele>
        <time>2021-05-04T09:17:34.660Z</time>
      </trkpt>
      <trkpt lat="49.14164" lon="3.08012">
        <ele>105</ele>
        <time>2021-05-04T09:17:39.659Z</time>
      </trkpt>
      <trkpt lat="49.1415" lon="3.08022">
        <ele>105</ele>
        <time>2021-05-04T09:17:43.656Z</time>
      </trkpt>
      <trkpt lat="49.14135" lon="3.08034">
        <ele>105</ele>
        <time>2021-05-04T09:17:47.656Z</time>
      </trkpt>
      <trkpt lat="49.14119" lon="3.08046">
        <ele>105</ele>
        <time>2021-05-04T09:17:52.657Z</time>
      </trkpt>
      <trkpt lat="49.14112" lon="3.08053">
        <ele>104</ele>
        <time>2021-05-04T09:18:09.651Z</time>
      </trkpt>
      <trkpt lat="49.14112" lon="3.08053">
        <ele>104</ele>
        <time>2021-05-04T09:19:21.663Z</time>
      </trkpt>
      <trkpt lat="49.14093" lon="3.08073">
        <ele>104</ele>
        <time>2021-05-04T09:19:22.657Z</time>
      </trkpt>
      <trkpt lat="49.14083" lon="3.08084">
        <ele>104</ele>
        <time>2021-05-04T09:19:25.657Z</time>
      </trkpt>
      <trkpt lat="49.14067" lon="3.08098">
        <ele>104</ele>
        <time>2021-05-04T09:19:29.660Z</time>
      </trkpt>
      <trkpt lat="49.14049" lon="3.08105">
        <ele>104</ele>
        <time>2021-05-04T09:19:33.659Z</time>
      </trkpt>
      <trkpt lat="49.14025" lon="3.0811">
        <ele>104</ele>
        <time>2021-05-04T09:19:38.659Z</time>
      </trkpt>
      <trkpt lat="49.14005" lon="3.08112">
        <ele>104</ele>
        <time>2021-05-04T09:19:42.657Z</time>
      </trkpt>
      <trkpt lat="49.1398" lon="3.08115">
        <ele>104</ele>
        <time>2021-05-04T09:19:47.659Z</time>
      </trkpt>
      <trkpt lat="49.13955" lon="3.08119">
        <ele>104</ele>
        <time>2021-05-04T09:19:52.653Z</time>
      </trkpt>
      <trkpt lat="49.1393" lon="3.08122">
        <ele>104</ele>
        <time>2021-05-04T09:19:57.661Z</time>
      </trkpt>
      <trkpt lat="49.13907" lon="3.08118">
        <ele>104</ele>
        <time>2021-05-04T09:20:02.655Z</time>
      </trkpt>
      <trkpt lat="49.13883" lon="3.08107">
        <ele>104</ele>
        <time>2021-05-04T09:20:07.654Z</time>
      </trkpt>
      <trkpt lat="49.13864" lon="3.08087">
        <ele>104</ele>
        <time>2021-05-04T09:20:12.658Z</time>
      </trkpt>
      <trkpt lat="49.13848" lon="3.08073">
        <ele>104</ele>
        <time>2021-05-04T09:20:17.653Z</time>
      </trkpt>
      <trkpt lat="49.13828" lon="3.0807">
        <ele>103</ele>
        <time>2021-05-04T09:20:22.658Z</time>
      </trkpt>
      <trkpt lat="49.1381" lon="3.08074">
        <ele>104</ele>
        <time>2021-05-04T09:20:26.671Z</time>
      </trkpt>
      <trkpt lat="49.13794" lon="3.08082">
        <ele>104</ele>
        <time>2021-05-04T09:20:30.658Z</time>
      </trkpt>
      <trkpt lat="49.13777" lon="3.08097">
        <ele>104</ele>
        <time>2021-05-04T09:20:35.656Z</time>
      </trkpt>
      <trkpt lat="49.13762" lon="3.08101">
        <ele>104</ele>
        <time>2021-05-04T09:20:41.655Z</time>
      </trkpt>
      <trkpt lat="49.13753" lon="3.08094">
        <ele>104</ele>
        <time>2021-05-04T09:20:46.657Z</time>
      </trkpt>
      <trkpt lat="49.13744" lon="3.08094">
        <ele>104</ele>
        <time>2021-05-04T09:20:50.653Z</time>
      </trkpt>
      <trkpt lat="49.13734" lon="3.08095">
        <ele>104</ele>
        <time>2021-05-04T09:20:53.656Z</time>
      </trkpt>
      <trkpt lat="49.13724" lon="3.08088">
        <ele>105</ele>
        <time>2021-05-04T09:20:57.654Z</time>
      </trkpt>
      <trkpt lat="49.13725" lon="3.08071">
        <ele>105</ele>
        <time>2021-05-04T09:21:00.658Z</time>
      </trkpt>
      <trkpt lat="49.1372" lon="3.08052">
        <ele>105</ele>
        <time>2021-05-04T09:21:05.656Z</time>
      </trkpt>
      <trkpt lat="49.13711" lon="3.08038">
        <ele>105</ele>
        <time>2021-05-04T09:21:09.661Z</time>
      </trkpt>
      <trkpt lat="49.137" lon="3.08037">
        <ele>105</ele>
        <time>2021-05-04T09:21:12.655Z</time>
      </trkpt>
      <trkpt lat="49.13685" lon="3.08038">
        <ele>105</ele>
        <time>2021-05-04T09:21:16.659Z</time>
      </trkpt>
      <trkpt lat="49.13669" lon="3.08039">
        <ele>105</ele>
        <time>2021-05-04T09:21:20.656Z</time>
      </trkpt>
      <trkpt lat="49.13652" lon="3.0804">
        <ele>105</ele>
        <time>2021-05-04T09:21:24.659Z</time>
      </trkpt>
      <trkpt lat="49.13635" lon="3.08041">
        <ele>105</ele>
        <time>2021-05-04T09:21:28.657Z</time>
      </trkpt>
      <trkpt lat="49.13619" lon="3.08042">
        <ele>105</ele>
        <time>2021-05-04T09:21:32.659Z</time>
      </trkpt>
      <trkpt lat="49.13603" lon="3.08032">
        <ele>105</ele>
        <time>2021-05-04T09:21:37.657Z</time>
      </trkpt>
      <trkpt lat="49.13598" lon="3.08012">
        <ele>105</ele>
        <time>2021-05-04T09:21:42.651Z</time>
      </trkpt>
      <trkpt lat="49.13596" lon="3.07998">
        <ele>105</ele>
        <time>2021-05-04T09:21:48.651Z</time>
      </trkpt>
      <trkpt lat="49.13589" lon="3.07985">
        <ele>105</ele>
        <time>2021-05-04T09:21:52.657Z</time>
      </trkpt>
      <trkpt lat="49.13579" lon="3.07981">
        <ele>105</ele>
        <time>2021-05-04T09:21:55.656Z</time>
      </trkpt>
      <trkpt lat="49.13568" lon="3.07979">
        <ele>105</ele>
        <time>2021-05-04T09:21:58.660Z</time>
      </trkpt>
      <trkpt lat="49.13552" lon="3.07977">
        <ele>105</ele>
        <time>2021-05-04T09:22:02.658Z</time>
      </trkpt>
      <trkpt lat="49.13535" lon="3.07977">
        <ele>104</ele>
        <time>2021-05-04T09:22:06.654Z</time>
      </trkpt>
      <trkpt lat="49.13517" lon="3.07976">
        <ele>104</ele>
        <time>2021-05-04T09:22:10.659Z</time>
      </trkpt>
      <trkpt lat="49.13499" lon="3.07976">
        <ele>104</ele>
        <time>2021-05-04T09:22:14.657Z</time>
      </trkpt>
      <trkpt lat="49.13476" lon="3.07976">
        <ele>104</ele>
        <time>2021-05-04T09:22:19.652Z</time>
      </trkpt>
      <trkpt lat="49.13458" lon="3.07976">
        <ele>104</ele>
        <time>2021-05-04T09:22:23.660Z</time>
      </trkpt>
      <trkpt lat="49.13438" lon="3.07976">
        <ele>104</ele>
        <time>2021-05-04T09:22:27.660Z</time>
      </trkpt>
      <trkpt lat="49.13418" lon="3.07976">
        <ele>104</ele>
        <time>2021-05-04T09:22:31.659Z</time>
      </trkpt>
      <trkpt lat="49.13393" lon="3.07975">
        <ele>104</ele>
        <time>2021-05-04T09:22:36.656Z</time>
      </trkpt>
      <trkpt lat="49.13369" lon="3.07974">
        <ele>104</ele>
        <time>2021-05-04T09:22:41.656Z</time>
      </trkpt>
      <trkpt lat="49.13348" lon="3.07974">
        <ele>104</ele>
        <time>2021-05-04T09:22:45.652Z</time>
      </trkpt>
      <trkpt lat="49.13326" lon="3.07974">
        <ele>103</ele>
        <time>2021-05-04T09:22:49.656Z</time>
      </trkpt>
      <trkpt lat="49.133" lon="3.07974">
        <ele>103</ele>
        <time>2021-05-04T09:22:54.652Z</time>
      </trkpt>
      <trkpt lat="49.13275" lon="3.07974">
        <ele>103</ele>
        <time>2021-05-04T09:22:59.659Z</time>
      </trkpt>
      <trkpt lat="49.13249" lon="3.07975">
        <ele>103</ele>
        <time>2021-05-04T09:23:04.663Z</time>
      </trkpt>
      <trkpt lat="49.13227" lon="3.07977">
        <ele>103</ele>
        <time>2021-05-04T09:23:09.652Z</time>
      </trkpt>
      <trkpt lat="49.1321" lon="3.07979">
        <ele>103</ele>
        <time>2021-05-04T09:23:15.660Z</time>
      </trkpt>
      <trkpt lat="49.13196" lon="3.07978">
        <ele>103</ele>
        <time>2021-05-04T09:23:19.659Z</time>
      </trkpt>
      <trkpt lat="49.13183" lon="3.07979">
        <ele>103</ele>
        <time>2021-05-04T09:23:22.662Z</time>
      </trkpt>
      <trkpt lat="49.13168" lon="3.07981">
        <ele>103</ele>
        <time>2021-05-04T09:23:25.652Z</time>
      </trkpt>
      <trkpt lat="49.13147" lon="3.07984">
        <ele>103</ele>
        <time>2021-05-04T09:23:29.656Z</time>
      </trkpt>
      <trkpt lat="49.13126" lon="3.07992">
        <ele>103</ele>
        <time>2021-05-04T09:23:33.654Z</time>
      </trkpt>
      <trkpt lat="49.13101" lon="3.08004">
        <ele>103</ele>
        <time>2021-05-04T09:23:38.656Z</time>
      </trkpt>
      <trkpt lat="49.13077" lon="3.08021">
        <ele>103</ele>
        <time>2021-05-04T09:23:43.659Z</time>
      </trkpt>
      <trkpt lat="49.13057" lon="3.08043">
        <ele>103</ele>
        <time>2021-05-04T09:23:48.658Z</time>
      </trkpt>
      <trkpt lat="49.13038" lon="3.08067">
        <ele>103</ele>
        <time>2021-05-04T09:23:53.659Z</time>
      </trkpt>
      <trkpt lat="49.13021" lon="3.08094">
        <ele>102</ele>
        <time>2021-05-04T09:23:58.657Z</time>
      </trkpt>
      <trkpt lat="49.13006" lon="3.08125">
        <ele>102</ele>
        <time>2021-05-04T09:24:03.659Z</time>
      </trkpt>
      <trkpt lat="49.12995" lon="3.08151">
        <ele>101</ele>
        <time>2021-05-04T09:24:07.657Z</time>
      </trkpt>
      <trkpt lat="49.12984" lon="3.08184">
        <ele>101</ele>
        <time>2021-05-04T09:24:12.661Z</time>
      </trkpt>
      <trkpt lat="49.12976" lon="3.08216">
        <ele>100</ele>
        <time>2021-05-04T09:24:18.660Z</time>
      </trkpt>
      <trkpt lat="49.1297" lon="3.08241">
        <ele>100</ele>
        <time>2021-05-04T09:24:23.660Z</time>
      </trkpt>
      <trkpt lat="49.12964" lon="3.08263">
        <ele>99</ele>
        <time>2021-05-04T09:24:27.662Z</time>
      </trkpt>
      <trkpt lat="49.12956" lon="3.0829">
        <ele>99</ele>
        <time>2021-05-04T09:24:31.658Z</time>
      </trkpt>
      <trkpt lat="49.12951" lon="3.08317">
        <ele>98</ele>
        <time>2021-05-04T09:24:35.661Z</time>
      </trkpt>
      <trkpt lat="49.12943" lon="3.08344">
        <ele>98</ele>
        <time>2021-05-04T09:24:39.665Z</time>
      </trkpt>
      <trkpt lat="49.12934" lon="3.08377">
        <ele>98</ele>
        <time>2021-05-04T09:24:43.658Z</time>
      </trkpt>
      <trkpt lat="49.12926" lon="3.08415">
        <ele>98</ele>
        <time>2021-05-04T09:24:48.658Z</time>
      </trkpt>
      <trkpt lat="49.12919" lon="3.0845">
        <ele>99</ele>
        <time>2021-05-04T09:24:53.657Z</time>
      </trkpt>
      <trkpt lat="49.12914" lon="3.08485">
        <ele>99</ele>
        <time>2021-05-04T09:24:58.659Z</time>
      </trkpt>
      <trkpt lat="49.12905" lon="3.08521">
        <ele>99</ele>
        <time>2021-05-04T09:25:03.662Z</time>
      </trkpt>
      <trkpt lat="49.12896" lon="3.08553">
        <ele>100</ele>
        <time>2021-05-04T09:25:08.659Z</time>
      </trkpt>
      <trkpt lat="49.12883" lon="3.08583">
        <ele>100</ele>
        <time>2021-05-04T09:25:12.659Z</time>
      </trkpt>
      <trkpt lat="49.1287" lon="3.08609">
        <ele>100</ele>
        <time>2021-05-04T09:25:17.669Z</time>
      </trkpt>
      <trkpt lat="49.12855" lon="3.0863">
        <ele>101</ele>
        <time>2021-05-04T09:25:21.659Z</time>
      </trkpt>
      <trkpt lat="49.1284" lon="3.08648">
        <ele>101</ele>
        <time>2021-05-04T09:25:25.659Z</time>
      </trkpt>
      <trkpt lat="49.12821" lon="3.08661">
        <ele>100</ele>
        <time>2021-05-04T09:25:29.654Z</time>
      </trkpt>
      <trkpt lat="49.128" lon="3.0867">
        <ele>100</ele>
        <time>2021-05-04T09:25:33.657Z</time>
      </trkpt>
      <trkpt lat="49.12776" lon="3.08677">
        <ele>100</ele>
        <time>2021-05-04T09:25:38.658Z</time>
      </trkpt>
      <trkpt lat="49.12752" lon="3.08675">
        <ele>100</ele>
        <time>2021-05-04T09:25:43.660Z</time>
      </trkpt>
      <trkpt lat="49.1273" lon="3.08667">
        <ele>100</ele>
        <time>2021-05-04T09:25:48.660Z</time>
      </trkpt>
      <trkpt lat="49.12709" lon="3.08654">
        <ele>100</ele>
        <time>2021-05-04T09:25:53.656Z</time>
      </trkpt>
      <trkpt lat="49.12693" lon="3.0864">
        <ele>101</ele>
        <time>2021-05-04T09:25:57.658Z</time>
      </trkpt>
      <trkpt lat="49.12678" lon="3.08622">
        <ele>102</ele>
        <time>2021-05-04T09:26:01.660Z</time>
      </trkpt>
      <trkpt lat="49.12662" lon="3.08594">
        <ele>102</ele>
        <time>2021-05-04T09:26:06.657Z</time>
      </trkpt>
      <trkpt lat="49.12649" lon="3.08565">
        <ele>102</ele>
        <time>2021-05-04T09:26:11.660Z</time>
      </trkpt>
      <trkpt lat="49.12642" lon="3.08533">
        <ele>103</ele>
        <time>2021-05-04T09:26:16.656Z</time>
      </trkpt>
      <trkpt lat="49.1264" lon="3.08505">
        <ele>103</ele>
        <time>2021-05-04T09:26:20.663Z</time>
      </trkpt>
      <trkpt lat="49.12636" lon="3.08477">
        <ele>103</ele>
        <time>2021-05-04T09:26:24.785Z</time>
      </trkpt>
      <trkpt lat="49.12629" lon="3.08443">
        <ele>104</ele>
        <time>2021-05-04T09:26:29.660Z</time>
      </trkpt>
      <trkpt lat="49.12624" lon="3.0841">
        <ele>105</ele>
        <time>2021-05-04T09:26:34.655Z</time>
      </trkpt>
      <trkpt lat="49.12619" lon="3.08377">
        <ele>105</ele>
        <time>2021-05-04T09:26:38.659Z</time>
      </trkpt>
      <trkpt lat="49.12613" lon="3.08349">
        <ele>105</ele>
        <time>2021-05-04T09:26:42.659Z</time>
      </trkpt>
      <trkpt lat="49.12605" lon="3.08311">
        <ele>106</ele>
        <time>2021-05-04T09:26:47.659Z</time>
      </trkpt>
      <trkpt lat="49.12599" lon="3.08277">
        <ele>106</ele>
        <time>2021-05-04T09:26:52.655Z</time>
      </trkpt>
      <trkpt lat="49.12597" lon="3.08244">
        <ele>106</ele>
        <time>2021-05-04T09:26:57.660Z</time>
      </trkpt>
      <trkpt lat="49.12596" lon="3.08242">
        <ele>107</ele>
        <time>2021-05-04T09:27:15.650Z</time>
      </trkpt>
      <trkpt lat="49.12596" lon="3.08242">
        <ele>107</ele>
        <time>2021-05-04T09:28:54.656Z</time>
      </trkpt>
      <trkpt lat="49.12582" lon="3.0821">
        <ele>103</ele>
        <time>2021-05-04T09:28:55.657Z</time>
      </trkpt>
      <trkpt lat="49.1258" lon="3.08194">
        <ele>103</ele>
        <time>2021-05-04T09:28:58.655Z</time>
      </trkpt>
      <trkpt lat="49.12581" lon="3.08175">
        <ele>103</ele>
        <time>2021-05-04T09:29:01.658Z</time>
      </trkpt>
      <trkpt lat="49.12577" lon="3.08149">
        <ele>103</ele>
        <time>2021-05-04T09:29:05.655Z</time>
      </trkpt>
      <trkpt lat="49.12575" lon="3.0812">
        <ele>103</ele>
        <time>2021-05-04T09:29:09.654Z</time>
      </trkpt>
      <trkpt lat="49.12574" lon="3.08091">
        <ele>104</ele>
        <time>2021-05-04T09:29:13.655Z</time>
      </trkpt>
      <trkpt lat="49.12574" lon="3.08062">
        <ele>104</ele>
        <time>2021-05-04T09:29:17.652Z</time>
      </trkpt>
      <trkpt lat="49.12575" lon="3.08028">
        <ele>104</ele>
        <time>2021-05-04T09:29:22.658Z</time>
      </trkpt>
      <trkpt lat="49.12575" lon="3.07997">
        <ele>105</ele>
        <time>2021-05-04T09:29:26.655Z</time>
      </trkpt>
      <trkpt lat="49.12575" lon="3.07963">
        <ele>105</ele>
        <time>2021-05-04T09:29:31.657Z</time>
      </trkpt>
      <trkpt lat="49.12574" lon="3.07933">
        <ele>105</ele>
        <time>2021-05-04T09:29:35.652Z</time>
      </trkpt>
      <trkpt lat="49.12577" lon="3.079">
        <ele>105</ele>
        <time>2021-05-04T09:29:39.658Z</time>
      </trkpt>
      <trkpt lat="49.12578" lon="3.07869">
        <ele>105</ele>
        <time>2021-05-04T09:29:43.652Z</time>
      </trkpt>
      <trkpt lat="49.1258" lon="3.07834">
        <ele>105</ele>
        <time>2021-05-04T09:29:48.655Z</time>
      </trkpt>
      <trkpt lat="49.12582" lon="3.07798">
        <ele>105</ele>
        <time>2021-05-04T09:29:53.656Z</time>
      </trkpt>
      <trkpt lat="49.12584" lon="3.07765">
        <ele>104</ele>
        <time>2021-05-04T09:29:58.663Z</time>
      </trkpt>
      <trkpt lat="49.12585" lon="3.07729">
        <ele>104</ele>
        <time>2021-05-04T09:30:03.656Z</time>
      </trkpt>
      <trkpt lat="49.12587" lon="3.07698">
        <ele>104</ele>
        <time>2021-05-04T09:30:07.654Z</time>
      </trkpt>
      <trkpt lat="49.12588" lon="3.07664">
        <ele>103</ele>
        <time>2021-05-04T09:30:12.655Z</time>
      </trkpt>
      <trkpt lat="49.12589" lon="3.07633">
        <ele>103</ele>
        <time>2021-05-04T09:30:16.654Z</time>
      </trkpt>
      <trkpt lat="49.1259" lon="3.07599">
        <ele>103</ele>
        <time>2021-05-04T09:30:21.656Z</time>
      </trkpt>
      <trkpt lat="49.12592" lon="3.07563">
        <ele>103</ele>
        <time>2021-05-04T09:30:26.654Z</time>
      </trkpt>
      <trkpt lat="49.12593" lon="3.07525">
        <ele>103</ele>
        <time>2021-05-04T09:30:31.661Z</time>
      </trkpt>
      <trkpt lat="49.12594" lon="3.07487">
        <ele>103</ele>
        <time>2021-05-04T09:30:36.655Z</time>
      </trkpt>
      <trkpt lat="49.12594" lon="3.0745">
        <ele>103</ele>
        <time>2021-05-04T09:30:41.656Z</time>
      </trkpt>
      <trkpt lat="49.12593" lon="3.07412">
        <ele>104</ele>
        <time>2021-05-04T09:30:46.658Z</time>
      </trkpt>
      <trkpt lat="49.12591" lon="3.07378">
        <ele>104</ele>
        <time>2021-05-04T09:30:51.659Z</time>
      </trkpt>
      <trkpt lat="49.12582" lon="3.07345">
        <ele>104</ele>
        <time>2021-05-04T09:30:56.653Z</time>
      </trkpt>
      <trkpt lat="49.12573" lon="3.07315">
        <ele>104</ele>
        <time>2021-05-04T09:31:00.657Z</time>
      </trkpt>
      <trkpt lat="49.12562" lon="3.07282">
        <ele>104</ele>
        <time>2021-05-04T09:31:05.658Z</time>
      </trkpt>
      <trkpt lat="49.12547" lon="3.07253">
        <ele>104</ele>
        <time>2021-05-04T09:31:10.666Z</time>
      </trkpt>
      <trkpt lat="49.12534" lon="3.07225">
        <ele>104</ele>
        <time>2021-05-04T09:31:15.661Z</time>
      </trkpt>
      <trkpt lat="49.12523" lon="3.07196">
        <ele>105</ele>
        <time>2021-05-04T09:31:20.777Z</time>
      </trkpt>
      <trkpt lat="49.12508" lon="3.07175">
        <ele>105</ele>
        <time>2021-05-04T09:31:24.657Z</time>
      </trkpt>
      <trkpt lat="49.1249" lon="3.07157">
        <ele>105</ele>
        <time>2021-05-04T09:31:28.656Z</time>
      </trkpt>
      <trkpt lat="49.12471" lon="3.07143">
        <ele>104</ele>
        <time>2021-05-04T09:31:32.659Z</time>
      </trkpt>
      <trkpt lat="49.12449" lon="3.07125">
        <ele>104</ele>
        <time>2021-05-04T09:31:37.657Z</time>
      </trkpt>
      <trkpt lat="49.1243" lon="3.07104">
        <ele>104</ele>
        <time>2021-05-04T09:31:42.660Z</time>
      </trkpt>
      <trkpt lat="49.1241" lon="3.07087">
        <ele>103</ele>
        <time>2021-05-04T09:31:47.654Z</time>
      </trkpt>
      <trkpt lat="49.12393" lon="3.07073">
        <ele>103</ele>
        <time>2021-05-04T09:31:51.660Z</time>
      </trkpt>
      <trkpt lat="49.12374" lon="3.07055">
        <ele>103</ele>
        <time>2021-05-04T09:31:56.655Z</time>
      </trkpt>
      <trkpt lat="49.12354" lon="3.07038">
        <ele>103</ele>
        <time>2021-05-04T09:32:01.655Z</time>
      </trkpt>
      <trkpt lat="49.12335" lon="3.07022">
        <ele>103</ele>
        <time>2021-05-04T09:32:06.659Z</time>
      </trkpt>
      <trkpt lat="49.12316" lon="3.07005">
        <ele>102</ele>
        <time>2021-05-04T09:32:11.654Z</time>
      </trkpt>
      <trkpt lat="49.12297" lon="3.06989">
        <ele>102</ele>
        <time>2021-05-04T09:32:16.658Z</time>
      </trkpt>
      <trkpt lat="49.12281" lon="3.06975">
        <ele>102</ele>
        <time>2021-05-04T09:32:20.653Z</time>
      </trkpt>
      <trkpt lat="49.12261" lon="3.06958">
        <ele>102</ele>
        <time>2021-05-04T09:32:25.654Z</time>
      </trkpt>
      <trkpt lat="49.12241" lon="3.0694">
        <ele>102</ele>
        <time>2021-05-04T09:32:30.655Z</time>
      </trkpt>
      <trkpt lat="49.12221" lon="3.06924">
        <ele>102</ele>
        <time>2021-05-04T09:32:35.654Z</time>
      </trkpt>
      <trkpt lat="49.12202" lon="3.06919">
        <ele>102</ele>
        <time>2021-05-04T09:32:39.653Z</time>
      </trkpt>
      <trkpt lat="49.12182" lon="3.0691">
        <ele>102</ele>
        <time>2021-05-04T09:32:44.654Z</time>
      </trkpt>
      <trkpt lat="49.12165" lon="3.06897">
        <ele>103</ele>
        <time>2021-05-04T09:32:49.655Z</time>
      </trkpt>
      <trkpt lat="49.12155" lon="3.06891">
        <ele>103</ele>
        <time>2021-05-04T09:32:56.679Z</time>
      </trkpt>
      <trkpt lat="49.12148" lon="3.06907">
        <ele>105</ele>
        <time>2021-05-04T09:33:06.654Z</time>
      </trkpt>
      <trkpt lat="49.12142" lon="3.06921">
        <ele>105</ele>
        <time>2021-05-04T09:33:08.655Z</time>
      </trkpt>
      <trkpt lat="49.12136" lon="3.06935">
        <ele>105</ele>
        <time>2021-05-04T09:33:10.654Z</time>
      </trkpt>
      <trkpt lat="49.12127" lon="3.06955">
        <ele>105</ele>
        <time>2021-05-04T09:33:13.654Z</time>
      </trkpt>
      <trkpt lat="49.12116" lon="3.06986">
        <ele>104</ele>
        <time>2021-05-04T09:33:18.654Z</time>
      </trkpt>
      <trkpt lat="49.12105" lon="3.07014">
        <ele>104</ele>
        <time>2021-05-04T09:33:22.661Z</time>
      </trkpt>
      <trkpt lat="49.12092" lon="3.07047">
        <ele>104</ele>
        <time>2021-05-04T09:33:27.756Z</time>
      </trkpt>
      <trkpt lat="49.12078" lon="3.07079">
        <ele>103</ele>
        <time>2021-05-04T09:33:32.657Z</time>
      </trkpt>
      <trkpt lat="49.12069" lon="3.07109">
        <ele>103</ele>
        <time>2021-05-04T09:33:37.653Z</time>
      </trkpt>
      <trkpt lat="49.12061" lon="3.07134">
        <ele>101</ele>
        <time>2021-05-04T09:33:43.655Z</time>
      </trkpt>
      <trkpt lat="49.12053" lon="3.07151">
        <ele>101</ele>
        <time>2021-05-04T09:33:48.658Z</time>
      </trkpt>
      <trkpt lat="49.12048" lon="3.07166">
        <ele>101</ele>
        <time>2021-05-04T09:33:51.664Z</time>
      </trkpt>
      <trkpt lat="49.12042" lon="3.0718">
        <ele>101</ele>
        <time>2021-05-04T09:33:54.663Z</time>
      </trkpt>
      <trkpt lat="49.12035" lon="3.07198">
        <ele>101</ele>
        <time>2021-05-04T09:33:57.657Z</time>
      </trkpt>
      <trkpt lat="49.12025" lon="3.0722">
        <ele>101</ele>
        <time>2021-05-04T09:34:01.658Z</time>
      </trkpt>
      <trkpt lat="49.12016" lon="3.07244">
        <ele>101</ele>
        <time>2021-05-04T09:34:06.665Z</time>
      </trkpt>
      <trkpt lat="49.12008" lon="3.07268">
        <ele>102</ele>
        <time>2021-05-04T09:34:11.657Z</time>
      </trkpt>
      <trkpt lat="49.12001" lon="3.07286">
        <ele>102</ele>
        <time>2021-05-04T09:34:15.686Z</time>
      </trkpt>
      <trkpt lat="49.11994" lon="3.07307">
        <ele>103</ele>
        <time>2021-05-04T09:34:19.655Z</time>
      </trkpt>
      <trkpt lat="49.11986" lon="3.07331">
        <ele>103</ele>
        <time>2021-05-04T09:34:23.680Z</time>
      </trkpt>
      <trkpt lat="49.11977" lon="3.07352">
        <ele>104</ele>
        <time>2021-05-04T09:34:27.682Z</time>
      </trkpt>
      <trkpt lat="49.11968" lon="3.07374">
        <ele>104</ele>
        <time>2021-05-04T09:34:31.675Z</time>
      </trkpt>
      <trkpt lat="49.11961" lon="3.07396">
        <ele>103</ele>
        <time>2021-05-04T09:34:36.689Z</time>
      </trkpt>
      <trkpt lat="49.11952" lon="3.0741">
        <ele>103</ele>
        <time>2021-05-04T09:34:41.750Z</time>
      </trkpt>
      <trkpt lat="49.11947" lon="3.07425">
        <ele>103</ele>
        <time>2021-05-04T09:34:45.690Z</time>
      </trkpt>
      <trkpt lat="49.11943" lon="3.07441">
        <ele>103</ele>
        <time>2021-05-04T09:34:48.654Z</time>
      </trkpt>
      <trkpt lat="49.11936" lon="3.07459">
        <ele>103</ele>
        <time>2021-05-04T09:34:51.659Z</time>
      </trkpt>
      <trkpt lat="49.11926" lon="3.07481">
        <ele>102</ele>
        <time>2021-05-04T09:34:55.657Z</time>
      </trkpt>
      <trkpt lat="49.11914" lon="3.07506">
        <ele>102</ele>
        <time>2021-05-04T09:35:00.657Z</time>
      </trkpt>
      <trkpt lat="49.11902" lon="3.07522">
        <ele>102</ele>
        <time>2021-05-04T09:35:04.658Z</time>
      </trkpt>
      <trkpt lat="49.11887" lon="3.07539">
        <ele>102</ele>
        <time>2021-05-04T09:35:08.659Z</time>
      </trkpt>
      <trkpt lat="49.11871" lon="3.07556">
        <ele>102</ele>
        <time>2021-05-04T09:35:12.658Z</time>
      </trkpt>
      <trkpt lat="49.11852" lon="3.07571">
        <ele>103</ele>
        <time>2021-05-04T09:35:17.656Z</time>
      </trkpt>
      <trkpt lat="49.11835" lon="3.07582">
        <ele>103</ele>
        <time>2021-05-04T09:35:22.652Z</time>
      </trkpt>
      <trkpt lat="49.11817" lon="3.07584">
        <ele>103</ele>
        <time>2021-05-04T09:35:27.653Z</time>
      </trkpt>
      <trkpt lat="49.118" lon="3.07583">
        <ele>104</ele>
        <time>2021-05-04T09:35:32.654Z</time>
      </trkpt>
      <trkpt lat="49.11784" lon="3.0758">
        <ele>104</ele>
        <time>2021-05-04T09:35:36.655Z</time>
      </trkpt>
      <trkpt lat="49.11766" lon="3.07574">
        <ele>105</ele>
        <time>2021-05-04T09:35:40.656Z</time>
      </trkpt>
      <trkpt lat="49.11747" lon="3.07571">
        <ele>105</ele>
        <time>2021-05-04T09:35:44.656Z</time>
      </trkpt>
      <trkpt lat="49.11728" lon="3.07565">
        <ele>105</ele>
        <time>2021-05-04T09:35:48.657Z</time>
      </trkpt>
      <trkpt lat="49.11705" lon="3.07565">
        <ele>105</ele>
        <time>2021-05-04T09:35:53.660Z</time>
      </trkpt>
      <trkpt lat="49.11686" lon="3.07569">
        <ele>105</ele>
        <time>2021-05-04T09:35:57.655Z</time>
      </trkpt>
      <trkpt lat="49.11667" lon="3.07577">
        <ele>105</ele>
        <time>2021-05-04T09:36:01.658Z</time>
      </trkpt>
      <trkpt lat="49.11648" lon="3.07594">
        <ele>105</ele>
        <time>2021-05-04T09:36:06.661Z</time>
      </trkpt>
      <trkpt lat="49.11631" lon="3.07618">
        <ele>105</ele>
        <time>2021-05-04T09:36:11.659Z</time>
      </trkpt>
      <trkpt lat="49.11618" lon="3.07643">
        <ele>105</ele>
        <time>2021-05-04T09:36:15.654Z</time>
      </trkpt>
      <trkpt lat="49.11602" lon="3.0767">
        <ele>105</ele>
        <time>2021-05-04T09:36:20.654Z</time>
      </trkpt>
      <trkpt lat="49.11592" lon="3.07699">
        <ele>105</ele>
        <time>2021-05-04T09:36:25.673Z</time>
      </trkpt>
      <trkpt lat="49.11581" lon="3.07728">
        <ele>105</ele>
        <time>2021-05-04T09:36:29.659Z</time>
      </trkpt>
      <trkpt lat="49.1157" lon="3.07757">
        <ele>105</ele>
        <time>2021-05-04T09:36:33.655Z</time>
      </trkpt>
      <trkpt lat="49.11557" lon="3.07794">
        <ele>105</ele>
        <time>2021-05-04T09:36:38.656Z</time>
      </trkpt>
      <trkpt lat="49.11544" lon="3.07828">
        <ele>105</ele>
        <time>2021-05-04T09:36:43.654Z</time>
      </trkpt>
      <trkpt lat="49.11535" lon="3.0786">
        <ele>105</ele>
        <time>2021-05-04T09:36:48.653Z</time>
      </trkpt>
      <trkpt lat="49.11526" lon="3.0789">
        <ele>104</ele>
        <time>2021-05-04T09:36:53.654Z</time>
      </trkpt>
      <trkpt lat="49.11516" lon="3.07917">
        <ele>104</ele>
        <time>2021-05-04T09:36:58.657Z</time>
      </trkpt>
      <trkpt lat="49.11507" lon="3.07939">
        <ele>104</ele>
        <time>2021-05-04T09:37:03.654Z</time>
      </trkpt>
      <trkpt lat="49.11498" lon="3.07961">
        <ele>103</ele>
        <time>2021-05-04T09:37:08.656Z</time>
      </trkpt>
      <trkpt lat="49.11492" lon="3.07981">
        <ele>103</ele>
        <time>2021-05-04T09:37:12.659Z</time>
      </trkpt>
      <trkpt lat="49.11486" lon="3.07987">
        <ele>102</ele>
        <time>2021-05-04T09:37:29.657Z</time>
      </trkpt>
      <trkpt lat="49.11486" lon="3.07987">
        <ele>102</ele>
        <time>2021-05-04T09:37:58.656Z</time>
      </trkpt>
      <trkpt lat="49.11503" lon="3.0801">
        <ele>103</ele>
        <time>2021-05-04T09:37:59.656Z</time>
      </trkpt>
      <trkpt lat="49.1151" lon="3.08027">
        <ele>103</ele>
        <time>2021-05-04T09:38:02.654Z</time>
      </trkpt>
      <trkpt lat="49.11515" lon="3.08055">
        <ele>103</ele>
        <time>2021-05-04T09:38:06.653Z</time>
      </trkpt>
      <trkpt lat="49.11515" lon="3.08084">
        <ele>103</ele>
        <time>2021-05-04T09:38:10.654Z</time>
      </trkpt>
      <trkpt lat="49.11513" lon="3.08116">
        <ele>104</ele>
        <time>2021-05-04T09:38:15.654Z</time>
      </trkpt>
      <trkpt lat="49.11512" lon="3.08147">
        <ele>104</ele>
        <time>2021-05-04T09:38:20.685Z</time>
      </trkpt>
      <trkpt lat="49.11511" lon="3.08174">
        <ele>104</ele>
        <time>2021-05-04T09:38:25.654Z</time>
      </trkpt>
      <trkpt lat="49.1151" lon="3.082">
        <ele>104</ele>
        <time>2021-05-04T09:38:29.655Z</time>
      </trkpt>
      <trkpt lat="49.11509" lon="3.08231">
        <ele>104</ele>
        <time>2021-05-04T09:38:33.657Z</time>
      </trkpt>
      <trkpt lat="49.11509" lon="3.08265">
        <ele>104</ele>
        <time>2021-05-04T09:38:38.655Z</time>
      </trkpt>
      <trkpt lat="49.11506" lon="3.08291">
        <ele>104</ele>
        <time>2021-05-04T09:38:44.655Z</time>
      </trkpt>
      <trkpt lat="49.11505" lon="3.08309">
        <ele>104</ele>
        <time>2021-05-04T09:38:49.655Z</time>
      </trkpt>
      <trkpt lat="49.11505" lon="3.08323">
        <ele>104</ele>
        <time>2021-05-04T09:38:52.656Z</time>
      </trkpt>
      <trkpt lat="49.11503" lon="3.08341">
        <ele>103</ele>
        <time>2021-05-04T09:38:56.655Z</time>
      </trkpt>
      <trkpt lat="49.11501" lon="3.0836">
        <ele>103</ele>
        <time>2021-05-04T09:39:01.656Z</time>
      </trkpt>
      <trkpt lat="49.115" lon="3.08375">
        <ele>103</ele>
        <time>2021-05-04T09:39:05.656Z</time>
      </trkpt>
      <trkpt lat="49.11499" lon="3.0839">
        <ele>103</ele>
        <time>2021-05-04T09:39:09.656Z</time>
      </trkpt>
      <trkpt lat="49.11504" lon="3.08378">
        <ele>102</ele>
        <time>2021-05-04T09:39:33.656Z</time>
      </trkpt>
      <trkpt lat="49.11505" lon="3.08363">
        <ele>103</ele>
        <time>2021-05-04T09:39:38.658Z</time>
      </trkpt>
      <trkpt lat="49.11502" lon="3.08353">
        <ele>104</ele>
        <time>2021-05-04T09:40:02.652Z</time>
      </trkpt>
      <trkpt lat="49.11502" lon="3.08353">
        <ele>104</ele>
        <time>2021-05-04T09:41:09.654Z</time>
      </trkpt>
      <trkpt lat="49.11508" lon="3.08319">
        <ele>106</ele>
        <time>2021-05-04T09:41:10.655Z</time>
      </trkpt>
      <trkpt lat="49.11509" lon="3.08301">
        <ele>106</ele>
        <time>2021-05-04T09:41:14.658Z</time>
      </trkpt>
      <trkpt lat="49.1151" lon="3.08286">
        <ele>106</ele>
        <time>2021-05-04T09:41:18.655Z</time>
      </trkpt>
      <trkpt lat="49.11508" lon="3.08273">
        <ele>107</ele>
        <time>2021-05-04T09:41:30.652Z</time>
      </trkpt>
      <trkpt lat="49.11508" lon="3.08262">
        <ele>107</ele>
        <time>2021-05-04T09:41:47.655Z</time>
      </trkpt>
      <trkpt lat="49.11508" lon="3.08262">
        <ele>107</ele>
        <time>2021-05-04T09:43:46.654Z</time>
      </trkpt>
      <trkpt lat="49.11512" lon="3.08227">
        <ele>106</ele>
        <time>2021-05-04T09:43:47.655Z</time>
      </trkpt>
      <trkpt lat="49.11512" lon="3.08212">
        <ele>106</ele>
        <time>2021-05-04T09:43:50.652Z</time>
      </trkpt>
      <trkpt lat="49.11513" lon="3.08196">
        <ele>106</ele>
        <time>2021-05-04T09:43:53.652Z</time>
      </trkpt>
      <trkpt lat="49.11513" lon="3.08176">
        <ele>106</ele>
        <time>2021-05-04T09:43:57.655Z</time>
      </trkpt>
      <trkpt lat="49.11511" lon="3.08156">
        <ele>107</ele>
        <time>2021-05-04T09:44:02.652Z</time>
      </trkpt>
      <trkpt lat="49.11514" lon="3.08138">
        <ele>108</ele>
        <time>2021-05-04T09:44:16.656Z</time>
      </trkpt>
      <trkpt lat="49.11515" lon="3.0812">
        <ele>108</ele>
        <time>2021-05-04T09:44:19.653Z</time>
      </trkpt>
      <trkpt lat="49.11516" lon="3.08105">
        <ele>108</ele>
        <time>2021-05-04T09:44:21.654Z</time>
      </trkpt>
      <trkpt lat="49.11516" lon="3.08088">
        <ele>108</ele>
        <time>2021-05-04T09:44:23.652Z</time>
      </trkpt>
      <trkpt lat="49.11516" lon="3.08063">
        <ele>108</ele>
        <time>2021-05-04T09:44:26.652Z</time>
      </trkpt>
      <trkpt lat="49.11511" lon="3.08025">
        <ele>108</ele>
        <time>2021-05-04T09:44:31.655Z</time>
      </trkpt>
      <trkpt lat="49.11496" lon="3.07997">
        <ele>107</ele>
        <time>2021-05-04T09:44:36.654Z</time>
      </trkpt>
      <trkpt lat="49.11481" lon="3.07981">
        <ele>107</ele>
        <time>2021-05-04T09:44:42.652Z</time>
      </trkpt>
      <trkpt lat="49.1147" lon="3.07993">
        <ele>107</ele>
        <time>2021-05-04T09:44:47.651Z</time>
      </trkpt>
      <trkpt lat="49.11464" lon="3.0801">
        <ele>107</ele>
        <time>2021-05-04T09:44:50.654Z</time>
      </trkpt>
      <trkpt lat="49.11459" lon="3.08029">
        <ele>106</ele>
        <time>2021-05-04T09:44:53.654Z</time>
      </trkpt>
      <trkpt lat="49.11449" lon="3.08055">
        <ele>106</ele>
        <time>2021-05-04T09:44:57.654Z</time>
      </trkpt>
      <trkpt lat="49.11438" lon="3.08082">
        <ele>106</ele>
        <time>2021-05-04T09:45:01.654Z</time>
      </trkpt>
      <trkpt lat="49.11428" lon="3.08113">
        <ele>105</ele>
        <time>2021-05-04T09:45:06.658Z</time>
      </trkpt>
      <trkpt lat="49.1142" lon="3.08143">
        <ele>105</ele>
        <time>2021-05-04T09:45:11.654Z</time>
      </trkpt>
      <trkpt lat="49.11415" lon="3.08168">
        <ele>105</ele>
        <time>2021-05-04T09:45:17.654Z</time>
      </trkpt>
      <trkpt lat="49.11416" lon="3.08172">
        <ele>106</ele>
        <time>2021-05-04T09:45:32.650Z</time>
      </trkpt>
      <trkpt lat="49.11416" lon="3.08172">
        <ele>106</ele>
        <time>2021-05-04T09:46:26.650Z</time>
      </trkpt>
      <trkpt lat="49.11433" lon="3.08151">
        <ele>106</ele>
        <time>2021-05-04T09:46:27.657Z</time>
      </trkpt>
      <trkpt lat="49.1143" lon="3.0816">
        <ele>106</ele>
        <time>2021-05-04T09:46:39.657Z</time>
      </trkpt>
      <trkpt lat="49.1143" lon="3.0816">
        <ele>106</ele>
        <time>2021-05-04T09:47:13.660Z</time>
      </trkpt>
      <trkpt lat="49.11414" lon="3.08184">
        <ele>107</ele>
        <time>2021-05-04T09:47:14.658Z</time>
      </trkpt>
      <trkpt lat="49.11412" lon="3.08199">
        <ele>108</ele>
        <time>2021-05-04T09:47:17.656Z</time>
      </trkpt>
      <trkpt lat="49.11411" lon="3.08214">
        <ele>108</ele>
        <time>2021-05-04T09:47:20.661Z</time>
      </trkpt>
      <trkpt lat="49.11409" lon="3.08233">
        <ele>108</ele>
        <time>2021-05-04T09:47:23.652Z</time>
      </trkpt>
      <trkpt lat="49.11406" lon="3.08258">
        <ele>108</ele>
        <time>2021-05-04T09:47:27.662Z</time>
      </trkpt>
      <trkpt lat="49.11407" lon="3.08282">
        <ele>108</ele>
        <time>2021-05-04T09:47:31.658Z</time>
      </trkpt>
      <trkpt lat="49.11407" lon="3.08306">
        <ele>109</ele>
        <time>2021-05-04T09:47:35.660Z</time>
      </trkpt>
      <trkpt lat="49.11407" lon="3.08335">
        <ele>109</ele>
        <time>2021-05-04T09:47:40.660Z</time>
      </trkpt>
      <trkpt lat="49.11408" lon="3.08358">
        <ele>110</ele>
        <time>2021-05-04T09:47:44.660Z</time>
      </trkpt>
      <trkpt lat="49.11406" lon="3.08373">
        <ele>110</ele>
        <time>2021-05-04T09:47:52.657Z</time>
      </trkpt>
      <trkpt lat="49.11407" lon="3.08374">
        <ele>110</ele>
        <time>2021-05-04T09:48:01.653Z</time>
      </trkpt>
      <trkpt lat="49.11407" lon="3.08374">
        <ele>110</ele>
        <time>2021-05-04T09:50:17.659Z</time>
      </trkpt>
      <trkpt lat="49.11407" lon="3.08337">
        <ele>107</ele>
        <time>2021-05-04T09:50:18.654Z</time>
      </trkpt>
      <trkpt lat="49.11408" lon="3.08318">
        <ele>107</ele>
        <time>2021-05-04T09:50:21.650Z</time>
      </trkpt>
      <trkpt lat="49.11408" lon="3.08299">
        <ele>107</ele>
        <time>2021-05-04T09:50:24.657Z</time>
      </trkpt>
      <trkpt lat="49.11408" lon="3.08271">
        <ele>107</ele>
        <time>2021-05-04T09:50:28.652Z</time>
      </trkpt>
      <trkpt lat="49.1141" lon="3.08241">
        <ele>107</ele>
        <time>2021-05-04T09:50:33.658Z</time>
      </trkpt>
      <trkpt lat="49.11414" lon="3.08211">
        <ele>107</ele>
        <time>2021-05-04T09:50:38.658Z</time>
      </trkpt>
      <trkpt lat="49.11416" lon="3.08184">
        <ele>108</ele>
        <time>2021-05-04T09:50:43.656Z</time>
      </trkpt>
      <trkpt lat="49.11418" lon="3.08169">
        <ele>108</ele>
        <time>2021-05-04T09:50:51.658Z</time>
      </trkpt>
      <trkpt lat="49.11422" lon="3.08156">
        <ele>108</ele>
        <time>2021-05-04T09:50:54.662Z</time>
      </trkpt>
      <trkpt lat="49.11425" lon="3.08139">
        <ele>109</ele>
        <time>2021-05-04T09:50:57.656Z</time>
      </trkpt>
      <trkpt lat="49.11429" lon="3.08121">
        <ele>109</ele>
        <time>2021-05-04T09:51:00.658Z</time>
      </trkpt>
      <trkpt lat="49.11437" lon="3.08097">
        <ele>109</ele>
        <time>2021-05-04T09:51:04.658Z</time>
      </trkpt>
      <trkpt lat="49.11446" lon="3.08072">
        <ele>109</ele>
        <time>2021-05-04T09:51:08.656Z</time>
      </trkpt>
      <trkpt lat="49.11455" lon="3.08042">
        <ele>109</ele>
        <time>2021-05-04T09:51:13.655Z</time>
      </trkpt>
      <trkpt lat="49.11466" lon="3.08012">
        <ele>110</ele>
        <time>2021-05-04T09:51:18.655Z</time>
      </trkpt>
      <trkpt lat="49.11474" lon="3.07985">
        <ele>110</ele>
        <time>2021-05-04T09:51:23.654Z</time>
      </trkpt>
      <trkpt lat="49.11489" lon="3.07985">
        <ele>110</ele>
        <time>2021-05-04T09:51:30.660Z</time>
      </trkpt>
      <trkpt lat="49.11496" lon="3.07973">
        <ele>110</ele>
        <time>2021-05-04T09:51:33.656Z</time>
      </trkpt>
      <trkpt lat="49.11501" lon="3.07956">
        <ele>110</ele>
        <time>2021-05-04T09:51:36.657Z</time>
      </trkpt>
      <trkpt lat="49.11509" lon="3.07938">
        <ele>109</ele>
        <time>2021-05-04T09:51:39.653Z</time>
      </trkpt>
      <trkpt lat="49.11517" lon="3.07916">
        <ele>109</ele>
        <time>2021-05-04T09:51:43.657Z</time>
      </trkpt>
      <trkpt lat="49.11525" lon="3.0789">
        <ele>109</ele>
        <time>2021-05-04T09:51:49.660Z</time>
      </trkpt>
      <trkpt lat="49.11532" lon="3.07869">
        <ele>109</ele>
        <time>2021-05-04T09:51:53.810Z</time>
      </trkpt>
      <trkpt lat="49.11539" lon="3.07847">
        <ele>109</ele>
        <time>2021-05-04T09:51:57.655Z</time>
      </trkpt>
      <trkpt lat="49.11549" lon="3.07823">
        <ele>108</ele>
        <time>2021-05-04T09:52:01.650Z</time>
      </trkpt>
      <trkpt lat="49.11557" lon="3.078">
        <ele>108</ele>
        <time>2021-05-04T09:52:05.659Z</time>
      </trkpt>
      <trkpt lat="49.11568" lon="3.07771">
        <ele>108</ele>
        <time>2021-05-04T09:52:10.658Z</time>
      </trkpt>
      <trkpt lat="49.11576" lon="3.07748">
        <ele>107</ele>
        <time>2021-05-04T09:52:14.662Z</time>
      </trkpt>
      <trkpt lat="49.11586" lon="3.07724">
        <ele>107</ele>
        <time>2021-05-04T09:52:18.659Z</time>
      </trkpt>
      <trkpt lat="49.11595" lon="3.07696">
        <ele>107</ele>
        <time>2021-05-04T09:52:22.656Z</time>
      </trkpt>
      <trkpt lat="49.11607" lon="3.07668">
        <ele>107</ele>
        <time>2021-05-04T09:52:27.658Z</time>
      </trkpt>
      <trkpt lat="49.1162" lon="3.0764">
        <ele>107</ele>
        <time>2021-05-04T09:52:32.656Z</time>
      </trkpt>
      <trkpt lat="49.11632" lon="3.07617">
        <ele>107</ele>
        <time>2021-05-04T09:52:36.656Z</time>
      </trkpt>
      <trkpt lat="49.1165" lon="3.07595">
        <ele>107</ele>
        <time>2021-05-04T09:52:41.657Z</time>
      </trkpt>
      <trkpt lat="49.11668" lon="3.07576">
        <ele>107</ele>
        <time>2021-05-04T09:52:46.662Z</time>
      </trkpt>
      <trkpt lat="49.11686" lon="3.07565">
        <ele>107</ele>
        <time>2021-05-04T09:52:51.658Z</time>
      </trkpt>
      <trkpt lat="49.11704" lon="3.07561">
        <ele>108</ele>
        <time>2021-05-04T09:52:55.662Z</time>
      </trkpt>
      <trkpt lat="49.11724" lon="3.07559">
        <ele>109</ele>
        <time>2021-05-04T09:52:59.659Z</time>
      </trkpt>
      <trkpt lat="49.11744" lon="3.07564">
        <ele>110</ele>
        <time>2021-05-04T09:53:03.654Z</time>
      </trkpt>
      <trkpt lat="49.11766" lon="3.07572">
        <ele>110</ele>
        <time>2021-05-04T09:53:08.659Z</time>
      </trkpt>
      <trkpt lat="49.1179" lon="3.07578">
        <ele>111</ele>
        <time>2021-05-04T09:53:13.719Z</time>
      </trkpt>
      <trkpt lat="49.11812" lon="3.07578">
        <ele>112</ele>
        <time>2021-05-04T09:53:18.657Z</time>
      </trkpt>
      <trkpt lat="49.11831" lon="3.07578">
        <ele>113</ele>
        <time>2021-05-04T09:53:22.658Z</time>
      </trkpt>
      <trkpt lat="49.11849" lon="3.07572">
        <ele>114</ele>
        <time>2021-05-04T09:53:27.653Z</time>
      </trkpt>
      <trkpt lat="49.11866" lon="3.07558">
        <ele>114</ele>
        <time>2021-05-04T09:53:32.659Z</time>
      </trkpt>
      <trkpt lat="49.1188" lon="3.07547">
        <ele>114</ele>
        <time>2021-05-04T09:53:36.651Z</time>
      </trkpt>
      <trkpt lat="49.11893" lon="3.07533">
        <ele>114</ele>
        <time>2021-05-04T09:53:40.656Z</time>
      </trkpt>
      <trkpt lat="49.11906" lon="3.07516">
        <ele>115</ele>
        <time>2021-05-04T09:53:44.651Z</time>
      </trkpt>
      <trkpt lat="49.11919" lon="3.07495">
        <ele>114</ele>
        <time>2021-05-04T09:53:49.654Z</time>
      </trkpt>
      <trkpt lat="49.1193" lon="3.07474">
        <ele>114</ele>
        <time>2021-05-04T09:53:54.658Z</time>
      </trkpt>
      <trkpt lat="49.11938" lon="3.07456">
        <ele>114</ele>
        <time>2021-05-04T09:53:58.658Z</time>
      </trkpt>
      <trkpt lat="49.11944" lon="3.07437">
        <ele>114</ele>
        <time>2021-05-04T09:54:02.656Z</time>
      </trkpt>
      <trkpt lat="49.11948" lon="3.07419">
        <ele>113</ele>
        <time>2021-05-04T09:54:07.657Z</time>
      </trkpt>
      <trkpt lat="49.11955" lon="3.07404">
        <ele>112</ele>
        <time>2021-05-04T09:54:11.657Z</time>
      </trkpt>
      <trkpt lat="49.11963" lon="3.07391">
        <ele>112</ele>
        <time>2021-05-04T09:54:15.662Z</time>
      </trkpt>
      <trkpt lat="49.1197" lon="3.07374">
        <ele>112</ele>
        <time>2021-05-04T09:54:19.660Z</time>
      </trkpt>
      <trkpt lat="49.11977" lon="3.07357">
        <ele>111</ele>
        <time>2021-05-04T09:54:23.655Z</time>
      </trkpt>
      <trkpt lat="49.11984" lon="3.07335">
        <ele>111</ele>
        <time>2021-05-04T09:54:27.656Z</time>
      </trkpt>
      <trkpt lat="49.11993" lon="3.07315">
        <ele>110</ele>
        <time>2021-05-04T09:54:31.656Z</time>
      </trkpt>
      <trkpt lat="49.12001" lon="3.0729">
        <ele>110</ele>
        <time>2021-05-04T09:54:36.657Z</time>
      </trkpt>
      <trkpt lat="49.12009" lon="3.07269">
        <ele>110</ele>
        <time>2021-05-04T09:54:41.657Z</time>
      </trkpt>
      <trkpt lat="49.12015" lon="3.0725">
        <ele>110</ele>
        <time>2021-05-04T09:54:45.657Z</time>
      </trkpt>
      <trkpt lat="49.12022" lon="3.07233">
        <ele>110</ele>
        <time>2021-05-04T09:54:49.654Z</time>
      </trkpt>
      <trkpt lat="49.12029" lon="3.07214">
        <ele>110</ele>
        <time>2021-05-04T09:54:53.654Z</time>
      </trkpt>
      <trkpt lat="49.12036" lon="3.07193">
        <ele>109</ele>
        <time>2021-05-04T09:54:58.659Z</time>
      </trkpt>
      <trkpt lat="49.12044" lon="3.07173">
        <ele>109</ele>
        <time>2021-05-04T09:55:02.658Z</time>
      </trkpt>
      <trkpt lat="49.12052" lon="3.07154">
        <ele>109</ele>
        <time>2021-05-04T09:55:06.656Z</time>
      </trkpt>
      <trkpt lat="49.12061" lon="3.07134">
        <ele>108</ele>
        <time>2021-05-04T09:55:10.658Z</time>
      </trkpt>
      <trkpt lat="49.1207" lon="3.07112">
        <ele>108</ele>
        <time>2021-05-04T09:55:15.658Z</time>
      </trkpt>
      <trkpt lat="49.12076" lon="3.07091">
        <ele>108</ele>
        <time>2021-05-04T09:55:19.658Z</time>
      </trkpt>
      <trkpt lat="49.12084" lon="3.0707">
        <ele>108</ele>
        <time>2021-05-04T09:55:23.655Z</time>
      </trkpt>
      <trkpt lat="49.12093" lon="3.07049">
        <ele>107</ele>
        <time>2021-05-04T09:55:27.660Z</time>
      </trkpt>
      <trkpt lat="49.121" lon="3.07025">
        <ele>107</ele>
        <time>2021-05-04T09:55:31.656Z</time>
      </trkpt>
      <trkpt lat="49.1211" lon="3.07002">
        <ele>107</ele>
        <time>2021-05-04T09:55:35.658Z</time>
      </trkpt>
      <trkpt lat="49.12119" lon="3.06979">
        <ele>107</ele>
        <time>2021-05-04T09:55:39.653Z</time>
      </trkpt>
      <trkpt lat="49.12128" lon="3.06955">
        <ele>108</ele>
        <time>2021-05-04T09:55:43.652Z</time>
      </trkpt>
      <trkpt lat="49.1214" lon="3.06927">
        <ele>108</ele>
        <time>2021-05-04T09:55:48.660Z</time>
      </trkpt>
      <trkpt lat="49.12151" lon="3.06902">
        <ele>108</ele>
        <time>2021-05-04T09:55:53.659Z</time>
      </trkpt>
      <trkpt lat="49.12147" lon="3.06882">
        <ele>109</ele>
        <time>2021-05-04T09:56:00.657Z</time>
      </trkpt>
      <trkpt lat="49.12136" lon="3.06872">
        <ele>109</ele>
        <time>2021-05-04T09:56:04.661Z</time>
      </trkpt>
      <trkpt lat="49.12125" lon="3.06859">
        <ele>110</ele>
        <time>2021-05-04T09:56:07.655Z</time>
      </trkpt>
      <trkpt lat="49.12111" lon="3.06843">
        <ele>110</ele>
        <time>2021-05-04T09:56:10.659Z</time>
      </trkpt>
      <trkpt lat="49.12099" lon="3.06822">
        <ele>110</ele>
        <time>2021-05-04T09:56:13.656Z</time>
      </trkpt>
      <trkpt lat="49.12081" lon="3.06795">
        <ele>110</ele>
        <time>2021-05-04T09:56:18.655Z</time>
      </trkpt>
      <trkpt lat="49.12059" lon="3.06778">
        <ele>110</ele>
        <time>2021-05-04T09:56:23.652Z</time>
      </trkpt>
      <trkpt lat="49.12038" lon="3.06758">
        <ele>110</ele>
        <time>2021-05-04T09:56:28.658Z</time>
      </trkpt>
      <trkpt lat="49.12017" lon="3.0674">
        <ele>109</ele>
        <time>2021-05-04T09:56:33.663Z</time>
      </trkpt>
      <trkpt lat="49.11998" lon="3.06722">
        <ele>109</ele>
        <time>2021-05-04T09:56:38.659Z</time>
      </trkpt>
      <trkpt lat="49.11979" lon="3.06702">
        <ele>108</ele>
        <time>2021-05-04T09:56:43.655Z</time>
      </trkpt>
      <trkpt lat="49.11962" lon="3.06688">
        <ele>108</ele>
        <time>2021-05-04T09:56:47.656Z</time>
      </trkpt>
      <trkpt lat="49.11946" lon="3.06673">
        <ele>108</ele>
        <time>2021-05-04T09:56:51.658Z</time>
      </trkpt>
      <trkpt lat="49.11929" lon="3.06658">
        <ele>108</ele>
        <time>2021-05-04T09:56:55.664Z</time>
      </trkpt>
      <trkpt lat="49.11908" lon="3.06639">
        <ele>108</ele>
        <time>2021-05-04T09:57:00.658Z</time>
      </trkpt>
      <trkpt lat="49.11887" lon="3.06622">
        <ele>107</ele>
        <time>2021-05-04T09:57:05.653Z</time>
      </trkpt>
      <trkpt lat="49.1187" lon="3.06606">
        <ele>107</ele>
        <time>2021-05-04T09:57:09.657Z</time>
      </trkpt>
      <trkpt lat="49.11849" lon="3.06587">
        <ele>107</ele>
        <time>2021-05-04T09:57:14.658Z</time>
      </trkpt>
      <trkpt lat="49.11828" lon="3.06568">
        <ele>107</ele>
        <time>2021-05-04T09:57:19.656Z</time>
      </trkpt>
      <trkpt lat="49.11807" lon="3.06549">
        <ele>107</ele>
        <time>2021-05-04T09:57:24.655Z</time>
      </trkpt>
      <trkpt lat="49.11786" lon="3.06532">
        <ele>107</ele>
        <time>2021-05-04T09:57:29.654Z</time>
      </trkpt>
      <trkpt lat="49.11764" lon="3.06519">
        <ele>107</ele>
        <time>2021-05-04T09:57:34.666Z</time>
      </trkpt>
      <trkpt lat="49.11742" lon="3.06501">
        <ele>107</ele>
        <time>2021-05-04T09:57:39.650Z</time>
      </trkpt>
      <trkpt lat="49.11721" lon="3.06481">
        <ele>107</ele>
        <time>2021-05-04T09:57:44.660Z</time>
      </trkpt>
      <trkpt lat="49.11701" lon="3.06462">
        <ele>107</ele>
        <time>2021-05-04T09:57:49.656Z</time>
      </trkpt>
      <trkpt lat="49.1168" lon="3.06445">
        <ele>107</ele>
        <time>2021-05-04T09:57:54.672Z</time>
      </trkpt>
      <trkpt lat="49.11659" lon="3.06427">
        <ele>107</ele>
        <time>2021-05-04T09:57:59.654Z</time>
      </trkpt>
      <trkpt lat="49.11639" lon="3.06411">
        <ele>107</ele>
        <time>2021-05-04T09:58:04.653Z</time>
      </trkpt>
      <trkpt lat="49.11622" lon="3.06396">
        <ele>107</ele>
        <time>2021-05-04T09:58:08.655Z</time>
      </trkpt>
      <trkpt lat="49.11607" lon="3.06375">
        <ele>107</ele>
        <time>2021-05-04T09:58:13.656Z</time>
      </trkpt>
      <trkpt lat="49.11591" lon="3.0636">
        <ele>107</ele>
        <time>2021-05-04T09:58:19.653Z</time>
      </trkpt>
      <trkpt lat="49.11579" lon="3.06348">
        <ele>107</ele>
        <time>2021-05-04T09:58:23.653Z</time>
      </trkpt>
      <trkpt lat="49.11566" lon="3.06337">
        <ele>107</ele>
        <time>2021-05-04T09:58:27.656Z</time>
      </trkpt>
      <trkpt lat="49.11554" lon="3.06327">
        <ele>107</ele>
        <time>2021-05-04T09:58:31.655Z</time>
      </trkpt>
      <trkpt lat="49.11543" lon="3.06315">
        <ele>107</ele>
        <time>2021-05-04T09:58:35.657Z</time>
      </trkpt>
      <trkpt lat="49.11527" lon="3.06301">
        <ele>108</ele>
        <time>2021-05-04T09:58:39.660Z</time>
      </trkpt>
      <trkpt lat="49.1151" lon="3.06287">
        <ele>108</ele>
        <time>2021-05-04T09:58:43.656Z</time>
      </trkpt>
      <trkpt lat="49.11493" lon="3.06272">
        <ele>108</ele>
        <time>2021-05-04T09:58:47.656Z</time>
      </trkpt>
      <trkpt lat="49.11474" lon="3.06254">
        <ele>108</ele>
        <time>2021-05-04T09:58:51.653Z</time>
      </trkpt>
      <trkpt lat="49.11451" lon="3.06234">
        <ele>109</ele>
        <time>2021-05-04T09:58:56.656Z</time>
      </trkpt>
      <trkpt lat="49.11431" lon="3.06216">
        <ele>109</ele>
        <time>2021-05-04T09:59:01.656Z</time>
      </trkpt>
      <trkpt lat="49.1141" lon="3.06195">
        <ele>109</ele>
        <time>2021-05-04T09:59:06.654Z</time>
      </trkpt>
      <trkpt lat="49.11389" lon="3.06179">
        <ele>109</ele>
        <time>2021-05-04T09:59:11.655Z</time>
      </trkpt>
      <trkpt lat="49.11369" lon="3.06168">
        <ele>109</ele>
        <time>2021-05-04T09:59:16.655Z</time>
      </trkpt>
      <trkpt lat="49.11357" lon="3.06157">
        <ele>109</ele>
        <time>2021-05-04T09:59:23.656Z</time>
      </trkpt>
      <trkpt lat="49.11352" lon="3.06146">
        <ele>109</ele>
        <time>2021-05-04T09:59:28.654Z</time>
      </trkpt>
      <trkpt lat="49.11343" lon="3.06136">
        <ele>109</ele>
        <time>2021-05-04T09:59:31.655Z</time>
      </trkpt>
      <trkpt lat="49.11331" lon="3.06127">
        <ele>108</ele>
        <time>2021-05-04T09:59:34.656Z</time>
      </trkpt>
      <trkpt lat="49.11319" lon="3.06117">
        <ele>108</ele>
        <time>2021-05-04T09:59:37.657Z</time>
      </trkpt>
      <trkpt lat="49.11301" lon="3.061">
        <ele>108</ele>
        <time>2021-05-04T09:59:42.803Z</time>
      </trkpt>
      <trkpt lat="49.11285" lon="3.06084">
        <ele>108</ele>
        <time>2021-05-04T09:59:46.656Z</time>
      </trkpt>
      <trkpt lat="49.11268" lon="3.06069">
        <ele>107</ele>
        <time>2021-05-04T09:59:50.653Z</time>
      </trkpt>
      <trkpt lat="49.11247" lon="3.06053">
        <ele>107</ele>
        <time>2021-05-04T09:59:55.652Z</time>
      </trkpt>
      <trkpt lat="49.11229" lon="3.06036">
        <ele>107</ele>
        <time>2021-05-04T09:59:59.651Z</time>
      </trkpt>
      <trkpt lat="49.1121" lon="3.0602">
        <ele>107</ele>
        <time>2021-05-04T10:00:03.654Z</time>
      </trkpt>
      <trkpt lat="49.11188" lon="3.06001">
        <ele>107</ele>
        <time>2021-05-04T10:00:08.656Z</time>
      </trkpt>
      <trkpt lat="49.11168" lon="3.05981">
        <ele>107</ele>
        <time>2021-05-04T10:00:13.655Z</time>
      </trkpt>
      <trkpt lat="49.11148" lon="3.05961">
        <ele>107</ele>
        <time>2021-05-04T10:00:18.656Z</time>
      </trkpt>
      <trkpt lat="49.11129" lon="3.05948">
        <ele>107</ele>
        <time>2021-05-04T10:00:22.654Z</time>
      </trkpt>
      <trkpt lat="49.1111" lon="3.05934">
        <ele>107</ele>
        <time>2021-05-04T10:00:26.653Z</time>
      </trkpt>
      <trkpt lat="49.11088" lon="3.05915">
        <ele>107</ele>
        <time>2021-05-04T10:00:31.653Z</time>
      </trkpt>
      <trkpt lat="49.11065" lon="3.05895">
        <ele>107</ele>
        <time>2021-05-04T10:00:36.657Z</time>
      </trkpt>
      <trkpt lat="49.11046" lon="3.05876">
        <ele>107</ele>
        <time>2021-05-04T10:00:41.662Z</time>
      </trkpt>
      <trkpt lat="49.11027" lon="3.05858">
        <ele>107</ele>
        <time>2021-05-04T10:00:46.653Z</time>
      </trkpt>
      <trkpt lat="49.1101" lon="3.05842">
        <ele>107</ele>
        <time>2021-05-04T10:00:50.658Z</time>
      </trkpt>
      <trkpt lat="49.10991" lon="3.05822">
        <ele>107</ele>
        <time>2021-05-04T10:00:55.658Z</time>
      </trkpt>
      <trkpt lat="49.10975" lon="3.05805">
        <ele>107</ele>
        <time>2021-05-04T10:00:59.656Z</time>
      </trkpt>
      <trkpt lat="49.10954" lon="3.05783">
        <ele>107</ele>
        <time>2021-05-04T10:01:04.654Z</time>
      </trkpt>
      <trkpt lat="49.10936" lon="3.05761">
        <ele>107</ele>
        <time>2021-05-04T10:01:09.655Z</time>
      </trkpt>
      <trkpt lat="49.10919" lon="3.05736">
        <ele>107</ele>
        <time>2021-05-04T10:01:14.654Z</time>
      </trkpt>
      <trkpt lat="49.10903" lon="3.05719">
        <ele>108</ele>
        <time>2021-05-04T10:01:18.656Z</time>
      </trkpt>
      <trkpt lat="49.1089" lon="3.05693">
        <ele>108</ele>
        <time>2021-05-04T10:01:23.654Z</time>
      </trkpt>
      <trkpt lat="49.10879" lon="3.05672">
        <ele>109</ele>
        <time>2021-05-04T10:01:27.657Z</time>
      </trkpt>
      <trkpt lat="49.10863" lon="3.05647">
        <ele>109</ele>
        <time>2021-05-04T10:01:32.656Z</time>
      </trkpt>
      <trkpt lat="49.10849" lon="3.05622">
        <ele>110</ele>
        <time>2021-05-04T10:01:36.660Z</time>
      </trkpt>
      <trkpt lat="49.10835" lon="3.05593">
        <ele>110</ele>
        <time>2021-05-04T10:01:41.665Z</time>
      </trkpt>
      <trkpt lat="49.10822" lon="3.05562">
        <ele>110</ele>
        <time>2021-05-04T10:01:46.654Z</time>
      </trkpt>
      <trkpt lat="49.10811" lon="3.05529">
        <ele>110</ele>
        <time>2021-05-04T10:01:51.655Z</time>
      </trkpt>
      <trkpt lat="49.10801" lon="3.05499">
        <ele>110</ele>
        <time>2021-05-04T10:01:55.656Z</time>
      </trkpt>
      <trkpt lat="49.10794" lon="3.05461">
        <ele>110</ele>
        <time>2021-05-04T10:02:00.659Z</time>
      </trkpt>
      <trkpt lat="49.10786" lon="3.05422">
        <ele>110</ele>
        <time>2021-05-04T10:02:05.656Z</time>
      </trkpt>
      <trkpt lat="49.10781" lon="3.05384">
        <ele>109</ele>
        <time>2021-05-04T10:02:10.654Z</time>
      </trkpt>
      <trkpt lat="49.10775" lon="3.05347">
        <ele>108</ele>
        <time>2021-05-04T10:02:15.659Z</time>
      </trkpt>
      <trkpt lat="49.10771" lon="3.05311">
        <ele>108</ele>
        <time>2021-05-04T10:02:20.655Z</time>
      </trkpt>
      <trkpt lat="49.10767" lon="3.05274">
        <ele>107</ele>
        <time>2021-05-04T10:02:25.654Z</time>
      </trkpt>
      <trkpt lat="49.10763" lon="3.05237">
        <ele>107</ele>
        <time>2021-05-04T10:02:30.655Z</time>
      </trkpt>
      <trkpt lat="49.10758" lon="3.05201">
        <ele>106</ele>
        <time>2021-05-04T10:02:35.655Z</time>
      </trkpt>
      <trkpt lat="49.10755" lon="3.05166">
        <ele>105</ele>
        <time>2021-05-04T10:02:40.654Z</time>
      </trkpt>
      <trkpt lat="49.1075" lon="3.05133">
        <ele>105</ele>
        <time>2021-05-04T10:02:45.655Z</time>
      </trkpt>
      <trkpt lat="49.10744" lon="3.05107">
        <ele>105</ele>
        <time>2021-05-04T10:02:51.654Z</time>
      </trkpt>
      <trkpt lat="49.10743" lon="3.05088">
        <ele>105</ele>
        <time>2021-05-04T10:02:55.659Z</time>
      </trkpt>
      <trkpt lat="49.10742" lon="3.05068">
        <ele>105</ele>
        <time>2021-05-04T10:02:58.656Z</time>
      </trkpt>
      <trkpt lat="49.10738" lon="3.05047">
        <ele>105</ele>
        <time>2021-05-04T10:03:01.658Z</time>
      </trkpt>
      <trkpt lat="49.1073" lon="3.0502">
        <ele>105</ele>
        <time>2021-05-04T10:03:05.655Z</time>
      </trkpt>
      <trkpt lat="49.10723" lon="3.04986">
        <ele>105</ele>
        <time>2021-05-04T10:03:10.656Z</time>
      </trkpt>
      <trkpt lat="49.10712" lon="3.04953">
        <ele>106</ele>
        <time>2021-05-04T10:03:15.661Z</time>
      </trkpt>
      <trkpt lat="49.10704" lon="3.04927">
        <ele>107</ele>
        <time>2021-05-04T10:03:19.658Z</time>
      </trkpt>
      <trkpt lat="49.10688" lon="3.04901">
        <ele>108</ele>
        <time>2021-05-04T10:03:24.690Z</time>
      </trkpt>
      <trkpt lat="49.1067" lon="3.04876">
        <ele>109</ele>
        <time>2021-05-04T10:03:29.656Z</time>
      </trkpt>
      <trkpt lat="49.1065" lon="3.04855">
        <ele>109</ele>
        <time>2021-05-04T10:03:34.656Z</time>
      </trkpt>
      <trkpt lat="49.10632" lon="3.04837">
        <ele>110</ele>
        <time>2021-05-04T10:03:38.657Z</time>
      </trkpt>
      <trkpt lat="49.10611" lon="3.04815">
        <ele>110</ele>
        <time>2021-05-04T10:03:43.653Z</time>
      </trkpt>
      <trkpt lat="49.1059" lon="3.04794">
        <ele>110</ele>
        <time>2021-05-04T10:03:48.652Z</time>
      </trkpt>
      <trkpt lat="49.10569" lon="3.04772">
        <ele>110</ele>
        <time>2021-05-04T10:03:53.662Z</time>
      </trkpt>
      <trkpt lat="49.10548" lon="3.04751">
        <ele>109</ele>
        <time>2021-05-04T10:03:58.655Z</time>
      </trkpt>
      <trkpt lat="49.10526" lon="3.04728">
        <ele>109</ele>
        <time>2021-05-04T10:04:03.655Z</time>
      </trkpt>
      <trkpt lat="49.10503" lon="3.04707">
        <ele>109</ele>
        <time>2021-05-04T10:04:08.661Z</time>
      </trkpt>
      <trkpt lat="49.10481" lon="3.04687">
        <ele>108</ele>
        <time>2021-05-04T10:04:13.669Z</time>
      </trkpt>
      <trkpt lat="49.10462" lon="3.04667">
        <ele>108</ele>
        <time>2021-05-04T10:04:18.656Z</time>
      </trkpt>
      <trkpt lat="49.10442" lon="3.04648">
        <ele>107</ele>
        <time>2021-05-04T10:04:23.657Z</time>
      </trkpt>
      <trkpt lat="49.10425" lon="3.04633">
        <ele>107</ele>
        <time>2021-05-04T10:04:27.664Z</time>
      </trkpt>
      <trkpt lat="49.10402" lon="3.0462">
        <ele>107</ele>
        <time>2021-05-04T10:04:32.656Z</time>
      </trkpt>
      <trkpt lat="49.10381" lon="3.04614">
        <ele>108</ele>
        <time>2021-05-04T10:04:37.655Z</time>
      </trkpt>
      <trkpt lat="49.10361" lon="3.04613">
        <ele>108</ele>
        <time>2021-05-04T10:04:41.655Z</time>
      </trkpt>
      <trkpt lat="49.1034" lon="3.04615">
        <ele>108</ele>
        <time>2021-05-04T10:04:45.688Z</time>
      </trkpt>
      <trkpt lat="49.10314" lon="3.04619">
        <ele>108</ele>
        <time>2021-05-04T10:04:50.654Z</time>
      </trkpt>
      <trkpt lat="49.1029" lon="3.04626">
        <ele>108</ele>
        <time>2021-05-04T10:04:55.719Z</time>
      </trkpt>
      <trkpt lat="49.10265" lon="3.04633">
        <ele>108</ele>
        <time>2021-05-04T10:05:00.656Z</time>
      </trkpt>
      <trkpt lat="49.1024" lon="3.04642">
        <ele>108</ele>
        <time>2021-05-04T10:05:05.657Z</time>
      </trkpt>
      <trkpt lat="49.10217" lon="3.04648">
        <ele>108</ele>
        <time>2021-05-04T10:05:10.677Z</time>
      </trkpt>
      <trkpt lat="49.10193" lon="3.04653">
        <ele>107</ele>
        <time>2021-05-04T10:05:15.668Z</time>
      </trkpt>
      <trkpt lat="49.10174" lon="3.04659">
        <ele>107</ele>
        <time>2021-05-04T10:05:19.673Z</time>
      </trkpt>
      <trkpt lat="49.10155" lon="3.04663">
        <ele>107</ele>
        <time>2021-05-04T10:05:23.690Z</time>
      </trkpt>
      <trkpt lat="49.10135" lon="3.04668">
        <ele>107</ele>
        <time>2021-05-04T10:05:27.671Z</time>
      </trkpt>
      <trkpt lat="49.10114" lon="3.04674">
        <ele>107</ele>
        <time>2021-05-04T10:05:31.673Z</time>
      </trkpt>
      <trkpt lat="49.10088" lon="3.04681">
        <ele>106</ele>
        <time>2021-05-04T10:05:36.682Z</time>
      </trkpt>
      <trkpt lat="49.10062" lon="3.04689">
        <ele>106</ele>
        <time>2021-05-04T10:05:41.677Z</time>
      </trkpt>
      <trkpt lat="49.10035" lon="3.04694">
        <ele>107</ele>
        <time>2021-05-04T10:05:46.685Z</time>
      </trkpt>
      <trkpt lat="49.1001" lon="3.04703">
        <ele>107</ele>
        <time>2021-05-04T10:05:51.728Z</time>
      </trkpt>
      <trkpt lat="49.09986" lon="3.04711">
        <ele>107</ele>
        <time>2021-05-04T10:05:56.689Z</time>
      </trkpt>
      <trkpt lat="49.09964" lon="3.04717">
        <ele>108</ele>
        <time>2021-05-04T10:06:00.710Z</time>
      </trkpt>
      <trkpt lat="49.09938" lon="3.04724">
        <ele>108</ele>
        <time>2021-05-04T10:06:05.658Z</time>
      </trkpt>
      <trkpt lat="49.09913" lon="3.04731">
        <ele>108</ele>
        <time>2021-05-04T10:06:10.657Z</time>
      </trkpt>
      <trkpt lat="49.09889" lon="3.04737">
        <ele>108</ele>
        <time>2021-05-04T10:06:15.654Z</time>
      </trkpt>
      <trkpt lat="49.09865" lon="3.04742">
        <ele>107</ele>
        <time>2021-05-04T10:06:20.657Z</time>
      </trkpt>
      <trkpt lat="49.09842" lon="3.04751">
        <ele>107</ele>
        <time>2021-05-04T10:06:25.653Z</time>
      </trkpt>
      <trkpt lat="49.09822" lon="3.0476">
        <ele>107</ele>
        <time>2021-05-04T10:06:29.657Z</time>
      </trkpt>
      <trkpt lat="49.098" lon="3.04772">
        <ele>107</ele>
        <time>2021-05-04T10:06:34.655Z</time>
      </trkpt>
      <trkpt lat="49.09781" lon="3.04786">
        <ele>107</ele>
        <time>2021-05-04T10:06:38.656Z</time>
      </trkpt>
      <trkpt lat="49.0976" lon="3.04803">
        <ele>107</ele>
        <time>2021-05-04T10:06:43.657Z</time>
      </trkpt>
      <trkpt lat="49.09745" lon="3.0482">
        <ele>108</ele>
        <time>2021-05-04T10:06:49.659Z</time>
      </trkpt>
      <trkpt lat="49.09734" lon="3.04829">
        <ele>109</ele>
        <time>2021-05-04T10:06:55.663Z</time>
      </trkpt>
      <trkpt lat="49.09725" lon="3.04834">
        <ele>110</ele>
        <time>2021-05-04T10:07:07.663Z</time>
      </trkpt>
      <trkpt lat="49.09715" lon="3.04843">
        <ele>111</ele>
        <time>2021-05-04T10:07:11.657Z</time>
      </trkpt>
      <trkpt lat="49.09706" lon="3.0485">
        <ele>111</ele>
        <time>2021-05-04T10:07:14.655Z</time>
      </trkpt>
      <trkpt lat="49.09694" lon="3.04859">
        <ele>111</ele>
        <time>2021-05-04T10:07:17.659Z</time>
      </trkpt>
      <trkpt lat="49.09679" lon="3.04873">
        <ele>111</ele>
        <time>2021-05-04T10:07:21.659Z</time>
      </trkpt>
      <trkpt lat="49.09663" lon="3.04889">
        <ele>112</ele>
        <time>2021-05-04T10:07:25.656Z</time>
      </trkpt>
      <trkpt lat="49.09644" lon="3.04905">
        <ele>112</ele>
        <time>2021-05-04T10:07:30.653Z</time>
      </trkpt>
      <trkpt lat="49.09629" lon="3.04919">
        <ele>112</ele>
        <time>2021-05-04T10:07:35.657Z</time>
      </trkpt>
      <trkpt lat="49.09616" lon="3.04929">
        <ele>111</ele>
        <time>2021-05-04T10:07:40.650Z</time>
      </trkpt>
      <trkpt lat="49.09606" lon="3.04939">
        <ele>111</ele>
        <time>2021-05-04T10:07:45.649Z</time>
      </trkpt>
      <trkpt lat="49.09597" lon="3.04945">
        <ele>111</ele>
        <time>2021-05-04T10:07:50.658Z</time>
      </trkpt>
      <trkpt lat="49.09589" lon="3.04954">
        <ele>111</ele>
        <time>2021-05-04T10:08:00.655Z</time>
      </trkpt>
      <trkpt lat="49.0958" lon="3.04962">
        <ele>112</ele>
        <time>2021-05-04T10:08:04.656Z</time>
      </trkpt>
      <trkpt lat="49.09571" lon="3.0497">
        <ele>112</ele>
        <time>2021-05-04T10:08:07.655Z</time>
      </trkpt>
      <trkpt lat="49.09564" lon="3.04978">
        <ele>112</ele>
        <time>2021-05-04T10:08:09.658Z</time>
      </trkpt>
      <trkpt lat="49.09552" lon="3.04989">
        <ele>112</ele>
        <time>2021-05-04T10:08:12.655Z</time>
      </trkpt>
      <trkpt lat="49.09535" lon="3.05004">
        <ele>112</ele>
        <time>2021-05-04T10:08:16.659Z</time>
      </trkpt>
      <trkpt lat="49.09518" lon="3.05019">
        <ele>112</ele>
        <time>2021-05-04T10:08:20.666Z</time>
      </trkpt>
      <trkpt lat="49.09497" lon="3.05035">
        <ele>112</ele>
        <time>2021-05-04T10:08:25.651Z</time>
      </trkpt>
      <trkpt lat="49.09481" lon="3.05051">
        <ele>112</ele>
        <time>2021-05-04T10:08:29.654Z</time>
      </trkpt>
      <trkpt lat="49.09463" lon="3.05068">
        <ele>112</ele>
        <time>2021-05-04T10:08:33.653Z</time>
      </trkpt>
      <trkpt lat="49.0944" lon="3.05088">
        <ele>112</ele>
        <time>2021-05-04T10:08:38.654Z</time>
      </trkpt>
      <trkpt lat="49.09418" lon="3.05109">
        <ele>112</ele>
        <time>2021-05-04T10:08:43.653Z</time>
      </trkpt>
      <trkpt lat="49.09395" lon="3.05128">
        <ele>111</ele>
        <time>2021-05-04T10:08:48.653Z</time>
      </trkpt>
      <trkpt lat="49.09372" lon="3.05148">
        <ele>111</ele>
        <time>2021-05-04T10:08:53.652Z</time>
      </trkpt>
      <trkpt lat="49.0935" lon="3.05169">
        <ele>110</ele>
        <time>2021-05-04T10:08:58.657Z</time>
      </trkpt>
      <trkpt lat="49.09332" lon="3.05185">
        <ele>109</ele>
        <time>2021-05-04T10:09:02.652Z</time>
      </trkpt>
      <trkpt lat="49.0931" lon="3.05206">
        <ele>109</ele>
        <time>2021-05-04T10:09:07.655Z</time>
      </trkpt>
      <trkpt lat="49.09288" lon="3.05226">
        <ele>108</ele>
        <time>2021-05-04T10:09:12.655Z</time>
      </trkpt>
      <trkpt lat="49.09266" lon="3.05246">
        <ele>108</ele>
        <time>2021-05-04T10:09:17.653Z</time>
      </trkpt>
      <trkpt lat="49.09244" lon="3.05265">
        <ele>108</ele>
        <time>2021-05-04T10:09:22.652Z</time>
      </trkpt>
      <trkpt lat="49.09222" lon="3.05284">
        <ele>107</ele>
        <time>2021-05-04T10:09:27.652Z</time>
      </trkpt>
      <trkpt lat="49.092" lon="3.05305">
        <ele>107</ele>
        <time>2021-05-04T10:09:32.653Z</time>
      </trkpt>
      <trkpt lat="49.09184" lon="3.05327">
        <ele>107</ele>
        <time>2021-05-04T10:09:36.653Z</time>
      </trkpt>
      <trkpt lat="49.09168" lon="3.05356">
        <ele>107</ele>
        <time>2021-05-04T10:09:41.647Z</time>
      </trkpt>
      <trkpt lat="49.09155" lon="3.05385">
        <ele>106</ele>
        <time>2021-05-04T10:09:45.654Z</time>
      </trkpt>
      <trkpt lat="49.09141" lon="3.0542">
        <ele>106</ele>
        <time>2021-05-04T10:09:50.654Z</time>
      </trkpt>
      <trkpt lat="49.0913" lon="3.05451">
        <ele>106</ele>
        <time>2021-05-04T10:09:54.649Z</time>
      </trkpt>
      <trkpt lat="49.09118" lon="3.0548">
        <ele>105</ele>
        <time>2021-05-04T10:09:58.659Z</time>
      </trkpt>
      <trkpt lat="49.09105" lon="3.05511">
        <ele>105</ele>
        <time>2021-05-04T10:10:03.651Z</time>
      </trkpt>
      <trkpt lat="49.09086" lon="3.05541">
        <ele>105</ele>
        <time>2021-05-04T10:10:08.649Z</time>
      </trkpt>
      <trkpt lat="49.09069" lon="3.05567">
        <ele>105</ele>
        <time>2021-05-04T10:10:13.653Z</time>
      </trkpt>
      <trkpt lat="49.09054" lon="3.05596">
        <ele>105</ele>
        <time>2021-05-04T10:10:19.652Z</time>
      </trkpt>
      <trkpt lat="49.09039" lon="3.05616">
        <ele>105</ele>
        <time>2021-05-04T10:10:23.653Z</time>
      </trkpt>
      <trkpt lat="49.09025" lon="3.05637">
        <ele>105</ele>
        <time>2021-05-04T10:10:27.651Z</time>
      </trkpt>
      <trkpt lat="49.09011" lon="3.05659">
        <ele>106</ele>
        <time>2021-05-04T10:10:33.654Z</time>
      </trkpt>
      <trkpt lat="49.08999" lon="3.05671">
        <ele>107</ele>
        <time>2021-05-04T10:10:38.656Z</time>
      </trkpt>
      <trkpt lat="49.08989" lon="3.05682">
        <ele>107</ele>
        <time>2021-05-04T10:10:41.653Z</time>
      </trkpt>
      <trkpt lat="49.08978" lon="3.05694">
        <ele>108</ele>
        <time>2021-05-04T10:10:44.653Z</time>
      </trkpt>
      <trkpt lat="49.08964" lon="3.05712">
        <ele>109</ele>
        <time>2021-05-04T10:10:49.650Z</time>
      </trkpt>
      <trkpt lat="49.08953" lon="3.0573">
        <ele>109</ele>
        <time>2021-05-04T10:10:54.652Z</time>
      </trkpt>
      <trkpt lat="49.08942" lon="3.05745">
        <ele>110</ele>
        <time>2021-05-04T10:10:58.653Z</time>
      </trkpt>
      <trkpt lat="49.0893" lon="3.05764">
        <ele>110</ele>
        <time>2021-05-04T10:11:02.661Z</time>
      </trkpt>
      <trkpt lat="49.08917" lon="3.05781">
        <ele>110</ele>
        <time>2021-05-04T10:11:06.653Z</time>
      </trkpt>
      <trkpt lat="49.08905" lon="3.058">
        <ele>110</ele>
        <time>2021-05-04T10:11:10.654Z</time>
      </trkpt>
      <trkpt lat="49.0889" lon="3.0582">
        <ele>110</ele>
        <time>2021-05-04T10:11:14.654Z</time>
      </trkpt>
      <trkpt lat="49.08876" lon="3.05841">
        <ele>110</ele>
        <time>2021-05-04T10:11:18.652Z</time>
      </trkpt>
      <trkpt lat="49.0886" lon="3.05862">
        <ele>110</ele>
        <time>2021-05-04T10:11:22.654Z</time>
      </trkpt>
      <trkpt lat="49.08839" lon="3.05886">
        <ele>109</ele>
        <time>2021-05-04T10:11:27.652Z</time>
      </trkpt>
      <trkpt lat="49.08817" lon="3.05912">
        <ele>108</ele>
        <time>2021-05-04T10:11:32.655Z</time>
      </trkpt>
      <trkpt lat="49.08798" lon="3.05938">
        <ele>108</ele>
        <time>2021-05-04T10:11:37.656Z</time>
      </trkpt>
      <trkpt lat="49.08779" lon="3.05963">
        <ele>107</ele>
        <time>2021-05-04T10:11:42.653Z</time>
      </trkpt>
      <trkpt lat="49.08762" lon="3.05987">
        <ele>106</ele>
        <time>2021-05-04T10:11:46.654Z</time>
      </trkpt>
      <trkpt lat="49.08743" lon="3.06013">
        <ele>106</ele>
        <time>2021-05-04T10:11:51.655Z</time>
      </trkpt>
      <trkpt lat="49.08727" lon="3.06035">
        <ele>105</ele>
        <time>2021-05-04T10:11:55.655Z</time>
      </trkpt>
      <trkpt lat="49.0871" lon="3.06058">
        <ele>104</ele>
        <time>2021-05-04T10:11:59.659Z</time>
      </trkpt>
      <trkpt lat="49.08693" lon="3.06084">
        <ele>104</ele>
        <time>2021-05-04T10:12:04.650Z</time>
      </trkpt>
      <trkpt lat="49.08677" lon="3.06117">
        <ele>104</ele>
        <time>2021-05-04T10:12:09.654Z</time>
      </trkpt>
      <trkpt lat="49.08665" lon="3.06148">
        <ele>104</ele>
        <time>2021-05-04T10:12:13.649Z</time>
      </trkpt>
      <trkpt lat="49.08656" lon="3.06182">
        <ele>105</ele>
        <time>2021-05-04T10:12:18.650Z</time>
      </trkpt>
      <trkpt lat="49.08648" lon="3.0622">
        <ele>105</ele>
        <time>2021-05-04T10:12:23.651Z</time>
      </trkpt>
      <trkpt lat="49.08642" lon="3.06255">
        <ele>105</ele>
        <time>2021-05-04T10:12:28.652Z</time>
      </trkpt>
      <trkpt lat="49.08635" lon="3.06288">
        <ele>105</ele>
        <time>2021-05-04T10:12:33.651Z</time>
      </trkpt>
      <trkpt lat="49.08623" lon="3.06322">
        <ele>105</ele>
        <time>2021-05-04T10:12:38.652Z</time>
      </trkpt>
      <trkpt lat="49.08609" lon="3.06353">
        <ele>106</ele>
        <time>2021-05-04T10:12:43.652Z</time>
      </trkpt>
      <trkpt lat="49.08594" lon="3.06381">
        <ele>106</ele>
        <time>2021-05-04T10:12:48.652Z</time>
      </trkpt>
      <trkpt lat="49.0858" lon="3.06407">
        <ele>106</ele>
        <time>2021-05-04T10:12:52.654Z</time>
      </trkpt>
      <trkpt lat="49.08566" lon="3.06435">
        <ele>106</ele>
        <time>2021-05-04T10:12:56.653Z</time>
      </trkpt>
      <trkpt lat="49.0855" lon="3.06465">
        <ele>106</ele>
        <time>2021-05-04T10:13:01.660Z</time>
      </trkpt>
      <trkpt lat="49.08532" lon="3.06494">
        <ele>106</ele>
        <time>2021-05-04T10:13:06.652Z</time>
      </trkpt>
      <trkpt lat="49.08514" lon="3.06515">
        <ele>107</ele>
        <time>2021-05-04T10:13:10.654Z</time>
      </trkpt>
      <trkpt lat="49.08491" lon="3.06539">
        <ele>107</ele>
        <time>2021-05-04T10:13:15.651Z</time>
      </trkpt>
      <trkpt lat="49.08466" lon="3.06551">
        <ele>107</ele>
        <time>2021-05-04T10:13:20.655Z</time>
      </trkpt>
      <trkpt lat="49.08442" lon="3.06552">
        <ele>107</ele>
        <time>2021-05-04T10:13:25.652Z</time>
      </trkpt>
      <trkpt lat="49.08417" lon="3.06542">
        <ele>107</ele>
        <time>2021-05-04T10:13:30.652Z</time>
      </trkpt>
      <trkpt lat="49.08398" lon="3.06524">
        <ele>107</ele>
        <time>2021-05-04T10:13:35.659Z</time>
      </trkpt>
      <trkpt lat="49.08377" lon="3.06512">
        <ele>107</ele>
        <time>2021-05-04T10:13:39.653Z</time>
      </trkpt>
      <trkpt lat="49.08354" lon="3.06494">
        <ele>107</ele>
        <time>2021-05-04T10:13:44.652Z</time>
      </trkpt>
      <trkpt lat="49.0833" lon="3.06478">
        <ele>107</ele>
        <time>2021-05-04T10:13:49.653Z</time>
      </trkpt>
      <trkpt lat="49.08307" lon="3.06458">
        <ele>107</ele>
        <time>2021-05-04T10:13:54.653Z</time>
      </trkpt>
      <trkpt lat="49.08285" lon="3.0644">
        <ele>107</ele>
        <time>2021-05-04T10:13:59.649Z</time>
      </trkpt>
      <trkpt lat="49.08265" lon="3.06418">
        <ele>106</ele>
        <time>2021-05-04T10:14:04.652Z</time>
      </trkpt>
      <trkpt lat="49.08249" lon="3.06392">
        <ele>106</ele>
        <time>2021-05-04T10:14:09.652Z</time>
      </trkpt>
      <trkpt lat="49.08238" lon="3.06366">
        <ele>106</ele>
        <time>2021-05-04T10:14:13.650Z</time>
      </trkpt>
      <trkpt lat="49.08226" lon="3.06338">
        <ele>106</ele>
        <time>2021-05-04T10:14:17.653Z</time>
      </trkpt>
      <trkpt lat="49.08214" lon="3.06305">
        <ele>105</ele>
        <time>2021-05-04T10:14:22.656Z</time>
      </trkpt>
      <trkpt lat="49.08203" lon="3.06269">
        <ele>105</ele>
        <time>2021-05-04T10:14:27.654Z</time>
      </trkpt>
      <trkpt lat="49.08195" lon="3.06233">
        <ele>105</ele>
        <time>2021-05-04T10:14:32.652Z</time>
      </trkpt>
      <trkpt lat="49.08186" lon="3.06198">
        <ele>104</ele>
        <time>2021-05-04T10:14:37.652Z</time>
      </trkpt>
      <trkpt lat="49.08177" lon="3.06162">
        <ele>104</ele>
        <time>2021-05-04T10:14:42.653Z</time>
      </trkpt>
      <trkpt lat="49.08168" lon="3.06125">
        <ele>104</ele>
        <time>2021-05-04T10:14:47.653Z</time>
      </trkpt>
      <trkpt lat="49.08162" lon="3.06089">
        <ele>104</ele>
        <time>2021-05-04T10:14:52.654Z</time>
      </trkpt>
      <trkpt lat="49.08152" lon="3.06056">
        <ele>103</ele>
        <time>2021-05-04T10:14:57.653Z</time>
      </trkpt>
      <trkpt lat="49.08147" lon="3.0602">
        <ele>103</ele>
        <time>2021-05-04T10:15:02.654Z</time>
      </trkpt>
      <trkpt lat="49.08139" lon="3.05986">
        <ele>103</ele>
        <time>2021-05-04T10:15:06.654Z</time>
      </trkpt>
      <trkpt lat="49.0813" lon="3.05949">
        <ele>103</ele>
        <time>2021-05-04T10:15:11.653Z</time>
      </trkpt>
      <trkpt lat="49.08121" lon="3.05912">
        <ele>103</ele>
        <time>2021-05-04T10:15:16.654Z</time>
      </trkpt>
      <trkpt lat="49.08115" lon="3.05876">
        <ele>103</ele>
        <time>2021-05-04T10:15:21.655Z</time>
      </trkpt>
      <trkpt lat="49.08108" lon="3.0584">
        <ele>103</ele>
        <time>2021-05-04T10:15:26.654Z</time>
      </trkpt>
      <trkpt lat="49.08104" lon="3.05803">
        <ele>103</ele>
        <time>2021-05-04T10:15:31.653Z</time>
      </trkpt>
      <trkpt lat="49.08101" lon="3.05771">
        <ele>103</ele>
        <time>2021-05-04T10:15:35.655Z</time>
      </trkpt>
      <trkpt lat="49.08103" lon="3.05733">
        <ele>103</ele>
        <time>2021-05-04T10:15:40.655Z</time>
      </trkpt>
      <trkpt lat="49.08108" lon="3.05695">
        <ele>103</ele>
        <time>2021-05-04T10:15:45.652Z</time>
      </trkpt>
      <trkpt lat="49.08115" lon="3.05657">
        <ele>103</ele>
        <time>2021-05-04T10:15:50.658Z</time>
      </trkpt>
      <trkpt lat="49.08121" lon="3.0562">
        <ele>103</ele>
        <time>2021-05-04T10:15:55.655Z</time>
      </trkpt>
      <trkpt lat="49.08126" lon="3.05582">
        <ele>104</ele>
        <time>2021-05-04T10:16:00.655Z</time>
      </trkpt>
      <trkpt lat="49.08093" lon="3.05364">
        <ele>105</ele>
        <time>2021-05-04T10:16:35.648Z</time>
      </trkpt>
      <trkpt lat="49.08094" lon="3.05333">
        <ele>105</ele>
        <time>2021-05-04T10:16:40.653Z</time>
      </trkpt>
      <trkpt lat="49.0809" lon="3.05301">
        <ele>105</ele>
        <time>2021-05-04T10:16:44.653Z</time>
      </trkpt>
      <trkpt lat="49.08089" lon="3.05268">
        <ele>106</ele>
        <time>2021-05-04T10:16:48.654Z</time>
      </trkpt>
      <trkpt lat="49.08091" lon="3.05231">
        <ele>106</ele>
        <time>2021-05-04T10:16:53.655Z</time>
      </trkpt>
      <trkpt lat="49.08095" lon="3.0519">
        <ele>107</ele>
        <time>2021-05-04T10:16:58.652Z</time>
      </trkpt>
      <trkpt lat="49.08099" lon="3.05151">
        <ele>108</ele>
        <time>2021-05-04T10:17:03.652Z</time>
      </trkpt>
      <trkpt lat="49.081" lon="3.05117">
        <ele>108</ele>
        <time>2021-05-04T10:17:07.653Z</time>
      </trkpt>
      <trkpt lat="49.08102" lon="3.05078">
        <ele>108</ele>
        <time>2021-05-04T10:17:12.650Z</time>
      </trkpt>
      <trkpt lat="49.08102" lon="3.05037">
        <ele>107</ele>
        <time>2021-05-04T10:17:17.658Z</time>
      </trkpt>
      <trkpt lat="49.08103" lon="3.04999">
        <ele>108</ele>
        <time>2021-05-04T10:17:22.653Z</time>
      </trkpt>
      <trkpt lat="49.08105" lon="3.04965">
        <ele>108</ele>
        <time>2021-05-04T10:17:26.650Z</time>
      </trkpt>
      <trkpt lat="49.08109" lon="3.04923">
        <ele>107</ele>
        <time>2021-05-04T10:17:31.653Z</time>
      </trkpt>
      <trkpt lat="49.08112" lon="3.04883">
        <ele>107</ele>
        <time>2021-05-04T10:17:36.654Z</time>
      </trkpt>
      <trkpt lat="49.08113" lon="3.04843">
        <ele>107</ele>
        <time>2021-05-04T10:17:41.655Z</time>
      </trkpt>
      <trkpt lat="49.08115" lon="3.04805">
        <ele>106</ele>
        <time>2021-05-04T10:17:46.652Z</time>
      </trkpt>
      <trkpt lat="49.08116" lon="3.04764">
        <ele>106</ele>
        <time>2021-05-04T10:17:51.651Z</time>
      </trkpt>
      <trkpt lat="49.08118" lon="3.04725">
        <ele>106</ele>
        <time>2021-05-04T10:17:56.654Z</time>
      </trkpt>
      <trkpt lat="49.08117" lon="3.04687">
        <ele>105</ele>
        <time>2021-05-04T10:18:01.651Z</time>
      </trkpt>
      <trkpt lat="49.08114" lon="3.04651">
        <ele>105</ele>
        <time>2021-05-04T10:18:06.659Z</time>
      </trkpt>
      <trkpt lat="49.08108" lon="3.04614">
        <ele>105</ele>
        <time>2021-05-04T10:18:11.654Z</time>
      </trkpt>
      <trkpt lat="49.08102" lon="3.04585">
        <ele>105</ele>
        <time>2021-05-04T10:18:15.654Z</time>
      </trkpt>
      <trkpt lat="49.08095" lon="3.04554">
        <ele>105</ele>
        <time>2021-05-04T10:18:19.654Z</time>
      </trkpt>
      <trkpt lat="49.08082" lon="3.04523">
        <ele>105</ele>
        <time>2021-05-04T10:18:24.648Z</time>
      </trkpt>
      <trkpt lat="49.08065" lon="3.04496">
        <ele>105</ele>
        <time>2021-05-04T10:18:29.651Z</time>
      </trkpt>
      <trkpt lat="49.08043" lon="3.04475">
        <ele>105</ele>
        <time>2021-05-04T10:18:34.652Z</time>
      </trkpt>
      <trkpt lat="49.08021" lon="3.04458">
        <ele>105</ele>
        <time>2021-05-04T10:18:39.653Z</time>
      </trkpt>
      <trkpt lat="49.07997" lon="3.04444">
        <ele>106</ele>
        <time>2021-05-04T10:18:44.652Z</time>
      </trkpt>
      <trkpt lat="49.07971" lon="3.0443">
        <ele>106</ele>
        <time>2021-05-04T10:18:49.656Z</time>
      </trkpt>
      <trkpt lat="49.07948" lon="3.04417">
        <ele>106</ele>
        <time>2021-05-04T10:18:54.652Z</time>
      </trkpt>
      <trkpt lat="49.07922" lon="3.04405">
        <ele>106</ele>
        <time>2021-05-04T10:18:59.652Z</time>
      </trkpt>
      <trkpt lat="49.07898" lon="3.04392">
        <ele>107</ele>
        <time>2021-05-04T10:19:04.656Z</time>
      </trkpt>
      <trkpt lat="49.07873" lon="3.04379">
        <ele>107</ele>
        <time>2021-05-04T10:19:09.655Z</time>
      </trkpt>
      <trkpt lat="49.07847" lon="3.04366">
        <ele>107</ele>
        <time>2021-05-04T10:19:14.658Z</time>
      </trkpt>
      <trkpt lat="49.07822" lon="3.04352">
        <ele>107</ele>
        <time>2021-05-04T10:19:19.653Z</time>
      </trkpt>
      <trkpt lat="49.07796" lon="3.0434">
        <ele>108</ele>
        <time>2021-05-04T10:19:24.654Z</time>
      </trkpt>
      <trkpt lat="49.07774" lon="3.04324">
        <ele>108</ele>
        <time>2021-05-04T10:19:29.653Z</time>
      </trkpt>
      <trkpt lat="49.07751" lon="3.04308">
        <ele>108</ele>
        <time>2021-05-04T10:19:34.652Z</time>
      </trkpt>
      <trkpt lat="49.0773" lon="3.04297">
        <ele>108</ele>
        <time>2021-05-04T10:19:38.653Z</time>
      </trkpt>
      <trkpt lat="49.07705" lon="3.04284">
        <ele>108</ele>
        <time>2021-05-04T10:19:43.653Z</time>
      </trkpt>
      <trkpt lat="49.07684" lon="3.04271">
        <ele>107</ele>
        <time>2021-05-04T10:19:47.651Z</time>
      </trkpt>
      <trkpt lat="49.07662" lon="3.04261">
        <ele>107</ele>
        <time>2021-05-04T10:19:51.653Z</time>
      </trkpt>
      <trkpt lat="49.07636" lon="3.04247">
        <ele>106</ele>
        <time>2021-05-04T10:19:56.653Z</time>
      </trkpt>
      <trkpt lat="49.07608" lon="3.04234">
        <ele>105</ele>
        <time>2021-05-04T10:20:01.649Z</time>
      </trkpt>
      <trkpt lat="49.07582" lon="3.0422">
        <ele>105</ele>
        <time>2021-05-04T10:20:06.653Z</time>
      </trkpt>
      <trkpt lat="49.07557" lon="3.04208">
        <ele>104</ele>
        <time>2021-05-04T10:20:11.655Z</time>
      </trkpt>
      <trkpt lat="49.07532" lon="3.04195">
        <ele>103</ele>
        <time>2021-05-04T10:20:16.656Z</time>
      </trkpt>
      <trkpt lat="49.07506" lon="3.04183">
        <ele>103</ele>
        <time>2021-05-04T10:20:21.653Z</time>
      </trkpt>
      <trkpt lat="49.07481" lon="3.0417">
        <ele>103</ele>
        <time>2021-05-04T10:20:26.654Z</time>
      </trkpt>
      <trkpt lat="49.07457" lon="3.04156">
        <ele>102</ele>
        <time>2021-05-04T10:20:31.654Z</time>
      </trkpt>
      <trkpt lat="49.07432" lon="3.04144">
        <ele>103</ele>
        <time>2021-05-04T10:20:36.654Z</time>
      </trkpt>
      <trkpt lat="49.07411" lon="3.04133">
        <ele>103</ele>
        <time>2021-05-04T10:20:40.657Z</time>
      </trkpt>
      <trkpt lat="49.07385" lon="3.04119">
        <ele>103</ele>
        <time>2021-05-04T10:20:45.655Z</time>
      </trkpt>
      <trkpt lat="49.0736" lon="3.04105">
        <ele>103</ele>
        <time>2021-05-04T10:20:50.652Z</time>
      </trkpt>
      <trkpt lat="49.07334" lon="3.0409">
        <ele>103</ele>
        <time>2021-05-04T10:20:55.657Z</time>
      </trkpt>
      <trkpt lat="49.07311" lon="3.04078">
        <ele>103</ele>
        <time>2021-05-04T10:21:00.657Z</time>
      </trkpt>
      <trkpt lat="49.0729" lon="3.04067">
        <ele>103</ele>
        <time>2021-05-04T10:21:04.656Z</time>
      </trkpt>
      <trkpt lat="49.07266" lon="3.04052">
        <ele>103</ele>
        <time>2021-05-04T10:21:09.656Z</time>
      </trkpt>
      <trkpt lat="49.07242" lon="3.04038">
        <ele>103</ele>
        <time>2021-05-04T10:21:14.662Z</time>
      </trkpt>
      <trkpt lat="49.07219" lon="3.04031">
        <ele>103</ele>
        <time>2021-05-04T10:21:18.654Z</time>
      </trkpt>
      <trkpt lat="49.07194" lon="3.04016">
        <ele>103</ele>
        <time>2021-05-04T10:21:23.654Z</time>
      </trkpt>
      <trkpt lat="49.0717" lon="3.04003">
        <ele>103</ele>
        <time>2021-05-04T10:21:28.655Z</time>
      </trkpt>
      <trkpt lat="49.07145" lon="3.03993">
        <ele>103</ele>
        <time>2021-05-04T10:21:33.648Z</time>
      </trkpt>
      <trkpt lat="49.07127" lon="3.03983">
        <ele>104</ele>
        <time>2021-05-04T10:21:40.652Z</time>
      </trkpt>
      <trkpt lat="49.07118" lon="3.03979">
        <ele>104</ele>
        <time>2021-05-04T10:21:46.656Z</time>
      </trkpt>
      <trkpt lat="49.07118" lon="3.03977">
        <ele>105</ele>
        <time>2021-05-04T10:21:59.650Z</time>
      </trkpt>
      <trkpt lat="49.07118" lon="3.03977">
        <ele>105</ele>
        <time>2021-05-04T10:22:41.655Z</time>
      </trkpt>
      <trkpt lat="49.07095" lon="3.03963">
        <ele>105</ele>
        <time>2021-05-04T10:22:42.652Z</time>
      </trkpt>
      <trkpt lat="49.07085" lon="3.03957">
        <ele>105</ele>
        <time>2021-05-04T10:22:44.652Z</time>
      </trkpt>
      <trkpt lat="49.07069" lon="3.0395">
        <ele>105</ele>
        <time>2021-05-04T10:22:47.651Z</time>
      </trkpt>
      <trkpt lat="49.07049" lon="3.03943">
        <ele>104</ele>
        <time>2021-05-04T10:22:51.649Z</time>
      </trkpt>
      <trkpt lat="49.07023" lon="3.03934">
        <ele>104</ele>
        <time>2021-05-04T10:22:56.651Z</time>
      </trkpt>
      <trkpt lat="49.06996" lon="3.03928">
        <ele>104</ele>
        <time>2021-05-04T10:23:01.650Z</time>
      </trkpt>
      <trkpt lat="49.06968" lon="3.03924">
        <ele>104</ele>
        <time>2021-05-04T10:23:06.650Z</time>
      </trkpt>
      <trkpt lat="49.06941" lon="3.03925">
        <ele>104</ele>
        <time>2021-05-04T10:23:11.653Z</time>
      </trkpt>
      <trkpt lat="49.06913" lon="3.03929">
        <ele>104</ele>
        <time>2021-05-04T10:23:16.649Z</time>
      </trkpt>
      <trkpt lat="49.06885" lon="3.03934">
        <ele>104</ele>
        <time>2021-05-04T10:23:21.650Z</time>
      </trkpt>
      <trkpt lat="49.06862" lon="3.03935">
        <ele>105</ele>
        <time>2021-05-04T10:23:26.651Z</time>
      </trkpt>
      <trkpt lat="49.06838" lon="3.03941">
        <ele>105</ele>
        <time>2021-05-04T10:23:31.649Z</time>
      </trkpt>
      <trkpt lat="49.06817" lon="3.03948">
        <ele>106</ele>
        <time>2021-05-04T10:23:35.650Z</time>
      </trkpt>
      <trkpt lat="49.06795" lon="3.03959">
        <ele>106</ele>
        <time>2021-05-04T10:23:39.650Z</time>
      </trkpt>
      <trkpt lat="49.06769" lon="3.03972">
        <ele>107</ele>
        <time>2021-05-04T10:23:44.652Z</time>
      </trkpt>
      <trkpt lat="49.06743" lon="3.03988">
        <ele>107</ele>
        <time>2021-05-04T10:23:49.662Z</time>
      </trkpt>
      <trkpt lat="49.06719" lon="3.04007">
        <ele>108</ele>
        <time>2021-05-04T10:23:54.654Z</time>
      </trkpt>
      <trkpt lat="49.06699" lon="3.04035">
        <ele>108</ele>
        <time>2021-05-04T10:23:59.650Z</time>
      </trkpt>
      <trkpt lat="49.06681" lon="3.04062">
        <ele>109</ele>
        <time>2021-05-04T10:24:04.650Z</time>
      </trkpt>
      <trkpt lat="49.06664" lon="3.04087">
        <ele>109</ele>
        <time>2021-05-04T10:24:08.650Z</time>
      </trkpt>
      <trkpt lat="49.06647" lon="3.04115">
        <ele>110</ele>
        <time>2021-05-04T10:24:13.651Z</time>
      </trkpt>
      <trkpt lat="49.06626" lon="3.04145">
        <ele>111</ele>
        <time>2021-05-04T10:24:18.651Z</time>
      </trkpt>
      <trkpt lat="49.06611" lon="3.04173">
        <ele>112</ele>
        <time>2021-05-04T10:24:22.650Z</time>
      </trkpt>
      <trkpt lat="49.06592" lon="3.042">
        <ele>113</ele>
        <time>2021-05-04T10:24:26.649Z</time>
      </trkpt>
      <trkpt lat="49.06573" lon="3.0423">
        <ele>114</ele>
        <time>2021-05-04T10:24:32.649Z</time>
      </trkpt>
      <trkpt lat="49.06553" lon="3.04258">
        <ele>115</ele>
        <time>2021-05-04T10:24:37.699Z</time>
      </trkpt>
      <trkpt lat="49.06533" lon="3.04285">
        <ele>116</ele>
        <time>2021-05-04T10:24:42.650Z</time>
      </trkpt>
      <trkpt lat="49.06517" lon="3.04312">
        <ele>117</ele>
        <time>2021-05-04T10:24:47.649Z</time>
      </trkpt>
      <trkpt lat="49.06495" lon="3.04341">
        <ele>118</ele>
        <time>2021-05-04T10:24:52.648Z</time>
      </trkpt>
      <trkpt lat="49.06477" lon="3.04369">
        <ele>118</ele>
        <time>2021-05-04T10:24:57.649Z</time>
      </trkpt>
      <trkpt lat="49.06463" lon="3.04398">
        <ele>117</ele>
        <time>2021-05-04T10:25:03.648Z</time>
      </trkpt>
      <trkpt lat="49.0645" lon="3.04416">
        <ele>117</ele>
        <time>2021-05-04T10:25:07.650Z</time>
      </trkpt>
      <trkpt lat="49.06439" lon="3.04438">
        <ele>115</ele>
        <time>2021-05-04T10:25:12.650Z</time>
      </trkpt>
      <trkpt lat="49.06428" lon="3.04461">
        <ele>114</ele>
        <time>2021-05-04T10:25:17.654Z</time>
      </trkpt>
      <trkpt lat="49.06417" lon="3.04485">
        <ele>113</ele>
        <time>2021-05-04T10:25:22.650Z</time>
      </trkpt>
      <trkpt lat="49.06407" lon="3.04507">
        <ele>113</ele>
        <time>2021-05-04T10:25:26.651Z</time>
      </trkpt>
      <trkpt lat="49.06399" lon="3.04529">
        <ele>112</ele>
        <time>2021-05-04T10:25:30.650Z</time>
      </trkpt>
      <trkpt lat="49.06388" lon="3.0455">
        <ele>112</ele>
        <time>2021-05-04T10:25:34.649Z</time>
      </trkpt>
      <trkpt lat="49.06376" lon="3.04575">
        <ele>111</ele>
        <time>2021-05-04T10:25:39.651Z</time>
      </trkpt>
      <trkpt lat="49.06367" lon="3.046">
        <ele>111</ele>
        <time>2021-05-04T10:25:43.649Z</time>
      </trkpt>
      <trkpt lat="49.06353" lon="3.04626">
        <ele>111</ele>
        <time>2021-05-04T10:25:48.650Z</time>
      </trkpt>
      <trkpt lat="49.0634" lon="3.04649">
        <ele>111</ele>
        <time>2021-05-04T10:25:52.651Z</time>
      </trkpt>
      <trkpt lat="49.06326" lon="3.04674">
        <ele>112</ele>
        <time>2021-05-04T10:25:57.645Z</time>
      </trkpt>
      <trkpt lat="49.06313" lon="3.04706">
        <ele>112</ele>
        <time>2021-05-04T10:26:02.650Z</time>
      </trkpt>
      <trkpt lat="49.06299" lon="3.04732">
        <ele>112</ele>
        <time>2021-05-04T10:26:07.649Z</time>
      </trkpt>
      <trkpt lat="49.06286" lon="3.04761">
        <ele>112</ele>
        <time>2021-05-04T10:26:12.649Z</time>
      </trkpt>
      <trkpt lat="49.06275" lon="3.04785">
        <ele>111</ele>
        <time>2021-05-04T10:26:17.650Z</time>
      </trkpt>
      <trkpt lat="49.06267" lon="3.04815">
        <ele>111</ele>
        <time>2021-05-04T10:26:22.651Z</time>
      </trkpt>
      <trkpt lat="49.0626" lon="3.0484">
        <ele>111</ele>
        <time>2021-05-04T10:26:27.650Z</time>
      </trkpt>
      <trkpt lat="49.06253" lon="3.04864">
        <ele>111</ele>
        <time>2021-05-04T10:26:31.648Z</time>
      </trkpt>
      <trkpt lat="49.06243" lon="3.04891">
        <ele>111</ele>
        <time>2021-05-04T10:26:35.651Z</time>
      </trkpt>
      <trkpt lat="49.06238" lon="3.04925">
        <ele>111</ele>
        <time>2021-05-04T10:26:40.648Z</time>
      </trkpt>
      <trkpt lat="49.06231" lon="3.04954">
        <ele>111</ele>
        <time>2021-05-04T10:26:44.650Z</time>
      </trkpt>
      <trkpt lat="49.06225" lon="3.04987">
        <ele>112</ele>
        <time>2021-05-04T10:26:49.650Z</time>
      </trkpt>
      <trkpt lat="49.06217" lon="3.05015">
        <ele>112</ele>
        <time>2021-05-04T10:26:53.650Z</time>
      </trkpt>
      <trkpt lat="49.06211" lon="3.05045">
        <ele>112</ele>
        <time>2021-05-04T10:26:57.651Z</time>
      </trkpt>
      <trkpt lat="49.06205" lon="3.05076">
        <ele>112</ele>
        <time>2021-05-04T10:27:02.648Z</time>
      </trkpt>
      <trkpt lat="49.06201" lon="3.05109">
        <ele>111</ele>
        <time>2021-05-04T10:27:07.650Z</time>
      </trkpt>
      <trkpt lat="49.06195" lon="3.05136">
        <ele>111</ele>
        <time>2021-05-04T10:27:12.650Z</time>
      </trkpt>
      <trkpt lat="49.06187" lon="3.05162">
        <ele>111</ele>
        <time>2021-05-04T10:27:16.649Z</time>
      </trkpt>
      <trkpt lat="49.06181" lon="3.05189">
        <ele>111</ele>
        <time>2021-05-04T10:27:20.653Z</time>
      </trkpt>
      <trkpt lat="49.06174" lon="3.05222">
        <ele>110</ele>
        <time>2021-05-04T10:27:25.652Z</time>
      </trkpt>
      <trkpt lat="49.06167" lon="3.05248">
        <ele>110</ele>
        <time>2021-05-04T10:27:30.650Z</time>
      </trkpt>
      <trkpt lat="49.0616" lon="3.05273">
        <ele>110</ele>
        <time>2021-05-04T10:27:34.648Z</time>
      </trkpt>
      <trkpt lat="49.06155" lon="3.05297">
        <ele>110</ele>
        <time>2021-05-04T10:27:38.655Z</time>
      </trkpt>
      <trkpt lat="49.06149" lon="3.05323">
        <ele>110</ele>
        <time>2021-05-04T10:27:42.648Z</time>
      </trkpt>
      <trkpt lat="49.06145" lon="3.0535">
        <ele>110</ele>
        <time>2021-05-04T10:27:46.650Z</time>
      </trkpt>
      <trkpt lat="49.06136" lon="3.05379">
        <ele>109</ele>
        <time>2021-05-04T10:27:50.646Z</time>
      </trkpt>
      <trkpt lat="49.06132" lon="3.05407">
        <ele>108</ele>
        <time>2021-05-04T10:27:55.651Z</time>
      </trkpt>
      <trkpt lat="49.06122" lon="3.05432">
        <ele>108</ele>
        <time>2021-05-04T10:27:59.653Z</time>
      </trkpt>
      <trkpt lat="49.06114" lon="3.05458">
        <ele>108</ele>
        <time>2021-05-04T10:28:03.650Z</time>
      </trkpt>
      <trkpt lat="49.06105" lon="3.05487">
        <ele>108</ele>
        <time>2021-05-04T10:28:07.651Z</time>
      </trkpt>
      <trkpt lat="49.06094" lon="3.05517">
        <ele>108</ele>
        <time>2021-05-04T10:28:11.652Z</time>
      </trkpt>
      <trkpt lat="49.06082" lon="3.0555">
        <ele>108</ele>
        <time>2021-05-04T10:28:16.651Z</time>
      </trkpt>
      <trkpt lat="49.06068" lon="3.05583">
        <ele>108</ele>
        <time>2021-05-04T10:28:21.650Z</time>
      </trkpt>
      <trkpt lat="49.06052" lon="3.05615">
        <ele>108</ele>
        <time>2021-05-04T10:28:26.651Z</time>
      </trkpt>
      <trkpt lat="49.06033" lon="3.05637">
        <ele>108</ele>
        <time>2021-05-04T10:28:31.649Z</time>
      </trkpt>
      <trkpt lat="49.06014" lon="3.05652">
        <ele>109</ele>
        <time>2021-05-04T10:28:35.650Z</time>
      </trkpt>
      <trkpt lat="49.05994" lon="3.0566">
        <ele>109</ele>
        <time>2021-05-04T10:28:40.652Z</time>
      </trkpt>
      <trkpt lat="49.05973" lon="3.05666">
        <ele>109</ele>
        <time>2021-05-04T10:28:44.649Z</time>
      </trkpt>
      <trkpt lat="49.05952" lon="3.05673">
        <ele>109</ele>
        <time>2021-05-04T10:28:48.649Z</time>
      </trkpt>
      <trkpt lat="49.05931" lon="3.05676">
        <ele>108</ele>
        <time>2021-05-04T10:28:52.649Z</time>
      </trkpt>
      <trkpt lat="49.05905" lon="3.05678">
        <ele>108</ele>
        <time>2021-05-04T10:28:57.650Z</time>
      </trkpt>
      <trkpt lat="49.05878" lon="3.05677">
        <ele>108</ele>
        <time>2021-05-04T10:29:02.648Z</time>
      </trkpt>
      <trkpt lat="49.05851" lon="3.05671">
        <ele>107</ele>
        <time>2021-05-04T10:29:07.649Z</time>
      </trkpt>
      <trkpt lat="49.05826" lon="3.05662">
        <ele>106</ele>
        <time>2021-05-04T10:29:12.649Z</time>
      </trkpt>
      <trkpt lat="49.05801" lon="3.0565">
        <ele>106</ele>
        <time>2021-05-04T10:29:17.651Z</time>
      </trkpt>
      <trkpt lat="49.0578" lon="3.05637">
        <ele>106</ele>
        <time>2021-05-04T10:29:23.650Z</time>
      </trkpt>
      <trkpt lat="49.05767" lon="3.05626">
        <ele>106</ele>
        <time>2021-05-04T10:29:28.650Z</time>
      </trkpt>
      <trkpt lat="49.05756" lon="3.05615">
        <ele>105</ele>
        <time>2021-05-04T10:29:31.655Z</time>
      </trkpt>
      <trkpt lat="49.05744" lon="3.05604">
        <ele>105</ele>
        <time>2021-05-04T10:29:34.652Z</time>
      </trkpt>
      <trkpt lat="49.05727" lon="3.0559">
        <ele>105</ele>
        <time>2021-05-04T10:29:38.653Z</time>
      </trkpt>
      <trkpt lat="49.05707" lon="3.05572">
        <ele>105</ele>
        <time>2021-05-04T10:29:43.650Z</time>
      </trkpt>
      <trkpt lat="49.0569" lon="3.0555">
        <ele>105</ele>
        <time>2021-05-04T10:29:48.651Z</time>
      </trkpt>
      <trkpt lat="49.05677" lon="3.0553">
        <ele>104</ele>
        <time>2021-05-04T10:29:52.651Z</time>
      </trkpt>
      <trkpt lat="49.05666" lon="3.05506">
        <ele>104</ele>
        <time>2021-05-04T10:29:56.650Z</time>
      </trkpt>
      <trkpt lat="49.05654" lon="3.05476">
        <ele>104</ele>
        <time>2021-05-04T10:30:01.652Z</time>
      </trkpt>
      <trkpt lat="49.05645" lon="3.0544">
        <ele>104</ele>
        <time>2021-05-04T10:30:06.648Z</time>
      </trkpt>
      <trkpt lat="49.0564" lon="3.05404">
        <ele>104</ele>
        <time>2021-05-04T10:30:11.651Z</time>
      </trkpt>
      <trkpt lat="49.05631" lon="3.05376">
        <ele>104</ele>
        <time>2021-05-04T10:30:15.652Z</time>
      </trkpt>
      <trkpt lat="49.05621" lon="3.0535">
        <ele>105</ele>
        <time>2021-05-04T10:30:19.651Z</time>
      </trkpt>
      <trkpt lat="49.05606" lon="3.05321">
        <ele>105</ele>
        <time>2021-05-04T10:30:24.652Z</time>
      </trkpt>
      <trkpt lat="49.05593" lon="3.05298">
        <ele>105</ele>
        <time>2021-05-04T10:30:28.650Z</time>
      </trkpt>
      <trkpt lat="49.05576" lon="3.0527">
        <ele>105</ele>
        <time>2021-05-04T10:30:33.650Z</time>
      </trkpt>
      <trkpt lat="49.05555" lon="3.05245">
        <ele>105</ele>
        <time>2021-05-04T10:30:38.727Z</time>
      </trkpt>
      <trkpt lat="49.05537" lon="3.05225">
        <ele>105</ele>
        <time>2021-05-04T10:30:42.651Z</time>
      </trkpt>
      <trkpt lat="49.05515" lon="3.05203">
        <ele>105</ele>
        <time>2021-05-04T10:30:47.651Z</time>
      </trkpt>
      <trkpt lat="49.05493" lon="3.05182">
        <ele>104</ele>
        <time>2021-05-04T10:30:52.648Z</time>
      </trkpt>
      <trkpt lat="49.05471" lon="3.0516">
        <ele>104</ele>
        <time>2021-05-04T10:30:57.650Z</time>
      </trkpt>
      <trkpt lat="49.0545" lon="3.05139">
        <ele>103</ele>
        <time>2021-05-04T10:31:02.654Z</time>
      </trkpt>
      <trkpt lat="49.05428" lon="3.05119">
        <ele>103</ele>
        <time>2021-05-04T10:31:07.649Z</time>
      </trkpt>
      <trkpt lat="49.0541" lon="3.05101">
        <ele>103</ele>
        <time>2021-05-04T10:31:12.377Z</time>
      </trkpt>
      <trkpt lat="49.05389" lon="3.05081">
        <ele>103</ele>
        <time>2021-05-04T10:31:16.648Z</time>
      </trkpt>
      <trkpt lat="49.05371" lon="3.05058">
        <ele>103</ele>
        <time>2021-05-04T10:31:21.650Z</time>
      </trkpt>
      <trkpt lat="49.05355" lon="3.0503">
        <ele>103</ele>
        <time>2021-05-04T10:31:26.649Z</time>
      </trkpt>
      <trkpt lat="49.0534" lon="3.04999">
        <ele>104</ele>
        <time>2021-05-04T10:31:31.649Z</time>
      </trkpt>
      <trkpt lat="49.05328" lon="3.04972">
        <ele>104</ele>
        <time>2021-05-04T10:31:35.647Z</time>
      </trkpt>
      <trkpt lat="49.05313" lon="3.0494">
        <ele>104</ele>
        <time>2021-05-04T10:31:40.649Z</time>
      </trkpt>
      <trkpt lat="49.05301" lon="3.04908">
        <ele>104</ele>
        <time>2021-05-04T10:31:45.654Z</time>
      </trkpt>
      <trkpt lat="49.05289" lon="3.04879">
        <ele>105</ele>
        <time>2021-05-04T10:31:50.650Z</time>
      </trkpt>
      <trkpt lat="49.05275" lon="3.0485">
        <ele>105</ele>
        <time>2021-05-04T10:31:55.651Z</time>
      </trkpt>
      <trkpt lat="49.05262" lon="3.0482">
        <ele>106</ele>
        <time>2021-05-04T10:32:00.655Z</time>
      </trkpt>
      <trkpt lat="49.05248" lon="3.04789">
        <ele>107</ele>
        <time>2021-05-04T10:32:05.650Z</time>
      </trkpt>
      <trkpt lat="49.05236" lon="3.04762">
        <ele>107</ele>
        <time>2021-05-04T10:32:09.651Z</time>
      </trkpt>
      <trkpt lat="49.05222" lon="3.0473">
        <ele>107</ele>
        <time>2021-05-04T10:32:14.653Z</time>
      </trkpt>
      <trkpt lat="49.0521" lon="3.04699">
        <ele>107</ele>
        <time>2021-05-04T10:32:19.650Z</time>
      </trkpt>
      <trkpt lat="49.052" lon="3.04666">
        <ele>108</ele>
        <time>2021-05-04T10:32:24.653Z</time>
      </trkpt>
      <trkpt lat="49.0519" lon="3.04637">
        <ele>108</ele>
        <time>2021-05-04T10:32:28.651Z</time>
      </trkpt>
      <trkpt lat="49.05178" lon="3.04604">
        <ele>107</ele>
        <time>2021-05-04T10:32:33.653Z</time>
      </trkpt>
      <trkpt lat="49.05167" lon="3.04573">
        <ele>107</ele>
        <time>2021-05-04T10:32:38.650Z</time>
      </trkpt>
      <trkpt lat="49.05157" lon="3.04541">
        <ele>107</ele>
        <time>2021-05-04T10:32:43.651Z</time>
      </trkpt>
      <trkpt lat="49.05151" lon="3.04512">
        <ele>106</ele>
        <time>2021-05-04T10:32:47.652Z</time>
      </trkpt>
      <trkpt lat="49.05145" lon="3.04477">
        <ele>106</ele>
        <time>2021-05-04T10:32:52.649Z</time>
      </trkpt>
      <trkpt lat="49.05141" lon="3.04444">
        <ele>105</ele>
        <time>2021-05-04T10:32:57.651Z</time>
      </trkpt>
      <trkpt lat="49.05136" lon="3.04418">
        <ele>105</ele>
        <time>2021-05-04T10:33:01.650Z</time>
      </trkpt>
      <trkpt lat="49.05131" lon="3.04392">
        <ele>105</ele>
        <time>2021-05-04T10:33:05.651Z</time>
      </trkpt>
      <trkpt lat="49.05126" lon="3.04367">
        <ele>105</ele>
        <time>2021-05-04T10:33:11.650Z</time>
      </trkpt>
      <trkpt lat="49.05126" lon="3.04352">
        <ele>106</ele>
        <time>2021-05-04T10:33:16.652Z</time>
      </trkpt>
      <trkpt lat="49.05124" lon="3.04341">
        <ele>107</ele>
        <time>2021-05-04T10:33:32.656Z</time>
      </trkpt>
      <trkpt lat="49.05124" lon="3.04341">
        <ele>107</ele>
        <time>2021-05-04T10:33:40.660Z</time>
      </trkpt>
      <trkpt lat="49.0512" lon="3.04302">
        <ele>108</ele>
        <time>2021-05-04T10:33:41.659Z</time>
      </trkpt>
      <trkpt lat="49.05117" lon="3.04289">
        <ele>108</ele>
        <time>2021-05-04T10:33:43.658Z</time>
      </trkpt>
      <trkpt lat="49.05113" lon="3.04267">
        <ele>108</ele>
        <time>2021-05-04T10:33:46.656Z</time>
      </trkpt>
      <trkpt lat="49.05107" lon="3.04236">
        <ele>109</ele>
        <time>2021-05-04T10:33:50.662Z</time>
      </trkpt>
      <trkpt lat="49.05098" lon="3.04208">
        <ele>109</ele>
        <time>2021-05-04T10:33:54.651Z</time>
      </trkpt>
      <trkpt lat="49.05084" lon="3.04177">
        <ele>109</ele>
        <time>2021-05-04T10:33:59.650Z</time>
      </trkpt>
      <trkpt lat="49.05072" lon="3.04152">
        <ele>109</ele>
        <time>2021-05-04T10:34:03.649Z</time>
      </trkpt>
      <trkpt lat="49.05058" lon="3.0412">
        <ele>109</ele>
        <time>2021-05-04T10:34:08.648Z</time>
      </trkpt>
      <trkpt lat="49.05045" lon="3.04089">
        <ele>108</ele>
        <time>2021-05-04T10:34:13.649Z</time>
      </trkpt>
      <trkpt lat="49.05034" lon="3.04063">
        <ele>108</ele>
        <time>2021-05-04T10:34:17.650Z</time>
      </trkpt>
      <trkpt lat="49.05021" lon="3.04032">
        <ele>108</ele>
        <time>2021-05-04T10:34:22.650Z</time>
      </trkpt>
      <trkpt lat="49.05007" lon="3.04001">
        <ele>107</ele>
        <time>2021-05-04T10:34:27.651Z</time>
      </trkpt>
      <trkpt lat="49.04996" lon="3.03976">
        <ele>107</ele>
        <time>2021-05-04T10:34:31.649Z</time>
      </trkpt>
      <trkpt lat="49.04984" lon="3.03947">
        <ele>106</ele>
        <time>2021-05-04T10:34:36.649Z</time>
      </trkpt>
      <trkpt lat="49.04973" lon="3.03923">
        <ele>106</ele>
        <time>2021-05-04T10:34:40.651Z</time>
      </trkpt>
      <trkpt lat="49.04961" lon="3.03899">
        <ele>106</ele>
        <time>2021-05-04T10:34:44.650Z</time>
      </trkpt>
      <trkpt lat="49.04947" lon="3.03876">
        <ele>106</ele>
        <time>2021-05-04T10:34:48.649Z</time>
      </trkpt>
      <trkpt lat="49.04929" lon="3.0385">
        <ele>105</ele>
        <time>2021-05-04T10:34:53.650Z</time>
      </trkpt>
      <trkpt lat="49.0491" lon="3.03825">
        <ele>105</ele>
        <time>2021-05-04T10:34:58.649Z</time>
      </trkpt>
      <trkpt lat="49.04892" lon="3.03804">
        <ele>105</ele>
        <time>2021-05-04T10:35:03.650Z</time>
      </trkpt>
      <trkpt lat="49.04874" lon="3.03784">
        <ele>105</ele>
        <time>2021-05-04T10:35:08.650Z</time>
      </trkpt>
      <trkpt lat="49.04856" lon="3.03766">
        <ele>104</ele>
        <time>2021-05-04T10:35:13.649Z</time>
      </trkpt>
      <trkpt lat="49.04841" lon="3.03749">
        <ele>104</ele>
        <time>2021-05-04T10:35:17.650Z</time>
      </trkpt>
      <trkpt lat="49.04825" lon="3.0373">
        <ele>104</ele>
        <time>2021-05-04T10:35:21.658Z</time>
      </trkpt>
      <trkpt lat="49.04806" lon="3.03707">
        <ele>104</ele>
        <time>2021-05-04T10:35:26.650Z</time>
      </trkpt>
      <trkpt lat="49.04786" lon="3.03685">
        <ele>103</ele>
        <time>2021-05-04T10:35:31.651Z</time>
      </trkpt>
      <trkpt lat="49.0477" lon="3.03667">
        <ele>103</ele>
        <time>2021-05-04T10:35:35.650Z</time>
      </trkpt>
      <trkpt lat="49.0475" lon="3.03644">
        <ele>104</ele>
        <time>2021-05-04T10:35:40.651Z</time>
      </trkpt>
      <trkpt lat="49.04733" lon="3.03626">
        <ele>104</ele>
        <time>2021-05-04T10:35:44.651Z</time>
      </trkpt>
      <trkpt lat="49.04712" lon="3.03605">
        <ele>103</ele>
        <time>2021-05-04T10:35:49.650Z</time>
      </trkpt>
      <trkpt lat="49.0469" lon="3.03583">
        <ele>103</ele>
        <time>2021-05-04T10:35:54.650Z</time>
      </trkpt>
      <trkpt lat="49.04669" lon="3.03566">
        <ele>103</ele>
        <time>2021-05-04T10:35:59.650Z</time>
      </trkpt>
      <trkpt lat="49.04651" lon="3.0355">
        <ele>103</ele>
        <time>2021-05-04T10:36:03.650Z</time>
      </trkpt>
      <trkpt lat="49.04476" lon="3.03481">
        <ele>103</ele>
        <time>2021-05-04T10:36:36.643Z</time>
      </trkpt>
      <trkpt lat="49.04451" lon="3.03478">
        <ele>102</ele>
        <time>2021-05-04T10:36:42.655Z</time>
      </trkpt>
      <trkpt lat="49.04425" lon="3.03473">
        <ele>101</ele>
        <time>2021-05-04T10:36:47.651Z</time>
      </trkpt>
      <trkpt lat="49.04399" lon="3.0347">
        <ele>101</ele>
        <time>2021-05-04T10:36:52.650Z</time>
      </trkpt>
      <trkpt lat="49.04375" lon="3.03473">
        <ele>100</ele>
        <time>2021-05-04T10:36:57.651Z</time>
      </trkpt>
      <trkpt lat="49.04351" lon="3.03483">
        <ele>101</ele>
        <time>2021-05-04T10:37:02.649Z</time>
      </trkpt>
      <trkpt lat="49.04327" lon="3.03489">
        <ele>101</ele>
        <time>2021-05-04T10:37:07.649Z</time>
      </trkpt>
      <trkpt lat="49.04304" lon="3.03498">
        <ele>102</ele>
        <time>2021-05-04T10:37:11.652Z</time>
      </trkpt>
      <trkpt lat="49.04281" lon="3.03513">
        <ele>102</ele>
        <time>2021-05-04T10:37:16.649Z</time>
      </trkpt>
      <trkpt lat="49.04257" lon="3.0353">
        <ele>103</ele>
        <time>2021-05-04T10:37:21.654Z</time>
      </trkpt>
      <trkpt lat="49.04234" lon="3.03547">
        <ele>105</ele>
        <time>2021-05-04T10:37:26.649Z</time>
      </trkpt>
      <trkpt lat="49.04214" lon="3.03566">
        <ele>106</ele>
        <time>2021-05-04T10:37:31.650Z</time>
      </trkpt>
      <trkpt lat="49.04193" lon="3.03581">
        <ele>107</ele>
        <time>2021-05-04T10:37:36.650Z</time>
      </trkpt>
      <trkpt lat="49.04175" lon="3.03599">
        <ele>108</ele>
        <time>2021-05-04T10:37:40.697Z</time>
      </trkpt>
      <trkpt lat="49.0415" lon="3.03618">
        <ele>108</ele>
        <time>2021-05-04T10:37:45.653Z</time>
      </trkpt>
      <trkpt lat="49.04127" lon="3.03638">
        <ele>109</ele>
        <time>2021-05-04T10:37:50.651Z</time>
      </trkpt>
      <trkpt lat="49.04104" lon="3.03662">
        <ele>109</ele>
        <time>2021-05-04T10:37:55.650Z</time>
      </trkpt>
      <trkpt lat="49.0408" lon="3.03685">
        <ele>109</ele>
        <time>2021-05-04T10:38:00.651Z</time>
      </trkpt>
      <trkpt lat="49.04059" lon="3.03715">
        <ele>109</ele>
        <time>2021-05-04T10:38:05.648Z</time>
      </trkpt>
      <trkpt lat="49.04044" lon="3.03748">
        <ele>109</ele>
        <time>2021-05-04T10:38:10.650Z</time>
      </trkpt>
      <trkpt lat="49.04025" lon="3.03778">
        <ele>109</ele>
        <time>2021-05-04T10:38:15.649Z</time>
      </trkpt>
      <trkpt lat="49.04008" lon="3.03808">
        <ele>108</ele>
        <time>2021-05-04T10:38:20.680Z</time>
      </trkpt>
      <trkpt lat="49.0399" lon="3.03829">
        <ele>108</ele>
        <time>2021-05-04T10:38:24.649Z</time>
      </trkpt>
      <trkpt lat="49.03974" lon="3.03866">
        <ele>108</ele>
        <time>2021-05-04T10:38:29.651Z</time>
      </trkpt>
      <trkpt lat="49.03957" lon="3.03901">
        <ele>107</ele>
        <time>2021-05-04T10:38:34.650Z</time>
      </trkpt>
      <trkpt lat="49.0394" lon="3.03936">
        <ele>107</ele>
        <time>2021-05-04T10:38:39.650Z</time>
      </trkpt>
      <trkpt lat="49.03927" lon="3.03971">
        <ele>107</ele>
        <time>2021-05-04T10:38:44.646Z</time>
      </trkpt>
      <trkpt lat="49.03912" lon="3.04008">
        <ele>106</ele>
        <time>2021-05-04T10:38:49.649Z</time>
      </trkpt>
      <trkpt lat="49.039" lon="3.04045">
        <ele>106</ele>
        <time>2021-05-04T10:38:54.652Z</time>
      </trkpt>
      <trkpt lat="49.03888" lon="3.04084">
        <ele>106</ele>
        <time>2021-05-04T10:38:59.651Z</time>
      </trkpt>
      <trkpt lat="49.03875" lon="3.04122">
        <ele>107</ele>
        <time>2021-05-04T10:39:04.650Z</time>
      </trkpt>
      <trkpt lat="49.03864" lon="3.04157">
        <ele>107</ele>
        <time>2021-05-04T10:39:08.650Z</time>
      </trkpt>
      <trkpt lat="49.03852" lon="3.04198">
        <ele>107</ele>
        <time>2021-05-04T10:39:13.647Z</time>
      </trkpt>
      <trkpt lat="49.03844" lon="3.04237">
        <ele>108</ele>
        <time>2021-05-04T10:39:18.648Z</time>
      </trkpt>
      <trkpt lat="49.03835" lon="3.04274">
        <ele>108</ele>
        <time>2021-05-04T10:39:23.650Z</time>
      </trkpt>
      <trkpt lat="49.03827" lon="3.04307">
        <ele>109</ele>
        <time>2021-05-04T10:39:27.649Z</time>
      </trkpt>
      <trkpt lat="49.03819" lon="3.04342">
        <ele>109</ele>
        <time>2021-05-04T10:39:31.648Z</time>
      </trkpt>
      <trkpt lat="49.03812" lon="3.0438">
        <ele>109</ele>
        <time>2021-05-04T10:39:36.651Z</time>
      </trkpt>
      <trkpt lat="49.03803" lon="3.04422">
        <ele>108</ele>
        <time>2021-05-04T10:39:41.654Z</time>
      </trkpt>
      <trkpt lat="49.03795" lon="3.04463">
        <ele>108</ele>
        <time>2021-05-04T10:39:46.648Z</time>
      </trkpt>
      <trkpt lat="49.03787" lon="3.04502">
        <ele>107</ele>
        <time>2021-05-04T10:39:51.649Z</time>
      </trkpt>
      <trkpt lat="49.0378" lon="3.04541">
        <ele>106</ele>
        <time>2021-05-04T10:39:56.649Z</time>
      </trkpt>
      <trkpt lat="49.03773" lon="3.0458">
        <ele>105</ele>
        <time>2021-05-04T10:40:01.652Z</time>
      </trkpt>
      <trkpt lat="49.03768" lon="3.04609">
        <ele>105</ele>
        <time>2021-05-04T10:40:07.649Z</time>
      </trkpt>
      <trkpt lat="49.03761" lon="3.04632">
        <ele>104</ele>
        <time>2021-05-04T10:40:12.649Z</time>
      </trkpt>
      <trkpt lat="49.03754" lon="3.04654">
        <ele>104</ele>
        <time>2021-05-04T10:40:15.650Z</time>
      </trkpt>
      <trkpt lat="49.03747" lon="3.04677">
        <ele>104</ele>
        <time>2021-05-04T10:40:18.649Z</time>
      </trkpt>
      <trkpt lat="49.03739" lon="3.04709">
        <ele>104</ele>
        <time>2021-05-04T10:40:22.647Z</time>
      </trkpt>
      <trkpt lat="49.03729" lon="3.0475">
        <ele>104</ele>
        <time>2021-05-04T10:40:27.649Z</time>
      </trkpt>
      <trkpt lat="49.03718" lon="3.04789">
        <ele>105</ele>
        <time>2021-05-04T10:40:32.651Z</time>
      </trkpt>
      <trkpt lat="49.03707" lon="3.04829">
        <ele>105</ele>
        <time>2021-05-04T10:40:37.651Z</time>
      </trkpt>
      <trkpt lat="49.03696" lon="3.0487">
        <ele>105</ele>
        <time>2021-05-04T10:40:42.653Z</time>
      </trkpt>
      <trkpt lat="49.03682" lon="3.0491">
        <ele>105</ele>
        <time>2021-05-04T10:40:47.648Z</time>
      </trkpt>
      <trkpt lat="49.03666" lon="3.04946">
        <ele>105</ele>
        <time>2021-05-04T10:40:52.648Z</time>
      </trkpt>
      <trkpt lat="49.03647" lon="3.04978">
        <ele>105</ele>
        <time>2021-05-04T10:40:57.650Z</time>
      </trkpt>
      <trkpt lat="49.03628" lon="3.05005">
        <ele>105</ele>
        <time>2021-05-04T10:41:02.648Z</time>
      </trkpt>
      <trkpt lat="49.03607" lon="3.05028">
        <ele>105</ele>
        <time>2021-05-04T10:41:07.647Z</time>
      </trkpt>
      <trkpt lat="49.03583" lon="3.05046">
        <ele>104</ele>
        <time>2021-05-04T10:41:12.652Z</time>
      </trkpt>
      <trkpt lat="49.03559" lon="3.05058">
        <ele>104</ele>
        <time>2021-05-04T10:41:17.650Z</time>
      </trkpt>
      <trkpt lat="49.03536" lon="3.05061">
        <ele>104</ele>
        <time>2021-05-04T10:41:22.653Z</time>
      </trkpt>
      <trkpt lat="49.03517" lon="3.05062">
        <ele>104</ele>
        <time>2021-05-04T10:41:27.649Z</time>
      </trkpt>
      <trkpt lat="49.03499" lon="3.05058">
        <ele>104</ele>
        <time>2021-05-04T10:41:32.649Z</time>
      </trkpt>
      <trkpt lat="49.03482" lon="3.05052">
        <ele>104</ele>
        <time>2021-05-04T10:41:36.648Z</time>
      </trkpt>
      <trkpt lat="49.03467" lon="3.05041">
        <ele>105</ele>
        <time>2021-05-04T10:41:40.651Z</time>
      </trkpt>
      <trkpt lat="49.03451" lon="3.05026">
        <ele>105</ele>
        <time>2021-05-04T10:41:45.648Z</time>
      </trkpt>
      <trkpt lat="49.03437" lon="3.05014">
        <ele>105</ele>
        <time>2021-05-04T10:41:49.649Z</time>
      </trkpt>
      <trkpt lat="49.03423" lon="3.05002">
        <ele>105</ele>
        <time>2021-05-04T10:41:53.650Z</time>
      </trkpt>
      <trkpt lat="49.03407" lon="3.04985">
        <ele>105</ele>
        <time>2021-05-04T10:41:57.649Z</time>
      </trkpt>
      <trkpt lat="49.03392" lon="3.04968">
        <ele>105</ele>
        <time>2021-05-04T10:42:01.654Z</time>
      </trkpt>
      <trkpt lat="49.03378" lon="3.0495">
        <ele>105</ele>
        <time>2021-05-04T10:42:05.650Z</time>
      </trkpt>
      <trkpt lat="49.03362" lon="3.04926">
        <ele>105</ele>
        <time>2021-05-04T10:42:10.649Z</time>
      </trkpt>
      <trkpt lat="49.03346" lon="3.04901">
        <ele>104</ele>
        <time>2021-05-04T10:42:15.652Z</time>
      </trkpt>
      <trkpt lat="49.03334" lon="3.04879">
        <ele>104</ele>
        <time>2021-05-04T10:42:19.649Z</time>
      </trkpt>
      <trkpt lat="49.03322" lon="3.0485">
        <ele>104</ele>
        <time>2021-05-04T10:42:24.651Z</time>
      </trkpt>
      <trkpt lat="49.03313" lon="3.04824">
        <ele>104</ele>
        <time>2021-05-04T10:42:28.649Z</time>
      </trkpt>
      <trkpt lat="49.03306" lon="3.04797">
        <ele>104</ele>
        <time>2021-05-04T10:42:32.650Z</time>
      </trkpt>
      <trkpt lat="49.03301" lon="3.04763">
        <ele>104</ele>
        <time>2021-05-04T10:42:37.649Z</time>
      </trkpt>
      <trkpt lat="49.03297" lon="3.04729">
        <ele>104</ele>
        <time>2021-05-04T10:42:42.656Z</time>
      </trkpt>
      <trkpt lat="49.03291" lon="3.04696">
        <ele>104</ele>
        <time>2021-05-04T10:42:47.650Z</time>
      </trkpt>
      <trkpt lat="49.03285" lon="3.04664">
        <ele>104</ele>
        <time>2021-05-04T10:42:52.650Z</time>
      </trkpt>
      <trkpt lat="49.03281" lon="3.04632">
        <ele>104</ele>
        <time>2021-05-04T10:42:57.650Z</time>
      </trkpt>
      <trkpt lat="49.0328" lon="3.04622">
        <ele>104</ele>
        <time>2021-05-04T10:43:14.648Z</time>
      </trkpt>
      <trkpt lat="49.0328" lon="3.04622">
        <ele>104</ele>
        <time>2021-05-04T10:44:55.650Z</time>
      </trkpt>
      <trkpt lat="49.03276" lon="3.04586">
        <ele>106</ele>
        <time>2021-05-04T10:44:56.648Z</time>
      </trkpt>
      <trkpt lat="49.03274" lon="3.04567">
        <ele>107</ele>
        <time>2021-05-04T10:44:59.651Z</time>
      </trkpt>
      <trkpt lat="49.03269" lon="3.04545">
        <ele>108</ele>
        <time>2021-05-04T10:45:03.655Z</time>
      </trkpt>
      <trkpt lat="49.03264" lon="3.0452">
        <ele>108</ele>
        <time>2021-05-04T10:45:07.651Z</time>
      </trkpt>
      <trkpt lat="49.03261" lon="3.04494">
        <ele>108</ele>
        <time>2021-05-04T10:45:11.649Z</time>
      </trkpt>
      <trkpt lat="49.03256" lon="3.04468">
        <ele>109</ele>
        <time>2021-05-04T10:45:15.648Z</time>
      </trkpt>
      <trkpt lat="49.03251" lon="3.04437">
        <ele>109</ele>
        <time>2021-05-04T10:45:20.650Z</time>
      </trkpt>
      <trkpt lat="49.03245" lon="3.04411">
        <ele>109</ele>
        <time>2021-05-04T10:45:24.651Z</time>
      </trkpt>
      <trkpt lat="49.0324" lon="3.04379">
        <ele>109</ele>
        <time>2021-05-04T10:45:29.643Z</time>
      </trkpt>
      <trkpt lat="49.03236" lon="3.04353">
        <ele>109</ele>
        <time>2021-05-04T10:45:33.648Z</time>
      </trkpt>
      <trkpt lat="49.03231" lon="3.04327">
        <ele>109</ele>
        <time>2021-05-04T10:45:37.645Z</time>
      </trkpt>
      <trkpt lat="49.03224" lon="3.04296">
        <ele>108</ele>
        <time>2021-05-04T10:45:42.649Z</time>
      </trkpt>
      <trkpt lat="49.03217" lon="3.04266">
        <ele>108</ele>
        <time>2021-05-04T10:45:47.651Z</time>
      </trkpt>
      <trkpt lat="49.03211" lon="3.0424">
        <ele>107</ele>
        <time>2021-05-04T10:45:51.648Z</time>
      </trkpt>
      <trkpt lat="49.03204" lon="3.04216">
        <ele>107</ele>
        <time>2021-05-04T10:45:55.651Z</time>
      </trkpt>
      <trkpt lat="49.03195" lon="3.04187">
        <ele>106</ele>
        <time>2021-05-04T10:46:00.652Z</time>
      </trkpt>
      <trkpt lat="49.03187" lon="3.04163">
        <ele>106</ele>
        <time>2021-05-04T10:46:04.657Z</time>
      </trkpt>
      <trkpt lat="49.03177" lon="3.04141">
        <ele>106</ele>
        <time>2021-05-04T10:46:08.654Z</time>
      </trkpt>
      <trkpt lat="49.03167" lon="3.04118">
        <ele>105</ele>
        <time>2021-05-04T10:46:12.651Z</time>
      </trkpt>
      <trkpt lat="49.03155" lon="3.04091">
        <ele>105</ele>
        <time>2021-05-04T10:46:17.651Z</time>
      </trkpt>
      <trkpt lat="49.03144" lon="3.0407">
        <ele>105</ele>
        <time>2021-05-04T10:46:21.649Z</time>
      </trkpt>
      <trkpt lat="49.03133" lon="3.04048">
        <ele>105</ele>
        <time>2021-05-04T10:46:25.651Z</time>
      </trkpt>
      <trkpt lat="49.03123" lon="3.04019">
        <ele>105</ele>
        <time>2021-05-04T10:46:30.649Z</time>
      </trkpt>
      <trkpt lat="49.03114" lon="3.03989">
        <ele>105</ele>
        <time>2021-05-04T10:46:35.649Z</time>
      </trkpt>
      <trkpt lat="49.03105" lon="3.03959">
        <ele>105</ele>
        <time>2021-05-04T10:46:40.649Z</time>
      </trkpt>
      <trkpt lat="49.03098" lon="3.03931">
        <ele>105</ele>
        <time>2021-05-04T10:46:45.649Z</time>
      </trkpt>
      <trkpt lat="49.03092" lon="3.03907">
        <ele>105</ele>
        <time>2021-05-04T10:46:49.653Z</time>
      </trkpt>
      <trkpt lat="49.03086" lon="3.03881">
        <ele>105</ele>
        <time>2021-05-04T10:46:53.648Z</time>
      </trkpt>
      <trkpt lat="49.0308" lon="3.03853">
        <ele>105</ele>
        <time>2021-05-04T10:46:58.649Z</time>
      </trkpt>
      <trkpt lat="49.03073" lon="3.03824">
        <ele>105</ele>
        <time>2021-05-04T10:47:03.649Z</time>
      </trkpt>
      <trkpt lat="49.03068" lon="3.03799">
        <ele>105</ele>
        <time>2021-05-04T10:47:07.648Z</time>
      </trkpt>
      <trkpt lat="49.03062" lon="3.03773">
        <ele>105</ele>
        <time>2021-05-04T10:47:11.649Z</time>
      </trkpt>
      <trkpt lat="49.03055" lon="3.03748">
        <ele>105</ele>
        <time>2021-05-04T10:47:15.648Z</time>
      </trkpt>
      <trkpt lat="49.03047" lon="3.03717">
        <ele>105</ele>
        <time>2021-05-04T10:47:20.650Z</time>
      </trkpt>
      <trkpt lat="49.03039" lon="3.03691">
        <ele>105</ele>
        <time>2021-05-04T10:47:24.649Z</time>
      </trkpt>
      <trkpt lat="49.03029" lon="3.03661">
        <ele>104</ele>
        <time>2021-05-04T10:47:29.656Z</time>
      </trkpt>
      <trkpt lat="49.0302" lon="3.0363">
        <ele>104</ele>
        <time>2021-05-04T10:47:34.648Z</time>
      </trkpt>
      <trkpt lat="49.03011" lon="3.03606">
        <ele>104</ele>
        <time>2021-05-04T10:47:38.650Z</time>
      </trkpt>
      <trkpt lat="49.03002" lon="3.03581">
        <ele>104</ele>
        <time>2021-05-04T10:47:42.649Z</time>
      </trkpt>
      <trkpt lat="49.02993" lon="3.03551">
        <ele>104</ele>
        <time>2021-05-04T10:47:47.650Z</time>
      </trkpt>
      <trkpt lat="49.02983" lon="3.03521">
        <ele>104</ele>
        <time>2021-05-04T10:47:52.650Z</time>
      </trkpt>
      <trkpt lat="49.02975" lon="3.03497">
        <ele>104</ele>
        <time>2021-05-04T10:47:56.649Z</time>
      </trkpt>
      <trkpt lat="49.02967" lon="3.03473">
        <ele>104</ele>
        <time>2021-05-04T10:48:00.647Z</time>
      </trkpt>
      <trkpt lat="49.02959" lon="3.03446">
        <ele>104</ele>
        <time>2021-05-04T10:48:04.650Z</time>
      </trkpt>
      <trkpt lat="49.02951" lon="3.03414">
        <ele>103</ele>
        <time>2021-05-04T10:48:09.657Z</time>
      </trkpt>
      <trkpt lat="49.02943" lon="3.03383">
        <ele>103</ele>
        <time>2021-05-04T10:48:14.651Z</time>
      </trkpt>
      <trkpt lat="49.02934" lon="3.0335">
        <ele>103</ele>
        <time>2021-05-04T10:48:19.647Z</time>
      </trkpt>
      <trkpt lat="49.02927" lon="3.03319">
        <ele>102</ele>
        <time>2021-05-04T10:48:24.770Z</time>
      </trkpt>
      <trkpt lat="49.02921" lon="3.03293">
        <ele>102</ele>
        <time>2021-05-04T10:48:28.649Z</time>
      </trkpt>
      <trkpt lat="49.02913" lon="3.03268">
        <ele>102</ele>
        <time>2021-05-04T10:48:32.648Z</time>
      </trkpt>
      <trkpt lat="49.02906" lon="3.03242">
        <ele>102</ele>
        <time>2021-05-04T10:48:36.648Z</time>
      </trkpt>
      <trkpt lat="49.02896" lon="3.03211">
        <ele>102</ele>
        <time>2021-05-04T10:48:41.649Z</time>
      </trkpt>
      <trkpt lat="49.02888" lon="3.03185">
        <ele>102</ele>
        <time>2021-05-04T10:48:45.650Z</time>
      </trkpt>
      <trkpt lat="49.02879" lon="3.03158">
        <ele>101</ele>
        <time>2021-05-04T10:48:49.653Z</time>
      </trkpt>
      <trkpt lat="49.0287" lon="3.0313">
        <ele>101</ele>
        <time>2021-05-04T10:48:54.650Z</time>
      </trkpt>
      <trkpt lat="49.02858" lon="3.03105">
        <ele>101</ele>
        <time>2021-05-04T10:48:58.648Z</time>
      </trkpt>
      <trkpt lat="49.02849" lon="3.03077">
        <ele>101</ele>
        <time>2021-05-04T10:49:02.647Z</time>
      </trkpt>
      <trkpt lat="49.02834" lon="3.03048">
        <ele>101</ele>
        <time>2021-05-04T10:49:07.653Z</time>
      </trkpt>
      <trkpt lat="49.0282" lon="3.03017">
        <ele>101</ele>
        <time>2021-05-04T10:49:12.648Z</time>
      </trkpt>
      <trkpt lat="49.02806" lon="3.02986">
        <ele>101</ele>
        <time>2021-05-04T10:49:17.647Z</time>
      </trkpt>
      <trkpt lat="49.02792" lon="3.02956">
        <ele>102</ele>
        <time>2021-05-04T10:49:22.650Z</time>
      </trkpt>
      <trkpt lat="49.02778" lon="3.02926">
        <ele>102</ele>
        <time>2021-05-04T10:49:27.648Z</time>
      </trkpt>
      <trkpt lat="49.02764" lon="3.02896">
        <ele>103</ele>
        <time>2021-05-04T10:49:32.649Z</time>
      </trkpt>
      <trkpt lat="49.02755" lon="3.02862">
        <ele>104</ele>
        <time>2021-05-04T10:49:37.649Z</time>
      </trkpt>
      <trkpt lat="49.02748" lon="3.02835">
        <ele>104</ele>
        <time>2021-05-04T10:49:42.649Z</time>
      </trkpt>
      <trkpt lat="49.02742" lon="3.02808">
        <ele>104</ele>
        <time>2021-05-04T10:49:47.650Z</time>
      </trkpt>
      <trkpt lat="49.02733" lon="3.02783">
        <ele>104</ele>
        <time>2021-05-04T10:49:52.649Z</time>
      </trkpt>
      <trkpt lat="49.02724" lon="3.02765">
        <ele>105</ele>
        <time>2021-05-04T10:49:56.648Z</time>
      </trkpt>
      <trkpt lat="49.02714" lon="3.02747">
        <ele>105</ele>
        <time>2021-05-04T10:50:00.648Z</time>
      </trkpt>
      <trkpt lat="49.02702" lon="3.02727">
        <ele>105</ele>
        <time>2021-05-04T10:50:05.649Z</time>
      </trkpt>
      <trkpt lat="49.02692" lon="3.02711">
        <ele>105</ele>
        <time>2021-05-04T10:50:10.648Z</time>
      </trkpt>
      <trkpt lat="49.02683" lon="3.02698">
        <ele>105</ele>
        <time>2021-05-04T10:50:15.651Z</time>
      </trkpt>
      <trkpt lat="49.02677" lon="3.02686">
        <ele>106</ele>
        <time>2021-05-04T10:50:27.649Z</time>
      </trkpt>
      <trkpt lat="49.0267" lon="3.02673">
        <ele>106</ele>
        <time>2021-05-04T10:50:32.649Z</time>
      </trkpt>
      <trkpt lat="49.02666" lon="3.02661">
        <ele>106</ele>
        <time>2021-05-04T10:50:35.648Z</time>
      </trkpt>
      <trkpt lat="49.02659" lon="3.02646">
        <ele>107</ele>
        <time>2021-05-04T10:50:38.648Z</time>
      </trkpt>
      <trkpt lat="49.02651" lon="3.02629">
        <ele>107</ele>
        <time>2021-05-04T10:50:41.648Z</time>
      </trkpt>
      <trkpt lat="49.02641" lon="3.02606">
        <ele>107</ele>
        <time>2021-05-04T10:50:45.648Z</time>
      </trkpt>
      <trkpt lat="49.02629" lon="3.02583">
        <ele>107</ele>
        <time>2021-05-04T10:50:50.652Z</time>
      </trkpt>
      <trkpt lat="49.02619" lon="3.02562">
        <ele>108</ele>
        <time>2021-05-04T10:50:55.646Z</time>
      </trkpt>
      <trkpt lat="49.02608" lon="3.0255">
        <ele>108</ele>
        <time>2021-05-04T10:51:00.649Z</time>
      </trkpt>
      <trkpt lat="49.02604" lon="3.02532">
        <ele>108</ele>
        <time>2021-05-04T10:51:04.649Z</time>
      </trkpt>
      <trkpt lat="49.02598" lon="3.02517">
        <ele>108</ele>
        <time>2021-05-04T10:51:07.648Z</time>
      </trkpt>
      <trkpt lat="49.02591" lon="3.02496">
        <ele>107</ele>
        <time>2021-05-04T10:51:11.652Z</time>
      </trkpt>
      <trkpt lat="49.02586" lon="3.02473">
        <ele>107</ele>
        <time>2021-05-04T10:51:15.647Z</time>
      </trkpt>
      <trkpt lat="49.02582" lon="3.02451">
        <ele>107</ele>
        <time>2021-05-04T10:51:19.650Z</time>
      </trkpt>
      <trkpt lat="49.02579" lon="3.02428">
        <ele>107</ele>
        <time>2021-05-04T10:51:23.651Z</time>
      </trkpt>
      <trkpt lat="49.02579" lon="3.02405">
        <ele>107</ele>
        <time>2021-05-04T10:51:27.649Z</time>
      </trkpt>
      <trkpt lat="49.02578" lon="3.02379">
        <ele>107</ele>
        <time>2021-05-04T10:51:31.648Z</time>
      </trkpt>
      <trkpt lat="49.02579" lon="3.02352">
        <ele>106</ele>
        <time>2021-05-04T10:51:35.648Z</time>
      </trkpt>
      <trkpt lat="49.02583" lon="3.02324">
        <ele>106</ele>
        <time>2021-05-04T10:51:39.648Z</time>
      </trkpt>
      <trkpt lat="49.02587" lon="3.02295">
        <ele>106</ele>
        <time>2021-05-04T10:51:43.645Z</time>
      </trkpt>
      <trkpt lat="49.02591" lon="3.02259">
        <ele>105</ele>
        <time>2021-05-04T10:51:48.647Z</time>
      </trkpt>
      <trkpt lat="49.02597" lon="3.02223">
        <ele>104</ele>
        <time>2021-05-04T10:51:53.646Z</time>
      </trkpt>
      <trkpt lat="49.02602" lon="3.02186">
        <ele>103</ele>
        <time>2021-05-04T10:51:58.645Z</time>
      </trkpt>
      <trkpt lat="49.02607" lon="3.0215">
        <ele>103</ele>
        <time>2021-05-04T10:52:03.648Z</time>
      </trkpt>
      <trkpt lat="49.02612" lon="3.02113">
        <ele>102</ele>
        <time>2021-05-04T10:52:08.648Z</time>
      </trkpt>
      <trkpt lat="49.02617" lon="3.02077">
        <ele>102</ele>
        <time>2021-05-04T10:52:13.648Z</time>
      </trkpt>
      <trkpt lat="49.02622" lon="3.02042">
        <ele>101</ele>
        <time>2021-05-04T10:52:18.648Z</time>
      </trkpt>
      <trkpt lat="49.02629" lon="3.02007">
        <ele>101</ele>
        <time>2021-05-04T10:52:23.647Z</time>
      </trkpt>
      <trkpt lat="49.02633" lon="3.01971">
        <ele>101</ele>
        <time>2021-05-04T10:52:28.646Z</time>
      </trkpt>
      <trkpt lat="49.02638" lon="3.01936">
        <ele>101</ele>
        <time>2021-05-04T10:52:33.646Z</time>
      </trkpt>
      <trkpt lat="49.02641" lon="3.01907">
        <ele>102</ele>
        <time>2021-05-04T10:52:38.647Z</time>
      </trkpt>
      <trkpt lat="49.0264" lon="3.01886">
        <ele>102</ele>
        <time>2021-05-04T10:52:44.648Z</time>
      </trkpt>
      <trkpt lat="49.02642" lon="3.01871">
        <ele>103</ele>
        <time>2021-05-04T10:52:49.652Z</time>
      </trkpt>
      <trkpt lat="49.02644" lon="3.01858">
        <ele>105</ele>
        <time>2021-05-04T10:53:06.651Z</time>
      </trkpt>
      <trkpt lat="49.02644" lon="3.01858">
        <ele>105</ele>
        <time>2021-05-04T10:53:11.648Z</time>
      </trkpt>
      <trkpt lat="49.02681" lon="3.01657">
        <ele>106</ele>
        <time>2021-05-04T10:53:50.130Z</time>
      </trkpt>
      <trkpt lat="49.02675" lon="3.01619">
        <ele>106</ele>
        <time>2021-05-04T10:53:54.646Z</time>
      </trkpt>
      <trkpt lat="49.02692" lon="3.0159">
        <ele>105</ele>
        <time>2021-05-04T10:53:59.648Z</time>
      </trkpt>
      <trkpt lat="49.02695" lon="3.01546">
        <ele>105</ele>
        <time>2021-05-04T10:54:05.648Z</time>
      </trkpt>
      <trkpt lat="49.02697" lon="3.01511">
        <ele>105</ele>
        <time>2021-05-04T10:54:10.647Z</time>
      </trkpt>
      <trkpt lat="49.02698" lon="3.01477">
        <ele>105</ele>
        <time>2021-05-04T10:54:15.646Z</time>
      </trkpt>
      <trkpt lat="49.02697" lon="3.01442">
        <ele>104</ele>
        <time>2021-05-04T10:54:20.650Z</time>
      </trkpt>
      <trkpt lat="49.02696" lon="3.01412">
        <ele>103</ele>
        <time>2021-05-04T10:54:24.648Z</time>
      </trkpt>
      <trkpt lat="49.0269" lon="3.01381">
        <ele>102</ele>
        <time>2021-05-04T10:54:28.648Z</time>
      </trkpt>
      <trkpt lat="49.02684" lon="3.01349">
        <ele>102</ele>
        <time>2021-05-04T10:54:32.651Z</time>
      </trkpt>
      <trkpt lat="49.02675" lon="3.01315">
        <ele>101</ele>
        <time>2021-05-04T10:54:36.646Z</time>
      </trkpt>
      <trkpt lat="49.02667" lon="3.01277">
        <ele>102</ele>
        <time>2021-05-04T10:54:41.652Z</time>
      </trkpt>
      <trkpt lat="49.02655" lon="3.01241">
        <ele>102</ele>
        <time>2021-05-04T10:54:46.648Z</time>
      </trkpt>
      <trkpt lat="49.0264" lon="3.01208">
        <ele>102</ele>
        <time>2021-05-04T10:54:51.653Z</time>
      </trkpt>
      <trkpt lat="49.02622" lon="3.01176">
        <ele>102</ele>
        <time>2021-05-04T10:54:56.647Z</time>
      </trkpt>
      <trkpt lat="49.02603" lon="3.01146">
        <ele>103</ele>
        <time>2021-05-04T10:55:01.648Z</time>
      </trkpt>
      <trkpt lat="49.02582" lon="3.0112">
        <ele>104</ele>
        <time>2021-05-04T10:55:06.648Z</time>
      </trkpt>
      <trkpt lat="49.02559" lon="3.01097">
        <ele>104</ele>
        <time>2021-05-04T10:55:11.646Z</time>
      </trkpt>
      <trkpt lat="49.02535" lon="3.01074">
        <ele>104</ele>
        <time>2021-05-04T10:55:16.648Z</time>
      </trkpt>
      <trkpt lat="49.02509" lon="3.01057">
        <ele>105</ele>
        <time>2021-05-04T10:55:21.647Z</time>
      </trkpt>
      <trkpt lat="49.02483" lon="3.01045">
        <ele>105</ele>
        <time>2021-05-04T10:55:26.645Z</time>
      </trkpt>
      <trkpt lat="49.0246" lon="3.01036">
        <ele>105</ele>
        <time>2021-05-04T10:55:30.651Z</time>
      </trkpt>
      <trkpt lat="49.02354" lon="3.01012">
        <ele>106</ele>
        <time>2021-05-04T10:55:51.129Z</time>
      </trkpt>
      <trkpt lat="49.02324" lon="3.01012">
        <ele>106</ele>
        <time>2021-05-04T10:55:54.645Z</time>
      </trkpt>
      <trkpt lat="49.02298" lon="3.01016">
        <ele>106</ele>
        <time>2021-05-04T10:55:59.644Z</time>
      </trkpt>
      <trkpt lat="49.0227" lon="3.01022">
        <ele>107</ele>
        <time>2021-05-04T10:56:04.646Z</time>
      </trkpt>
      <trkpt lat="49.02243" lon="3.01029">
        <ele>106</ele>
        <time>2021-05-04T10:56:09.647Z</time>
      </trkpt>
      <trkpt lat="49.02216" lon="3.01037">
        <ele>106</ele>
        <time>2021-05-04T10:56:14.646Z</time>
      </trkpt>
      <trkpt lat="49.0219" lon="3.01044">
        <ele>106</ele>
        <time>2021-05-04T10:56:19.645Z</time>
      </trkpt>
      <trkpt lat="49.02165" lon="3.01053">
        <ele>106</ele>
        <time>2021-05-04T10:56:24.646Z</time>
      </trkpt>
      <trkpt lat="49.02141" lon="3.01069">
        <ele>106</ele>
        <time>2021-05-04T10:56:29.648Z</time>
      </trkpt>
      <trkpt lat="49.02119" lon="3.01077">
        <ele>106</ele>
        <time>2021-05-04T10:56:33.646Z</time>
      </trkpt>
      <trkpt lat="49.02094" lon="3.0109">
        <ele>106</ele>
        <time>2021-05-04T10:56:38.647Z</time>
      </trkpt>
      <trkpt lat="49.02072" lon="3.011">
        <ele>106</ele>
        <time>2021-05-04T10:56:42.648Z</time>
      </trkpt>
      <trkpt lat="49.02047" lon="3.01113">
        <ele>106</ele>
        <time>2021-05-04T10:56:47.647Z</time>
      </trkpt>
      <trkpt lat="49.02019" lon="3.01126">
        <ele>107</ele>
        <time>2021-05-04T10:56:52.652Z</time>
      </trkpt>
      <trkpt lat="49.01993" lon="3.01139">
        <ele>107</ele>
        <time>2021-05-04T10:56:57.648Z</time>
      </trkpt>
      <trkpt lat="49.01968" lon="3.0115">
        <ele>108</ele>
        <time>2021-05-04T10:57:02.645Z</time>
      </trkpt>
      <trkpt lat="49.0194" lon="3.01163">
        <ele>108</ele>
        <time>2021-05-04T10:57:07.648Z</time>
      </trkpt>
      <trkpt lat="49.01914" lon="3.01174">
        <ele>109</ele>
        <time>2021-05-04T10:57:12.650Z</time>
      </trkpt>
      <trkpt lat="49.01889" lon="3.01188">
        <ele>109</ele>
        <time>2021-05-04T10:57:17.647Z</time>
      </trkpt>
      <trkpt lat="49.01862" lon="3.01201">
        <ele>110</ele>
        <time>2021-05-04T10:57:22.647Z</time>
      </trkpt>
      <trkpt lat="49.01836" lon="3.01213">
        <ele>110</ele>
        <time>2021-05-04T10:57:27.648Z</time>
      </trkpt>
      <trkpt lat="49.01811" lon="3.01225">
        <ele>110</ele>
        <time>2021-05-04T10:57:32.650Z</time>
      </trkpt>
      <trkpt lat="49.01787" lon="3.01234">
        <ele>110</ele>
        <time>2021-05-04T10:57:36.647Z</time>
      </trkpt>
      <trkpt lat="49.01758" lon="3.01247">
        <ele>110</ele>
        <time>2021-05-04T10:57:41.649Z</time>
      </trkpt>
      <trkpt lat="49.0173" lon="3.01261">
        <ele>110</ele>
        <time>2021-05-04T10:57:46.647Z</time>
      </trkpt>
      <trkpt lat="49.01703" lon="3.01273">
        <ele>110</ele>
        <time>2021-05-04T10:57:51.648Z</time>
      </trkpt>
      <trkpt lat="49.01677" lon="3.01286">
        <ele>110</ele>
        <time>2021-05-04T10:57:56.647Z</time>
      </trkpt>
      <trkpt lat="49.01652" lon="3.01296">
        <ele>110</ele>
        <time>2021-05-04T10:58:00.648Z</time>
      </trkpt>
      <trkpt lat="49.01622" lon="3.01309">
        <ele>109</ele>
        <time>2021-05-04T10:58:05.648Z</time>
      </trkpt>
      <trkpt lat="49.01593" lon="3.01321">
        <ele>108</ele>
        <time>2021-05-04T10:58:10.647Z</time>
      </trkpt>
      <trkpt lat="49.01562" lon="3.01321">
        <ele>108</ele>
        <time>2021-05-04T10:58:15.647Z</time>
      </trkpt>
      <trkpt lat="49.01531" lon="3.01312">
        <ele>107</ele>
        <time>2021-05-04T10:58:20.647Z</time>
      </trkpt>
      <trkpt lat="49.01503" lon="3.01296">
        <ele>106</ele>
        <time>2021-05-04T10:58:25.646Z</time>
      </trkpt>
      <trkpt lat="49.01477" lon="3.01273">
        <ele>106</ele>
        <time>2021-05-04T10:58:30.646Z</time>
      </trkpt>
      <trkpt lat="49.01454" lon="3.01245">
        <ele>105</ele>
        <time>2021-05-04T10:58:35.646Z</time>
      </trkpt>
      <trkpt lat="49.01434" lon="3.0122">
        <ele>105</ele>
        <time>2021-05-04T10:58:40.645Z</time>
      </trkpt>
      <trkpt lat="49.01412" lon="3.01197">
        <ele>105</ele>
        <time>2021-05-04T10:58:45.648Z</time>
      </trkpt>
      <trkpt lat="49.01394" lon="3.01173">
        <ele>105</ele>
        <time>2021-05-04T10:58:49.648Z</time>
      </trkpt>
      <trkpt lat="49.01372" lon="3.01151">
        <ele>105</ele>
        <time>2021-05-04T10:58:54.646Z</time>
      </trkpt>
      <trkpt lat="49.01348" lon="3.01132">
        <ele>105</ele>
        <time>2021-05-04T10:58:59.646Z</time>
      </trkpt>
      <trkpt lat="49.01325" lon="3.01115">
        <ele>105</ele>
        <time>2021-05-04T10:59:04.648Z</time>
      </trkpt>
      <trkpt lat="49.01303" lon="3.01099">
        <ele>105</ele>
        <time>2021-05-04T10:59:09.646Z</time>
      </trkpt>
      <trkpt lat="49.01282" lon="3.01083">
        <ele>105</ele>
        <time>2021-05-04T10:59:14.645Z</time>
      </trkpt>
      <trkpt lat="49.01263" lon="3.01069">
        <ele>105</ele>
        <time>2021-05-04T10:59:18.648Z</time>
      </trkpt>
      <trkpt lat="49.01244" lon="3.01056">
        <ele>105</ele>
        <time>2021-05-04T10:59:22.646Z</time>
      </trkpt>
      <trkpt lat="49.01226" lon="3.01041">
        <ele>105</ele>
        <time>2021-05-04T10:59:26.647Z</time>
      </trkpt>
      <trkpt lat="49.01207" lon="3.01025">
        <ele>105</ele>
        <time>2021-05-04T10:59:30.644Z</time>
      </trkpt>
      <trkpt lat="49.01184" lon="3.01006">
        <ele>104</ele>
        <time>2021-05-04T10:59:35.647Z</time>
      </trkpt>
      <trkpt lat="49.01162" lon="3.00988">
        <ele>104</ele>
        <time>2021-05-04T10:59:40.649Z</time>
      </trkpt>
      <trkpt lat="49.01142" lon="3.0097">
        <ele>104</ele>
        <time>2021-05-04T10:59:45.648Z</time>
      </trkpt>
      <trkpt lat="49.01121" lon="3.00951">
        <ele>104</ele>
        <time>2021-05-04T10:59:50.655Z</time>
      </trkpt>
      <trkpt lat="49.01101" lon="3.00933">
        <ele>104</ele>
        <time>2021-05-04T10:59:54.678Z</time>
      </trkpt>
      <trkpt lat="49.01079" lon="3.00912">
        <ele>104</ele>
        <time>2021-05-04T10:59:59.661Z</time>
      </trkpt>
      <trkpt lat="49.01059" lon="3.00888">
        <ele>104</ele>
        <time>2021-05-04T11:00:04.652Z</time>
      </trkpt>
      <trkpt lat="49.01042" lon="3.00868">
        <ele>104</ele>
        <time>2021-05-04T11:00:08.648Z</time>
      </trkpt>
      <trkpt lat="49.01025" lon="3.00845">
        <ele>104</ele>
        <time>2021-05-04T11:00:13.649Z</time>
      </trkpt>
      <trkpt lat="49.0101" lon="3.00823">
        <ele>104</ele>
        <time>2021-05-04T11:00:17.645Z</time>
      </trkpt>
      <trkpt lat="49.00996" lon="3.00801">
        <ele>104</ele>
        <time>2021-05-04T11:00:21.647Z</time>
      </trkpt>
      <trkpt lat="49.00979" lon="3.0078">
        <ele>104</ele>
        <time>2021-05-04T11:00:25.647Z</time>
      </trkpt>
      <trkpt lat="49.0096" lon="3.00753">
        <ele>104</ele>
        <time>2021-05-04T11:00:30.644Z</time>
      </trkpt>
      <trkpt lat="49.0094" lon="3.00725">
        <ele>104</ele>
        <time>2021-05-04T11:00:35.648Z</time>
      </trkpt>
      <trkpt lat="49.00921" lon="3.00698">
        <ele>103</ele>
        <time>2021-05-04T11:00:40.645Z</time>
      </trkpt>
      <trkpt lat="49.00901" lon="3.00671">
        <ele>103</ele>
        <time>2021-05-04T11:00:45.645Z</time>
      </trkpt>
      <trkpt lat="49.00881" lon="3.00645">
        <ele>103</ele>
        <time>2021-05-04T11:00:50.645Z</time>
      </trkpt>
      <trkpt lat="49.00862" lon="3.00616">
        <ele>102</ele>
        <time>2021-05-04T11:00:55.654Z</time>
      </trkpt>
      <trkpt lat="49.00846" lon="3.00588">
        <ele>102</ele>
        <time>2021-05-04T11:01:00.648Z</time>
      </trkpt>
      <trkpt lat="49.0083" lon="3.00558">
        <ele>102</ele>
        <time>2021-05-04T11:01:05.648Z</time>
      </trkpt>
      <trkpt lat="49.00814" lon="3.0053">
        <ele>102</ele>
        <time>2021-05-04T11:01:10.647Z</time>
      </trkpt>
      <trkpt lat="49.00798" lon="3.00501">
        <ele>102</ele>
        <time>2021-05-04T11:01:15.647Z</time>
      </trkpt>
      <trkpt lat="49.00783" lon="3.00471">
        <ele>102</ele>
        <time>2021-05-04T11:01:20.647Z</time>
      </trkpt>
      <trkpt lat="49.00769" lon="3.00446">
        <ele>102</ele>
        <time>2021-05-04T11:01:24.648Z</time>
      </trkpt>
      <trkpt lat="49.00759" lon="3.00416">
        <ele>102</ele>
        <time>2021-05-04T11:01:29.653Z</time>
      </trkpt>
      <trkpt lat="49.00749" lon="3.00384">
        <ele>103</ele>
        <time>2021-05-04T11:01:34.645Z</time>
      </trkpt>
      <trkpt lat="49.00741" lon="3.00358">
        <ele>103</ele>
        <time>2021-05-04T11:01:38.648Z</time>
      </trkpt>
      <trkpt lat="49.00731" lon="3.00326">
        <ele>103</ele>
        <time>2021-05-04T11:01:43.648Z</time>
      </trkpt>
      <trkpt lat="49.0072" lon="3.00295">
        <ele>104</ele>
        <time>2021-05-04T11:01:48.647Z</time>
      </trkpt>
      <trkpt lat="49.00707" lon="3.00273">
        <ele>104</ele>
        <time>2021-05-04T11:01:52.646Z</time>
      </trkpt>
      <trkpt lat="49.0069" lon="3.0025">
        <ele>104</ele>
        <time>2021-05-04T11:01:57.645Z</time>
      </trkpt>
      <trkpt lat="49.0067" lon="3.00233">
        <ele>104</ele>
        <time>2021-05-04T11:02:02.652Z</time>
      </trkpt>
      <trkpt lat="49.00648" lon="3.00222">
        <ele>104</ele>
        <time>2021-05-04T11:02:07.647Z</time>
      </trkpt>
      <trkpt lat="49.0063" lon="3.00213">
        <ele>104</ele>
        <time>2021-05-04T11:02:11.647Z</time>
      </trkpt>
      <trkpt lat="49.00612" lon="3.00204">
        <ele>104</ele>
        <time>2021-05-04T11:02:15.648Z</time>
      </trkpt>
      <trkpt lat="49.00591" lon="3.00193">
        <ele>104</ele>
        <time>2021-05-04T11:02:21.645Z</time>
      </trkpt>
      <trkpt lat="49.00576" lon="3.00182">
        <ele>104</ele>
        <time>2021-05-04T11:02:26.649Z</time>
      </trkpt>
      <trkpt lat="49.00562" lon="3.00173">
        <ele>105</ele>
        <time>2021-05-04T11:02:31.654Z</time>
      </trkpt>
      <trkpt lat="49.00552" lon="3.00166">
        <ele>105</ele>
        <time>2021-05-04T11:02:37.648Z</time>
      </trkpt>
      <trkpt lat="49.00543" lon="3.00161">
        <ele>106</ele>
        <time>2021-05-04T11:02:43.682Z</time>
      </trkpt>
      <trkpt lat="49.00537" lon="3.00151">
        <ele>107</ele>
        <time>2021-05-04T11:02:46.653Z</time>
      </trkpt>
      <trkpt lat="49.00528" lon="3.0014">
        <ele>107</ele>
        <time>2021-05-04T11:02:49.650Z</time>
      </trkpt>
      <trkpt lat="49.0052" lon="3.00127">
        <ele>108</ele>
        <time>2021-05-04T11:02:52.651Z</time>
      </trkpt>
      <trkpt lat="49.0051" lon="3.00114">
        <ele>108</ele>
        <time>2021-05-04T11:02:55.660Z</time>
      </trkpt>
      <trkpt lat="49.00497" lon="3.00097">
        <ele>108</ele>
        <time>2021-05-04T11:02:59.649Z</time>
      </trkpt>
      <trkpt lat="49.00492" lon="3.00076">
        <ele>108</ele>
        <time>2021-05-04T11:03:06.470Z</time>
      </trkpt>
      <trkpt lat="49.00417" lon="2.99835">
        <ele>108</ele>
        <time>2021-05-04T11:04:20.485Z</time>
      </trkpt>
      <trkpt lat="49.00407" lon="2.9979">
        <ele>110</ele>
        <time>2021-05-04T11:04:27.642Z</time>
      </trkpt>
      <trkpt lat="49.00389" lon="2.99755">
        <ele>110</ele>
        <time>2021-05-04T11:04:32.646Z</time>
      </trkpt>
      <trkpt lat="49.00371" lon="2.99727">
        <ele>111</ele>
        <time>2021-05-04T11:04:37.654Z</time>
      </trkpt>
      <trkpt lat="49.00355" lon="2.99702">
        <ele>111</ele>
        <time>2021-05-04T11:04:42.646Z</time>
      </trkpt>
      <trkpt lat="49.00352" lon="2.99701">
        <ele>110</ele>
        <time>2021-05-04T11:05:14.645Z</time>
      </trkpt>
      <trkpt lat="49.00352" lon="2.99701">
        <ele>110</ele>
        <time>2021-05-04T11:07:25.660Z</time>
      </trkpt>
      <trkpt lat="49.00335" lon="2.99728">
        <ele>108</ele>
        <time>2021-05-04T11:07:26.650Z</time>
      </trkpt>
      <trkpt lat="49.00327" lon="2.99734">
        <ele>107</ele>
        <time>2021-05-04T11:07:31.649Z</time>
      </trkpt>
      <trkpt lat="49.00317" lon="2.99743">
        <ele>106</ele>
        <time>2021-05-04T11:07:35.653Z</time>
      </trkpt>
      <trkpt lat="49.00309" lon="2.99751">
        <ele>106</ele>
        <time>2021-05-04T11:07:39.650Z</time>
      </trkpt>
      <trkpt lat="49.00304" lon="2.9976">
        <ele>104</ele>
        <time>2021-05-04T11:08:16.642Z</time>
      </trkpt>
      <trkpt lat="49.00304" lon="2.9976">
        <ele>104</ele>
        <time>2021-05-04T11:22:57.648Z</time>
      </trkpt>
      <trkpt lat="49.00322" lon="2.99738">
        <ele>103</ele>
        <time>2021-05-04T11:22:58.650Z</time>
      </trkpt>
      <trkpt lat="49.00329" lon="2.9973">
        <ele>103</ele>
        <time>2021-05-04T11:23:06.648Z</time>
      </trkpt>
      <trkpt lat="49.00337" lon="2.99721">
        <ele>104</ele>
        <time>2021-05-04T11:23:15.651Z</time>
      </trkpt>
      <trkpt lat="49.00345" lon="2.99711">
        <ele>105</ele>
        <time>2021-05-04T11:23:24.648Z</time>
      </trkpt>
      <trkpt lat="49.00351" lon="2.99701">
        <ele>106</ele>
        <time>2021-05-04T11:23:36.651Z</time>
      </trkpt>
      <trkpt lat="49.00352" lon="2.99701">
        <ele>107</ele>
        <time>2021-05-04T11:23:48.645Z</time>
      </trkpt>
      <trkpt lat="49.00352" lon="2.99701">
        <ele>107</ele>
        <time>2021-05-04T11:24:58.644Z</time>
      </trkpt>
      <trkpt lat="49.0034" lon="2.99671">
        <ele>106</ele>
        <time>2021-05-04T11:24:59.647Z</time>
      </trkpt>
      <trkpt lat="49.00332" lon="2.9966">
        <ele>106</ele>
        <time>2021-05-04T11:25:02.647Z</time>
      </trkpt>
      <trkpt lat="49.00325" lon="2.99647">
        <ele>106</ele>
        <time>2021-05-04T11:25:05.647Z</time>
      </trkpt>
      <trkpt lat="49.00315" lon="2.99629">
        <ele>106</ele>
        <time>2021-05-04T11:25:09.647Z</time>
      </trkpt>
      <trkpt lat="49.00305" lon="2.9961">
        <ele>106</ele>
        <time>2021-05-04T11:25:13.650Z</time>
      </trkpt>
      <trkpt lat="49.00293" lon="2.99591">
        <ele>106</ele>
        <time>2021-05-04T11:25:17.649Z</time>
      </trkpt>
      <trkpt lat="49.00281" lon="2.99572">
        <ele>106</ele>
        <time>2021-05-04T11:25:21.647Z</time>
      </trkpt>
      <trkpt lat="49.00267" lon="2.99551">
        <ele>105</ele>
        <time>2021-05-04T11:25:26.667Z</time>
      </trkpt>
      <trkpt lat="49.00256" lon="2.99533">
        <ele>105</ele>
        <time>2021-05-04T11:25:30.648Z</time>
      </trkpt>
      <trkpt lat="49.00243" lon="2.99511">
        <ele>105</ele>
        <time>2021-05-04T11:25:35.644Z</time>
      </trkpt>
      <trkpt lat="49.00235" lon="2.99499">
        <ele>105</ele>
        <time>2021-05-04T11:25:43.646Z</time>
      </trkpt>
      <trkpt lat="49.00235" lon="2.99498">
        <ele>105</ele>
        <time>2021-05-04T11:25:52.647Z</time>
      </trkpt>
      <trkpt lat="49.00235" lon="2.99498">
        <ele>105</ele>
        <time>2021-05-04T11:26:02.654Z</time>
      </trkpt>
      <trkpt lat="49.00218" lon="2.99468">
        <ele>105</ele>
        <time>2021-05-04T11:26:03.649Z</time>
      </trkpt>
      <trkpt lat="49.00211" lon="2.99457">
        <ele>105</ele>
        <time>2021-05-04T11:26:06.644Z</time>
      </trkpt>
      <trkpt lat="49.00203" lon="2.99443">
        <ele>105</ele>
        <time>2021-05-04T11:26:09.646Z</time>
      </trkpt>
      <trkpt lat="49.00193" lon="2.99424">
        <ele>105</ele>
        <time>2021-05-04T11:26:13.645Z</time>
      </trkpt>
      <trkpt lat="49.00184" lon="2.99404">
        <ele>105</ele>
        <time>2021-05-04T11:26:17.647Z</time>
      </trkpt>
      <trkpt lat="49.00176" lon="2.99381">
        <ele>105</ele>
        <time>2021-05-04T11:26:21.648Z</time>
      </trkpt>
      <trkpt lat="49.00168" lon="2.99358">
        <ele>105</ele>
        <time>2021-05-04T11:26:25.648Z</time>
      </trkpt>
      <trkpt lat="49.00161" lon="2.99333">
        <ele>105</ele>
        <time>2021-05-04T11:26:29.648Z</time>
      </trkpt>
      <trkpt lat="49.00155" lon="2.99307">
        <ele>105</ele>
        <time>2021-05-04T11:26:33.647Z</time>
      </trkpt>
      <trkpt lat="49.00152" lon="2.99281">
        <ele>104</ele>
        <time>2021-05-04T11:26:37.646Z</time>
      </trkpt>
      <trkpt lat="49.00148" lon="2.99255">
        <ele>104</ele>
        <time>2021-05-04T11:26:41.647Z</time>
      </trkpt>
      <trkpt lat="49.00147" lon="2.99227">
        <ele>104</ele>
        <time>2021-05-04T11:26:45.646Z</time>
      </trkpt>
      <trkpt lat="49.00146" lon="2.99199">
        <ele>104</ele>
        <time>2021-05-04T11:26:49.647Z</time>
      </trkpt>
      <trkpt lat="49.00145" lon="2.99171">
        <ele>104</ele>
        <time>2021-05-04T11:26:53.646Z</time>
      </trkpt>
      <trkpt lat="49.00142" lon="2.99137">
        <ele>104</ele>
        <time>2021-05-04T11:26:58.647Z</time>
      </trkpt>
      <trkpt lat="49.00141" lon="2.99104">
        <ele>104</ele>
        <time>2021-05-04T11:27:03.646Z</time>
      </trkpt>
      <trkpt lat="49.00138" lon="2.99076">
        <ele>104</ele>
        <time>2021-05-04T11:27:07.645Z</time>
      </trkpt>
      <trkpt lat="49.00136" lon="2.99042">
        <ele>104</ele>
        <time>2021-05-04T11:27:12.645Z</time>
      </trkpt>
      <trkpt lat="49.00135" lon="2.99015">
        <ele>104</ele>
        <time>2021-05-04T11:27:16.647Z</time>
      </trkpt>
      <trkpt lat="49.00132" lon="2.98983">
        <ele>104</ele>
        <time>2021-05-04T11:27:21.646Z</time>
      </trkpt>
      <trkpt lat="49.0013" lon="2.9895">
        <ele>104</ele>
        <time>2021-05-04T11:27:26.646Z</time>
      </trkpt>
      <trkpt lat="49.00129" lon="2.98923">
        <ele>104</ele>
        <time>2021-05-04T11:27:30.646Z</time>
      </trkpt>
      <trkpt lat="49.00127" lon="2.98895">
        <ele>104</ele>
        <time>2021-05-04T11:27:34.647Z</time>
      </trkpt>
      <trkpt lat="49.00126" lon="2.98866">
        <ele>105</ele>
        <time>2021-05-04T11:27:38.648Z</time>
      </trkpt>
      <trkpt lat="49.00124" lon="2.98838">
        <ele>105</ele>
        <time>2021-05-04T11:27:42.645Z</time>
      </trkpt>
      <trkpt lat="49.00121" lon="2.98802">
        <ele>105</ele>
        <time>2021-05-04T11:27:47.647Z</time>
      </trkpt>
      <trkpt lat="49.0012" lon="2.98767">
        <ele>106</ele>
        <time>2021-05-04T11:27:52.647Z</time>
      </trkpt>
      <trkpt lat="49.00119" lon="2.98735">
        <ele>106</ele>
        <time>2021-05-04T11:27:56.648Z</time>
      </trkpt>
      <trkpt lat="49.00122" lon="2.98701">
        <ele>106</ele>
        <time>2021-05-04T11:28:01.647Z</time>
      </trkpt>
      <trkpt lat="49.00129" lon="2.9867">
        <ele>106</ele>
        <time>2021-05-04T11:28:06.646Z</time>
      </trkpt>
      <trkpt lat="49.00138" lon="2.9864">
        <ele>106</ele>
        <time>2021-05-04T11:28:11.647Z</time>
      </trkpt>
      <trkpt lat="49.00151" lon="2.98617">
        <ele>106</ele>
        <time>2021-05-04T11:28:15.643Z</time>
      </trkpt>
      <trkpt lat="49.00168" lon="2.98596">
        <ele>106</ele>
        <time>2021-05-04T11:28:20.645Z</time>
      </trkpt>
      <trkpt lat="49.00185" lon="2.98582">
        <ele>105</ele>
        <time>2021-05-04T11:28:24.646Z</time>
      </trkpt>
      <trkpt lat="49.00207" lon="2.9857">
        <ele>105</ele>
        <time>2021-05-04T11:28:29.643Z</time>
      </trkpt>
      <trkpt lat="49.00226" lon="2.98564">
        <ele>105</ele>
        <time>2021-05-04T11:28:33.644Z</time>
      </trkpt>
      <trkpt lat="49.00249" lon="2.98561">
        <ele>105</ele>
        <time>2021-05-04T11:28:38.651Z</time>
      </trkpt>
      <trkpt lat="49.00268" lon="2.98561">
        <ele>105</ele>
        <time>2021-05-04T11:28:42.647Z</time>
      </trkpt>
      <trkpt lat="49.00288" lon="2.98566">
        <ele>106</ele>
        <time>2021-05-04T11:28:46.644Z</time>
      </trkpt>
      <trkpt lat="49.0031" lon="2.98578">
        <ele>106</ele>
        <time>2021-05-04T11:28:51.646Z</time>
      </trkpt>
      <trkpt lat="49.00328" lon="2.98589">
        <ele>107</ele>
        <time>2021-05-04T11:28:55.645Z</time>
      </trkpt>
      <trkpt lat="49.0035" lon="2.98602">
        <ele>107</ele>
        <time>2021-05-04T11:29:00.648Z</time>
      </trkpt>
      <trkpt lat="49.00372" lon="2.98613">
        <ele>108</ele>
        <time>2021-05-04T11:29:05.646Z</time>
      </trkpt>
      <trkpt lat="49.00393" lon="2.98616">
        <ele>108</ele>
        <time>2021-05-04T11:29:09.648Z</time>
      </trkpt>
      <trkpt lat="49.00417" lon="2.98612">
        <ele>109</ele>
        <time>2021-05-04T11:29:14.645Z</time>
      </trkpt>
      <trkpt lat="49.00441" lon="2.986">
        <ele>109</ele>
        <time>2021-05-04T11:29:19.652Z</time>
      </trkpt>
      <trkpt lat="49.00465" lon="2.98585">
        <ele>108</ele>
        <time>2021-05-04T11:29:24.645Z</time>
      </trkpt>
      <trkpt lat="49.00487" lon="2.98568">
        <ele>107</ele>
        <time>2021-05-04T11:29:29.647Z</time>
      </trkpt>
      <trkpt lat="49.00507" lon="2.9855">
        <ele>106</ele>
        <time>2021-05-04T11:29:34.647Z</time>
      </trkpt>
      <trkpt lat="49.00525" lon="2.98534">
        <ele>105</ele>
        <time>2021-05-04T11:29:39.645Z</time>
      </trkpt>
      <trkpt lat="49.00536" lon="2.98522">
        <ele>105</ele>
        <time>2021-05-04T11:29:46.647Z</time>
      </trkpt>
      <trkpt lat="49.00545" lon="2.98513">
        <ele>104</ele>
        <time>2021-05-04T11:29:52.647Z</time>
      </trkpt>
      <trkpt lat="49.00554" lon="2.98509">
        <ele>104</ele>
        <time>2021-05-04T11:29:55.646Z</time>
      </trkpt>
      <trkpt lat="49.00565" lon="2.98503">
        <ele>104</ele>
        <time>2021-05-04T11:29:58.644Z</time>
      </trkpt>
      <trkpt lat="49.0057" lon="2.98502">
        <ele>104</ele>
        <time>2021-05-04T11:30:14.645Z</time>
      </trkpt>
      <trkpt lat="49.0057" lon="2.98502">
        <ele>104</ele>
        <time>2021-05-04T11:31:21.648Z</time>
      </trkpt>
      <trkpt lat="49.00591" lon="2.98489">
        <ele>106</ele>
        <time>2021-05-04T11:31:22.661Z</time>
      </trkpt>
      <trkpt lat="49.00602" lon="2.98479">
        <ele>106</ele>
        <time>2021-05-04T11:31:25.646Z</time>
      </trkpt>
      <trkpt lat="49.00614" lon="2.9847">
        <ele>106</ele>
        <time>2021-05-04T11:31:28.644Z</time>
      </trkpt>
      <trkpt lat="49.00632" lon="2.98458">
        <ele>105</ele>
        <time>2021-05-04T11:31:32.653Z</time>
      </trkpt>
      <trkpt lat="49.00649" lon="2.98446">
        <ele>105</ele>
        <time>2021-05-04T11:31:36.648Z</time>
      </trkpt>
      <trkpt lat="49.0067" lon="2.98429">
        <ele>105</ele>
        <time>2021-05-04T11:31:41.646Z</time>
      </trkpt>
      <trkpt lat="49.00687" lon="2.98416">
        <ele>104</ele>
        <time>2021-05-04T11:31:45.646Z</time>
      </trkpt>
      <trkpt lat="49.00706" lon="2.984">
        <ele>104</ele>
        <time>2021-05-04T11:31:50.650Z</time>
      </trkpt>
      <trkpt lat="49.00722" lon="2.98387">
        <ele>104</ele>
        <time>2021-05-04T11:31:54.645Z</time>
      </trkpt>
      <trkpt lat="49.00739" lon="2.98375">
        <ele>103</ele>
        <time>2021-05-04T11:31:58.646Z</time>
      </trkpt>
      <trkpt lat="49.00756" lon="2.9836">
        <ele>103</ele>
        <time>2021-05-04T11:32:02.650Z</time>
      </trkpt>
      <trkpt lat="49.00775" lon="2.98344">
        <ele>103</ele>
        <time>2021-05-04T11:32:08.649Z</time>
      </trkpt>
      <trkpt lat="49.0079" lon="2.98339">
        <ele>103</ele>
        <time>2021-05-04T11:32:13.647Z</time>
      </trkpt>
      <trkpt lat="49.00803" lon="2.98327">
        <ele>103</ele>
        <time>2021-05-04T11:32:18.657Z</time>
      </trkpt>
      <trkpt lat="49.00815" lon="2.98317">
        <ele>103</ele>
        <time>2021-05-04T11:32:21.646Z</time>
      </trkpt>
      <trkpt lat="49.00828" lon="2.98306">
        <ele>103</ele>
        <time>2021-05-04T11:32:24.647Z</time>
      </trkpt>
      <trkpt lat="49.00843" lon="2.98295">
        <ele>102</ele>
        <time>2021-05-04T11:32:28.648Z</time>
      </trkpt>
      <trkpt lat="49.00859" lon="2.98282">
        <ele>102</ele>
        <time>2021-05-04T11:32:32.647Z</time>
      </trkpt>
      <trkpt lat="49.00876" lon="2.98268">
        <ele>102</ele>
        <time>2021-05-04T11:32:36.645Z</time>
      </trkpt>
      <trkpt lat="49.00895" lon="2.98252">
        <ele>102</ele>
        <time>2021-05-04T11:32:41.642Z</time>
      </trkpt>
      <trkpt lat="49.00915" lon="2.98233">
        <ele>101</ele>
        <time>2021-05-04T11:32:46.645Z</time>
      </trkpt>
      <trkpt lat="49.00935" lon="2.98218">
        <ele>101</ele>
        <time>2021-05-04T11:32:51.646Z</time>
      </trkpt>
      <trkpt lat="49.00956" lon="2.98203">
        <ele>100</ele>
        <time>2021-05-04T11:32:56.643Z</time>
      </trkpt>
      <trkpt lat="49.00973" lon="2.98188">
        <ele>100</ele>
        <time>2021-05-04T11:33:00.645Z</time>
      </trkpt>
      <trkpt lat="49.00992" lon="2.98176">
        <ele>100</ele>
        <time>2021-05-04T11:33:04.645Z</time>
      </trkpt>
      <trkpt lat="49.01012" lon="2.9816">
        <ele>100</ele>
        <time>2021-05-04T11:33:09.644Z</time>
      </trkpt>
      <trkpt lat="49.01033" lon="2.98141">
        <ele>100</ele>
        <time>2021-05-04T11:33:14.644Z</time>
      </trkpt>
      <trkpt lat="49.01051" lon="2.98123">
        <ele>101</ele>
        <time>2021-05-04T11:33:19.643Z</time>
      </trkpt>
      <trkpt lat="49.01066" lon="2.98097">
        <ele>101</ele>
        <time>2021-05-04T11:33:24.646Z</time>
      </trkpt>
      <trkpt lat="49.01078" lon="2.9807">
        <ele>101</ele>
        <time>2021-05-04T11:33:29.657Z</time>
      </trkpt>
      <trkpt lat="49.0109" lon="2.98043">
        <ele>102</ele>
        <time>2021-05-04T11:33:34.646Z</time>
      </trkpt>
      <trkpt lat="49.01094" lon="2.9801">
        <ele>102</ele>
        <time>2021-05-04T11:33:39.646Z</time>
      </trkpt>
      <trkpt lat="49.01095" lon="2.97981">
        <ele>102</ele>
        <time>2021-05-04T11:33:43.644Z</time>
      </trkpt>
      <trkpt lat="49.01095" lon="2.97951">
        <ele>102</ele>
        <time>2021-05-04T11:33:47.645Z</time>
      </trkpt>
      <trkpt lat="49.01089" lon="2.97918">
        <ele>102</ele>
        <time>2021-05-04T11:33:52.645Z</time>
      </trkpt>
      <trkpt lat="49.01081" lon="2.97889">
        <ele>103</ele>
        <time>2021-05-04T11:33:56.647Z</time>
      </trkpt>
      <trkpt lat="49.01072" lon="2.97861">
        <ele>103</ele>
        <time>2021-05-04T11:34:01.645Z</time>
      </trkpt>
      <trkpt lat="49.01056" lon="2.97835">
        <ele>103</ele>
        <time>2021-05-04T11:34:06.642Z</time>
      </trkpt>
      <trkpt lat="49.01043" lon="2.97815">
        <ele>103</ele>
        <time>2021-05-04T11:34:10.646Z</time>
      </trkpt>
      <trkpt lat="49.01029" lon="2.97796">
        <ele>103</ele>
        <time>2021-05-04T11:34:14.646Z</time>
      </trkpt>
      <trkpt lat="49.01013" lon="2.97772">
        <ele>103</ele>
        <time>2021-05-04T11:34:18.649Z</time>
      </trkpt>
      <trkpt lat="49.00997" lon="2.9774">
        <ele>103</ele>
        <time>2021-05-04T11:34:23.646Z</time>
      </trkpt>
      <trkpt lat="49.00987" lon="2.97706">
        <ele>103</ele>
        <time>2021-05-04T11:34:28.645Z</time>
      </trkpt>
      <trkpt lat="49.00981" lon="2.97677">
        <ele>103</ele>
        <time>2021-05-04T11:34:33.645Z</time>
      </trkpt>
      <trkpt lat="49.00977" lon="2.97658">
        <ele>103</ele>
        <time>2021-05-04T11:34:40.645Z</time>
      </trkpt>
      <trkpt lat="49.00977" lon="2.97643">
        <ele>103</ele>
        <time>2021-05-04T11:34:46.645Z</time>
      </trkpt>
      <trkpt lat="49.00979" lon="2.97626">
        <ele>103</ele>
        <time>2021-05-04T11:34:51.647Z</time>
      </trkpt>
      <trkpt lat="49.0098" lon="2.9761">
        <ele>102</ele>
        <time>2021-05-04T11:34:54.646Z</time>
      </trkpt>
      <trkpt lat="49.00981" lon="2.97592">
        <ele>102</ele>
        <time>2021-05-04T11:34:57.642Z</time>
      </trkpt>
      <trkpt lat="49.00983" lon="2.97573">
        <ele>102</ele>
        <time>2021-05-04T11:35:00.644Z</time>
      </trkpt>
      <trkpt lat="49.00987" lon="2.97546">
        <ele>101</ele>
        <time>2021-05-04T11:35:04.644Z</time>
      </trkpt>
      <trkpt lat="49.0099" lon="2.97518">
        <ele>101</ele>
        <time>2021-05-04T11:35:08.645Z</time>
      </trkpt>
      <trkpt lat="49.00996" lon="2.97485">
        <ele>100</ele>
        <time>2021-05-04T11:35:13.657Z</time>
      </trkpt>
      <trkpt lat="49.01003" lon="2.97458">
        <ele>100</ele>
        <time>2021-05-04T11:35:17.644Z</time>
      </trkpt>
      <trkpt lat="49.01009" lon="2.9743">
        <ele>100</ele>
        <time>2021-05-04T11:35:21.645Z</time>
      </trkpt>
      <trkpt lat="49.01018" lon="2.97397">
        <ele>99</ele>
        <time>2021-05-04T11:35:26.647Z</time>
      </trkpt>
      <trkpt lat="49.01027" lon="2.97363">
        <ele>99</ele>
        <time>2021-05-04T11:35:31.645Z</time>
      </trkpt>
      <trkpt lat="49.01035" lon="2.97336">
        <ele>99</ele>
        <time>2021-05-04T11:35:35.644Z</time>
      </trkpt>
      <trkpt lat="49.01043" lon="2.97302">
        <ele>99</ele>
        <time>2021-05-04T11:35:40.646Z</time>
      </trkpt>
      <trkpt lat="49.01052" lon="2.97268">
        <ele>99</ele>
        <time>2021-05-04T11:35:45.649Z</time>
      </trkpt>
      <trkpt lat="49.0106" lon="2.97234">
        <ele>99</ele>
        <time>2021-05-04T11:35:50.646Z</time>
      </trkpt>
      <trkpt lat="49.01067" lon="2.972">
        <ele>99</ele>
        <time>2021-05-04T11:35:55.644Z</time>
      </trkpt>
      <trkpt lat="49.01075" lon="2.97167">
        <ele>99</ele>
        <time>2021-05-04T11:36:00.648Z</time>
      </trkpt>
      <trkpt lat="49.01083" lon="2.97135">
        <ele>100</ele>
        <time>2021-05-04T11:36:05.655Z</time>
      </trkpt>
      <trkpt lat="49.01089" lon="2.97101">
        <ele>100</ele>
        <time>2021-05-04T11:36:10.644Z</time>
      </trkpt>
      <trkpt lat="49.01094" lon="2.97073">
        <ele>100</ele>
        <time>2021-05-04T11:36:14.642Z</time>
      </trkpt>
      <trkpt lat="49.01101" lon="2.9704">
        <ele>100</ele>
        <time>2021-05-04T11:36:19.647Z</time>
      </trkpt>
      <trkpt lat="49.01107" lon="2.97011">
        <ele>100</ele>
        <time>2021-05-04T11:36:23.645Z</time>
      </trkpt>
      <trkpt lat="49.01112" lon="2.96982">
        <ele>101</ele>
        <time>2021-05-04T11:36:27.646Z</time>
      </trkpt>
      <trkpt lat="49.01117" lon="2.96948">
        <ele>101</ele>
        <time>2021-05-04T11:36:32.645Z</time>
      </trkpt>
      <trkpt lat="49.01122" lon="2.96913">
        <ele>101</ele>
        <time>2021-05-04T11:36:37.645Z</time>
      </trkpt>
      <trkpt lat="49.01127" lon="2.9688">
        <ele>101</ele>
        <time>2021-05-04T11:36:42.645Z</time>
      </trkpt>
      <trkpt lat="49.01133" lon="2.96847">
        <ele>101</ele>
        <time>2021-05-04T11:36:47.643Z</time>
      </trkpt>
      <trkpt lat="49.01137" lon="2.96819">
        <ele>101</ele>
        <time>2021-05-04T11:36:51.645Z</time>
      </trkpt>
      <trkpt lat="49.01142" lon="2.96791">
        <ele>101</ele>
        <time>2021-05-04T11:36:55.644Z</time>
      </trkpt>
      <trkpt lat="49.01147" lon="2.96757">
        <ele>101</ele>
        <time>2021-05-04T11:37:00.651Z</time>
      </trkpt>
      <trkpt lat="49.01151" lon="2.9673">
        <ele>101</ele>
        <time>2021-05-04T11:37:04.647Z</time>
      </trkpt>
      <trkpt lat="49.01156" lon="2.96701">
        <ele>102</ele>
        <time>2021-05-04T11:37:08.645Z</time>
      </trkpt>
      <trkpt lat="49.01161" lon="2.96671">
        <ele>102</ele>
        <time>2021-05-04T11:37:12.645Z</time>
      </trkpt>
      <trkpt lat="49.01169" lon="2.96635">
        <ele>102</ele>
        <time>2021-05-04T11:37:17.646Z</time>
      </trkpt>
      <trkpt lat="49.01174" lon="2.96599">
        <ele>102</ele>
        <time>2021-05-04T11:37:22.645Z</time>
      </trkpt>
      <trkpt lat="49.0118" lon="2.96563">
        <ele>102</ele>
        <time>2021-05-04T11:37:27.645Z</time>
      </trkpt>
      <trkpt lat="49.01187" lon="2.9653">
        <ele>102</ele>
        <time>2021-05-04T11:37:32.645Z</time>
      </trkpt>
      <trkpt lat="49.01194" lon="2.96499">
        <ele>102</ele>
        <time>2021-05-04T11:37:37.645Z</time>
      </trkpt>
      <trkpt lat="49.012" lon="2.96472">
        <ele>102</ele>
        <time>2021-05-04T11:37:41.649Z</time>
      </trkpt>
      <trkpt lat="49.01207" lon="2.96444">
        <ele>102</ele>
        <time>2021-05-04T11:37:45.644Z</time>
      </trkpt>
      <trkpt lat="49.01215" lon="2.9641">
        <ele>102</ele>
        <time>2021-05-04T11:37:50.640Z</time>
      </trkpt>
      <trkpt lat="49.01222" lon="2.96382">
        <ele>102</ele>
        <time>2021-05-04T11:37:54.644Z</time>
      </trkpt>
      <trkpt lat="49.01229" lon="2.96353">
        <ele>102</ele>
        <time>2021-05-04T11:37:58.645Z</time>
      </trkpt>
      <trkpt lat="49.01238" lon="2.9632">
        <ele>102</ele>
        <time>2021-05-04T11:38:03.644Z</time>
      </trkpt>
      <trkpt lat="49.01248" lon="2.96286">
        <ele>102</ele>
        <time>2021-05-04T11:38:08.644Z</time>
      </trkpt>
      <trkpt lat="49.01257" lon="2.96253">
        <ele>102</ele>
        <time>2021-05-04T11:38:13.644Z</time>
      </trkpt>
      <trkpt lat="49.01266" lon="2.9622">
        <ele>102</ele>
        <time>2021-05-04T11:38:18.645Z</time>
      </trkpt>
      <trkpt lat="49.01274" lon="2.96193">
        <ele>102</ele>
        <time>2021-05-04T11:38:22.642Z</time>
      </trkpt>
      <trkpt lat="49.01283" lon="2.96163">
        <ele>102</ele>
        <time>2021-05-04T11:38:26.644Z</time>
      </trkpt>
      <trkpt lat="49.01292" lon="2.96135">
        <ele>102</ele>
        <time>2021-05-04T11:38:30.644Z</time>
      </trkpt>
      <trkpt lat="49.01304" lon="2.96098">
        <ele>101</ele>
        <time>2021-05-04T11:38:35.643Z</time>
      </trkpt>
      <trkpt lat="49.01315" lon="2.96061">
        <ele>101</ele>
        <time>2021-05-04T11:38:40.640Z</time>
      </trkpt>
      <trkpt lat="49.01328" lon="2.96024">
        <ele>101</ele>
        <time>2021-05-04T11:38:45.645Z</time>
      </trkpt>
      <trkpt lat="49.0134" lon="2.9599">
        <ele>101</ele>
        <time>2021-05-04T11:38:50.644Z</time>
      </trkpt>
      <trkpt lat="49.01352" lon="2.95956">
        <ele>100</ele>
        <time>2021-05-04T11:38:55.642Z</time>
      </trkpt>
      <trkpt lat="49.01365" lon="2.95923">
        <ele>100</ele>
        <time>2021-05-04T11:39:00.645Z</time>
      </trkpt>
      <trkpt lat="49.01378" lon="2.95889">
        <ele>100</ele>
        <time>2021-05-04T11:39:05.644Z</time>
      </trkpt>
      <trkpt lat="49.0139" lon="2.95855">
        <ele>100</ele>
        <time>2021-05-04T11:39:10.642Z</time>
      </trkpt>
      <trkpt lat="49.01404" lon="2.95825">
        <ele>100</ele>
        <time>2021-05-04T11:39:15.646Z</time>
      </trkpt>
      <trkpt lat="49.01417" lon="2.95793">
        <ele>100</ele>
        <time>2021-05-04T11:39:20.645Z</time>
      </trkpt>
      <trkpt lat="49.01428" lon="2.95765">
        <ele>100</ele>
        <time>2021-05-04T11:39:24.645Z</time>
      </trkpt>
      <trkpt lat="49.0144" lon="2.95732">
        <ele>99</ele>
        <time>2021-05-04T11:39:29.645Z</time>
      </trkpt>
      <trkpt lat="49.01449" lon="2.95702">
        <ele>99</ele>
        <time>2021-05-04T11:39:33.643Z</time>
      </trkpt>
      <trkpt lat="49.01459" lon="2.95664">
        <ele>98</ele>
        <time>2021-05-04T11:39:38.643Z</time>
      </trkpt>
      <trkpt lat="49.01468" lon="2.95626">
        <ele>98</ele>
        <time>2021-05-04T11:39:43.644Z</time>
      </trkpt>
      <trkpt lat="49.01477" lon="2.95588">
        <ele>98</ele>
        <time>2021-05-04T11:39:48.644Z</time>
      </trkpt>
      <trkpt lat="49.01484" lon="2.9555">
        <ele>98</ele>
        <time>2021-05-04T11:39:53.643Z</time>
      </trkpt>
      <trkpt lat="49.01489" lon="2.95508">
        <ele>98</ele>
        <time>2021-05-04T11:39:58.642Z</time>
      </trkpt>
      <trkpt lat="49.01495" lon="2.95467">
        <ele>98</ele>
        <time>2021-05-04T11:40:03.643Z</time>
      </trkpt>
      <trkpt lat="49.01496" lon="2.95428">
        <ele>98</ele>
        <time>2021-05-04T11:40:08.643Z</time>
      </trkpt>
      <trkpt lat="49.01499" lon="2.95392">
        <ele>98</ele>
        <time>2021-05-04T11:40:13.642Z</time>
      </trkpt>
      <trkpt lat="49.01501" lon="2.95353">
        <ele>99</ele>
        <time>2021-05-04T11:40:18.643Z</time>
      </trkpt>
      <trkpt lat="49.01504" lon="2.9532">
        <ele>99</ele>
        <time>2021-05-04T11:40:22.642Z</time>
      </trkpt>
      <trkpt lat="49.01502" lon="2.95278">
        <ele>100</ele>
        <time>2021-05-04T11:40:27.643Z</time>
      </trkpt>
      <trkpt lat="49.01503" lon="2.95242">
        <ele>100</ele>
        <time>2021-05-04T11:40:32.643Z</time>
      </trkpt>
      <trkpt lat="49.015" lon="2.95203">
        <ele>100</ele>
        <time>2021-05-04T11:40:37.643Z</time>
      </trkpt>
      <trkpt lat="49.01495" lon="2.95166">
        <ele>100</ele>
        <time>2021-05-04T11:40:42.645Z</time>
      </trkpt>
      <trkpt lat="49.01489" lon="2.95127">
        <ele>100</ele>
        <time>2021-05-04T11:40:47.643Z</time>
      </trkpt>
      <trkpt lat="49.01483" lon="2.95091">
        <ele>100</ele>
        <time>2021-05-04T11:40:52.643Z</time>
      </trkpt>
      <trkpt lat="49.01474" lon="2.9506">
        <ele>100</ele>
        <time>2021-05-04T11:40:56.642Z</time>
      </trkpt>
      <trkpt lat="49.01463" lon="2.95025">
        <ele>100</ele>
        <time>2021-05-04T11:41:01.644Z</time>
      </trkpt>
      <trkpt lat="49.01452" lon="2.94986">
        <ele>100</ele>
        <time>2021-05-04T11:41:06.643Z</time>
      </trkpt>
      <trkpt lat="49.01439" lon="2.94954">
        <ele>100</ele>
        <time>2021-05-04T11:41:11.643Z</time>
      </trkpt>
      <trkpt lat="49.01427" lon="2.94919">
        <ele>100</ele>
        <time>2021-05-04T11:41:16.645Z</time>
      </trkpt>
      <trkpt lat="49.01413" lon="2.94883">
        <ele>101</ele>
        <time>2021-05-04T11:41:21.644Z</time>
      </trkpt>
      <trkpt lat="49.01398" lon="2.9485">
        <ele>101</ele>
        <time>2021-05-04T11:41:26.644Z</time>
      </trkpt>
      <trkpt lat="49.01386" lon="2.94821">
        <ele>102</ele>
        <time>2021-05-04T11:41:32.643Z</time>
      </trkpt>
      <trkpt lat="49.0138" lon="2.9481">
        <ele>102</ele>
        <time>2021-05-04T11:41:50.644Z</time>
      </trkpt>
      <trkpt lat="49.01373" lon="2.94798">
        <ele>102</ele>
        <time>2021-05-04T11:41:54.645Z</time>
      </trkpt>
      <trkpt lat="49.01367" lon="2.94786">
        <ele>102</ele>
        <time>2021-05-04T11:41:57.645Z</time>
      </trkpt>
      <trkpt lat="49.0136" lon="2.94772">
        <ele>103</ele>
        <time>2021-05-04T11:42:00.644Z</time>
      </trkpt>
      <trkpt lat="49.01351" lon="2.94757">
        <ele>103</ele>
        <time>2021-05-04T11:42:03.640Z</time>
      </trkpt>
      <trkpt lat="49.01338" lon="2.94737">
        <ele>103</ele>
        <time>2021-05-04T11:42:07.645Z</time>
      </trkpt>
      <trkpt lat="49.01326" lon="2.94716">
        <ele>103</ele>
        <time>2021-05-04T11:42:11.640Z</time>
      </trkpt>
      <trkpt lat="49.01312" lon="2.94695">
        <ele>103</ele>
        <time>2021-05-04T11:42:15.644Z</time>
      </trkpt>
      <trkpt lat="49.01296" lon="2.94677">
        <ele>103</ele>
        <time>2021-05-04T11:42:19.645Z</time>
      </trkpt>
      <trkpt lat="49.01278" lon="2.94657">
        <ele>103</ele>
        <time>2021-05-04T11:42:23.650Z</time>
      </trkpt>
      <trkpt lat="49.01259" lon="2.94641">
        <ele>103</ele>
        <time>2021-05-04T11:42:27.644Z</time>
      </trkpt>
      <trkpt lat="49.0124" lon="2.94625">
        <ele>103</ele>
        <time>2021-05-04T11:42:31.643Z</time>
      </trkpt>
      <trkpt lat="49.01219" lon="2.94609">
        <ele>103</ele>
        <time>2021-05-04T11:42:35.643Z</time>
      </trkpt>
      <trkpt lat="49.01196" lon="2.9459">
        <ele>103</ele>
        <time>2021-05-04T11:42:40.645Z</time>
      </trkpt>
      <trkpt lat="49.01174" lon="2.94573">
        <ele>103</ele>
        <time>2021-05-04T11:42:45.645Z</time>
      </trkpt>
      <trkpt lat="49.0115" lon="2.94565">
        <ele>103</ele>
        <time>2021-05-04T11:42:49.645Z</time>
      </trkpt>
      <trkpt lat="49.01122" lon="2.94558">
        <ele>103</ele>
        <time>2021-05-04T11:42:54.641Z</time>
      </trkpt>
      <trkpt lat="49.01093" lon="2.94553">
        <ele>103</ele>
        <time>2021-05-04T11:42:59.644Z</time>
      </trkpt>
      <trkpt lat="49.01066" lon="2.94548">
        <ele>103</ele>
        <time>2021-05-04T11:43:04.649Z</time>
      </trkpt>
      <trkpt lat="49.01039" lon="2.94545">
        <ele>102</ele>
        <time>2021-05-04T11:43:09.645Z</time>
      </trkpt>
      <trkpt lat="49.01012" lon="2.94544">
        <ele>102</ele>
        <time>2021-05-04T11:43:14.644Z</time>
      </trkpt>
      <trkpt lat="49.00984" lon="2.94545">
        <ele>102</ele>
        <time>2021-05-04T11:43:19.644Z</time>
      </trkpt>
      <trkpt lat="49.00958" lon="2.94546">
        <ele>102</ele>
        <time>2021-05-04T11:43:24.645Z</time>
      </trkpt>
      <trkpt lat="49.00931" lon="2.94547">
        <ele>101</ele>
        <time>2021-05-04T11:43:29.645Z</time>
      </trkpt>
      <trkpt lat="49.00904" lon="2.94548">
        <ele>101</ele>
        <time>2021-05-04T11:43:34.644Z</time>
      </trkpt>
      <trkpt lat="49.00876" lon="2.94555">
        <ele>101</ele>
        <time>2021-05-04T11:43:39.643Z</time>
      </trkpt>
      <trkpt lat="49.0085" lon="2.94564">
        <ele>101</ele>
        <time>2021-05-04T11:43:44.650Z</time>
      </trkpt>
      <trkpt lat="49.00823" lon="2.94572">
        <ele>101</ele>
        <time>2021-05-04T11:43:49.640Z</time>
      </trkpt>
      <trkpt lat="49.00798" lon="2.94573">
        <ele>102</ele>
        <time>2021-05-04T11:43:54.643Z</time>
      </trkpt>
      <trkpt lat="49.00775" lon="2.94562">
        <ele>102</ele>
        <time>2021-05-04T11:43:59.645Z</time>
      </trkpt>
      <trkpt lat="49.00754" lon="2.94552">
        <ele>103</ele>
        <time>2021-05-04T11:44:03.645Z</time>
      </trkpt>
      <trkpt lat="49.00731" lon="2.9454">
        <ele>103</ele>
        <time>2021-05-04T11:44:08.645Z</time>
      </trkpt>
      <trkpt lat="49.00705" lon="2.9453">
        <ele>103</ele>
        <time>2021-05-04T11:44:13.645Z</time>
      </trkpt>
      <trkpt lat="49.0068" lon="2.94526">
        <ele>103</ele>
        <time>2021-05-04T11:44:18.645Z</time>
      </trkpt>
      <trkpt lat="49.00655" lon="2.94522">
        <ele>102</ele>
        <time>2021-05-04T11:44:23.649Z</time>
      </trkpt>
      <trkpt lat="49.0063" lon="2.9452">
        <ele>102</ele>
        <time>2021-05-04T11:44:28.644Z</time>
      </trkpt>
      <trkpt lat="49.00604" lon="2.9452">
        <ele>102</ele>
        <time>2021-05-04T11:44:33.644Z</time>
      </trkpt>
      <trkpt lat="49.00581" lon="2.94518">
        <ele>102</ele>
        <time>2021-05-04T11:44:38.645Z</time>
      </trkpt>
      <trkpt lat="49.00554" lon="2.94513">
        <ele>101</ele>
        <time>2021-05-04T11:44:43.645Z</time>
      </trkpt>
      <trkpt lat="49.00531" lon="2.94503">
        <ele>101</ele>
        <time>2021-05-04T11:44:48.644Z</time>
      </trkpt>
      <trkpt lat="49.00509" lon="2.94492">
        <ele>101</ele>
        <time>2021-05-04T11:44:53.645Z</time>
      </trkpt>
      <trkpt lat="49.00487" lon="2.94478">
        <ele>101</ele>
        <time>2021-05-04T11:44:58.643Z</time>
      </trkpt>
      <trkpt lat="49.00467" lon="2.94462">
        <ele>101</ele>
        <time>2021-05-04T11:45:03.643Z</time>
      </trkpt>
      <trkpt lat="49.0045" lon="2.94448">
        <ele>101</ele>
        <time>2021-05-04T11:45:07.644Z</time>
      </trkpt>
      <trkpt lat="49.00432" lon="2.94429">
        <ele>101</ele>
        <time>2021-05-04T11:45:12.646Z</time>
      </trkpt>
      <trkpt lat="49.00416" lon="2.94413">
        <ele>101</ele>
        <time>2021-05-04T11:45:16.645Z</time>
      </trkpt>
      <trkpt lat="49.00399" lon="2.9439">
        <ele>101</ele>
        <time>2021-05-04T11:45:21.646Z</time>
      </trkpt>
      <trkpt lat="49.00384" lon="2.94366">
        <ele>101</ele>
        <time>2021-05-04T11:45:26.644Z</time>
      </trkpt>
      <trkpt lat="49.00369" lon="2.94342">
        <ele>101</ele>
        <time>2021-05-04T11:45:31.646Z</time>
      </trkpt>
      <trkpt lat="49.00356" lon="2.94315">
        <ele>101</ele>
        <time>2021-05-04T11:45:36.644Z</time>
      </trkpt>
      <trkpt lat="49.00346" lon="2.94293">
        <ele>101</ele>
        <time>2021-05-04T11:45:40.642Z</time>
      </trkpt>
      <trkpt lat="49.00338" lon="2.94268">
        <ele>101</ele>
        <time>2021-05-04T11:45:44.654Z</time>
      </trkpt>
      <trkpt lat="49.0033" lon="2.94238">
        <ele>101</ele>
        <time>2021-05-04T11:45:49.646Z</time>
      </trkpt>
      <trkpt lat="49.00323" lon="2.94208">
        <ele>101</ele>
        <time>2021-05-04T11:45:54.645Z</time>
      </trkpt>
      <trkpt lat="49.0032" lon="2.94182">
        <ele>101</ele>
        <time>2021-05-04T11:45:58.646Z</time>
      </trkpt>
      <trkpt lat="49.00317" lon="2.94152">
        <ele>102</ele>
        <time>2021-05-04T11:46:03.647Z</time>
      </trkpt>
      <trkpt lat="49.00315" lon="2.94125">
        <ele>102</ele>
        <time>2021-05-04T11:46:08.646Z</time>
      </trkpt>
      <trkpt lat="49.00315" lon="2.94105">
        <ele>102</ele>
        <time>2021-05-04T11:46:13.654Z</time>
      </trkpt>
      <trkpt lat="49.00315" lon="2.94086">
        <ele>102</ele>
        <time>2021-05-04T11:46:17.646Z</time>
      </trkpt>
      <trkpt lat="49.00316" lon="2.94068">
        <ele>102</ele>
        <time>2021-05-04T11:46:20.648Z</time>
      </trkpt>
      <trkpt lat="49.00317" lon="2.94049">
        <ele>102</ele>
        <time>2021-05-04T11:46:23.644Z</time>
      </trkpt>
      <trkpt lat="49.00319" lon="2.94022">
        <ele>103</ele>
        <time>2021-05-04T11:46:27.654Z</time>
      </trkpt>
      <trkpt lat="49.00321" lon="2.93997">
        <ele>103</ele>
        <time>2021-05-04T11:46:31.647Z</time>
      </trkpt>
      <trkpt lat="49.00325" lon="2.93971">
        <ele>103</ele>
        <time>2021-05-04T11:46:35.647Z</time>
      </trkpt>
      <trkpt lat="49.0033" lon="2.93941">
        <ele>103</ele>
        <time>2021-05-04T11:46:40.645Z</time>
      </trkpt>
      <trkpt lat="49.00335" lon="2.93916">
        <ele>103</ele>
        <time>2021-05-04T11:46:44.647Z</time>
      </trkpt>
      <trkpt lat="49.00341" lon="2.93892">
        <ele>103</ele>
        <time>2021-05-04T11:46:48.644Z</time>
      </trkpt>
      <trkpt lat="49.00347" lon="2.93867">
        <ele>103</ele>
        <time>2021-05-04T11:46:52.646Z</time>
      </trkpt>
      <trkpt lat="49.00354" lon="2.93837">
        <ele>103</ele>
        <time>2021-05-04T11:46:57.646Z</time>
      </trkpt>
      <trkpt lat="49.0036" lon="2.93812">
        <ele>102</ele>
        <time>2021-05-04T11:47:01.646Z</time>
      </trkpt>
      <trkpt lat="49.00367" lon="2.93788">
        <ele>102</ele>
        <time>2021-05-04T11:47:05.651Z</time>
      </trkpt>
      <trkpt lat="49.00375" lon="2.93763">
        <ele>102</ele>
        <time>2021-05-04T11:47:09.645Z</time>
      </trkpt>
      <trkpt lat="49.00383" lon="2.93739">
        <ele>102</ele>
        <time>2021-05-04T11:47:13.645Z</time>
      </trkpt>
      <trkpt lat="49.00393" lon="2.93713">
        <ele>101</ele>
        <time>2021-05-04T11:47:17.647Z</time>
      </trkpt>
      <trkpt lat="49.00404" lon="2.93689">
        <ele>101</ele>
        <time>2021-05-04T11:47:21.645Z</time>
      </trkpt>
      <trkpt lat="49.00416" lon="2.93659">
        <ele>101</ele>
        <time>2021-05-04T11:47:26.645Z</time>
      </trkpt>
      <trkpt lat="49.0043" lon="2.93632">
        <ele>100</ele>
        <time>2021-05-04T11:47:31.648Z</time>
      </trkpt>
      <trkpt lat="49.00445" lon="2.93605">
        <ele>100</ele>
        <time>2021-05-04T11:47:36.647Z</time>
      </trkpt>
      <trkpt lat="49.00457" lon="2.93582">
        <ele>100</ele>
        <time>2021-05-04T11:47:40.646Z</time>
      </trkpt>
      <trkpt lat="49.00474" lon="2.93559">
        <ele>100</ele>
        <time>2021-05-04T11:47:45.651Z</time>
      </trkpt>
      <trkpt lat="49.00493" lon="2.93538">
        <ele>100</ele>
        <time>2021-05-04T11:47:50.644Z</time>
      </trkpt>
      <trkpt lat="49.00514" lon="2.93522">
        <ele>100</ele>
        <time>2021-05-04T11:47:55.646Z</time>
      </trkpt>
      <trkpt lat="49.00532" lon="2.93511">
        <ele>100</ele>
        <time>2021-05-04T11:47:59.645Z</time>
      </trkpt>
      <trkpt lat="49.0055" lon="2.93501">
        <ele>100</ele>
        <time>2021-05-04T11:48:03.644Z</time>
      </trkpt>
      <trkpt lat="49.00568" lon="2.93491">
        <ele>100</ele>
        <time>2021-05-04T11:48:07.644Z</time>
      </trkpt>
      <trkpt lat="49.00587" lon="2.93482">
        <ele>100</ele>
        <time>2021-05-04T11:48:11.645Z</time>
      </trkpt>
      <trkpt lat="49.00609" lon="2.93468">
        <ele>101</ele>
        <time>2021-05-04T11:48:16.647Z</time>
      </trkpt>
      <trkpt lat="49.00631" lon="2.93453">
        <ele>101</ele>
        <time>2021-05-04T11:48:21.645Z</time>
      </trkpt>
      <trkpt lat="49.00653" lon="2.93438">
        <ele>101</ele>
        <time>2021-05-04T11:48:26.648Z</time>
      </trkpt>
      <trkpt lat="49.00675" lon="2.93421">
        <ele>101</ele>
        <time>2021-05-04T11:48:31.645Z</time>
      </trkpt>
      <trkpt lat="49.00693" lon="2.93397">
        <ele>101</ele>
        <time>2021-05-04T11:48:36.646Z</time>
      </trkpt>
      <trkpt lat="49.00705" lon="2.93376">
        <ele>102</ele>
        <time>2021-05-04T11:48:41.648Z</time>
      </trkpt>
      <trkpt lat="49.00713" lon="2.93363">
        <ele>102</ele>
        <time>2021-05-04T11:48:48.646Z</time>
      </trkpt>
      <trkpt lat="49.0072" lon="2.93352">
        <ele>103</ele>
        <time>2021-05-04T11:48:58.643Z</time>
      </trkpt>
      <trkpt lat="49.00727" lon="2.93341">
        <ele>103</ele>
        <time>2021-05-04T11:49:01.645Z</time>
      </trkpt>
      <trkpt lat="49.00738" lon="2.93328">
        <ele>103</ele>
        <time>2021-05-04T11:49:04.645Z</time>
      </trkpt>
      <trkpt lat="49.00746" lon="2.93317">
        <ele>103</ele>
        <time>2021-05-04T11:49:06.650Z</time>
      </trkpt>
      <trkpt lat="49.00756" lon="2.93298">
        <ele>103</ele>
        <time>2021-05-04T11:49:09.644Z</time>
      </trkpt>
      <trkpt lat="49.00772" lon="2.9327">
        <ele>103</ele>
        <time>2021-05-04T11:49:14.644Z</time>
      </trkpt>
      <trkpt lat="49.00786" lon="2.93242">
        <ele>103</ele>
        <time>2021-05-04T11:49:19.645Z</time>
      </trkpt>
      <trkpt lat="49.00798" lon="2.93218">
        <ele>103</ele>
        <time>2021-05-04T11:49:23.646Z</time>
      </trkpt>
      <trkpt lat="49.00811" lon="2.9319">
        <ele>103</ele>
        <time>2021-05-04T11:49:28.647Z</time>
      </trkpt>
      <trkpt lat="49.00825" lon="2.93161">
        <ele>102</ele>
        <time>2021-05-04T11:49:33.645Z</time>
      </trkpt>
      <trkpt lat="49.00835" lon="2.93137">
        <ele>102</ele>
        <time>2021-05-04T11:49:37.646Z</time>
      </trkpt>
      <trkpt lat="49.00847" lon="2.93108">
        <ele>102</ele>
        <time>2021-05-04T11:49:42.645Z</time>
      </trkpt>
      <trkpt lat="49.0086" lon="2.93079">
        <ele>101</ele>
        <time>2021-05-04T11:49:47.649Z</time>
      </trkpt>
      <trkpt lat="49.00864" lon="2.93064">
        <ele>101</ele>
        <time>2021-05-04T11:49:56.644Z</time>
      </trkpt>
      <trkpt lat="49.00864" lon="2.93066">
        <ele>101</ele>
        <time>2021-05-04T11:50:03.645Z</time>
      </trkpt>
      <trkpt lat="49.00864" lon="2.93066">
        <ele>101</ele>
        <time>2021-05-04T11:51:26.644Z</time>
      </trkpt>
      <trkpt lat="49.00877" lon="2.93037">
        <ele>102</ele>
        <time>2021-05-04T11:51:27.645Z</time>
      </trkpt>
      <trkpt lat="49.00882" lon="2.93021">
        <ele>102</ele>
        <time>2021-05-04T11:51:31.640Z</time>
      </trkpt>
      <trkpt lat="49.00887" lon="2.93007">
        <ele>102</ele>
        <time>2021-05-04T11:51:34.644Z</time>
      </trkpt>
      <trkpt lat="49.00893" lon="2.92988">
        <ele>102</ele>
        <time>2021-05-04T11:51:38.643Z</time>
      </trkpt>
      <trkpt lat="49.009" lon="2.92968">
        <ele>102</ele>
        <time>2021-05-04T11:51:42.651Z</time>
      </trkpt>
      <trkpt lat="49.00907" lon="2.92947">
        <ele>102</ele>
        <time>2021-05-04T11:51:46.645Z</time>
      </trkpt>
      <trkpt lat="49.00913" lon="2.92926">
        <ele>102</ele>
        <time>2021-05-04T11:51:50.657Z</time>
      </trkpt>
      <trkpt lat="49.00919" lon="2.92907">
        <ele>102</ele>
        <time>2021-05-04T11:51:54.642Z</time>
      </trkpt>
      <trkpt lat="49.00925" lon="2.92886">
        <ele>102</ele>
        <time>2021-05-04T11:51:58.643Z</time>
      </trkpt>
      <trkpt lat="49.0093" lon="2.92865">
        <ele>102</ele>
        <time>2021-05-04T11:52:02.645Z</time>
      </trkpt>
      <trkpt lat="49.00936" lon="2.92842">
        <ele>102</ele>
        <time>2021-05-04T11:52:06.644Z</time>
      </trkpt>
      <trkpt lat="49.00941" lon="2.92819">
        <ele>101</ele>
        <time>2021-05-04T11:52:10.644Z</time>
      </trkpt>
      <trkpt lat="49.00946" lon="2.92797">
        <ele>101</ele>
        <time>2021-05-04T11:52:14.642Z</time>
      </trkpt>
      <trkpt lat="49.00949" lon="2.92775">
        <ele>101</ele>
        <time>2021-05-04T11:52:18.642Z</time>
      </trkpt>
      <trkpt lat="49.00954" lon="2.92754">
        <ele>101</ele>
        <time>2021-05-04T11:52:22.642Z</time>
      </trkpt>
      <trkpt lat="49.00957" lon="2.92731">
        <ele>101</ele>
        <time>2021-05-04T11:52:26.645Z</time>
      </trkpt>
      <trkpt lat="49.00959" lon="2.9271">
        <ele>101</ele>
        <time>2021-05-04T11:52:30.652Z</time>
      </trkpt>
      <trkpt lat="49.00963" lon="2.92687">
        <ele>101</ele>
        <time>2021-05-04T11:52:34.643Z</time>
      </trkpt>
      <trkpt lat="49.00967" lon="2.92664">
        <ele>101</ele>
        <time>2021-05-04T11:52:38.649Z</time>
      </trkpt>
      <trkpt lat="49.0097" lon="2.92639">
        <ele>101</ele>
        <time>2021-05-04T11:52:42.649Z</time>
      </trkpt>
      <trkpt lat="49.00973" lon="2.92616">
        <ele>101</ele>
        <time>2021-05-04T11:52:47.644Z</time>
      </trkpt>
      <trkpt lat="49.00974" lon="2.92611">
        <ele>100</ele>
        <time>2021-05-04T11:53:02.678Z</time>
      </trkpt>
      <trkpt lat="49.00974" lon="2.92611">
        <ele>100</ele>
        <time>2021-05-04T11:54:43.644Z</time>
      </trkpt>
      <trkpt lat="49.00978" lon="2.92574">
        <ele>101</ele>
        <time>2021-05-04T11:54:44.645Z</time>
      </trkpt>
      <trkpt lat="49.00978" lon="2.92558">
        <ele>101</ele>
        <time>2021-05-04T11:54:47.645Z</time>
      </trkpt>
      <trkpt lat="49.00979" lon="2.92537">
        <ele>101</ele>
        <time>2021-05-04T11:54:51.645Z</time>
      </trkpt>
      <trkpt lat="49.00981" lon="2.92514">
        <ele>101</ele>
        <time>2021-05-04T11:54:55.647Z</time>
      </trkpt>
      <trkpt lat="49.00983" lon="2.92492">
        <ele>101</ele>
        <time>2021-05-04T11:54:59.660Z</time>
      </trkpt>
      <trkpt lat="49.00984" lon="2.92469">
        <ele>102</ele>
        <time>2021-05-04T11:55:03.639Z</time>
      </trkpt>
      <trkpt lat="49.00983" lon="2.92446">
        <ele>102</ele>
        <time>2021-05-04T11:55:07.645Z</time>
      </trkpt>
      <trkpt lat="49.00984" lon="2.92423">
        <ele>102</ele>
        <time>2021-05-04T11:55:11.641Z</time>
      </trkpt>
      <trkpt lat="49.00984" lon="2.92402">
        <ele>102</ele>
        <time>2021-05-04T11:55:15.639Z</time>
      </trkpt>
      <trkpt lat="49.00984" lon="2.92379">
        <ele>102</ele>
        <time>2021-05-04T11:55:19.642Z</time>
      </trkpt>
      <trkpt lat="49.00984" lon="2.92356">
        <ele>103</ele>
        <time>2021-05-04T11:55:24.642Z</time>
      </trkpt>
      <trkpt lat="49.00982" lon="2.92337">
        <ele>103</ele>
        <time>2021-05-04T11:55:28.647Z</time>
      </trkpt>
      <trkpt lat="49.00981" lon="2.92317">
        <ele>104</ele>
        <time>2021-05-04T11:55:32.646Z</time>
      </trkpt>
      <trkpt lat="49.0098" lon="2.92298">
        <ele>104</ele>
        <time>2021-05-04T11:55:36.646Z</time>
      </trkpt>
      <trkpt lat="49.0098" lon="2.92286">
        <ele>105</ele>
        <time>2021-05-04T11:55:53.644Z</time>
      </trkpt>
      <trkpt lat="49.0098" lon="2.92286">
        <ele>105</ele>
        <time>2021-05-04T11:57:26.643Z</time>
      </trkpt>
      <trkpt lat="49.00975" lon="2.9225">
        <ele>106</ele>
        <time>2021-05-04T11:57:27.643Z</time>
      </trkpt>
      <trkpt lat="49.00975" lon="2.92236">
        <ele>106</ele>
        <time>2021-05-04T11:57:30.645Z</time>
      </trkpt>
      <trkpt lat="49.00973" lon="2.92219">
        <ele>106</ele>
        <time>2021-05-04T11:57:33.642Z</time>
      </trkpt>
      <trkpt lat="49.0097" lon="2.92202">
        <ele>106</ele>
        <time>2021-05-04T11:57:36.641Z</time>
      </trkpt>
      <trkpt lat="49.00965" lon="2.92178">
        <ele>106</ele>
        <time>2021-05-04T11:57:40.642Z</time>
      </trkpt>
      <trkpt lat="49.00961" lon="2.92154">
        <ele>106</ele>
        <time>2021-05-04T11:57:44.639Z</time>
      </trkpt>
      <trkpt lat="49.00953" lon="2.92128">
        <ele>105</ele>
        <time>2021-05-04T11:57:49.643Z</time>
      </trkpt>
      <trkpt lat="49.00947" lon="2.92107">
        <ele>105</ele>
        <time>2021-05-04T11:57:53.644Z</time>
      </trkpt>
      <trkpt lat="49.00941" lon="2.92084">
        <ele>105</ele>
        <time>2021-05-04T11:57:57.644Z</time>
      </trkpt>
      <trkpt lat="49.00934" lon="2.92063">
        <ele>105</ele>
        <time>2021-05-04T11:58:01.639Z</time>
      </trkpt>
      <trkpt lat="49.00927" lon="2.9204">
        <ele>105</ele>
        <time>2021-05-04T11:58:05.642Z</time>
      </trkpt>
      <trkpt lat="49.00917" lon="2.92018">
        <ele>105</ele>
        <time>2021-05-04T11:58:09.643Z</time>
      </trkpt>
      <trkpt lat="49.00907" lon="2.91997">
        <ele>105</ele>
        <time>2021-05-04T11:58:13.642Z</time>
      </trkpt>
      <trkpt lat="49.00894" lon="2.91972">
        <ele>105</ele>
        <time>2021-05-04T11:58:18.643Z</time>
      </trkpt>
      <trkpt lat="49.00879" lon="2.9195">
        <ele>105</ele>
        <time>2021-05-04T11:58:23.642Z</time>
      </trkpt>
      <trkpt lat="49.00867" lon="2.91933">
        <ele>105</ele>
        <time>2021-05-04T11:58:27.639Z</time>
      </trkpt>
      <trkpt lat="49.00854" lon="2.91915">
        <ele>104</ele>
        <time>2021-05-04T11:58:31.642Z</time>
      </trkpt>
      <trkpt lat="49.00841" lon="2.91899">
        <ele>104</ele>
        <time>2021-05-04T11:58:35.641Z</time>
      </trkpt>
      <trkpt lat="49.00828" lon="2.91883">
        <ele>104</ele>
        <time>2021-05-04T11:58:39.641Z</time>
      </trkpt>
      <trkpt lat="49.00813" lon="2.91869">
        <ele>104</ele>
        <time>2021-05-04T11:58:43.644Z</time>
      </trkpt>
      <trkpt lat="49.00798" lon="2.91855">
        <ele>104</ele>
        <time>2021-05-04T11:58:47.640Z</time>
      </trkpt>
      <trkpt lat="49.0078" lon="2.91839">
        <ele>104</ele>
        <time>2021-05-04T11:58:52.643Z</time>
      </trkpt>
      <trkpt lat="49.00765" lon="2.91827">
        <ele>104</ele>
        <time>2021-05-04T11:58:56.643Z</time>
      </trkpt>
      <trkpt lat="49.00749" lon="2.91815">
        <ele>104</ele>
        <time>2021-05-04T11:59:00.646Z</time>
      </trkpt>
      <trkpt lat="49.00733" lon="2.91805">
        <ele>104</ele>
        <time>2021-05-04T11:59:04.642Z</time>
      </trkpt>
      <trkpt lat="49.00713" lon="2.91794">
        <ele>104</ele>
        <time>2021-05-04T11:59:09.646Z</time>
      </trkpt>
      <trkpt lat="49.00697" lon="2.91787">
        <ele>104</ele>
        <time>2021-05-04T11:59:14.670Z</time>
      </trkpt>
      <trkpt lat="49.00685" lon="2.91783">
        <ele>104</ele>
        <time>2021-05-04T11:59:20.641Z</time>
      </trkpt>
      <trkpt lat="49.00677" lon="2.91778">
        <ele>104</ele>
        <time>2021-05-04T11:59:24.640Z</time>
      </trkpt>
      <trkpt lat="49.00667" lon="2.91774">
        <ele>104</ele>
        <time>2021-05-04T11:59:29.643Z</time>
      </trkpt>
      <trkpt lat="49.00658" lon="2.91765">
        <ele>104</ele>
        <time>2021-05-04T11:59:34.641Z</time>
      </trkpt>
      <trkpt lat="49.00657" lon="2.91763">
        <ele>104</ele>
        <time>2021-05-04T11:59:49.644Z</time>
      </trkpt>
      <trkpt lat="49.00657" lon="2.91763">
        <ele>104</ele>
        <time>2021-05-04T12:00:11.643Z</time>
      </trkpt>
      <trkpt lat="49.00635" lon="2.91752">
        <ele>105</ele>
        <time>2021-05-04T12:00:12.644Z</time>
      </trkpt>
      <trkpt lat="49.00626" lon="2.91745">
        <ele>105</ele>
        <time>2021-05-04T12:00:15.645Z</time>
      </trkpt>
      <trkpt lat="49.00614" lon="2.91744">
        <ele>105</ele>
        <time>2021-05-04T12:00:19.640Z</time>
      </trkpt>
      <trkpt lat="49.00613" lon="2.91745">
        <ele>105</ele>
        <time>2021-05-04T12:00:35.644Z</time>
      </trkpt>
      <trkpt lat="49.00613" lon="2.91745">
        <ele>105</ele>
        <time>2021-05-04T12:00:49.644Z</time>
      </trkpt>
      <trkpt lat="49.00637" lon="2.9176">
        <ele>104</ele>
        <time>2021-05-04T12:00:50.648Z</time>
      </trkpt>
      <trkpt lat="49.00648" lon="2.91764">
        <ele>104</ele>
        <time>2021-05-04T12:00:53.646Z</time>
      </trkpt>
      <trkpt lat="49.00662" lon="2.91773">
        <ele>104</ele>
        <time>2021-05-04T12:00:57.651Z</time>
      </trkpt>
      <trkpt lat="49.00677" lon="2.91783">
        <ele>104</ele>
        <time>2021-05-04T12:01:02.642Z</time>
      </trkpt>
      <trkpt lat="49.00687" lon="2.91771">
        <ele>104</ele>
        <time>2021-05-04T12:01:08.642Z</time>
      </trkpt>
      <trkpt lat="49.0069" lon="2.91754">
        <ele>104</ele>
        <time>2021-05-04T12:01:11.642Z</time>
      </trkpt>
      <trkpt lat="49.00682" lon="2.91741">
        <ele>104</ele>
        <time>2021-05-04T12:01:15.647Z</time>
      </trkpt>
      <trkpt lat="49.00667" lon="2.91735">
        <ele>104</ele>
        <time>2021-05-04T12:01:18.641Z</time>
      </trkpt>
      <trkpt lat="49.00648" lon="2.91725">
        <ele>104</ele>
        <time>2021-05-04T12:01:22.643Z</time>
      </trkpt>
      <trkpt lat="49.00627" lon="2.91716">
        <ele>104</ele>
        <time>2021-05-04T12:01:27.642Z</time>
      </trkpt>
      <trkpt lat="49.0061" lon="2.91711">
        <ele>104</ele>
        <time>2021-05-04T12:01:32.645Z</time>
      </trkpt>
      <trkpt lat="49.00593" lon="2.91705">
        <ele>104</ele>
        <time>2021-05-04T12:01:37.644Z</time>
      </trkpt>
      <trkpt lat="49.00579" lon="2.91702">
        <ele>104</ele>
        <time>2021-05-04T12:01:41.643Z</time>
      </trkpt>
      <trkpt lat="49.00565" lon="2.91696">
        <ele>105</ele>
        <time>2021-05-04T12:01:46.647Z</time>
      </trkpt>
      <trkpt lat="49.0055" lon="2.9169">
        <ele>105</ele>
        <time>2021-05-04T12:01:50.639Z</time>
      </trkpt>
      <trkpt lat="49.00535" lon="2.91687">
        <ele>105</ele>
        <time>2021-05-04T12:01:54.647Z</time>
      </trkpt>
      <trkpt lat="49.00518" lon="2.91689">
        <ele>105</ele>
        <time>2021-05-04T12:01:59.646Z</time>
      </trkpt>
      <trkpt lat="49.00501" lon="2.91689">
        <ele>105</ele>
        <time>2021-05-04T12:02:04.645Z</time>
      </trkpt>
      <trkpt lat="49.00486" lon="2.91692">
        <ele>106</ele>
        <time>2021-05-04T12:02:08.644Z</time>
      </trkpt>
      <trkpt lat="49.00471" lon="2.91696">
        <ele>106</ele>
        <time>2021-05-04T12:02:12.643Z</time>
      </trkpt>
      <trkpt lat="49.00456" lon="2.91701">
        <ele>106</ele>
        <time>2021-05-04T12:02:16.642Z</time>
      </trkpt>
      <trkpt lat="49.00441" lon="2.91706">
        <ele>106</ele>
        <time>2021-05-04T12:02:20.645Z</time>
      </trkpt>
      <trkpt lat="49.00427" lon="2.91715">
        <ele>107</ele>
        <time>2021-05-04T12:02:24.645Z</time>
      </trkpt>
      <trkpt lat="49.00409" lon="2.91724">
        <ele>107</ele>
        <time>2021-05-04T12:02:28.651Z</time>
      </trkpt>
      <trkpt lat="49.00389" lon="2.91732">
        <ele>107</ele>
        <time>2021-05-04T12:02:32.642Z</time>
      </trkpt>
      <trkpt lat="49.00365" lon="2.9174">
        <ele>107</ele>
        <time>2021-05-04T12:02:37.642Z</time>
      </trkpt>
      <trkpt lat="49.00342" lon="2.91746">
        <ele>107</ele>
        <time>2021-05-04T12:02:42.644Z</time>
      </trkpt>
      <trkpt lat="49.0032" lon="2.91746">
        <ele>106</ele>
        <time>2021-05-04T12:02:47.642Z</time>
      </trkpt>
      <trkpt lat="49.003" lon="2.91749">
        <ele>106</ele>
        <time>2021-05-04T12:02:51.644Z</time>
      </trkpt>
      <trkpt lat="49.00279" lon="2.91749">
        <ele>105</ele>
        <time>2021-05-04T12:02:56.643Z</time>
      </trkpt>
      <trkpt lat="49.00262" lon="2.91751">
        <ele>105</ele>
        <time>2021-05-04T12:03:00.650Z</time>
      </trkpt>
      <trkpt lat="49.00243" lon="2.91746">
        <ele>104</ele>
        <time>2021-05-04T12:03:05.642Z</time>
      </trkpt>
      <trkpt lat="49.00226" lon="2.91738">
        <ele>103</ele>
        <time>2021-05-04T12:03:10.644Z</time>
      </trkpt>
      <trkpt lat="49.00212" lon="2.91736">
        <ele>103</ele>
        <time>2021-05-04T12:03:14.643Z</time>
      </trkpt>
      <trkpt lat="49.00197" lon="2.91735">
        <ele>103</ele>
        <time>2021-05-04T12:03:18.644Z</time>
      </trkpt>
      <trkpt lat="49.00177" lon="2.91728">
        <ele>103</ele>
        <time>2021-05-04T12:03:23.644Z</time>
      </trkpt>
      <trkpt lat="49.00159" lon="2.91725">
        <ele>104</ele>
        <time>2021-05-04T12:03:28.645Z</time>
      </trkpt>
      <trkpt lat="49.00144" lon="2.91722">
        <ele>105</ele>
        <time>2021-05-04T12:03:32.643Z</time>
      </trkpt>
      <trkpt lat="49.00126" lon="2.91719">
        <ele>107</ele>
        <time>2021-05-04T12:03:37.643Z</time>
      </trkpt>
      <trkpt lat="49.0011" lon="2.91718">
        <ele>108</ele>
        <time>2021-05-04T12:03:42.643Z</time>
      </trkpt>
      <trkpt lat="49.00095" lon="2.91719">
        <ele>108</ele>
        <time>2021-05-04T12:03:46.643Z</time>
      </trkpt>
      <trkpt lat="49.00079" lon="2.91723">
        <ele>109</ele>
        <time>2021-05-04T12:03:50.642Z</time>
      </trkpt>
      <trkpt lat="49.00064" lon="2.91726">
        <ele>110</ele>
        <time>2021-05-04T12:03:54.645Z</time>
      </trkpt>
      <trkpt lat="49.0006" lon="2.91726">
        <ele>111</ele>
        <time>2021-05-04T12:04:09.644Z</time>
      </trkpt>
      <trkpt lat="49.0006" lon="2.91726">
        <ele>111</ele>
        <time>2021-05-04T12:06:06.639Z</time>
      </trkpt>
      <trkpt lat="49.00038" lon="2.91737">
        <ele>113</ele>
        <time>2021-05-04T12:06:07.643Z</time>
      </trkpt>
      <trkpt lat="49.00029" lon="2.91742">
        <ele>113</ele>
        <time>2021-05-04T12:06:10.641Z</time>
      </trkpt>
      <trkpt lat="49.00019" lon="2.91748">
        <ele>113</ele>
        <time>2021-05-04T12:06:13.643Z</time>
      </trkpt>
      <trkpt lat="49.00006" lon="2.91746">
        <ele>113</ele>
        <time>2021-05-04T12:06:17.643Z</time>
      </trkpt>
      <trkpt lat="48.99994" lon="2.91736">
        <ele>113</ele>
        <time>2021-05-04T12:06:21.643Z</time>
      </trkpt>
      <trkpt lat="48.99981" lon="2.91726">
        <ele>113</ele>
        <time>2021-05-04T12:06:26.641Z</time>
      </trkpt>
      <trkpt lat="48.99968" lon="2.91718">
        <ele>113</ele>
        <time>2021-05-04T12:06:31.647Z</time>
      </trkpt>
      <trkpt lat="48.99957" lon="2.91716">
        <ele>113</ele>
        <time>2021-05-04T12:06:37.639Z</time>
      </trkpt>
      <trkpt lat="48.99948" lon="2.91714">
        <ele>113</ele>
        <time>2021-05-04T12:06:41.645Z</time>
      </trkpt>
      <trkpt lat="48.99937" lon="2.91711">
        <ele>113</ele>
        <time>2021-05-04T12:06:45.641Z</time>
      </trkpt>
      <trkpt lat="48.99925" lon="2.91709">
        <ele>113</ele>
        <time>2021-05-04T12:06:49.642Z</time>
      </trkpt>
      <trkpt lat="48.99914" lon="2.91703">
        <ele>113</ele>
        <time>2021-05-04T12:06:53.643Z</time>
      </trkpt>
      <trkpt lat="48.99905" lon="2.91701">
        <ele>113</ele>
        <time>2021-05-04T12:07:03.644Z</time>
      </trkpt>
      <trkpt lat="48.99895" lon="2.917">
        <ele>113</ele>
        <time>2021-05-04T12:07:11.643Z</time>
      </trkpt>
      <trkpt lat="48.99891" lon="2.91713">
        <ele>113</ele>
        <time>2021-05-04T12:07:18.642Z</time>
      </trkpt>
      <trkpt lat="48.99889" lon="2.91726">
        <ele>114</ele>
        <time>2021-05-04T12:07:25.642Z</time>
      </trkpt>
      <trkpt lat="48.9989" lon="2.9174">
        <ele>114</ele>
        <time>2021-05-04T12:07:32.643Z</time>
      </trkpt>
      <trkpt lat="48.99897" lon="2.91753">
        <ele>114</ele>
        <time>2021-05-04T12:07:41.642Z</time>
      </trkpt>
      <trkpt lat="48.99906" lon="2.91756">
        <ele>114</ele>
        <time>2021-05-04T12:07:44.644Z</time>
      </trkpt>
      <trkpt lat="48.99917" lon="2.91764">
        <ele>114</ele>
        <time>2021-05-04T12:07:47.641Z</time>
      </trkpt>
      <trkpt lat="48.99929" lon="2.91774">
        <ele>114</ele>
        <time>2021-05-04T12:07:50.647Z</time>
      </trkpt>
      <trkpt lat="48.99943" lon="2.91792">
        <ele>113</ele>
        <time>2021-05-04T12:07:54.643Z</time>
      </trkpt>
      <trkpt lat="48.99955" lon="2.91815">
        <ele>112</ele>
        <time>2021-05-04T12:07:59.643Z</time>
      </trkpt>
      <trkpt lat="48.99966" lon="2.91836">
        <ele>112</ele>
        <time>2021-05-04T12:08:04.642Z</time>
      </trkpt>
      <trkpt lat="48.99974" lon="2.91855">
        <ele>111</ele>
        <time>2021-05-04T12:08:08.644Z</time>
      </trkpt>
      <trkpt lat="48.99959" lon="2.91856">
        <ele>110</ele>
        <time>2021-05-04T12:08:14.642Z</time>
      </trkpt>
      <trkpt lat="48.99945" lon="2.91864">
        <ele>109</ele>
        <time>2021-05-04T12:08:17.643Z</time>
      </trkpt>
      <trkpt lat="48.9993" lon="2.91876">
        <ele>109</ele>
        <time>2021-05-04T12:08:20.644Z</time>
      </trkpt>
      <trkpt lat="48.99909" lon="2.91887">
        <ele>108</ele>
        <time>2021-05-04T12:08:24.653Z</time>
      </trkpt>
      <trkpt lat="48.99883" lon="2.91889">
        <ele>107</ele>
        <time>2021-05-04T12:08:29.647Z</time>
      </trkpt>
      <trkpt lat="48.99858" lon="2.91876">
        <ele>106</ele>
        <time>2021-05-04T12:08:34.643Z</time>
      </trkpt>
      <trkpt lat="48.99834" lon="2.91859">
        <ele>105</ele>
        <time>2021-05-04T12:08:39.642Z</time>
      </trkpt>
      <trkpt lat="48.99808" lon="2.91846">
        <ele>104</ele>
        <time>2021-05-04T12:08:44.643Z</time>
      </trkpt>
      <trkpt lat="48.99781" lon="2.91838">
        <ele>104</ele>
        <time>2021-05-04T12:08:49.643Z</time>
      </trkpt>
      <trkpt lat="48.99755" lon="2.91832">
        <ele>103</ele>
        <time>2021-05-04T12:08:54.643Z</time>
      </trkpt>
      <trkpt lat="48.99727" lon="2.91828">
        <ele>103</ele>
        <time>2021-05-04T12:08:59.642Z</time>
      </trkpt>
      <trkpt lat="48.997" lon="2.91825">
        <ele>103</ele>
        <time>2021-05-04T12:09:04.641Z</time>
      </trkpt>
      <trkpt lat="48.99672" lon="2.9182">
        <ele>102</ele>
        <time>2021-05-04T12:09:09.648Z</time>
      </trkpt>
      <trkpt lat="48.99644" lon="2.91815">
        <ele>102</ele>
        <time>2021-05-04T12:09:14.643Z</time>
      </trkpt>
      <trkpt lat="48.99615" lon="2.91813">
        <ele>102</ele>
        <time>2021-05-04T12:09:19.640Z</time>
      </trkpt>
      <trkpt lat="48.99588" lon="2.91808">
        <ele>102</ele>
        <time>2021-05-04T12:09:24.641Z</time>
      </trkpt>
      <trkpt lat="48.99561" lon="2.91806">
        <ele>102</ele>
        <time>2021-05-04T12:09:29.642Z</time>
      </trkpt>
      <trkpt lat="48.99533" lon="2.91802">
        <ele>102</ele>
        <time>2021-05-04T12:09:34.641Z</time>
      </trkpt>
      <trkpt lat="48.99505" lon="2.91798">
        <ele>102</ele>
        <time>2021-05-04T12:09:39.642Z</time>
      </trkpt>
      <trkpt lat="48.9948" lon="2.91794">
        <ele>102</ele>
        <time>2021-05-04T12:09:44.642Z</time>
      </trkpt>
      <trkpt lat="48.99454" lon="2.91791">
        <ele>102</ele>
        <time>2021-05-04T12:09:49.650Z</time>
      </trkpt>
      <trkpt lat="48.99428" lon="2.91785">
        <ele>102</ele>
        <time>2021-05-04T12:09:54.641Z</time>
      </trkpt>
      <trkpt lat="48.99403" lon="2.91782">
        <ele>102</ele>
        <time>2021-05-04T12:09:59.641Z</time>
      </trkpt>
      <trkpt lat="48.99377" lon="2.91778">
        <ele>101</ele>
        <time>2021-05-04T12:10:04.640Z</time>
      </trkpt>
      <trkpt lat="48.99354" lon="2.91777">
        <ele>101</ele>
        <time>2021-05-04T12:10:08.640Z</time>
      </trkpt>
      <trkpt lat="48.99327" lon="2.91773">
        <ele>101</ele>
        <time>2021-05-04T12:10:13.641Z</time>
      </trkpt>
      <trkpt lat="48.99299" lon="2.91771">
        <ele>101</ele>
        <time>2021-05-04T12:10:18.639Z</time>
      </trkpt>
      <trkpt lat="48.99272" lon="2.91768">
        <ele>100</ele>
        <time>2021-05-04T12:10:23.641Z</time>
      </trkpt>
      <trkpt lat="48.99246" lon="2.91765">
        <ele>100</ele>
        <time>2021-05-04T12:10:28.643Z</time>
      </trkpt>
      <trkpt lat="48.9922" lon="2.91769">
        <ele>99</ele>
        <time>2021-05-04T12:10:33.642Z</time>
      </trkpt>
      <trkpt lat="48.99193" lon="2.91774">
        <ele>99</ele>
        <time>2021-05-04T12:10:38.640Z</time>
      </trkpt>
      <trkpt lat="48.9917" lon="2.91778">
        <ele>98</ele>
        <time>2021-05-04T12:10:42.640Z</time>
      </trkpt>
      <trkpt lat="48.99142" lon="2.91784">
        <ele>98</ele>
        <time>2021-05-04T12:10:47.642Z</time>
      </trkpt>
      <trkpt lat="48.99119" lon="2.91791">
        <ele>97</ele>
        <time>2021-05-04T12:10:51.642Z</time>
      </trkpt>
      <trkpt lat="48.99095" lon="2.91797">
        <ele>97</ele>
        <time>2021-05-04T12:10:55.642Z</time>
      </trkpt>
      <trkpt lat="48.99066" lon="2.91803">
        <ele>97</ele>
        <time>2021-05-04T12:11:00.649Z</time>
      </trkpt>
      <trkpt lat="48.9904" lon="2.91806">
        <ele>97</ele>
        <time>2021-05-04T12:11:05.641Z</time>
      </trkpt>
      <trkpt lat="48.99015" lon="2.91808">
        <ele>97</ele>
        <time>2021-05-04T12:11:10.647Z</time>
      </trkpt>
      <trkpt lat="48.98994" lon="2.91815">
        <ele>97</ele>
        <time>2021-05-04T12:11:14.642Z</time>
      </trkpt>
      <trkpt lat="48.98967" lon="2.91824">
        <ele>98</ele>
        <time>2021-05-04T12:11:19.641Z</time>
      </trkpt>
      <trkpt lat="48.98941" lon="2.91837">
        <ele>98</ele>
        <time>2021-05-04T12:11:24.644Z</time>
      </trkpt>
      <trkpt lat="48.98916" lon="2.91851">
        <ele>99</ele>
        <time>2021-05-04T12:11:29.643Z</time>
      </trkpt>
      <trkpt lat="48.98891" lon="2.91867">
        <ele>99</ele>
        <time>2021-05-04T12:11:34.642Z</time>
      </trkpt>
      <trkpt lat="48.98869" lon="2.91883">
        <ele>99</ele>
        <time>2021-05-04T12:11:38.642Z</time>
      </trkpt>
      <trkpt lat="48.98845" lon="2.91897">
        <ele>100</ele>
        <time>2021-05-04T12:11:43.644Z</time>
      </trkpt>
      <trkpt lat="48.98824" lon="2.91916">
        <ele>100</ele>
        <time>2021-05-04T12:11:47.641Z</time>
      </trkpt>
      <trkpt lat="48.98806" lon="2.91937">
        <ele>100</ele>
        <time>2021-05-04T12:11:52.642Z</time>
      </trkpt>
      <trkpt lat="48.98786" lon="2.91955">
        <ele>100</ele>
        <time>2021-05-04T12:11:56.643Z</time>
      </trkpt>
      <trkpt lat="48.9877" lon="2.91976">
        <ele>100</ele>
        <time>2021-05-04T12:12:00.650Z</time>
      </trkpt>
      <trkpt lat="48.9875" lon="2.92001">
        <ele>100</ele>
        <time>2021-05-04T12:12:05.642Z</time>
      </trkpt>
      <trkpt lat="48.9873" lon="2.92029">
        <ele>99</ele>
        <time>2021-05-04T12:12:10.641Z</time>
      </trkpt>
      <trkpt lat="48.98714" lon="2.92052">
        <ele>99</ele>
        <time>2021-05-04T12:12:14.642Z</time>
      </trkpt>
      <trkpt lat="48.98695" lon="2.92081">
        <ele>98</ele>
        <time>2021-05-04T12:12:19.640Z</time>
      </trkpt>
      <trkpt lat="48.98677" lon="2.92111">
        <ele>98</ele>
        <time>2021-05-04T12:12:24.643Z</time>
      </trkpt>
      <trkpt lat="48.98663" lon="2.92139">
        <ele>97</ele>
        <time>2021-05-04T12:12:28.642Z</time>
      </trkpt>
      <trkpt lat="48.98643" lon="2.92168">
        <ele>97</ele>
        <time>2021-05-04T12:12:33.643Z</time>
      </trkpt>
      <trkpt lat="48.98624" lon="2.92198">
        <ele>96</ele>
        <time>2021-05-04T12:12:38.643Z</time>
      </trkpt>
      <trkpt lat="48.98606" lon="2.92227">
        <ele>96</ele>
        <time>2021-05-04T12:12:43.642Z</time>
      </trkpt>
      <trkpt lat="48.98586" lon="2.92257">
        <ele>96</ele>
        <time>2021-05-04T12:12:48.641Z</time>
      </trkpt>
      <trkpt lat="48.98569" lon="2.92289">
        <ele>97</ele>
        <time>2021-05-04T12:12:53.642Z</time>
      </trkpt>
      <trkpt lat="48.98549" lon="2.9232">
        <ele>97</ele>
        <time>2021-05-04T12:12:58.640Z</time>
      </trkpt>
      <trkpt lat="48.9853" lon="2.92351">
        <ele>98</ele>
        <time>2021-05-04T12:13:03.640Z</time>
      </trkpt>
      <trkpt lat="48.98511" lon="2.92382">
        <ele>98</ele>
        <time>2021-05-04T12:13:08.639Z</time>
      </trkpt>
      <trkpt lat="48.98494" lon="2.92411">
        <ele>99</ele>
        <time>2021-05-04T12:13:13.641Z</time>
      </trkpt>
      <trkpt lat="48.98476" lon="2.9244">
        <ele>100</ele>
        <time>2021-05-04T12:13:18.639Z</time>
      </trkpt>
      <trkpt lat="48.98459" lon="2.92469">
        <ele>100</ele>
        <time>2021-05-04T12:13:23.644Z</time>
      </trkpt>
      <trkpt lat="48.9844" lon="2.92498">
        <ele>100</ele>
        <time>2021-05-04T12:13:28.641Z</time>
      </trkpt>
      <trkpt lat="48.98422" lon="2.92529">
        <ele>101</ele>
        <time>2021-05-04T12:13:33.649Z</time>
      </trkpt>
      <trkpt lat="48.98402" lon="2.92558">
        <ele>101</ele>
        <time>2021-05-04T12:13:38.640Z</time>
      </trkpt>
      <trkpt lat="48.98381" lon="2.92585">
        <ele>102</ele>
        <time>2021-05-04T12:13:43.640Z</time>
      </trkpt>
      <trkpt lat="48.9836" lon="2.92612">
        <ele>102</ele>
        <time>2021-05-04T12:13:48.640Z</time>
      </trkpt>
      <trkpt lat="48.98339" lon="2.92639">
        <ele>102</ele>
        <time>2021-05-04T12:13:53.641Z</time>
      </trkpt>
      <trkpt lat="48.98319" lon="2.92664">
        <ele>102</ele>
        <time>2021-05-04T12:13:58.642Z</time>
      </trkpt>
      <trkpt lat="48.98299" lon="2.92688">
        <ele>103</ele>
        <time>2021-05-04T12:14:03.641Z</time>
      </trkpt>
      <trkpt lat="48.98279" lon="2.92714">
        <ele>103</ele>
        <time>2021-05-04T12:14:08.640Z</time>
      </trkpt>
      <trkpt lat="48.98261" lon="2.92735">
        <ele>103</ele>
        <time>2021-05-04T12:14:12.639Z</time>
      </trkpt>
      <trkpt lat="48.9824" lon="2.92761">
        <ele>103</ele>
        <time>2021-05-04T12:14:17.641Z</time>
      </trkpt>
      <trkpt lat="48.98219" lon="2.92787">
        <ele>103</ele>
        <time>2021-05-04T12:14:22.640Z</time>
      </trkpt>
      <trkpt lat="48.98198" lon="2.92813">
        <ele>103</ele>
        <time>2021-05-04T12:14:27.640Z</time>
      </trkpt>
      <trkpt lat="48.98176" lon="2.92839">
        <ele>103</ele>
        <time>2021-05-04T12:14:32.648Z</time>
      </trkpt>
      <trkpt lat="48.98161" lon="2.92852">
        <ele>103</ele>
        <time>2021-05-04T12:14:40.642Z</time>
      </trkpt>
      <trkpt lat="48.9816" lon="2.92856">
        <ele>104</ele>
        <time>2021-05-04T12:14:51.644Z</time>
      </trkpt>
      <trkpt lat="48.9816" lon="2.92856">
        <ele>104</ele>
        <time>2021-05-04T12:15:35.641Z</time>
      </trkpt>
      <trkpt lat="48.98138" lon="2.92874">
        <ele>105</ele>
        <time>2021-05-04T12:15:36.752Z</time>
      </trkpt>
      <trkpt lat="48.9813" lon="2.9288">
        <ele>105</ele>
        <time>2021-05-04T12:15:38.643Z</time>
      </trkpt>
      <trkpt lat="48.98118" lon="2.9289">
        <ele>105</ele>
        <time>2021-05-04T12:15:41.641Z</time>
      </trkpt>
      <trkpt lat="48.98101" lon="2.92906">
        <ele>105</ele>
        <time>2021-05-04T12:15:45.643Z</time>
      </trkpt>
      <trkpt lat="48.98082" lon="2.92922">
        <ele>105</ele>
        <time>2021-05-04T12:15:49.640Z</time>
      </trkpt>
      <trkpt lat="48.98063" lon="2.92938">
        <ele>105</ele>
        <time>2021-05-04T12:15:53.640Z</time>
      </trkpt>
      <trkpt lat="48.98043" lon="2.92957">
        <ele>105</ele>
        <time>2021-05-04T12:15:57.641Z</time>
      </trkpt>
      <trkpt lat="48.98019" lon="2.92979">
        <ele>104</ele>
        <time>2021-05-04T12:16:02.640Z</time>
      </trkpt>
      <trkpt lat="48.97994" lon="2.93">
        <ele>104</ele>
        <time>2021-05-04T12:16:07.637Z</time>
      </trkpt>
      <trkpt lat="48.97971" lon="2.9302">
        <ele>104</ele>
        <time>2021-05-04T12:16:12.640Z</time>
      </trkpt>
      <trkpt lat="48.97946" lon="2.93042">
        <ele>104</ele>
        <time>2021-05-04T12:16:17.640Z</time>
      </trkpt>
      <trkpt lat="48.97923" lon="2.93062">
        <ele>104</ele>
        <time>2021-05-04T12:16:22.639Z</time>
      </trkpt>
      <trkpt lat="48.97899" lon="2.93084">
        <ele>104</ele>
        <time>2021-05-04T12:16:27.645Z</time>
      </trkpt>
      <trkpt lat="48.97875" lon="2.93103">
        <ele>103</ele>
        <time>2021-05-04T12:16:32.642Z</time>
      </trkpt>
      <trkpt lat="48.97851" lon="2.93125">
        <ele>102</ele>
        <time>2021-05-04T12:16:37.650Z</time>
      </trkpt>
      <trkpt lat="48.97827" lon="2.93147">
        <ele>101</ele>
        <time>2021-05-04T12:16:42.638Z</time>
      </trkpt>
      <trkpt lat="48.97802" lon="2.93169">
        <ele>100</ele>
        <time>2021-05-04T12:16:47.643Z</time>
      </trkpt>
      <trkpt lat="48.97776" lon="2.93192">
        <ele>99</ele>
        <time>2021-05-04T12:16:52.642Z</time>
      </trkpt>
      <trkpt lat="48.97751" lon="2.93215">
        <ele>99</ele>
        <time>2021-05-04T12:16:57.648Z</time>
      </trkpt>
      <trkpt lat="48.97725" lon="2.93236">
        <ele>98</ele>
        <time>2021-05-04T12:17:02.639Z</time>
      </trkpt>
      <trkpt lat="48.977" lon="2.93258">
        <ele>97</ele>
        <time>2021-05-04T12:17:07.650Z</time>
      </trkpt>
      <trkpt lat="48.97675" lon="2.9328">
        <ele>96</ele>
        <time>2021-05-04T12:17:12.639Z</time>
      </trkpt>
      <trkpt lat="48.97654" lon="2.93299">
        <ele>96</ele>
        <time>2021-05-04T12:17:16.644Z</time>
      </trkpt>
      <trkpt lat="48.97629" lon="2.93321">
        <ele>97</ele>
        <time>2021-05-04T12:17:21.643Z</time>
      </trkpt>
      <trkpt lat="48.97604" lon="2.93342">
        <ele>97</ele>
        <time>2021-05-04T12:17:26.652Z</time>
      </trkpt>
      <trkpt lat="48.97577" lon="2.93363">
        <ele>98</ele>
        <time>2021-05-04T12:17:31.640Z</time>
      </trkpt>
      <trkpt lat="48.9755" lon="2.9338">
        <ele>98</ele>
        <time>2021-05-04T12:17:36.640Z</time>
      </trkpt>
      <trkpt lat="48.97523" lon="2.93398">
        <ele>99</ele>
        <time>2021-05-04T12:17:41.639Z</time>
      </trkpt>
      <trkpt lat="48.97495" lon="2.93411">
        <ele>99</ele>
        <time>2021-05-04T12:17:46.638Z</time>
      </trkpt>
      <trkpt lat="48.97467" lon="2.9342">
        <ele>100</ele>
        <time>2021-05-04T12:17:51.639Z</time>
      </trkpt>
      <trkpt lat="48.97438" lon="2.93424">
        <ele>100</ele>
        <time>2021-05-04T12:17:56.643Z</time>
      </trkpt>
      <trkpt lat="48.9741" lon="2.93424">
        <ele>101</ele>
        <time>2021-05-04T12:18:01.639Z</time>
      </trkpt>
      <trkpt lat="48.97382" lon="2.93415">
        <ele>101</ele>
        <time>2021-05-04T12:18:06.644Z</time>
      </trkpt>
      <trkpt lat="48.97358" lon="2.934">
        <ele>101</ele>
        <time>2021-05-04T12:18:11.643Z</time>
      </trkpt>
      <trkpt lat="48.97338" lon="2.9338">
        <ele>101</ele>
        <time>2021-05-04T12:18:16.643Z</time>
      </trkpt>
      <trkpt lat="48.97317" lon="2.93358">
        <ele>101</ele>
        <time>2021-05-04T12:18:21.643Z</time>
      </trkpt>
      <trkpt lat="48.97298" lon="2.93338">
        <ele>101</ele>
        <time>2021-05-04T12:18:26.645Z</time>
      </trkpt>
      <trkpt lat="48.97281" lon="2.93322">
        <ele>101</ele>
        <time>2021-05-04T12:18:30.638Z</time>
      </trkpt>
      <trkpt lat="48.9726" lon="2.93303">
        <ele>100</ele>
        <time>2021-05-04T12:18:35.640Z</time>
      </trkpt>
      <trkpt lat="48.97241" lon="2.93287">
        <ele>100</ele>
        <time>2021-05-04T12:18:39.638Z</time>
      </trkpt>
      <trkpt lat="48.97217" lon="2.93268">
        <ele>100</ele>
        <time>2021-05-04T12:18:44.643Z</time>
      </trkpt>
      <trkpt lat="48.97192" lon="2.93252">
        <ele>100</ele>
        <time>2021-05-04T12:18:49.647Z</time>
      </trkpt>
      <trkpt lat="48.97166" lon="2.93243">
        <ele>100</ele>
        <time>2021-05-04T12:18:54.641Z</time>
      </trkpt>
      <trkpt lat="48.97139" lon="2.93235">
        <ele>100</ele>
        <time>2021-05-04T12:18:59.640Z</time>
      </trkpt>
      <trkpt lat="48.97113" lon="2.93233">
        <ele>100</ele>
        <time>2021-05-04T12:19:04.641Z</time>
      </trkpt>
      <trkpt lat="48.97085" lon="2.93234">
        <ele>100</ele>
        <time>2021-05-04T12:19:09.640Z</time>
      </trkpt>
      <trkpt lat="48.97059" lon="2.93236">
        <ele>100</ele>
        <time>2021-05-04T12:19:14.641Z</time>
      </trkpt>
      <trkpt lat="48.97033" lon="2.93235">
        <ele>100</ele>
        <time>2021-05-04T12:19:19.645Z</time>
      </trkpt>
      <trkpt lat="48.97009" lon="2.93236">
        <ele>99</ele>
        <time>2021-05-04T12:19:24.641Z</time>
      </trkpt>
      <trkpt lat="48.96985" lon="2.93232">
        <ele>99</ele>
        <time>2021-05-04T12:19:29.662Z</time>
      </trkpt>
      <trkpt lat="48.96962" lon="2.93226">
        <ele>99</ele>
        <time>2021-05-04T12:19:34.647Z</time>
      </trkpt>
      <trkpt lat="48.96939" lon="2.93219">
        <ele>99</ele>
        <time>2021-05-04T12:19:39.639Z</time>
      </trkpt>
      <trkpt lat="48.96919" lon="2.93209">
        <ele>98</ele>
        <time>2021-05-04T12:19:43.638Z</time>
      </trkpt>
      <trkpt lat="48.96899" lon="2.93198">
        <ele>98</ele>
        <time>2021-05-04T12:19:47.643Z</time>
      </trkpt>
      <trkpt lat="48.96875" lon="2.93184">
        <ele>98</ele>
        <time>2021-05-04T12:19:52.642Z</time>
      </trkpt>
      <trkpt lat="48.9685" lon="2.93168">
        <ele>98</ele>
        <time>2021-05-04T12:19:57.647Z</time>
      </trkpt>
      <trkpt lat="48.96826" lon="2.93154">
        <ele>98</ele>
        <time>2021-05-04T12:20:02.639Z</time>
      </trkpt>
      <trkpt lat="48.96804" lon="2.93143">
        <ele>98</ele>
        <time>2021-05-04T12:20:07.645Z</time>
      </trkpt>
      <trkpt lat="48.96787" lon="2.93135">
        <ele>99</ele>
        <time>2021-05-04T12:20:13.642Z</time>
      </trkpt>
      <trkpt lat="48.96778" lon="2.93137">
        <ele>100</ele>
        <time>2021-05-04T12:20:23.640Z</time>
      </trkpt>
      <trkpt lat="48.9677" lon="2.93124">
        <ele>100</ele>
        <time>2021-05-04T12:20:29.639Z</time>
      </trkpt>
      <trkpt lat="48.96761" lon="2.93115">
        <ele>101</ele>
        <time>2021-05-04T12:20:32.639Z</time>
      </trkpt>
      <trkpt lat="48.96753" lon="2.93107">
        <ele>101</ele>
        <time>2021-05-04T12:20:34.649Z</time>
      </trkpt>
      <trkpt lat="48.9674" lon="2.93092">
        <ele>101</ele>
        <time>2021-05-04T12:20:37.644Z</time>
      </trkpt>
      <trkpt lat="48.96724" lon="2.93073">
        <ele>101</ele>
        <time>2021-05-04T12:20:41.643Z</time>
      </trkpt>
      <trkpt lat="48.96708" lon="2.93049">
        <ele>101</ele>
        <time>2021-05-04T12:20:46.643Z</time>
      </trkpt>
      <trkpt lat="48.96696" lon="2.93024">
        <ele>101</ele>
        <time>2021-05-04T12:20:51.640Z</time>
      </trkpt>
      <trkpt lat="48.96688" lon="2.93001">
        <ele>101</ele>
        <time>2021-05-04T12:20:55.646Z</time>
      </trkpt>
      <trkpt lat="48.96681" lon="2.92974">
        <ele>100</ele>
        <time>2021-05-04T12:20:59.640Z</time>
      </trkpt>
      <trkpt lat="48.96679" lon="2.92942">
        <ele>100</ele>
        <time>2021-05-04T12:21:03.643Z</time>
      </trkpt>
      <trkpt lat="48.9668" lon="2.92909">
        <ele>100</ele>
        <time>2021-05-04T12:21:07.652Z</time>
      </trkpt>
      <trkpt lat="48.96683" lon="2.9287">
        <ele>100</ele>
        <time>2021-05-04T12:21:12.639Z</time>
      </trkpt>
      <trkpt lat="48.96685" lon="2.92832">
        <ele>100</ele>
        <time>2021-05-04T12:21:17.646Z</time>
      </trkpt>
      <trkpt lat="48.96683" lon="2.92795">
        <ele>100</ele>
        <time>2021-05-04T12:21:22.639Z</time>
      </trkpt>
      <trkpt lat="48.96672" lon="2.92763">
        <ele>101</ele>
        <time>2021-05-04T12:21:27.640Z</time>
      </trkpt>
      <trkpt lat="48.96655" lon="2.92742">
        <ele>102</ele>
        <time>2021-05-04T12:21:32.644Z</time>
      </trkpt>
      <trkpt lat="48.96637" lon="2.9273">
        <ele>102</ele>
        <time>2021-05-04T12:21:36.642Z</time>
      </trkpt>
      <trkpt lat="48.96617" lon="2.92727">
        <ele>102</ele>
        <time>2021-05-04T12:21:40.646Z</time>
      </trkpt>
      <trkpt lat="48.96592" lon="2.92734">
        <ele>103</ele>
        <time>2021-05-04T12:21:45.644Z</time>
      </trkpt>
      <trkpt lat="48.9657" lon="2.92754">
        <ele>103</ele>
        <time>2021-05-04T12:21:50.647Z</time>
      </trkpt>
      <trkpt lat="48.9655" lon="2.92772">
        <ele>103</ele>
        <time>2021-05-04T12:21:54.639Z</time>
      </trkpt>
      <trkpt lat="48.96527" lon="2.9279">
        <ele>103</ele>
        <time>2021-05-04T12:21:59.641Z</time>
      </trkpt>
      <trkpt lat="48.96501" lon="2.92804">
        <ele>103</ele>
        <time>2021-05-04T12:22:04.638Z</time>
      </trkpt>
      <trkpt lat="48.96476" lon="2.92815">
        <ele>103</ele>
        <time>2021-05-04T12:22:09.642Z</time>
      </trkpt>
      <trkpt lat="48.96453" lon="2.92823">
        <ele>102</ele>
        <time>2021-05-04T12:22:13.639Z</time>
      </trkpt>
      <trkpt lat="48.96425" lon="2.92831">
        <ele>102</ele>
        <time>2021-05-04T12:22:18.639Z</time>
      </trkpt>
      <trkpt lat="48.96395" lon="2.92839">
        <ele>102</ele>
        <time>2021-05-04T12:22:23.646Z</time>
      </trkpt>
      <trkpt lat="48.96367" lon="2.92845">
        <ele>102</ele>
        <time>2021-05-04T12:22:28.643Z</time>
      </trkpt>
      <trkpt lat="48.96337" lon="2.92853">
        <ele>102</ele>
        <time>2021-05-04T12:22:33.643Z</time>
      </trkpt>
      <trkpt lat="48.96308" lon="2.9286">
        <ele>102</ele>
        <time>2021-05-04T12:22:38.644Z</time>
      </trkpt>
      <trkpt lat="48.9628" lon="2.92867">
        <ele>102</ele>
        <time>2021-05-04T12:22:43.660Z</time>
      </trkpt>
      <trkpt lat="48.9625" lon="2.92875">
        <ele>102</ele>
        <time>2021-05-04T12:22:48.650Z</time>
      </trkpt>
      <trkpt lat="48.96223" lon="2.92882">
        <ele>102</ele>
        <time>2021-05-04T12:22:53.642Z</time>
      </trkpt>
      <trkpt lat="48.96195" lon="2.92887">
        <ele>101</ele>
        <time>2021-05-04T12:22:58.645Z</time>
      </trkpt>
      <trkpt lat="48.96166" lon="2.9289">
        <ele>101</ele>
        <time>2021-05-04T12:23:03.639Z</time>
      </trkpt>
      <trkpt lat="48.96138" lon="2.92892">
        <ele>101</ele>
        <time>2021-05-04T12:23:08.638Z</time>
      </trkpt>
      <trkpt lat="48.96109" lon="2.92891">
        <ele>101</ele>
        <time>2021-05-04T12:23:13.645Z</time>
      </trkpt>
      <trkpt lat="48.96085" lon="2.9289">
        <ele>101</ele>
        <time>2021-05-04T12:23:17.639Z</time>
      </trkpt>
      <trkpt lat="48.96055" lon="2.92888">
        <ele>101</ele>
        <time>2021-05-04T12:23:22.642Z</time>
      </trkpt>
      <trkpt lat="48.96027" lon="2.92881">
        <ele>101</ele>
        <time>2021-05-04T12:23:28.646Z</time>
      </trkpt>
      <trkpt lat="48.96003" lon="2.92875">
        <ele>101</ele>
        <time>2021-05-04T12:23:32.651Z</time>
      </trkpt>
      <trkpt lat="48.95981" lon="2.92864">
        <ele>101</ele>
        <time>2021-05-04T12:23:36.644Z</time>
      </trkpt>
      <trkpt lat="48.95953" lon="2.92848">
        <ele>101</ele>
        <time>2021-05-04T12:23:41.642Z</time>
      </trkpt>
      <trkpt lat="48.95927" lon="2.92828">
        <ele>101</ele>
        <time>2021-05-04T12:23:46.639Z</time>
      </trkpt>
      <trkpt lat="48.95899" lon="2.92806">
        <ele>100</ele>
        <time>2021-05-04T12:23:51.638Z</time>
      </trkpt>
      <trkpt lat="48.95872" lon="2.92787">
        <ele>100</ele>
        <time>2021-05-04T12:23:56.639Z</time>
      </trkpt>
      <trkpt lat="48.95847" lon="2.92776">
        <ele>100</ele>
        <time>2021-05-04T12:24:01.642Z</time>
      </trkpt>
      <trkpt lat="48.95825" lon="2.9277">
        <ele>99</ele>
        <time>2021-05-04T12:24:05.639Z</time>
      </trkpt>
      <trkpt lat="48.95802" lon="2.92766">
        <ele>99</ele>
        <time>2021-05-04T12:24:09.639Z</time>
      </trkpt>
      <trkpt lat="48.95772" lon="2.92765">
        <ele>98</ele>
        <time>2021-05-04T12:24:14.642Z</time>
      </trkpt>
      <trkpt lat="48.95743" lon="2.92766">
        <ele>98</ele>
        <time>2021-05-04T12:24:19.640Z</time>
      </trkpt>
      <trkpt lat="48.95719" lon="2.9276">
        <ele>98</ele>
        <time>2021-05-04T12:24:24.635Z</time>
      </trkpt>
      <trkpt lat="48.95695" lon="2.92772">
        <ele>98</ele>
        <time>2021-05-04T12:24:29.640Z</time>
      </trkpt>
      <trkpt lat="48.95672" lon="2.92775">
        <ele>97</ele>
        <time>2021-05-04T12:24:33.637Z</time>
      </trkpt>
      <trkpt lat="48.95643" lon="2.92781">
        <ele>98</ele>
        <time>2021-05-04T12:24:38.639Z</time>
      </trkpt>
      <trkpt lat="48.95614" lon="2.92794">
        <ele>98</ele>
        <time>2021-05-04T12:24:43.640Z</time>
      </trkpt>
      <trkpt lat="48.95585" lon="2.92808">
        <ele>98</ele>
        <time>2021-05-04T12:24:48.639Z</time>
      </trkpt>
      <trkpt lat="48.95556" lon="2.92818">
        <ele>98</ele>
        <time>2021-05-04T12:24:53.639Z</time>
      </trkpt>
      <trkpt lat="48.95527" lon="2.92826">
        <ele>98</ele>
        <time>2021-05-04T12:24:58.648Z</time>
      </trkpt>
      <trkpt lat="48.95498" lon="2.92831">
        <ele>98</ele>
        <time>2021-05-04T12:25:03.645Z</time>
      </trkpt>
      <trkpt lat="48.95469" lon="2.92832">
        <ele>99</ele>
        <time>2021-05-04T12:25:08.640Z</time>
      </trkpt>
      <trkpt lat="48.95441" lon="2.9283">
        <ele>99</ele>
        <time>2021-05-04T12:25:13.641Z</time>
      </trkpt>
      <trkpt lat="48.95415" lon="2.92824">
        <ele>99</ele>
        <time>2021-05-04T12:25:19.098Z</time>
      </trkpt>
      <trkpt lat="48.95393" lon="2.92818">
        <ele>100</ele>
        <time>2021-05-04T12:25:22.640Z</time>
      </trkpt>
      <trkpt lat="48.95371" lon="2.92812">
        <ele>100</ele>
        <time>2021-05-04T12:25:26.670Z</time>
      </trkpt>
      <trkpt lat="48.95344" lon="2.92803">
        <ele>101</ele>
        <time>2021-05-04T12:25:31.638Z</time>
      </trkpt>
      <trkpt lat="48.95316" lon="2.92795">
        <ele>101</ele>
        <time>2021-05-04T12:25:36.634Z</time>
      </trkpt>
      <trkpt lat="48.9529" lon="2.92785">
        <ele>101</ele>
        <time>2021-05-04T12:25:41.641Z</time>
      </trkpt>
      <trkpt lat="48.95263" lon="2.92775">
        <ele>101</ele>
        <time>2021-05-04T12:25:46.637Z</time>
      </trkpt>
      <trkpt lat="48.95235" lon="2.92765">
        <ele>101</ele>
        <time>2021-05-04T12:25:51.641Z</time>
      </trkpt>
      <trkpt lat="48.95207" lon="2.92755">
        <ele>101</ele>
        <time>2021-05-04T12:25:56.638Z</time>
      </trkpt>
      <trkpt lat="48.95179" lon="2.92743">
        <ele>101</ele>
        <time>2021-05-04T12:26:01.646Z</time>
      </trkpt>
      <trkpt lat="48.95152" lon="2.9273">
        <ele>101</ele>
        <time>2021-05-04T12:26:06.641Z</time>
      </trkpt>
      <trkpt lat="48.95126" lon="2.92715">
        <ele>101</ele>
        <time>2021-05-04T12:26:11.640Z</time>
      </trkpt>
      <trkpt lat="48.951" lon="2.92699">
        <ele>101</ele>
        <time>2021-05-04T12:26:16.641Z</time>
      </trkpt>
      <trkpt lat="48.95076" lon="2.92683">
        <ele>101</ele>
        <time>2021-05-04T12:26:21.641Z</time>
      </trkpt>
      <trkpt lat="48.95052" lon="2.92664">
        <ele>101</ele>
        <time>2021-05-04T12:26:26.640Z</time>
      </trkpt>
      <trkpt lat="48.9503" lon="2.92645">
        <ele>101</ele>
        <time>2021-05-04T12:26:31.637Z</time>
      </trkpt>
      <trkpt lat="48.9501" lon="2.92625">
        <ele>101</ele>
        <time>2021-05-04T12:26:36.641Z</time>
      </trkpt>
      <trkpt lat="48.94991" lon="2.92601">
        <ele>100</ele>
        <time>2021-05-04T12:26:41.646Z</time>
      </trkpt>
      <trkpt lat="48.94976" lon="2.92581">
        <ele>100</ele>
        <time>2021-05-04T12:26:45.671Z</time>
      </trkpt>
      <trkpt lat="48.94959" lon="2.92555">
        <ele>100</ele>
        <time>2021-05-04T12:26:50.637Z</time>
      </trkpt>
      <trkpt lat="48.94946" lon="2.92536">
        <ele>100</ele>
        <time>2021-05-04T12:26:56.641Z</time>
      </trkpt>
      <trkpt lat="48.94938" lon="2.9252">
        <ele>100</ele>
        <time>2021-05-04T12:27:02.642Z</time>
      </trkpt>
      <trkpt lat="48.94933" lon="2.92505">
        <ele>100</ele>
        <time>2021-05-04T12:27:05.642Z</time>
      </trkpt>
      <trkpt lat="48.94929" lon="2.92489">
        <ele>99</ele>
        <time>2021-05-04T12:27:08.641Z</time>
      </trkpt>
      <trkpt lat="48.94923" lon="2.9247">
        <ele>99</ele>
        <time>2021-05-04T12:27:11.641Z</time>
      </trkpt>
      <trkpt lat="48.94918" lon="2.92446">
        <ele>99</ele>
        <time>2021-05-04T12:27:15.641Z</time>
      </trkpt>
      <trkpt lat="48.94913" lon="2.92419">
        <ele>99</ele>
        <time>2021-05-04T12:27:20.642Z</time>
      </trkpt>
      <trkpt lat="48.94912" lon="2.92396">
        <ele>99</ele>
        <time>2021-05-04T12:27:24.641Z</time>
      </trkpt>
      <trkpt lat="48.94909" lon="2.92371">
        <ele>99</ele>
        <time>2021-05-04T12:27:28.640Z</time>
      </trkpt>
      <trkpt lat="48.94906" lon="2.92342">
        <ele>100</ele>
        <time>2021-05-04T12:27:32.640Z</time>
      </trkpt>
      <trkpt lat="48.94904" lon="2.92313">
        <ele>100</ele>
        <time>2021-05-04T12:27:36.642Z</time>
      </trkpt>
      <trkpt lat="48.94899" lon="2.92284">
        <ele>100</ele>
        <time>2021-05-04T12:27:40.641Z</time>
      </trkpt>
      <trkpt lat="48.94895" lon="2.92253">
        <ele>100</ele>
        <time>2021-05-04T12:27:44.639Z</time>
      </trkpt>
      <trkpt lat="48.9489" lon="2.92215">
        <ele>100</ele>
        <time>2021-05-04T12:27:49.640Z</time>
      </trkpt>
      <trkpt lat="48.94885" lon="2.92177">
        <ele>101</ele>
        <time>2021-05-04T12:27:54.639Z</time>
      </trkpt>
      <trkpt lat="48.94879" lon="2.9214">
        <ele>101</ele>
        <time>2021-05-04T12:27:59.641Z</time>
      </trkpt>
      <trkpt lat="48.94873" lon="2.92107">
        <ele>100</ele>
        <time>2021-05-04T12:28:04.643Z</time>
      </trkpt>
      <trkpt lat="48.94863" lon="2.92079">
        <ele>100</ele>
        <time>2021-05-04T12:28:09.643Z</time>
      </trkpt>
      <trkpt lat="48.94855" lon="2.92056">
        <ele>100</ele>
        <time>2021-05-04T12:28:13.642Z</time>
      </trkpt>
      <trkpt lat="48.94847" lon="2.92032">
        <ele>99</ele>
        <time>2021-05-04T12:28:17.644Z</time>
      </trkpt>
      <trkpt lat="48.94836" lon="2.9201">
        <ele>99</ele>
        <time>2021-05-04T12:28:21.640Z</time>
      </trkpt>
      <trkpt lat="48.94823" lon="2.91984">
        <ele>99</ele>
        <time>2021-05-04T12:28:25.640Z</time>
      </trkpt>
      <trkpt lat="48.94809" lon="2.91961">
        <ele>98</ele>
        <time>2021-05-04T12:28:29.641Z</time>
      </trkpt>
      <trkpt lat="48.94792" lon="2.91931">
        <ele>98</ele>
        <time>2021-05-04T12:28:34.641Z</time>
      </trkpt>
      <trkpt lat="48.94774" lon="2.91906">
        <ele>97</ele>
        <time>2021-05-04T12:28:39.641Z</time>
      </trkpt>
      <trkpt lat="48.94759" lon="2.91876">
        <ele>98</ele>
        <time>2021-05-04T12:28:44.640Z</time>
      </trkpt>
      <trkpt lat="48.94749" lon="2.91842">
        <ele>98</ele>
        <time>2021-05-04T12:28:49.641Z</time>
      </trkpt>
      <trkpt lat="48.9474" lon="2.91809">
        <ele>98</ele>
        <time>2021-05-04T12:28:54.640Z</time>
      </trkpt>
      <trkpt lat="48.94732" lon="2.91774">
        <ele>99</ele>
        <time>2021-05-04T12:28:59.640Z</time>
      </trkpt>
      <trkpt lat="48.94728" lon="2.91739">
        <ele>99</ele>
        <time>2021-05-04T12:29:04.642Z</time>
      </trkpt>
      <trkpt lat="48.94723" lon="2.91709">
        <ele>100</ele>
        <time>2021-05-04T12:29:08.638Z</time>
      </trkpt>
      <trkpt lat="48.94719" lon="2.91678">
        <ele>100</ele>
        <time>2021-05-04T12:29:12.640Z</time>
      </trkpt>
      <trkpt lat="48.94715" lon="2.91641">
        <ele>100</ele>
        <time>2021-05-04T12:29:17.641Z</time>
      </trkpt>
      <trkpt lat="48.94713" lon="2.91604">
        <ele>101</ele>
        <time>2021-05-04T12:29:22.651Z</time>
      </trkpt>
      <trkpt lat="48.94711" lon="2.91567">
        <ele>101</ele>
        <time>2021-05-04T12:29:27.641Z</time>
      </trkpt>
      <trkpt lat="48.94708" lon="2.91532">
        <ele>101</ele>
        <time>2021-05-04T12:29:32.724Z</time>
      </trkpt>
      <trkpt lat="48.94709" lon="2.91497">
        <ele>101</ele>
        <time>2021-05-04T12:29:37.642Z</time>
      </trkpt>
      <trkpt lat="48.94708" lon="2.91462">
        <ele>101</ele>
        <time>2021-05-04T12:29:42.640Z</time>
      </trkpt>
      <trkpt lat="48.94707" lon="2.91426">
        <ele>101</ele>
        <time>2021-05-04T12:29:47.639Z</time>
      </trkpt>
      <trkpt lat="48.94706" lon="2.91391">
        <ele>100</ele>
        <time>2021-05-04T12:29:52.644Z</time>
      </trkpt>
      <trkpt lat="48.94702" lon="2.91362">
        <ele>100</ele>
        <time>2021-05-04T12:29:56.642Z</time>
      </trkpt>
      <trkpt lat="48.94697" lon="2.91335">
        <ele>100</ele>
        <time>2021-05-04T12:30:02.641Z</time>
      </trkpt>
      <trkpt lat="48.94696" lon="2.91317">
        <ele>101</ele>
        <time>2021-05-04T12:30:11.641Z</time>
      </trkpt>
      <trkpt lat="48.94694" lon="2.91303">
        <ele>101</ele>
        <time>2021-05-04T12:30:14.644Z</time>
      </trkpt>
      <trkpt lat="48.94691" lon="2.91284">
        <ele>101</ele>
        <time>2021-05-04T12:30:17.643Z</time>
      </trkpt>
      <trkpt lat="48.94689" lon="2.91263">
        <ele>101</ele>
        <time>2021-05-04T12:30:20.640Z</time>
      </trkpt>
      <trkpt lat="48.94685" lon="2.91236">
        <ele>102</ele>
        <time>2021-05-04T12:30:24.640Z</time>
      </trkpt>
      <trkpt lat="48.94679" lon="2.91206">
        <ele>102</ele>
        <time>2021-05-04T12:30:28.639Z</time>
      </trkpt>
      <trkpt lat="48.94674" lon="2.91175">
        <ele>102</ele>
        <time>2021-05-04T12:30:32.643Z</time>
      </trkpt>
      <trkpt lat="48.94667" lon="2.91137">
        <ele>103</ele>
        <time>2021-05-04T12:30:37.641Z</time>
      </trkpt>
      <trkpt lat="48.94658" lon="2.91099">
        <ele>103</ele>
        <time>2021-05-04T12:30:42.641Z</time>
      </trkpt>
      <trkpt lat="48.94651" lon="2.91062">
        <ele>103</ele>
        <time>2021-05-04T12:30:47.642Z</time>
      </trkpt>
      <trkpt lat="48.94645" lon="2.91027">
        <ele>103</ele>
        <time>2021-05-04T12:30:52.642Z</time>
      </trkpt>
      <trkpt lat="48.94641" lon="2.90996">
        <ele>103</ele>
        <time>2021-05-04T12:30:56.639Z</time>
      </trkpt>
      <trkpt lat="48.94637" lon="2.90957">
        <ele>103</ele>
        <time>2021-05-04T12:31:01.640Z</time>
      </trkpt>
      <trkpt lat="48.94633" lon="2.90916">
        <ele>103</ele>
        <time>2021-05-04T12:31:06.642Z</time>
      </trkpt>
      <trkpt lat="48.94633" lon="2.90878">
        <ele>103</ele>
        <time>2021-05-04T12:31:11.639Z</time>
      </trkpt>
      <trkpt lat="48.94633" lon="2.9084">
        <ele>102</ele>
        <time>2021-05-04T12:31:16.642Z</time>
      </trkpt>
      <trkpt lat="48.94633" lon="2.90808">
        <ele>102</ele>
        <time>2021-05-04T12:31:20.642Z</time>
      </trkpt>
      <trkpt lat="48.94634" lon="2.90769">
        <ele>102</ele>
        <time>2021-05-04T12:31:25.642Z</time>
      </trkpt>
      <trkpt lat="48.94636" lon="2.90729">
        <ele>102</ele>
        <time>2021-05-04T12:31:30.640Z</time>
      </trkpt>
      <trkpt lat="48.94639" lon="2.9069">
        <ele>102</ele>
        <time>2021-05-04T12:31:35.641Z</time>
      </trkpt>
      <trkpt lat="48.94641" lon="2.9065">
        <ele>102</ele>
        <time>2021-05-04T12:31:40.640Z</time>
      </trkpt>
      <trkpt lat="48.94646" lon="2.90611">
        <ele>102</ele>
        <time>2021-05-04T12:31:45.642Z</time>
      </trkpt>
      <trkpt lat="48.94649" lon="2.90572">
        <ele>102</ele>
        <time>2021-05-04T12:31:50.642Z</time>
      </trkpt>
      <trkpt lat="48.94652" lon="2.90533">
        <ele>102</ele>
        <time>2021-05-04T12:31:55.640Z</time>
      </trkpt>
      <trkpt lat="48.94656" lon="2.90493">
        <ele>101</ele>
        <time>2021-05-04T12:32:00.639Z</time>
      </trkpt>
      <trkpt lat="48.94662" lon="2.90455">
        <ele>101</ele>
        <time>2021-05-04T12:32:05.638Z</time>
      </trkpt>
      <trkpt lat="48.94664" lon="2.90421">
        <ele>101</ele>
        <time>2021-05-04T12:32:09.639Z</time>
      </trkpt>
      <trkpt lat="48.94667" lon="2.90381">
        <ele>102</ele>
        <time>2021-05-04T12:32:14.642Z</time>
      </trkpt>
      <trkpt lat="48.9467" lon="2.90341">
        <ele>102</ele>
        <time>2021-05-04T12:32:19.639Z</time>
      </trkpt>
      <trkpt lat="48.94674" lon="2.90301">
        <ele>102</ele>
        <time>2021-05-04T12:32:24.639Z</time>
      </trkpt>
      <trkpt lat="48.94676" lon="2.90261">
        <ele>103</ele>
        <time>2021-05-04T12:32:29.639Z</time>
      </trkpt>
      <trkpt lat="48.94681" lon="2.90223">
        <ele>103</ele>
        <time>2021-05-04T12:32:34.640Z</time>
      </trkpt>
      <trkpt lat="48.94685" lon="2.90186">
        <ele>104</ele>
        <time>2021-05-04T12:32:39.713Z</time>
      </trkpt>
      <trkpt lat="48.9469" lon="2.9015">
        <ele>104</ele>
        <time>2021-05-04T12:32:44.644Z</time>
      </trkpt>
      <trkpt lat="48.94697" lon="2.90114">
        <ele>104</ele>
        <time>2021-05-04T12:32:49.640Z</time>
      </trkpt>
      <trkpt lat="48.94706" lon="2.90079">
        <ele>104</ele>
        <time>2021-05-04T12:32:54.642Z</time>
      </trkpt>
      <trkpt lat="48.94713" lon="2.9005">
        <ele>104</ele>
        <time>2021-05-04T12:32:58.641Z</time>
      </trkpt>
      <trkpt lat="48.94725" lon="2.90016">
        <ele>103</ele>
        <time>2021-05-04T12:33:03.640Z</time>
      </trkpt>
      <trkpt lat="48.94738" lon="2.89983">
        <ele>103</ele>
        <time>2021-05-04T12:33:08.641Z</time>
      </trkpt>
      <trkpt lat="48.94754" lon="2.89955">
        <ele>103</ele>
        <time>2021-05-04T12:33:13.639Z</time>
      </trkpt>
      <trkpt lat="48.94768" lon="2.89932">
        <ele>103</ele>
        <time>2021-05-04T12:33:17.640Z</time>
      </trkpt>
      <trkpt lat="48.94788" lon="2.89909">
        <ele>103</ele>
        <time>2021-05-04T12:33:22.635Z</time>
      </trkpt>
      <trkpt lat="48.9481" lon="2.89889">
        <ele>103</ele>
        <time>2021-05-04T12:33:27.640Z</time>
      </trkpt>
      <trkpt lat="48.9483" lon="2.89876">
        <ele>104</ele>
        <time>2021-05-04T12:33:31.654Z</time>
      </trkpt>
      <trkpt lat="48.94855" lon="2.89865">
        <ele>104</ele>
        <time>2021-05-04T12:33:36.638Z</time>
      </trkpt>
      <trkpt lat="48.94879" lon="2.89858">
        <ele>104</ele>
        <time>2021-05-04T12:33:41.644Z</time>
      </trkpt>
      <trkpt lat="48.94905" lon="2.89854">
        <ele>105</ele>
        <time>2021-05-04T12:33:46.640Z</time>
      </trkpt>
      <trkpt lat="48.94931" lon="2.89851">
        <ele>105</ele>
        <time>2021-05-04T12:33:51.640Z</time>
      </trkpt>
      <trkpt lat="48.94958" lon="2.89851">
        <ele>105</ele>
        <time>2021-05-04T12:33:56.641Z</time>
      </trkpt>
      <trkpt lat="48.94982" lon="2.89851">
        <ele>105</ele>
        <time>2021-05-04T12:34:01.638Z</time>
      </trkpt>
      <trkpt lat="48.95004" lon="2.89854">
        <ele>105</ele>
        <time>2021-05-04T12:34:05.646Z</time>
      </trkpt>
      <trkpt lat="48.9503" lon="2.89861">
        <ele>105</ele>
        <time>2021-05-04T12:34:10.642Z</time>
      </trkpt>
      <trkpt lat="48.95053" lon="2.89868">
        <ele>105</ele>
        <time>2021-05-04T12:34:14.646Z</time>
      </trkpt>
      <trkpt lat="48.95076" lon="2.89877">
        <ele>104</ele>
        <time>2021-05-04T12:34:18.644Z</time>
      </trkpt>
      <trkpt lat="48.95104" lon="2.89885">
        <ele>103</ele>
        <time>2021-05-04T12:34:23.639Z</time>
      </trkpt>
      <trkpt lat="48.95132" lon="2.89897">
        <ele>102</ele>
        <time>2021-05-04T12:34:28.642Z</time>
      </trkpt>
      <trkpt lat="48.95161" lon="2.89905">
        <ele>102</ele>
        <time>2021-05-04T12:34:33.643Z</time>
      </trkpt>
      <trkpt lat="48.95189" lon="2.89914">
        <ele>101</ele>
        <time>2021-05-04T12:34:38.644Z</time>
      </trkpt>
      <trkpt lat="48.95217" lon="2.89925">
        <ele>100</ele>
        <time>2021-05-04T12:34:43.644Z</time>
      </trkpt>
      <trkpt lat="48.95242" lon="2.89934">
        <ele>100</ele>
        <time>2021-05-04T12:34:47.644Z</time>
      </trkpt>
      <trkpt lat="48.95272" lon="2.89945">
        <ele>100</ele>
        <time>2021-05-04T12:34:52.639Z</time>
      </trkpt>
      <trkpt lat="48.95302" lon="2.89958">
        <ele>99</ele>
        <time>2021-05-04T12:34:57.657Z</time>
      </trkpt>
      <trkpt lat="48.95331" lon="2.8997">
        <ele>99</ele>
        <time>2021-05-04T12:35:02.638Z</time>
      </trkpt>
      <trkpt lat="48.9536" lon="2.89984">
        <ele>99</ele>
        <time>2021-05-04T12:35:07.642Z</time>
      </trkpt>
      <trkpt lat="48.95389" lon="2.89997">
        <ele>99</ele>
        <time>2021-05-04T12:35:12.643Z</time>
      </trkpt>
      <trkpt lat="48.95415" lon="2.90018">
        <ele>99</ele>
        <time>2021-05-04T12:35:17.640Z</time>
      </trkpt>
      <trkpt lat="48.9544" lon="2.90036">
        <ele>99</ele>
        <time>2021-05-04T12:35:22.646Z</time>
      </trkpt>
      <trkpt lat="48.95461" lon="2.90053">
        <ele>99</ele>
        <time>2021-05-04T12:35:27.649Z</time>
      </trkpt>
      <trkpt lat="48.95483" lon="2.90071">
        <ele>99</ele>
        <time>2021-05-04T12:35:32.639Z</time>
      </trkpt>
      <trkpt lat="48.95498" lon="2.90095">
        <ele>99</ele>
        <time>2021-05-04T12:35:37.693Z</time>
      </trkpt>
      <trkpt lat="48.95508" lon="2.90121">
        <ele>99</ele>
        <time>2021-05-04T12:35:42.643Z</time>
      </trkpt>
      <trkpt lat="48.95515" lon="2.90142">
        <ele>98</ele>
        <time>2021-05-04T12:35:47.648Z</time>
      </trkpt>
      <trkpt lat="48.95523" lon="2.90158">
        <ele>98</ele>
        <time>2021-05-04T12:35:52.640Z</time>
      </trkpt>
      <trkpt lat="48.9553" lon="2.90171">
        <ele>98</ele>
        <time>2021-05-04T12:35:56.641Z</time>
      </trkpt>
      <trkpt lat="48.95537" lon="2.90182">
        <ele>98</ele>
        <time>2021-05-04T12:36:00.643Z</time>
      </trkpt>
      <trkpt lat="48.95537" lon="2.90183">
        <ele>99</ele>
        <time>2021-05-04T12:36:15.640Z</time>
      </trkpt>
      <trkpt lat="48.95537" lon="2.90183">
        <ele>99</ele>
        <time>2021-05-04T12:37:22.642Z</time>
      </trkpt>
      <trkpt lat="48.9555" lon="2.90216">
        <ele>100</ele>
        <time>2021-05-04T12:37:23.643Z</time>
      </trkpt>
      <trkpt lat="48.95555" lon="2.90231">
        <ele>100</ele>
        <time>2021-05-04T12:37:26.641Z</time>
      </trkpt>
      <trkpt lat="48.95559" lon="2.90249">
        <ele>100</ele>
        <time>2021-05-04T12:37:29.645Z</time>
      </trkpt>
      <trkpt lat="48.95565" lon="2.90273">
        <ele>100</ele>
        <time>2021-05-04T12:37:33.643Z</time>
      </trkpt>
      <trkpt lat="48.95572" lon="2.90301">
        <ele>100</ele>
        <time>2021-05-04T12:37:37.701Z</time>
      </trkpt>
      <trkpt lat="48.95581" lon="2.90327">
        <ele>100</ele>
        <time>2021-05-04T12:37:41.641Z</time>
      </trkpt>
      <trkpt lat="48.95595" lon="2.90353">
        <ele>101</ele>
        <time>2021-05-04T12:37:45.642Z</time>
      </trkpt>
      <trkpt lat="48.95613" lon="2.90372">
        <ele>101</ele>
        <time>2021-05-04T12:37:49.641Z</time>
      </trkpt>
      <trkpt lat="48.95637" lon="2.90382">
        <ele>101</ele>
        <time>2021-05-04T12:37:54.645Z</time>
      </trkpt>
      <trkpt lat="48.95659" lon="2.90389">
        <ele>101</ele>
        <time>2021-05-04T12:37:59.658Z</time>
      </trkpt>
      <trkpt lat="48.95679" lon="2.90394">
        <ele>101</ele>
        <time>2021-05-04T12:38:04.642Z</time>
      </trkpt>
      <trkpt lat="48.95699" lon="2.90395">
        <ele>102</ele>
        <time>2021-05-04T12:38:08.646Z</time>
      </trkpt>
      <trkpt lat="48.95719" lon="2.90388">
        <ele>102</ele>
        <time>2021-05-04T12:38:12.642Z</time>
      </trkpt>
      <trkpt lat="48.95743" lon="2.90372">
        <ele>102</ele>
        <time>2021-05-04T12:38:17.638Z</time>
      </trkpt>
      <trkpt lat="48.95767" lon="2.9035">
        <ele>102</ele>
        <time>2021-05-04T12:38:22.638Z</time>
      </trkpt>
      <trkpt lat="48.95786" lon="2.90322">
        <ele>102</ele>
        <time>2021-05-04T12:38:27.649Z</time>
      </trkpt>
      <trkpt lat="48.95806" lon="2.90294">
        <ele>102</ele>
        <time>2021-05-04T12:38:32.640Z</time>
      </trkpt>
      <trkpt lat="48.9582" lon="2.90266">
        <ele>102</ele>
        <time>2021-05-04T12:38:36.644Z</time>
      </trkpt>
      <trkpt lat="48.95835" lon="2.90233">
        <ele>102</ele>
        <time>2021-05-04T12:38:41.637Z</time>
      </trkpt>
      <trkpt lat="48.95852" lon="2.90202">
        <ele>102</ele>
        <time>2021-05-04T12:38:46.641Z</time>
      </trkpt>
      <trkpt lat="48.95872" lon="2.90175">
        <ele>102</ele>
        <time>2021-05-04T12:38:51.640Z</time>
      </trkpt>
      <trkpt lat="48.95895" lon="2.90152">
        <ele>102</ele>
        <time>2021-05-04T12:38:56.648Z</time>
      </trkpt>
      <trkpt lat="48.95917" lon="2.90133">
        <ele>102</ele>
        <time>2021-05-04T12:39:01.675Z</time>
      </trkpt>
      <trkpt lat="48.95938" lon="2.90119">
        <ele>102</ele>
        <time>2021-05-04T12:39:05.640Z</time>
      </trkpt>
      <trkpt lat="48.95963" lon="2.90103">
        <ele>102</ele>
        <time>2021-05-04T12:39:10.642Z</time>
      </trkpt>
      <trkpt lat="48.95989" lon="2.90089">
        <ele>102</ele>
        <time>2021-05-04T12:39:15.654Z</time>
      </trkpt>
      <trkpt lat="48.96016" lon="2.90078">
        <ele>102</ele>
        <time>2021-05-04T12:39:20.640Z</time>
      </trkpt>
      <trkpt lat="48.96044" lon="2.90072">
        <ele>103</ele>
        <time>2021-05-04T12:39:25.640Z</time>
      </trkpt>
      <trkpt lat="48.96073" lon="2.90063">
        <ele>103</ele>
        <time>2021-05-04T12:39:30.653Z</time>
      </trkpt>
      <trkpt lat="48.96102" lon="2.9006">
        <ele>103</ele>
        <time>2021-05-04T12:39:35.640Z</time>
      </trkpt>
      <trkpt lat="48.9613" lon="2.90056">
        <ele>104</ele>
        <time>2021-05-04T12:39:40.643Z</time>
      </trkpt>
      <trkpt lat="48.96159" lon="2.90053">
        <ele>105</ele>
        <time>2021-05-04T12:39:45.678Z</time>
      </trkpt>
      <trkpt lat="48.96188" lon="2.90051">
        <ele>105</ele>
        <time>2021-05-04T12:39:50.645Z</time>
      </trkpt>
      <trkpt lat="48.96216" lon="2.90049">
        <ele>106</ele>
        <time>2021-05-04T12:39:55.648Z</time>
      </trkpt>
      <trkpt lat="48.96244" lon="2.90047">
        <ele>106</ele>
        <time>2021-05-04T12:40:00.638Z</time>
      </trkpt>
      <trkpt lat="48.96274" lon="2.90042">
        <ele>107</ele>
        <time>2021-05-04T12:40:05.639Z</time>
      </trkpt>
      <trkpt lat="48.963" lon="2.90041">
        <ele>107</ele>
        <time>2021-05-04T12:40:10.645Z</time>
      </trkpt>
      <trkpt lat="48.96326" lon="2.90032">
        <ele>107</ele>
        <time>2021-05-04T12:40:14.642Z</time>
      </trkpt>
      <trkpt lat="48.96354" lon="2.90025">
        <ele>107</ele>
        <time>2021-05-04T12:40:19.660Z</time>
      </trkpt>
      <trkpt lat="48.96382" lon="2.90014">
        <ele>107</ele>
        <time>2021-05-04T12:40:24.641Z</time>
      </trkpt>
      <trkpt lat="48.96408" lon="2.9">
        <ele>107</ele>
        <time>2021-05-04T12:40:29.644Z</time>
      </trkpt>
      <trkpt lat="48.96434" lon="2.89985">
        <ele>106</ele>
        <time>2021-05-04T12:40:34.642Z</time>
      </trkpt>
      <trkpt lat="48.96457" lon="2.89962">
        <ele>105</ele>
        <time>2021-05-04T12:40:39.643Z</time>
      </trkpt>
      <trkpt lat="48.96477" lon="2.8993">
        <ele>105</ele>
        <time>2021-05-04T12:40:44.647Z</time>
      </trkpt>
      <trkpt lat="48.96483" lon="2.89895">
        <ele>105</ele>
        <time>2021-05-04T12:40:51.650Z</time>
      </trkpt>
      <trkpt lat="48.96485" lon="2.8988">
        <ele>104</ele>
        <time>2021-05-04T12:40:58.643Z</time>
      </trkpt>
      <trkpt lat="48.96492" lon="2.89867">
        <ele>104</ele>
        <time>2021-05-04T12:41:02.643Z</time>
      </trkpt>
      <trkpt lat="48.96498" lon="2.89854">
        <ele>104</ele>
        <time>2021-05-04T12:41:05.641Z</time>
      </trkpt>
      <trkpt lat="48.96504" lon="2.89839">
        <ele>104</ele>
        <time>2021-05-04T12:41:08.643Z</time>
      </trkpt>
      <trkpt lat="48.96511" lon="2.89823">
        <ele>103</ele>
        <time>2021-05-04T12:41:11.646Z</time>
      </trkpt>
      <trkpt lat="48.9652" lon="2.89799">
        <ele>103</ele>
        <time>2021-05-04T12:41:15.642Z</time>
      </trkpt>
      <trkpt lat="48.96533" lon="2.89775">
        <ele>102</ele>
        <time>2021-05-04T12:41:19.643Z</time>
      </trkpt>
      <trkpt lat="48.96554" lon="2.89754">
        <ele>102</ele>
        <time>2021-05-04T12:41:24.639Z</time>
      </trkpt>
      <trkpt lat="48.96574" lon="2.89742">
        <ele>102</ele>
        <time>2021-05-04T12:41:28.661Z</time>
      </trkpt>
      <trkpt lat="48.96599" lon="2.89734">
        <ele>101</ele>
        <time>2021-05-04T12:41:33.645Z</time>
      </trkpt>
      <trkpt lat="48.96624" lon="2.89734">
        <ele>101</ele>
        <time>2021-05-04T12:41:38.641Z</time>
      </trkpt>
      <trkpt lat="48.9665" lon="2.89738">
        <ele>100</ele>
        <time>2021-05-04T12:41:43.642Z</time>
      </trkpt>
      <trkpt lat="48.96673" lon="2.89739">
        <ele>100</ele>
        <time>2021-05-04T12:41:48.642Z</time>
      </trkpt>
      <trkpt lat="48.96694" lon="2.8974">
        <ele>100</ele>
        <time>2021-05-04T12:41:53.643Z</time>
      </trkpt>
      <trkpt lat="48.96714" lon="2.89737">
        <ele>100</ele>
        <time>2021-05-04T12:41:57.638Z</time>
      </trkpt>
      <trkpt lat="48.96734" lon="2.89733">
        <ele>100</ele>
        <time>2021-05-04T12:42:01.644Z</time>
      </trkpt>
      <trkpt lat="48.96756" lon="2.89727">
        <ele>101</ele>
        <time>2021-05-04T12:42:05.639Z</time>
      </trkpt>
      <trkpt lat="48.96782" lon="2.89715">
        <ele>102</ele>
        <time>2021-05-04T12:42:10.647Z</time>
      </trkpt>
      <trkpt lat="48.96807" lon="2.89696">
        <ele>103</ele>
        <time>2021-05-04T12:42:15.643Z</time>
      </trkpt>
      <trkpt lat="48.96832" lon="2.89678">
        <ele>103</ele>
        <time>2021-05-04T12:42:20.643Z</time>
      </trkpt>
      <trkpt lat="48.96858" lon="2.89662">
        <ele>104</ele>
        <time>2021-05-04T12:42:25.639Z</time>
      </trkpt>
      <trkpt lat="48.96883" lon="2.89648">
        <ele>104</ele>
        <time>2021-05-04T12:42:30.639Z</time>
      </trkpt>
      <trkpt lat="48.96909" lon="2.89634">
        <ele>104</ele>
        <time>2021-05-04T12:42:35.646Z</time>
      </trkpt>
      <trkpt lat="48.96937" lon="2.89622">
        <ele>104</ele>
        <time>2021-05-04T12:42:40.651Z</time>
      </trkpt>
      <trkpt lat="48.96964" lon="2.8961">
        <ele>104</ele>
        <time>2021-05-04T12:42:45.639Z</time>
      </trkpt>
      <trkpt lat="48.96988" lon="2.89602">
        <ele>104</ele>
        <time>2021-05-04T12:42:49.647Z</time>
      </trkpt>
      <trkpt lat="48.97016" lon="2.89591">
        <ele>103</ele>
        <time>2021-05-04T12:42:54.644Z</time>
      </trkpt>
      <trkpt lat="48.97043" lon="2.89577">
        <ele>103</ele>
        <time>2021-05-04T12:42:59.640Z</time>
      </trkpt>
      <trkpt lat="48.9707" lon="2.89561">
        <ele>102</ele>
        <time>2021-05-04T12:43:04.639Z</time>
      </trkpt>
      <trkpt lat="48.97098" lon="2.89544">
        <ele>102</ele>
        <time>2021-05-04T12:43:09.673Z</time>
      </trkpt>
      <trkpt lat="48.97124" lon="2.89525">
        <ele>102</ele>
        <time>2021-05-04T12:43:14.642Z</time>
      </trkpt>
      <trkpt lat="48.9715" lon="2.8951">
        <ele>102</ele>
        <time>2021-05-04T12:43:19.643Z</time>
      </trkpt>
      <trkpt lat="48.97176" lon="2.89494">
        <ele>102</ele>
        <time>2021-05-04T12:43:24.659Z</time>
      </trkpt>
      <trkpt lat="48.97202" lon="2.89479">
        <ele>102</ele>
        <time>2021-05-04T12:43:29.653Z</time>
      </trkpt>
      <trkpt lat="48.97224" lon="2.89466">
        <ele>102</ele>
        <time>2021-05-04T12:43:34.673Z</time>
      </trkpt>
      <trkpt lat="48.97246" lon="2.89455">
        <ele>102</ele>
        <time>2021-05-04T12:43:39.665Z</time>
      </trkpt>
      <trkpt lat="48.97266" lon="2.89441">
        <ele>102</ele>
        <time>2021-05-04T12:43:44.656Z</time>
      </trkpt>
      <trkpt lat="48.97285" lon="2.89433">
        <ele>101</ele>
        <time>2021-05-04T12:43:49.655Z</time>
      </trkpt>
      <trkpt lat="48.973" lon="2.89428">
        <ele>101</ele>
        <time>2021-05-04T12:43:54.652Z</time>
      </trkpt>
      <trkpt lat="48.97313" lon="2.89421">
        <ele>100</ele>
        <time>2021-05-04T12:43:58.690Z</time>
      </trkpt>
      <trkpt lat="48.97323" lon="2.89423">
        <ele>96</ele>
        <time>2021-05-04T12:44:28.655Z</time>
      </trkpt>
      <trkpt lat="48.97333" lon="2.89419">
        <ele>97</ele>
        <time>2021-05-04T12:44:32.664Z</time>
      </trkpt>
      <trkpt lat="48.97344" lon="2.89415">
        <ele>97</ele>
        <time>2021-05-04T12:44:35.865Z</time>
      </trkpt>
      <trkpt lat="48.97356" lon="2.89411">
        <ele>97</ele>
        <time>2021-05-04T12:44:38.680Z</time>
      </trkpt>
      <trkpt lat="48.9737" lon="2.89408">
        <ele>98</ele>
        <time>2021-05-04T12:44:41.664Z</time>
      </trkpt>
      <trkpt lat="48.97389" lon="2.89402">
        <ele>99</ele>
        <time>2021-05-04T12:44:46.669Z</time>
      </trkpt>
      <trkpt lat="48.97408" lon="2.89395">
        <ele>100</ele>
        <time>2021-05-04T12:44:51.679Z</time>
      </trkpt>
      <trkpt lat="48.97426" lon="2.89391">
        <ele>101</ele>
        <time>2021-05-04T12:44:55.663Z</time>
      </trkpt>
      <trkpt lat="48.97447" lon="2.89383">
        <ele>102</ele>
        <time>2021-05-04T12:44:59.664Z</time>
      </trkpt>
      <trkpt lat="48.97471" lon="2.89379">
        <ele>104</ele>
        <time>2021-05-04T12:45:03.638Z</time>
      </trkpt>
      <trkpt lat="48.97496" lon="2.89364">
        <ele>105</ele>
        <time>2021-05-04T12:45:07.639Z</time>
      </trkpt>
      <trkpt lat="48.97523" lon="2.89339">
        <ele>107</ele>
        <time>2021-05-04T12:45:12.636Z</time>
      </trkpt>
      <trkpt lat="48.9755" lon="2.89324">
        <ele>108</ele>
        <time>2021-05-04T12:45:17.636Z</time>
      </trkpt>
      <trkpt lat="48.97577" lon="2.89305">
        <ele>109</ele>
        <time>2021-05-04T12:45:22.637Z</time>
      </trkpt>
      <trkpt lat="48.97605" lon="2.89285">
        <ele>109</ele>
        <time>2021-05-04T12:45:27.636Z</time>
      </trkpt>
      <trkpt lat="48.97634" lon="2.89263">
        <ele>110</ele>
        <time>2021-05-04T12:45:32.637Z</time>
      </trkpt>
      <trkpt lat="48.97665" lon="2.89236">
        <ele>110</ele>
        <time>2021-05-04T12:45:37.638Z</time>
      </trkpt>
      <trkpt lat="48.9769" lon="2.89211">
        <ele>110</ele>
        <time>2021-05-04T12:45:42.641Z</time>
      </trkpt>
      <trkpt lat="48.97717" lon="2.89185">
        <ele>110</ele>
        <time>2021-05-04T12:45:47.640Z</time>
      </trkpt>
      <trkpt lat="48.97744" lon="2.89159">
        <ele>109</ele>
        <time>2021-05-04T12:45:52.639Z</time>
      </trkpt>
      <trkpt lat="48.97765" lon="2.89139">
        <ele>109</ele>
        <time>2021-05-04T12:45:58.637Z</time>
      </trkpt>
      <trkpt lat="48.97781" lon="2.89112">
        <ele>109</ele>
        <time>2021-05-04T12:46:03.634Z</time>
      </trkpt>
      <trkpt lat="48.97797" lon="2.8909">
        <ele>108</ele>
        <time>2021-05-04T12:46:07.644Z</time>
      </trkpt>
      <trkpt lat="48.97811" lon="2.8906">
        <ele>108</ele>
        <time>2021-05-04T12:46:11.636Z</time>
      </trkpt>
      <trkpt lat="48.97824" lon="2.89029">
        <ele>107</ele>
        <time>2021-05-04T12:46:15.638Z</time>
      </trkpt>
      <trkpt lat="48.97843" lon="2.88991">
        <ele>106</ele>
        <time>2021-05-04T12:46:20.634Z</time>
      </trkpt>
      <trkpt lat="48.9786" lon="2.88951">
        <ele>106</ele>
        <time>2021-05-04T12:46:25.636Z</time>
      </trkpt>
      <trkpt lat="48.97878" lon="2.88912">
        <ele>105</ele>
        <time>2021-05-04T12:46:30.643Z</time>
      </trkpt>
      <trkpt lat="48.97893" lon="2.88868">
        <ele>104</ele>
        <time>2021-05-04T12:46:35.645Z</time>
      </trkpt>
      <trkpt lat="48.97905" lon="2.88825">
        <ele>103</ele>
        <time>2021-05-04T12:46:40.640Z</time>
      </trkpt>
      <trkpt lat="48.97916" lon="2.88782">
        <ele>103</ele>
        <time>2021-05-04T12:46:45.638Z</time>
      </trkpt>
      <trkpt lat="48.97927" lon="2.88737">
        <ele>102</ele>
        <time>2021-05-04T12:46:50.638Z</time>
      </trkpt>
      <trkpt lat="48.97933" lon="2.8869">
        <ele>102</ele>
        <time>2021-05-04T12:46:55.637Z</time>
      </trkpt>
      <trkpt lat="48.97938" lon="2.88644">
        <ele>102</ele>
        <time>2021-05-04T12:47:00.633Z</time>
      </trkpt>
      <trkpt lat="48.97943" lon="2.88595">
        <ele>102</ele>
        <time>2021-05-04T12:47:05.645Z</time>
      </trkpt>
      <trkpt lat="48.9794" lon="2.8855">
        <ele>102</ele>
        <time>2021-05-04T12:47:10.640Z</time>
      </trkpt>
      <trkpt lat="48.97936" lon="2.88506">
        <ele>102</ele>
        <time>2021-05-04T12:47:15.644Z</time>
      </trkpt>
      <trkpt lat="48.97931" lon="2.88461">
        <ele>102</ele>
        <time>2021-05-04T12:47:20.639Z</time>
      </trkpt>
      <trkpt lat="48.97922" lon="2.8842">
        <ele>102</ele>
        <time>2021-05-04T12:47:25.636Z</time>
      </trkpt>
      <trkpt lat="48.97912" lon="2.88385">
        <ele>102</ele>
        <time>2021-05-04T12:47:30.635Z</time>
      </trkpt>
      <trkpt lat="48.97903" lon="2.88351">
        <ele>102</ele>
        <time>2021-05-04T12:47:34.636Z</time>
      </trkpt>
      <trkpt lat="48.97895" lon="2.88314">
        <ele>102</ele>
        <time>2021-05-04T12:47:38.640Z</time>
      </trkpt>
      <trkpt lat="48.97883" lon="2.88274">
        <ele>102</ele>
        <time>2021-05-04T12:47:43.639Z</time>
      </trkpt>
      <trkpt lat="48.9787" lon="2.88236">
        <ele>102</ele>
        <time>2021-05-04T12:47:48.638Z</time>
      </trkpt>
      <trkpt lat="48.97857" lon="2.88193">
        <ele>102</ele>
        <time>2021-05-04T12:47:53.636Z</time>
      </trkpt>
      <trkpt lat="48.97844" lon="2.88155">
        <ele>102</ele>
        <time>2021-05-04T12:47:58.633Z</time>
      </trkpt>
      <trkpt lat="48.9783" lon="2.88115">
        <ele>102</ele>
        <time>2021-05-04T12:48:03.637Z</time>
      </trkpt>
      <trkpt lat="48.97813" lon="2.88074">
        <ele>102</ele>
        <time>2021-05-04T12:48:08.636Z</time>
      </trkpt>
      <trkpt lat="48.97797" lon="2.88035">
        <ele>102</ele>
        <time>2021-05-04T12:48:13.638Z</time>
      </trkpt>
      <trkpt lat="48.97781" lon="2.87997">
        <ele>101</ele>
        <time>2021-05-04T12:48:18.638Z</time>
      </trkpt>
      <trkpt lat="48.97765" lon="2.8796">
        <ele>101</ele>
        <time>2021-05-04T12:48:23.635Z</time>
      </trkpt>
      <trkpt lat="48.97746" lon="2.87924">
        <ele>100</ele>
        <time>2021-05-04T12:48:28.637Z</time>
      </trkpt>
      <trkpt lat="48.97725" lon="2.8789">
        <ele>99</ele>
        <time>2021-05-04T12:48:33.636Z</time>
      </trkpt>
      <trkpt lat="48.97708" lon="2.87856">
        <ele>98</ele>
        <time>2021-05-04T12:48:38.638Z</time>
      </trkpt>
      <trkpt lat="48.97691" lon="2.87823">
        <ele>97</ele>
        <time>2021-05-04T12:48:43.638Z</time>
      </trkpt>
      <trkpt lat="48.97673" lon="2.87789">
        <ele>96</ele>
        <time>2021-05-04T12:48:48.636Z</time>
      </trkpt>
      <trkpt lat="48.97656" lon="2.8776">
        <ele>96</ele>
        <time>2021-05-04T12:48:54.638Z</time>
      </trkpt>
      <trkpt lat="48.97644" lon="2.8774">
        <ele>95</ele>
        <time>2021-05-04T12:48:58.638Z</time>
      </trkpt>
      <trkpt lat="48.97632" lon="2.87718">
        <ele>95</ele>
        <time>2021-05-04T12:49:02.642Z</time>
      </trkpt>
      <trkpt lat="48.97618" lon="2.87694">
        <ele>95</ele>
        <time>2021-05-04T12:49:06.636Z</time>
      </trkpt>
      <trkpt lat="48.97602" lon="2.87667">
        <ele>95</ele>
        <time>2021-05-04T12:49:10.634Z</time>
      </trkpt>
      <trkpt lat="48.97586" lon="2.87639">
        <ele>95</ele>
        <time>2021-05-04T12:49:15.638Z</time>
      </trkpt>
      <trkpt lat="48.97571" lon="2.87611">
        <ele>95</ele>
        <time>2021-05-04T12:49:19.638Z</time>
      </trkpt>
      <trkpt lat="48.97553" lon="2.87581">
        <ele>94</ele>
        <time>2021-05-04T12:49:23.638Z</time>
      </trkpt>
      <trkpt lat="48.97537" lon="2.87546">
        <ele>94</ele>
        <time>2021-05-04T12:49:28.638Z</time>
      </trkpt>
      <trkpt lat="48.97517" lon="2.87516">
        <ele>94</ele>
        <time>2021-05-04T12:49:33.635Z</time>
      </trkpt>
      <trkpt lat="48.975" lon="2.87489">
        <ele>94</ele>
        <time>2021-05-04T12:49:37.635Z</time>
      </trkpt>
      <trkpt lat="48.97482" lon="2.87456">
        <ele>94</ele>
        <time>2021-05-04T12:49:42.640Z</time>
      </trkpt>
      <trkpt lat="48.97464" lon="2.87424">
        <ele>94</ele>
        <time>2021-05-04T12:49:47.637Z</time>
      </trkpt>
      <trkpt lat="48.97445" lon="2.87391">
        <ele>94</ele>
        <time>2021-05-04T12:49:52.636Z</time>
      </trkpt>
      <trkpt lat="48.97426" lon="2.87362">
        <ele>94</ele>
        <time>2021-05-04T12:49:57.635Z</time>
      </trkpt>
      <trkpt lat="48.97404" lon="2.8734">
        <ele>95</ele>
        <time>2021-05-04T12:50:02.634Z</time>
      </trkpt>
      <trkpt lat="48.97383" lon="2.87326">
        <ele>95</ele>
        <time>2021-05-04T12:50:07.638Z</time>
      </trkpt>
      <trkpt lat="48.97368" lon="2.8732">
        <ele>96</ele>
        <time>2021-05-04T12:50:14.639Z</time>
      </trkpt>
      <trkpt lat="48.97359" lon="2.87308">
        <ele>97</ele>
        <time>2021-05-04T12:50:18.636Z</time>
      </trkpt>
      <trkpt lat="48.97352" lon="2.87297">
        <ele>97</ele>
        <time>2021-05-04T12:50:21.638Z</time>
      </trkpt>
      <trkpt lat="48.97344" lon="2.87281">
        <ele>98</ele>
        <time>2021-05-04T12:50:24.638Z</time>
      </trkpt>
      <trkpt lat="48.97333" lon="2.8726">
        <ele>98</ele>
        <time>2021-05-04T12:50:28.636Z</time>
      </trkpt>
      <trkpt lat="48.9732" lon="2.87241">
        <ele>98</ele>
        <time>2021-05-04T12:50:32.640Z</time>
      </trkpt>
      <trkpt lat="48.97304" lon="2.87222">
        <ele>98</ele>
        <time>2021-05-04T12:50:36.635Z</time>
      </trkpt>
      <trkpt lat="48.97286" lon="2.87206">
        <ele>98</ele>
        <time>2021-05-04T12:50:40.635Z</time>
      </trkpt>
      <trkpt lat="48.97264" lon="2.87193">
        <ele>98</ele>
        <time>2021-05-04T12:50:45.632Z</time>
      </trkpt>
      <trkpt lat="48.97243" lon="2.87185">
        <ele>98</ele>
        <time>2021-05-04T12:50:49.638Z</time>
      </trkpt>
      <trkpt lat="48.97221" lon="2.8718">
        <ele>99</ele>
        <time>2021-05-04T12:50:53.635Z</time>
      </trkpt>
      <trkpt lat="48.97192" lon="2.87173">
        <ele>98</ele>
        <time>2021-05-04T12:50:58.636Z</time>
      </trkpt>
      <trkpt lat="48.97165" lon="2.87162">
        <ele>98</ele>
        <time>2021-05-04T12:51:03.663Z</time>
      </trkpt>
      <trkpt lat="48.97139" lon="2.87154">
        <ele>98</ele>
        <time>2021-05-04T12:51:08.634Z</time>
      </trkpt>
      <trkpt lat="48.97112" lon="2.87148">
        <ele>99</ele>
        <time>2021-05-04T12:51:13.639Z</time>
      </trkpt>
      <trkpt lat="48.97085" lon="2.87142">
        <ele>99</ele>
        <time>2021-05-04T12:51:18.635Z</time>
      </trkpt>
      <trkpt lat="48.97061" lon="2.87138">
        <ele>99</ele>
        <time>2021-05-04T12:51:22.633Z</time>
      </trkpt>
      <trkpt lat="48.97035" lon="2.87134">
        <ele>100</ele>
        <time>2021-05-04T12:51:27.634Z</time>
      </trkpt>
      <trkpt lat="48.97007" lon="2.8713">
        <ele>101</ele>
        <time>2021-05-04T12:51:32.633Z</time>
      </trkpt>
      <trkpt lat="48.96984" lon="2.87125">
        <ele>101</ele>
        <time>2021-05-04T12:51:37.640Z</time>
      </trkpt>
      <trkpt lat="48.96957" lon="2.87121">
        <ele>101</ele>
        <time>2021-05-04T12:51:42.632Z</time>
      </trkpt>
      <trkpt lat="48.96932" lon="2.87117">
        <ele>101</ele>
        <time>2021-05-04T12:51:46.635Z</time>
      </trkpt>
      <trkpt lat="48.96903" lon="2.87109">
        <ele>101</ele>
        <time>2021-05-04T12:51:51.636Z</time>
      </trkpt>
      <trkpt lat="48.96875" lon="2.871">
        <ele>101</ele>
        <time>2021-05-04T12:51:56.636Z</time>
      </trkpt>
      <trkpt lat="48.96847" lon="2.87093">
        <ele>102</ele>
        <time>2021-05-04T12:52:01.635Z</time>
      </trkpt>
      <trkpt lat="48.96822" lon="2.87084">
        <ele>102</ele>
        <time>2021-05-04T12:52:05.635Z</time>
      </trkpt>
      <trkpt lat="48.96792" lon="2.87076">
        <ele>103</ele>
        <time>2021-05-04T12:52:10.637Z</time>
      </trkpt>
      <trkpt lat="48.96765" lon="2.87068">
        <ele>103</ele>
        <time>2021-05-04T12:52:15.632Z</time>
      </trkpt>
      <trkpt lat="48.96738" lon="2.87062">
        <ele>103</ele>
        <time>2021-05-04T12:52:20.631Z</time>
      </trkpt>
      <trkpt lat="48.9671" lon="2.87055">
        <ele>103</ele>
        <time>2021-05-04T12:52:25.644Z</time>
      </trkpt>
      <trkpt lat="48.96687" lon="2.87051">
        <ele>103</ele>
        <time>2021-05-04T12:52:29.636Z</time>
      </trkpt>
      <trkpt lat="48.96659" lon="2.87047">
        <ele>103</ele>
        <time>2021-05-04T12:52:34.636Z</time>
      </trkpt>
      <trkpt lat="48.96632" lon="2.87042">
        <ele>103</ele>
        <time>2021-05-04T12:52:39.637Z</time>
      </trkpt>
      <trkpt lat="48.96607" lon="2.87037">
        <ele>102</ele>
        <time>2021-05-04T12:52:44.637Z</time>
      </trkpt>
      <trkpt lat="48.96585" lon="2.87037">
        <ele>102</ele>
        <time>2021-05-04T12:52:49.638Z</time>
      </trkpt>
      <trkpt lat="48.96565" lon="2.87038">
        <ele>102</ele>
        <time>2021-05-04T12:52:53.636Z</time>
      </trkpt>
      <trkpt lat="48.96543" lon="2.87035">
        <ele>102</ele>
        <time>2021-05-04T12:52:57.633Z</time>
      </trkpt>
      <trkpt lat="48.96519" lon="2.87034">
        <ele>102</ele>
        <time>2021-05-04T12:53:01.637Z</time>
      </trkpt>
      <trkpt lat="48.96491" lon="2.87033">
        <ele>102</ele>
        <time>2021-05-04T12:53:06.637Z</time>
      </trkpt>
      <trkpt lat="48.96463" lon="2.87031">
        <ele>102</ele>
        <time>2021-05-04T12:53:11.637Z</time>
      </trkpt>
      <trkpt lat="48.96435" lon="2.87033">
        <ele>102</ele>
        <time>2021-05-04T12:53:16.633Z</time>
      </trkpt>
      <trkpt lat="48.96408" lon="2.87034">
        <ele>102</ele>
        <time>2021-05-04T12:53:21.635Z</time>
      </trkpt>
      <trkpt lat="48.96385" lon="2.87027">
        <ele>103</ele>
        <time>2021-05-04T12:53:27.638Z</time>
      </trkpt>
      <trkpt lat="48.96365" lon="2.87039">
        <ele>103</ele>
        <time>2021-05-04T12:53:31.635Z</time>
      </trkpt>
      <trkpt lat="48.96344" lon="2.87043">
        <ele>102</ele>
        <time>2021-05-04T12:53:35.633Z</time>
      </trkpt>
      <trkpt lat="48.96319" lon="2.87046">
        <ele>102</ele>
        <time>2021-05-04T12:53:40.634Z</time>
      </trkpt>
      <trkpt lat="48.96297" lon="2.8705">
        <ele>101</ele>
        <time>2021-05-04T12:53:44.640Z</time>
      </trkpt>
      <trkpt lat="48.96271" lon="2.87055">
        <ele>101</ele>
        <time>2021-05-04T12:53:49.635Z</time>
      </trkpt>
      <trkpt lat="48.96245" lon="2.8706">
        <ele>102</ele>
        <time>2021-05-04T12:53:54.636Z</time>
      </trkpt>
      <trkpt lat="48.96223" lon="2.87065">
        <ele>102</ele>
        <time>2021-05-04T12:53:58.634Z</time>
      </trkpt>
      <trkpt lat="48.96198" lon="2.87072">
        <ele>102</ele>
        <time>2021-05-04T12:54:03.635Z</time>
      </trkpt>
      <trkpt lat="48.96177" lon="2.87079">
        <ele>102</ele>
        <time>2021-05-04T12:54:08.634Z</time>
      </trkpt>
      <trkpt lat="48.96158" lon="2.87083">
        <ele>102</ele>
        <time>2021-05-04T12:54:13.639Z</time>
      </trkpt>
      <trkpt lat="48.96141" lon="2.8709">
        <ele>102</ele>
        <time>2021-05-04T12:54:17.638Z</time>
      </trkpt>
      <trkpt lat="48.96122" lon="2.87096">
        <ele>103</ele>
        <time>2021-05-04T12:54:21.931Z</time>
      </trkpt>
      <trkpt lat="48.96102" lon="2.87104">
        <ele>103</ele>
        <time>2021-05-04T12:54:25.638Z</time>
      </trkpt>
      <trkpt lat="48.96082" lon="2.87114">
        <ele>103</ele>
        <time>2021-05-04T12:54:29.636Z</time>
      </trkpt>
      <trkpt lat="48.9606" lon="2.87127">
        <ele>103</ele>
        <time>2021-05-04T12:54:34.643Z</time>
      </trkpt>
      <trkpt lat="48.96039" lon="2.87138">
        <ele>103</ele>
        <time>2021-05-04T12:54:40.631Z</time>
      </trkpt>
      <trkpt lat="48.96022" lon="2.87152">
        <ele>102</ele>
        <time>2021-05-04T12:54:44.637Z</time>
      </trkpt>
      <trkpt lat="48.96003" lon="2.87165">
        <ele>102</ele>
        <time>2021-05-04T12:54:48.635Z</time>
      </trkpt>
      <trkpt lat="48.95983" lon="2.87176">
        <ele>102</ele>
        <time>2021-05-04T12:54:52.642Z</time>
      </trkpt>
      <trkpt lat="48.95962" lon="2.87189">
        <ele>102</ele>
        <time>2021-05-04T12:54:56.638Z</time>
      </trkpt>
      <trkpt lat="48.95935" lon="2.87201">
        <ele>102</ele>
        <time>2021-05-04T12:55:01.635Z</time>
      </trkpt>
      <trkpt lat="48.95907" lon="2.8721">
        <ele>102</ele>
        <time>2021-05-04T12:55:06.641Z</time>
      </trkpt>
      <trkpt lat="48.95883" lon="2.87216">
        <ele>102</ele>
        <time>2021-05-04T12:55:10.636Z</time>
      </trkpt>
      <trkpt lat="48.95852" lon="2.8722">
        <ele>102</ele>
        <time>2021-05-04T12:55:15.636Z</time>
      </trkpt>
      <trkpt lat="48.95823" lon="2.87222">
        <ele>103</ele>
        <time>2021-05-04T12:55:20.637Z</time>
      </trkpt>
      <trkpt lat="48.95793" lon="2.87224">
        <ele>103</ele>
        <time>2021-05-04T12:55:25.640Z</time>
      </trkpt>
      <trkpt lat="48.95765" lon="2.87224">
        <ele>102</ele>
        <time>2021-05-04T12:55:30.639Z</time>
      </trkpt>
      <trkpt lat="48.95739" lon="2.87219">
        <ele>102</ele>
        <time>2021-05-04T12:55:35.632Z</time>
      </trkpt>
      <trkpt lat="48.95712" lon="2.87213">
        <ele>102</ele>
        <time>2021-05-04T12:55:40.633Z</time>
      </trkpt>
      <trkpt lat="48.95685" lon="2.87205">
        <ele>102</ele>
        <time>2021-05-04T12:55:45.637Z</time>
      </trkpt>
      <trkpt lat="48.9566" lon="2.87199">
        <ele>102</ele>
        <time>2021-05-04T12:55:50.639Z</time>
      </trkpt>
      <trkpt lat="48.95635" lon="2.87192">
        <ele>102</ele>
        <time>2021-05-04T12:55:55.638Z</time>
      </trkpt>
      <trkpt lat="48.9561" lon="2.87192">
        <ele>102</ele>
        <time>2021-05-04T12:56:00.632Z</time>
      </trkpt>
      <trkpt lat="48.95585" lon="2.87192">
        <ele>102</ele>
        <time>2021-05-04T12:56:05.632Z</time>
      </trkpt>
      <trkpt lat="48.95561" lon="2.87184">
        <ele>102</ele>
        <time>2021-05-04T12:56:10.632Z</time>
      </trkpt>
      <trkpt lat="48.95539" lon="2.87176">
        <ele>102</ele>
        <time>2021-05-04T12:56:15.651Z</time>
      </trkpt>
      <trkpt lat="48.95519" lon="2.87162">
        <ele>103</ele>
        <time>2021-05-04T12:56:20.637Z</time>
      </trkpt>
      <trkpt lat="48.95501" lon="2.87148">
        <ele>103</ele>
        <time>2021-05-04T12:56:26.638Z</time>
      </trkpt>
      <trkpt lat="48.95478" lon="2.8715">
        <ele>103</ele>
        <time>2021-05-04T12:56:30.636Z</time>
      </trkpt>
      <trkpt lat="48.95456" lon="2.87145">
        <ele>103</ele>
        <time>2021-05-04T12:56:34.634Z</time>
      </trkpt>
      <trkpt lat="48.95432" lon="2.87154">
        <ele>103</ele>
        <time>2021-05-04T12:56:39.634Z</time>
      </trkpt>
      <trkpt lat="48.95406" lon="2.87152">
        <ele>103</ele>
        <time>2021-05-04T12:56:44.638Z</time>
      </trkpt>
      <trkpt lat="48.9538" lon="2.87139">
        <ele>103</ele>
        <time>2021-05-04T12:56:49.640Z</time>
      </trkpt>
      <trkpt lat="48.95354" lon="2.87129">
        <ele>102</ele>
        <time>2021-05-04T12:56:54.636Z</time>
      </trkpt>
      <trkpt lat="48.95327" lon="2.87121">
        <ele>102</ele>
        <time>2021-05-04T12:56:59.636Z</time>
      </trkpt>
      <trkpt lat="48.95302" lon="2.87106">
        <ele>101</ele>
        <time>2021-05-04T12:57:04.638Z</time>
      </trkpt>
      <trkpt lat="48.95277" lon="2.87096">
        <ele>101</ele>
        <time>2021-05-04T12:57:09.640Z</time>
      </trkpt>
      <trkpt lat="48.95251" lon="2.87089">
        <ele>101</ele>
        <time>2021-05-04T12:57:14.640Z</time>
      </trkpt>
      <trkpt lat="48.95225" lon="2.87081">
        <ele>101</ele>
        <time>2021-05-04T12:57:19.639Z</time>
      </trkpt>
      <trkpt lat="48.95204" lon="2.87075">
        <ele>101</ele>
        <time>2021-05-04T12:57:23.638Z</time>
      </trkpt>
      <trkpt lat="48.95177" lon="2.87064">
        <ele>101</ele>
        <time>2021-05-04T12:57:28.640Z</time>
      </trkpt>
      <trkpt lat="48.95152" lon="2.87048">
        <ele>101</ele>
        <time>2021-05-04T12:57:33.638Z</time>
      </trkpt>
      <trkpt lat="48.95129" lon="2.8703">
        <ele>101</ele>
        <time>2021-05-04T12:57:38.635Z</time>
      </trkpt>
      <trkpt lat="48.95107" lon="2.8701">
        <ele>101</ele>
        <time>2021-05-04T12:57:43.631Z</time>
      </trkpt>
      <trkpt lat="48.95089" lon="2.8699">
        <ele>101</ele>
        <time>2021-05-04T12:57:47.632Z</time>
      </trkpt>
      <trkpt lat="48.95069" lon="2.86963">
        <ele>101</ele>
        <time>2021-05-04T12:57:52.643Z</time>
      </trkpt>
      <trkpt lat="48.95053" lon="2.86936">
        <ele>101</ele>
        <time>2021-05-04T12:57:57.633Z</time>
      </trkpt>
      <trkpt lat="48.9504" lon="2.8691">
        <ele>101</ele>
        <time>2021-05-04T12:58:02.634Z</time>
      </trkpt>
      <trkpt lat="48.9503" lon="2.86887">
        <ele>101</ele>
        <time>2021-05-04T12:58:06.637Z</time>
      </trkpt>
      <trkpt lat="48.95018" lon="2.86861">
        <ele>101</ele>
        <time>2021-05-04T12:58:11.635Z</time>
      </trkpt>
      <trkpt lat="48.95006" lon="2.86839">
        <ele>101</ele>
        <time>2021-05-04T12:58:15.635Z</time>
      </trkpt>
      <trkpt lat="48.94992" lon="2.8682">
        <ele>101</ele>
        <time>2021-05-04T12:58:19.634Z</time>
      </trkpt>
      <trkpt lat="48.94975" lon="2.86797">
        <ele>101</ele>
        <time>2021-05-04T12:58:24.637Z</time>
      </trkpt>
      <trkpt lat="48.94956" lon="2.86775">
        <ele>101</ele>
        <time>2021-05-04T12:58:29.638Z</time>
      </trkpt>
      <trkpt lat="48.9494" lon="2.86755">
        <ele>101</ele>
        <time>2021-05-04T12:58:34.636Z</time>
      </trkpt>
      <trkpt lat="48.94925" lon="2.86738">
        <ele>101</ele>
        <time>2021-05-04T12:58:40.636Z</time>
      </trkpt>
      <trkpt lat="48.94922" lon="2.86729">
        <ele>101</ele>
        <time>2021-05-04T12:58:57.635Z</time>
      </trkpt>
      <trkpt lat="48.94922" lon="2.86729">
        <ele>101</ele>
        <time>2021-05-04T12:59:39.636Z</time>
      </trkpt>
      <trkpt lat="48.949" lon="2.86711">
        <ele>101</ele>
        <time>2021-05-04T12:59:40.637Z</time>
      </trkpt>
      <trkpt lat="48.94891" lon="2.867">
        <ele>101</ele>
        <time>2021-05-04T12:59:43.635Z</time>
      </trkpt>
      <trkpt lat="48.94881" lon="2.86689">
        <ele>101</ele>
        <time>2021-05-04T12:59:46.636Z</time>
      </trkpt>
      <trkpt lat="48.94868" lon="2.86676">
        <ele>101</ele>
        <time>2021-05-04T12:59:50.644Z</time>
      </trkpt>
      <trkpt lat="48.94853" lon="2.86663">
        <ele>100</ele>
        <time>2021-05-04T12:59:54.634Z</time>
      </trkpt>
      <trkpt lat="48.94834" lon="2.8665">
        <ele>100</ele>
        <time>2021-05-04T12:59:59.655Z</time>
      </trkpt>
      <trkpt lat="48.94814" lon="2.86641">
        <ele>100</ele>
        <time>2021-05-04T13:00:04.649Z</time>
      </trkpt>
      <trkpt lat="48.94795" lon="2.86635">
        <ele>100</ele>
        <time>2021-05-04T13:00:08.634Z</time>
      </trkpt>
      <trkpt lat="48.94776" lon="2.86626">
        <ele>99</ele>
        <time>2021-05-04T13:00:12.634Z</time>
      </trkpt>
      <trkpt lat="48.94755" lon="2.86611">
        <ele>99</ele>
        <time>2021-05-04T13:00:17.635Z</time>
      </trkpt>
      <trkpt lat="48.94737" lon="2.86597">
        <ele>99</ele>
        <time>2021-05-04T13:00:21.631Z</time>
      </trkpt>
      <trkpt lat="48.94714" lon="2.86579">
        <ele>99</ele>
        <time>2021-05-04T13:00:26.635Z</time>
      </trkpt>
      <trkpt lat="48.94693" lon="2.8656">
        <ele>99</ele>
        <time>2021-05-04T13:00:31.635Z</time>
      </trkpt>
      <trkpt lat="48.94672" lon="2.86541">
        <ele>99</ele>
        <time>2021-05-04T13:00:36.634Z</time>
      </trkpt>
      <trkpt lat="48.94654" lon="2.86516">
        <ele>99</ele>
        <time>2021-05-04T13:00:41.637Z</time>
      </trkpt>
      <trkpt lat="48.94635" lon="2.86493">
        <ele>99</ele>
        <time>2021-05-04T13:00:46.637Z</time>
      </trkpt>
      <trkpt lat="48.94616" lon="2.86469">
        <ele>99</ele>
        <time>2021-05-04T13:00:51.641Z</time>
      </trkpt>
      <trkpt lat="48.94598" lon="2.86444">
        <ele>100</ele>
        <time>2021-05-04T13:00:56.638Z</time>
      </trkpt>
      <trkpt lat="48.94582" lon="2.86419">
        <ele>100</ele>
        <time>2021-05-04T13:01:01.637Z</time>
      </trkpt>
      <trkpt lat="48.94567" lon="2.86398">
        <ele>101</ele>
        <time>2021-05-04T13:01:05.636Z</time>
      </trkpt>
      <trkpt lat="48.94552" lon="2.86376">
        <ele>101</ele>
        <time>2021-05-04T13:01:09.642Z</time>
      </trkpt>
      <trkpt lat="48.94535" lon="2.86347">
        <ele>102</ele>
        <time>2021-05-04T13:01:14.638Z</time>
      </trkpt>
      <trkpt lat="48.94521" lon="2.86323">
        <ele>102</ele>
        <time>2021-05-04T13:01:18.638Z</time>
      </trkpt>
      <trkpt lat="48.94506" lon="2.86293">
        <ele>102</ele>
        <time>2021-05-04T13:01:23.636Z</time>
      </trkpt>
      <trkpt lat="48.94491" lon="2.86262">
        <ele>102</ele>
        <time>2021-05-04T13:01:28.637Z</time>
      </trkpt>
      <trkpt lat="48.94476" lon="2.86237">
        <ele>102</ele>
        <time>2021-05-04T13:01:32.636Z</time>
      </trkpt>
      <trkpt lat="48.94462" lon="2.86205">
        <ele>102</ele>
        <time>2021-05-04T13:01:37.635Z</time>
      </trkpt>
      <trkpt lat="48.94444" lon="2.86173">
        <ele>102</ele>
        <time>2021-05-04T13:01:42.637Z</time>
      </trkpt>
      <trkpt lat="48.94429" lon="2.86141">
        <ele>101</ele>
        <time>2021-05-04T13:01:47.635Z</time>
      </trkpt>
      <trkpt lat="48.94413" lon="2.8611">
        <ele>100</ele>
        <time>2021-05-04T13:01:52.638Z</time>
      </trkpt>
      <trkpt lat="48.944" lon="2.86079">
        <ele>100</ele>
        <time>2021-05-04T13:01:57.635Z</time>
      </trkpt>
      <trkpt lat="48.94386" lon="2.86047">
        <ele>100</ele>
        <time>2021-05-04T13:02:02.636Z</time>
      </trkpt>
      <trkpt lat="48.94372" lon="2.86024">
        <ele>100</ele>
        <time>2021-05-04T13:02:06.638Z</time>
      </trkpt>
      <trkpt lat="48.94357" lon="2.85992">
        <ele>100</ele>
        <time>2021-05-04T13:02:11.631Z</time>
      </trkpt>
      <trkpt lat="48.94343" lon="2.85962">
        <ele>100</ele>
        <time>2021-05-04T13:02:16.635Z</time>
      </trkpt>
      <trkpt lat="48.94328" lon="2.85932">
        <ele>100</ele>
        <time>2021-05-04T13:02:21.635Z</time>
      </trkpt>
      <trkpt lat="48.94312" lon="2.85903">
        <ele>99</ele>
        <time>2021-05-04T13:02:26.632Z</time>
      </trkpt>
      <trkpt lat="48.94301" lon="2.85877">
        <ele>99</ele>
        <time>2021-05-04T13:02:30.640Z</time>
      </trkpt>
      <trkpt lat="48.94285" lon="2.85845">
        <ele>99</ele>
        <time>2021-05-04T13:02:35.634Z</time>
      </trkpt>
      <trkpt lat="48.94269" lon="2.85813">
        <ele>99</ele>
        <time>2021-05-04T13:02:40.637Z</time>
      </trkpt>
      <trkpt lat="48.94252" lon="2.85784">
        <ele>99</ele>
        <time>2021-05-04T13:02:45.636Z</time>
      </trkpt>
      <trkpt lat="48.94233" lon="2.85761">
        <ele>99</ele>
        <time>2021-05-04T13:02:50.636Z</time>
      </trkpt>
      <trkpt lat="48.94215" lon="2.85746">
        <ele>99</ele>
        <time>2021-05-04T13:02:54.635Z</time>
      </trkpt>
      <trkpt lat="48.94191" lon="2.85733">
        <ele>99</ele>
        <time>2021-05-04T13:02:59.635Z</time>
      </trkpt>
      <trkpt lat="48.94168" lon="2.85728">
        <ele>99</ele>
        <time>2021-05-04T13:03:04.635Z</time>
      </trkpt>
      <trkpt lat="48.94143" lon="2.85733">
        <ele>99</ele>
        <time>2021-05-04T13:03:09.641Z</time>
      </trkpt>
      <trkpt lat="48.9412" lon="2.85745">
        <ele>100</ele>
        <time>2021-05-04T13:03:14.634Z</time>
      </trkpt>
      <trkpt lat="48.94099" lon="2.8576">
        <ele>100</ele>
        <time>2021-05-04T13:03:19.636Z</time>
      </trkpt>
      <trkpt lat="48.94084" lon="2.85776">
        <ele>100</ele>
        <time>2021-05-04T13:03:24.215Z</time>
      </trkpt>
      <trkpt lat="48.94067" lon="2.85793">
        <ele>100</ele>
        <time>2021-05-04T13:03:27.634Z</time>
      </trkpt>
      <trkpt lat="48.94047" lon="2.85811">
        <ele>99</ele>
        <time>2021-05-04T13:03:32.638Z</time>
      </trkpt>
      <trkpt lat="48.94026" lon="2.85823">
        <ele>99</ele>
        <time>2021-05-04T13:03:37.634Z</time>
      </trkpt>
      <trkpt lat="48.94003" lon="2.85826">
        <ele>99</ele>
        <time>2021-05-04T13:03:42.638Z</time>
      </trkpt>
      <trkpt lat="48.93979" lon="2.85821">
        <ele>99</ele>
        <time>2021-05-04T13:03:47.636Z</time>
      </trkpt>
      <trkpt lat="48.9396" lon="2.85819">
        <ele>100</ele>
        <time>2021-05-04T13:03:52.635Z</time>
      </trkpt>
      <trkpt lat="48.93944" lon="2.85815">
        <ele>100</ele>
        <time>2021-05-04T13:03:58.636Z</time>
      </trkpt>
      <trkpt lat="48.93935" lon="2.8581">
        <ele>102</ele>
        <time>2021-05-04T13:04:14.639Z</time>
      </trkpt>
      <trkpt lat="48.93925" lon="2.85802">
        <ele>102</ele>
        <time>2021-05-04T13:04:20.634Z</time>
      </trkpt>
      <trkpt lat="48.93918" lon="2.85791">
        <ele>102</ele>
        <time>2021-05-04T13:04:23.634Z</time>
      </trkpt>
      <trkpt lat="48.93907" lon="2.85779">
        <ele>102</ele>
        <time>2021-05-04T13:04:26.635Z</time>
      </trkpt>
      <trkpt lat="48.93896" lon="2.85768">
        <ele>102</ele>
        <time>2021-05-04T13:04:29.640Z</time>
      </trkpt>
      <trkpt lat="48.93881" lon="2.85751">
        <ele>102</ele>
        <time>2021-05-04T13:04:34.635Z</time>
      </trkpt>
      <trkpt lat="48.93865" lon="2.85736">
        <ele>102</ele>
        <time>2021-05-04T13:04:39.640Z</time>
      </trkpt>
      <trkpt lat="48.9385" lon="2.85721">
        <ele>101</ele>
        <time>2021-05-04T13:04:43.639Z</time>
      </trkpt>
      <trkpt lat="48.93834" lon="2.85707">
        <ele>101</ele>
        <time>2021-05-04T13:04:47.638Z</time>
      </trkpt>
      <trkpt lat="48.93817" lon="2.85693">
        <ele>101</ele>
        <time>2021-05-04T13:04:51.632Z</time>
      </trkpt>
      <trkpt lat="48.938" lon="2.85679">
        <ele>101</ele>
        <time>2021-05-04T13:04:55.635Z</time>
      </trkpt>
      <trkpt lat="48.93781" lon="2.85663">
        <ele>100</ele>
        <time>2021-05-04T13:04:59.633Z</time>
      </trkpt>
      <trkpt lat="48.9376" lon="2.85647">
        <ele>100</ele>
        <time>2021-05-04T13:05:04.637Z</time>
      </trkpt>
      <trkpt lat="48.93737" lon="2.85632">
        <ele>100</ele>
        <time>2021-05-04T13:05:09.640Z</time>
      </trkpt>
      <trkpt lat="48.93715" lon="2.85616">
        <ele>100</ele>
        <time>2021-05-04T13:05:14.637Z</time>
      </trkpt>
      <trkpt lat="48.93694" lon="2.85601">
        <ele>100</ele>
        <time>2021-05-04T13:05:19.633Z</time>
      </trkpt>
      <trkpt lat="48.93676" lon="2.8559">
        <ele>100</ele>
        <time>2021-05-04T13:05:23.633Z</time>
      </trkpt>
      <trkpt lat="48.93653" lon="2.85575">
        <ele>100</ele>
        <time>2021-05-04T13:05:28.638Z</time>
      </trkpt>
      <trkpt lat="48.93628" lon="2.85564">
        <ele>100</ele>
        <time>2021-05-04T13:05:33.635Z</time>
      </trkpt>
      <trkpt lat="48.93605" lon="2.85549">
        <ele>100</ele>
        <time>2021-05-04T13:05:38.635Z</time>
      </trkpt>
      <trkpt lat="48.93581" lon="2.85537">
        <ele>100</ele>
        <time>2021-05-04T13:05:43.633Z</time>
      </trkpt>
      <trkpt lat="48.93561" lon="2.85526">
        <ele>100</ele>
        <time>2021-05-04T13:05:47.636Z</time>
      </trkpt>
      <trkpt lat="48.93538" lon="2.85512">
        <ele>100</ele>
        <time>2021-05-04T13:05:52.639Z</time>
      </trkpt>
      <trkpt lat="48.93516" lon="2.85495">
        <ele>100</ele>
        <time>2021-05-04T13:05:57.635Z</time>
      </trkpt>
      <trkpt lat="48.93496" lon="2.85475">
        <ele>100</ele>
        <time>2021-05-04T13:06:02.636Z</time>
      </trkpt>
      <trkpt lat="48.93479" lon="2.8545">
        <ele>100</ele>
        <time>2021-05-04T13:06:07.636Z</time>
      </trkpt>
      <trkpt lat="48.93467" lon="2.85427">
        <ele>100</ele>
        <time>2021-05-04T13:06:11.634Z</time>
      </trkpt>
      <trkpt lat="48.93456" lon="2.85403">
        <ele>100</ele>
        <time>2021-05-04T13:06:15.635Z</time>
      </trkpt>
      <trkpt lat="48.93445" lon="2.85377">
        <ele>100</ele>
        <time>2021-05-04T13:06:19.636Z</time>
      </trkpt>
      <trkpt lat="48.93437" lon="2.85341">
        <ele>100</ele>
        <time>2021-05-04T13:06:24.639Z</time>
      </trkpt>
      <trkpt lat="48.93431" lon="2.8531">
        <ele>100</ele>
        <time>2021-05-04T13:06:28.635Z</time>
      </trkpt>
      <trkpt lat="48.93427" lon="2.8527">
        <ele>100</ele>
        <time>2021-05-04T13:06:33.643Z</time>
      </trkpt>
      <trkpt lat="48.93425" lon="2.85229">
        <ele>101</ele>
        <time>2021-05-04T13:06:38.636Z</time>
      </trkpt>
      <trkpt lat="48.93424" lon="2.85189">
        <ele>101</ele>
        <time>2021-05-04T13:06:43.634Z</time>
      </trkpt>
      <trkpt lat="48.93422" lon="2.85148">
        <ele>101</ele>
        <time>2021-05-04T13:06:48.631Z</time>
      </trkpt>
      <trkpt lat="48.93415" lon="2.85108">
        <ele>101</ele>
        <time>2021-05-04T13:06:53.636Z</time>
      </trkpt>
      <trkpt lat="48.93402" lon="2.85073">
        <ele>101</ele>
        <time>2021-05-04T13:06:58.636Z</time>
      </trkpt>
      <trkpt lat="48.93386" lon="2.85048">
        <ele>101</ele>
        <time>2021-05-04T13:07:03.638Z</time>
      </trkpt>
      <trkpt lat="48.93368" lon="2.85031">
        <ele>100</ele>
        <time>2021-05-04T13:07:07.634Z</time>
      </trkpt>
      <trkpt lat="48.93344" lon="2.85015">
        <ele>100</ele>
        <time>2021-05-04T13:07:12.640Z</time>
      </trkpt>
      <trkpt lat="48.9332" lon="2.85003">
        <ele>100</ele>
        <time>2021-05-04T13:07:17.636Z</time>
      </trkpt>
      <trkpt lat="48.93295" lon="2.84993">
        <ele>99</ele>
        <time>2021-05-04T13:07:22.636Z</time>
      </trkpt>
      <trkpt lat="48.93271" lon="2.84989">
        <ele>99</ele>
        <time>2021-05-04T13:07:27.635Z</time>
      </trkpt>
      <trkpt lat="48.93247" lon="2.84998">
        <ele>98</ele>
        <time>2021-05-04T13:07:32.637Z</time>
      </trkpt>
      <trkpt lat="48.93226" lon="2.85018">
        <ele>98</ele>
        <time>2021-05-04T13:07:37.634Z</time>
      </trkpt>
      <trkpt lat="48.93211" lon="2.85049">
        <ele>98</ele>
        <time>2021-05-04T13:07:42.636Z</time>
      </trkpt>
      <trkpt lat="48.93199" lon="2.85084">
        <ele>98</ele>
        <time>2021-05-04T13:07:47.635Z</time>
      </trkpt>
      <trkpt lat="48.93186" lon="2.85118">
        <ele>98</ele>
        <time>2021-05-04T13:07:52.633Z</time>
      </trkpt>
      <trkpt lat="48.9317" lon="2.8514">
        <ele>98</ele>
        <time>2021-05-04T13:07:56.636Z</time>
      </trkpt>
      <trkpt lat="48.9315" lon="2.85157">
        <ele>98</ele>
        <time>2021-05-04T13:08:00.631Z</time>
      </trkpt>
      <trkpt lat="48.93123" lon="2.85162">
        <ele>98</ele>
        <time>2021-05-04T13:08:05.635Z</time>
      </trkpt>
      <trkpt lat="48.93102" lon="2.85169">
        <ele>98</ele>
        <time>2021-05-04T13:08:09.637Z</time>
      </trkpt>
      <trkpt lat="48.9308" lon="2.85175">
        <ele>98</ele>
        <time>2021-05-04T13:08:13.636Z</time>
      </trkpt>
      <trkpt lat="48.93052" lon="2.8518">
        <ele>98</ele>
        <time>2021-05-04T13:08:18.635Z</time>
      </trkpt>
      <trkpt lat="48.93024" lon="2.85188">
        <ele>98</ele>
        <time>2021-05-04T13:08:23.633Z</time>
      </trkpt>
      <trkpt lat="48.92996" lon="2.85199">
        <ele>98</ele>
        <time>2021-05-04T13:08:28.635Z</time>
      </trkpt>
      <trkpt lat="48.92971" lon="2.8521">
        <ele>98</ele>
        <time>2021-05-04T13:08:33.635Z</time>
      </trkpt>
      <trkpt lat="48.92945" lon="2.85219">
        <ele>98</ele>
        <time>2021-05-04T13:08:38.636Z</time>
      </trkpt>
      <trkpt lat="48.92921" lon="2.85228">
        <ele>98</ele>
        <time>2021-05-04T13:08:43.636Z</time>
      </trkpt>
      <trkpt lat="48.929" lon="2.85232">
        <ele>99</ele>
        <time>2021-05-04T13:08:47.633Z</time>
      </trkpt>
      <trkpt lat="48.92874" lon="2.85237">
        <ele>99</ele>
        <time>2021-05-04T13:08:52.633Z</time>
      </trkpt>
      <trkpt lat="48.92849" lon="2.85235">
        <ele>100</ele>
        <time>2021-05-04T13:08:57.635Z</time>
      </trkpt>
      <trkpt lat="48.92824" lon="2.85232">
        <ele>101</ele>
        <time>2021-05-04T13:09:02.634Z</time>
      </trkpt>
      <trkpt lat="48.928" lon="2.85225">
        <ele>101</ele>
        <time>2021-05-04T13:09:07.634Z</time>
      </trkpt>
      <trkpt lat="48.92777" lon="2.85216">
        <ele>102</ele>
        <time>2021-05-04T13:09:12.637Z</time>
      </trkpt>
      <trkpt lat="48.92758" lon="2.85205">
        <ele>102</ele>
        <time>2021-05-04T13:09:16.638Z</time>
      </trkpt>
      <trkpt lat="48.92734" lon="2.85192">
        <ele>102</ele>
        <time>2021-05-04T13:09:21.641Z</time>
      </trkpt>
      <trkpt lat="48.92711" lon="2.85176">
        <ele>102</ele>
        <time>2021-05-04T13:09:26.636Z</time>
      </trkpt>
      <trkpt lat="48.92689" lon="2.85158">
        <ele>102</ele>
        <time>2021-05-04T13:09:31.637Z</time>
      </trkpt>
      <trkpt lat="48.92669" lon="2.85133">
        <ele>102</ele>
        <time>2021-05-04T13:09:36.637Z</time>
      </trkpt>
      <trkpt lat="48.92651" lon="2.85103">
        <ele>102</ele>
        <time>2021-05-04T13:09:41.635Z</time>
      </trkpt>
      <trkpt lat="48.92638" lon="2.85077">
        <ele>102</ele>
        <time>2021-05-04T13:09:45.642Z</time>
      </trkpt>
      <trkpt lat="48.92622" lon="2.8505">
        <ele>102</ele>
        <time>2021-05-04T13:09:50.635Z</time>
      </trkpt>
      <trkpt lat="48.92603" lon="2.85033">
        <ele>102</ele>
        <time>2021-05-04T13:09:54.640Z</time>
      </trkpt>
      <trkpt lat="48.92583" lon="2.8502">
        <ele>102</ele>
        <time>2021-05-04T13:09:58.635Z</time>
      </trkpt>
      <trkpt lat="48.92559" lon="2.85006">
        <ele>102</ele>
        <time>2021-05-04T13:10:03.635Z</time>
      </trkpt>
      <trkpt lat="48.92534" lon="2.84991">
        <ele>103</ele>
        <time>2021-05-04T13:10:08.633Z</time>
      </trkpt>
      <trkpt lat="48.92514" lon="2.84976">
        <ele>103</ele>
        <time>2021-05-04T13:10:13.634Z</time>
      </trkpt>
      <trkpt lat="48.92495" lon="2.84966">
        <ele>103</ele>
        <time>2021-05-04T13:10:19.631Z</time>
      </trkpt>
      <trkpt lat="48.92482" lon="2.84957">
        <ele>103</ele>
        <time>2021-05-04T13:10:24.634Z</time>
      </trkpt>
      <trkpt lat="48.92472" lon="2.84953">
        <ele>103</ele>
        <time>2021-05-04T13:10:28.633Z</time>
      </trkpt>
      <trkpt lat="48.9246" lon="2.84948">
        <ele>102</ele>
        <time>2021-05-04T13:10:32.638Z</time>
      </trkpt>
      <trkpt lat="48.9245" lon="2.84942">
        <ele>102</ele>
        <time>2021-05-04T13:10:35.635Z</time>
      </trkpt>
      <trkpt lat="48.92438" lon="2.84933">
        <ele>102</ele>
        <time>2021-05-04T13:10:39.635Z</time>
      </trkpt>
      <trkpt lat="48.92424" lon="2.84924">
        <ele>103</ele>
        <time>2021-05-04T13:10:43.634Z</time>
      </trkpt>
      <trkpt lat="48.92409" lon="2.84914">
        <ele>103</ele>
        <time>2021-05-04T13:10:48.635Z</time>
      </trkpt>
      <trkpt lat="48.92396" lon="2.84904">
        <ele>103</ele>
        <time>2021-05-04T13:10:53.635Z</time>
      </trkpt>
      <trkpt lat="48.92383" lon="2.84893">
        <ele>103</ele>
        <time>2021-05-04T13:10:57.634Z</time>
      </trkpt>
      <trkpt lat="48.92371" lon="2.84883">
        <ele>103</ele>
        <time>2021-05-04T13:11:00.637Z</time>
      </trkpt>
      <trkpt lat="48.92355" lon="2.84869">
        <ele>103</ele>
        <time>2021-05-04T13:11:04.636Z</time>
      </trkpt>
      <trkpt lat="48.92339" lon="2.84856">
        <ele>104</ele>
        <time>2021-05-04T13:11:08.633Z</time>
      </trkpt>
      <trkpt lat="48.92323" lon="2.84841">
        <ele>103</ele>
        <time>2021-05-04T13:11:12.640Z</time>
      </trkpt>
      <trkpt lat="48.92304" lon="2.84825">
        <ele>103</ele>
        <time>2021-05-04T13:11:16.636Z</time>
      </trkpt>
      <trkpt lat="48.92287" lon="2.84808">
        <ele>103</ele>
        <time>2021-05-04T13:11:20.634Z</time>
      </trkpt>
      <trkpt lat="48.92268" lon="2.84788">
        <ele>103</ele>
        <time>2021-05-04T13:11:24.637Z</time>
      </trkpt>
      <trkpt lat="48.92246" lon="2.84767">
        <ele>103</ele>
        <time>2021-05-04T13:11:29.637Z</time>
      </trkpt>
      <trkpt lat="48.92224" lon="2.84743">
        <ele>103</ele>
        <time>2021-05-04T13:11:34.635Z</time>
      </trkpt>
      <trkpt lat="48.92206" lon="2.84725">
        <ele>103</ele>
        <time>2021-05-04T13:11:38.633Z</time>
      </trkpt>
      <trkpt lat="48.92185" lon="2.847">
        <ele>103</ele>
        <time>2021-05-04T13:11:43.634Z</time>
      </trkpt>
      <trkpt lat="48.92167" lon="2.8468">
        <ele>102</ele>
        <time>2021-05-04T13:11:47.635Z</time>
      </trkpt>
      <trkpt lat="48.92144" lon="2.84654">
        <ele>102</ele>
        <time>2021-05-04T13:11:52.651Z</time>
      </trkpt>
      <trkpt lat="48.92124" lon="2.8463">
        <ele>102</ele>
        <time>2021-05-04T13:11:57.633Z</time>
      </trkpt>
      <trkpt lat="48.92106" lon="2.84605">
        <ele>102</ele>
        <time>2021-05-04T13:12:02.635Z</time>
      </trkpt>
      <trkpt lat="48.92091" lon="2.84584">
        <ele>102</ele>
        <time>2021-05-04T13:12:07.635Z</time>
      </trkpt>
      <trkpt lat="48.9208" lon="2.84565">
        <ele>102</ele>
        <time>2021-05-04T13:12:11.632Z</time>
      </trkpt>
      <trkpt lat="48.92067" lon="2.84544">
        <ele>102</ele>
        <time>2021-05-04T13:12:15.632Z</time>
      </trkpt>
      <trkpt lat="48.92052" lon="2.84519">
        <ele>103</ele>
        <time>2021-05-04T13:12:19.635Z</time>
      </trkpt>
      <trkpt lat="48.92035" lon="2.84488">
        <ele>103</ele>
        <time>2021-05-04T13:12:24.634Z</time>
      </trkpt>
      <trkpt lat="48.92018" lon="2.84456">
        <ele>104</ele>
        <time>2021-05-04T13:12:29.634Z</time>
      </trkpt>
      <trkpt lat="48.92002" lon="2.84424">
        <ele>105</ele>
        <time>2021-05-04T13:12:34.634Z</time>
      </trkpt>
      <trkpt lat="48.91984" lon="2.8439">
        <ele>105</ele>
        <time>2021-05-04T13:12:39.635Z</time>
      </trkpt>
      <trkpt lat="48.91969" lon="2.84355">
        <ele>105</ele>
        <time>2021-05-04T13:12:44.634Z</time>
      </trkpt>
      <trkpt lat="48.91955" lon="2.84319">
        <ele>106</ele>
        <time>2021-05-04T13:12:49.633Z</time>
      </trkpt>
      <trkpt lat="48.91941" lon="2.84283">
        <ele>106</ele>
        <time>2021-05-04T13:12:54.636Z</time>
      </trkpt>
      <trkpt lat="48.91929" lon="2.8425">
        <ele>106</ele>
        <time>2021-05-04T13:12:59.634Z</time>
      </trkpt>
      <trkpt lat="48.91919" lon="2.8422">
        <ele>105</ele>
        <time>2021-05-04T13:13:03.646Z</time>
      </trkpt>
      <trkpt lat="48.91908" lon="2.84185">
        <ele>105</ele>
        <time>2021-05-04T13:13:08.633Z</time>
      </trkpt>
      <trkpt lat="48.91898" lon="2.84149">
        <ele>104</ele>
        <time>2021-05-04T13:13:13.633Z</time>
      </trkpt>
      <trkpt lat="48.91888" lon="2.84112">
        <ele>104</ele>
        <time>2021-05-04T13:13:18.635Z</time>
      </trkpt>
      <trkpt lat="48.9188" lon="2.84075">
        <ele>103</ele>
        <time>2021-05-04T13:13:23.636Z</time>
      </trkpt>
      <trkpt lat="48.91873" lon="2.84037">
        <ele>103</ele>
        <time>2021-05-04T13:13:28.634Z</time>
      </trkpt>
      <trkpt lat="48.91866" lon="2.84">
        <ele>104</ele>
        <time>2021-05-04T13:13:33.635Z</time>
      </trkpt>
      <trkpt lat="48.91863" lon="2.83965">
        <ele>103</ele>
        <time>2021-05-04T13:13:38.630Z</time>
      </trkpt>
      <trkpt lat="48.91859" lon="2.8393">
        <ele>103</ele>
        <time>2021-05-04T13:13:43.633Z</time>
      </trkpt>
      <trkpt lat="48.91858" lon="2.83901">
        <ele>103</ele>
        <time>2021-05-04T13:13:47.630Z</time>
      </trkpt>
      <trkpt lat="48.91857" lon="2.83871">
        <ele>103</ele>
        <time>2021-05-04T13:13:51.639Z</time>
      </trkpt>
      <trkpt lat="48.91858" lon="2.83841">
        <ele>104</ele>
        <time>2021-05-04T13:13:55.633Z</time>
      </trkpt>
      <trkpt lat="48.9186" lon="2.83804">
        <ele>104</ele>
        <time>2021-05-04T13:14:00.637Z</time>
      </trkpt>
      <trkpt lat="48.91862" lon="2.83775">
        <ele>104</ele>
        <time>2021-05-04T13:14:05.633Z</time>
      </trkpt>
      <trkpt lat="48.91859" lon="2.83758">
        <ele>104</ele>
        <time>2021-05-04T13:14:13.636Z</time>
      </trkpt>
      <trkpt lat="48.91857" lon="2.83756">
        <ele>104</ele>
        <time>2021-05-04T13:14:26.635Z</time>
      </trkpt>
      <trkpt lat="48.91857" lon="2.83756">
        <ele>104</ele>
        <time>2021-05-04T13:14:35.627Z</time>
      </trkpt>
      <trkpt lat="48.91867" lon="2.83724">
        <ele>104</ele>
        <time>2021-05-04T13:14:36.630Z</time>
      </trkpt>
      <trkpt lat="48.91869" lon="2.8371">
        <ele>104</ele>
        <time>2021-05-04T13:14:38.634Z</time>
      </trkpt>
      <trkpt lat="48.91872" lon="2.83694">
        <ele>104</ele>
        <time>2021-05-04T13:14:40.634Z</time>
      </trkpt>
      <trkpt lat="48.91878" lon="2.8367">
        <ele>103</ele>
        <time>2021-05-04T13:14:43.632Z</time>
      </trkpt>
      <trkpt lat="48.91884" lon="2.83634">
        <ele>103</ele>
        <time>2021-05-04T13:14:48.633Z</time>
      </trkpt>
      <trkpt lat="48.91892" lon="2.836">
        <ele>102</ele>
        <time>2021-05-04T13:14:53.636Z</time>
      </trkpt>
      <trkpt lat="48.91899" lon="2.83568">
        <ele>102</ele>
        <time>2021-05-04T13:14:58.638Z</time>
      </trkpt>
      <trkpt lat="48.91905" lon="2.83543">
        <ele>102</ele>
        <time>2021-05-04T13:15:02.634Z</time>
      </trkpt>
      <trkpt lat="48.91911" lon="2.83517">
        <ele>101</ele>
        <time>2021-05-04T13:15:06.638Z</time>
      </trkpt>
      <trkpt lat="48.91919" lon="2.83488">
        <ele>101</ele>
        <time>2021-05-04T13:15:10.636Z</time>
      </trkpt>
      <trkpt lat="48.91926" lon="2.83459">
        <ele>101</ele>
        <time>2021-05-04T13:15:14.634Z</time>
      </trkpt>
      <trkpt lat="48.91936" lon="2.83423">
        <ele>101</ele>
        <time>2021-05-04T13:15:19.636Z</time>
      </trkpt>
      <trkpt lat="48.91947" lon="2.83388">
        <ele>101</ele>
        <time>2021-05-04T13:15:24.634Z</time>
      </trkpt>
      <trkpt lat="48.91958" lon="2.83353">
        <ele>101</ele>
        <time>2021-05-04T13:15:29.635Z</time>
      </trkpt>
      <trkpt lat="48.91969" lon="2.83318">
        <ele>101</ele>
        <time>2021-05-04T13:15:34.634Z</time>
      </trkpt>
      <trkpt lat="48.9198" lon="2.83283">
        <ele>101</ele>
        <time>2021-05-04T13:15:39.637Z</time>
      </trkpt>
      <trkpt lat="48.91992" lon="2.83248">
        <ele>100</ele>
        <time>2021-05-04T13:15:44.638Z</time>
      </trkpt>
      <trkpt lat="48.92005" lon="2.83215">
        <ele>100</ele>
        <time>2021-05-04T13:15:49.637Z</time>
      </trkpt>
      <trkpt lat="48.9202" lon="2.83185">
        <ele>100</ele>
        <time>2021-05-04T13:15:54.642Z</time>
      </trkpt>
      <trkpt lat="48.92035" lon="2.83155">
        <ele>100</ele>
        <time>2021-05-04T13:15:59.633Z</time>
      </trkpt>
      <trkpt lat="48.92049" lon="2.83131">
        <ele>100</ele>
        <time>2021-05-04T13:16:03.635Z</time>
      </trkpt>
      <trkpt lat="48.92067" lon="2.83104">
        <ele>100</ele>
        <time>2021-05-04T13:16:08.634Z</time>
      </trkpt>
      <trkpt lat="48.92086" lon="2.8308">
        <ele>100</ele>
        <time>2021-05-04T13:16:13.637Z</time>
      </trkpt>
      <trkpt lat="48.92104" lon="2.83057">
        <ele>100</ele>
        <time>2021-05-04T13:16:18.637Z</time>
      </trkpt>
      <trkpt lat="48.92125" lon="2.83036">
        <ele>101</ele>
        <time>2021-05-04T13:16:23.635Z</time>
      </trkpt>
      <trkpt lat="48.92146" lon="2.83017">
        <ele>101</ele>
        <time>2021-05-04T13:16:28.637Z</time>
      </trkpt>
      <trkpt lat="48.92164" lon="2.83003">
        <ele>101</ele>
        <time>2021-05-04T13:16:32.636Z</time>
      </trkpt>
      <trkpt lat="48.92185" lon="2.8299">
        <ele>101</ele>
        <time>2021-05-04T13:16:37.636Z</time>
      </trkpt>
      <trkpt lat="48.92206" lon="2.82979">
        <ele>101</ele>
        <time>2021-05-04T13:16:42.630Z</time>
      </trkpt>
      <trkpt lat="48.92224" lon="2.82969">
        <ele>101</ele>
        <time>2021-05-04T13:16:46.633Z</time>
      </trkpt>
      <trkpt lat="48.92244" lon="2.82965">
        <ele>101</ele>
        <time>2021-05-04T13:16:50.633Z</time>
      </trkpt>
      <trkpt lat="48.92267" lon="2.82959">
        <ele>101</ele>
        <time>2021-05-04T13:16:55.634Z</time>
      </trkpt>
      <trkpt lat="48.92288" lon="2.82954">
        <ele>101</ele>
        <time>2021-05-04T13:16:59.633Z</time>
      </trkpt>
      <trkpt lat="48.92314" lon="2.82949">
        <ele>101</ele>
        <time>2021-05-04T13:17:04.633Z</time>
      </trkpt>
      <trkpt lat="48.92339" lon="2.82943">
        <ele>100</ele>
        <time>2021-05-04T13:17:09.634Z</time>
      </trkpt>
      <trkpt lat="48.92364" lon="2.82934">
        <ele>100</ele>
        <time>2021-05-04T13:17:14.636Z</time>
      </trkpt>
      <trkpt lat="48.92389" lon="2.82926">
        <ele>100</ele>
        <time>2021-05-04T13:17:19.635Z</time>
      </trkpt>
      <trkpt lat="48.92413" lon="2.82912">
        <ele>100</ele>
        <time>2021-05-04T13:17:24.637Z</time>
      </trkpt>
      <trkpt lat="48.92434" lon="2.82899">
        <ele>100</ele>
        <time>2021-05-04T13:17:28.632Z</time>
      </trkpt>
      <trkpt lat="48.92458" lon="2.82881">
        <ele>100</ele>
        <time>2021-05-04T13:17:33.634Z</time>
      </trkpt>
      <trkpt lat="48.92482" lon="2.82861">
        <ele>100</ele>
        <time>2021-05-04T13:17:38.635Z</time>
      </trkpt>
      <trkpt lat="48.92504" lon="2.82837">
        <ele>100</ele>
        <time>2021-05-04T13:17:43.632Z</time>
      </trkpt>
      <trkpt lat="48.92524" lon="2.8281">
        <ele>100</ele>
        <time>2021-05-04T13:17:48.634Z</time>
      </trkpt>
      <trkpt lat="48.92541" lon="2.8278">
        <ele>100</ele>
        <time>2021-05-04T13:17:53.643Z</time>
      </trkpt>
      <trkpt lat="48.92553" lon="2.82745">
        <ele>100</ele>
        <time>2021-05-04T13:17:58.633Z</time>
      </trkpt>
      <trkpt lat="48.92561" lon="2.8271">
        <ele>100</ele>
        <time>2021-05-04T13:18:03.630Z</time>
      </trkpt>
      <trkpt lat="48.92566" lon="2.82673">
        <ele>100</ele>
        <time>2021-05-04T13:18:08.636Z</time>
      </trkpt>
      <trkpt lat="48.92567" lon="2.8264">
        <ele>100</ele>
        <time>2021-05-04T13:18:13.633Z</time>
      </trkpt>
      <trkpt lat="48.92568" lon="2.82607">
        <ele>100</ele>
        <time>2021-05-04T13:18:18.632Z</time>
      </trkpt>
      <trkpt lat="48.92569" lon="2.8258">
        <ele>100</ele>
        <time>2021-05-04T13:18:22.633Z</time>
      </trkpt>
      <trkpt lat="48.92572" lon="2.82554">
        <ele>100</ele>
        <time>2021-05-04T13:18:26.632Z</time>
      </trkpt>
      <trkpt lat="48.92575" lon="2.82527">
        <ele>100</ele>
        <time>2021-05-04T13:18:30.634Z</time>
      </trkpt>
      <trkpt lat="48.92579" lon="2.82501">
        <ele>100</ele>
        <time>2021-05-04T13:18:34.635Z</time>
      </trkpt>
      <trkpt lat="48.92586" lon="2.82471">
        <ele>100</ele>
        <time>2021-05-04T13:18:39.634Z</time>
      </trkpt>
      <trkpt lat="48.92592" lon="2.82443">
        <ele>100</ele>
        <time>2021-05-04T13:18:44.633Z</time>
      </trkpt>
      <trkpt lat="48.92598" lon="2.8242">
        <ele>100</ele>
        <time>2021-05-04T13:18:48.633Z</time>
      </trkpt>
      <trkpt lat="48.92606" lon="2.82399">
        <ele>100</ele>
        <time>2021-05-04T13:18:52.633Z</time>
      </trkpt>
      <trkpt lat="48.92614" lon="2.82377">
        <ele>100</ele>
        <time>2021-05-04T13:18:56.635Z</time>
      </trkpt>
      <trkpt lat="48.92623" lon="2.82355">
        <ele>100</ele>
        <time>2021-05-04T13:19:00.640Z</time>
      </trkpt>
      <trkpt lat="48.92633" lon="2.82333">
        <ele>99</ele>
        <time>2021-05-04T13:19:04.635Z</time>
      </trkpt>
      <trkpt lat="48.92643" lon="2.82311">
        <ele>99</ele>
        <time>2021-05-04T13:19:08.633Z</time>
      </trkpt>
      <trkpt lat="48.92655" lon="2.82289">
        <ele>99</ele>
        <time>2021-05-04T13:19:12.633Z</time>
      </trkpt>
      <trkpt lat="48.92669" lon="2.82263">
        <ele>99</ele>
        <time>2021-05-04T13:19:17.633Z</time>
      </trkpt>
      <trkpt lat="48.92682" lon="2.82243">
        <ele>99</ele>
        <time>2021-05-04T13:19:21.632Z</time>
      </trkpt>
      <trkpt lat="48.92696" lon="2.82222">
        <ele>99</ele>
        <time>2021-05-04T13:19:25.634Z</time>
      </trkpt>
      <trkpt lat="48.9271" lon="2.82201">
        <ele>99</ele>
        <time>2021-05-04T13:19:29.634Z</time>
      </trkpt>
      <trkpt lat="48.92727" lon="2.82176">
        <ele>99</ele>
        <time>2021-05-04T13:19:34.642Z</time>
      </trkpt>
      <trkpt lat="48.92746" lon="2.82151">
        <ele>99</ele>
        <time>2021-05-04T13:19:39.634Z</time>
      </trkpt>
      <trkpt lat="48.92761" lon="2.82129">
        <ele>99</ele>
        <time>2021-05-04T13:19:43.632Z</time>
      </trkpt>
      <trkpt lat="48.9278" lon="2.82102">
        <ele>99</ele>
        <time>2021-05-04T13:19:48.636Z</time>
      </trkpt>
      <trkpt lat="48.92801" lon="2.82077">
        <ele>99</ele>
        <time>2021-05-04T13:19:53.650Z</time>
      </trkpt>
      <trkpt lat="48.9282" lon="2.82054">
        <ele>100</ele>
        <time>2021-05-04T13:19:58.638Z</time>
      </trkpt>
      <trkpt lat="48.92837" lon="2.82035">
        <ele>100</ele>
        <time>2021-05-04T13:20:03.634Z</time>
      </trkpt>
      <trkpt lat="48.92855" lon="2.82015">
        <ele>100</ele>
        <time>2021-05-04T13:20:08.633Z</time>
      </trkpt>
      <trkpt lat="48.92871" lon="2.82">
        <ele>100</ele>
        <time>2021-05-04T13:20:12.633Z</time>
      </trkpt>
      <trkpt lat="48.9289" lon="2.8198">
        <ele>100</ele>
        <time>2021-05-04T13:20:17.636Z</time>
      </trkpt>
      <trkpt lat="48.92912" lon="2.81956">
        <ele>100</ele>
        <time>2021-05-04T13:20:22.635Z</time>
      </trkpt>
      <trkpt lat="48.92933" lon="2.81935">
        <ele>100</ele>
        <time>2021-05-04T13:20:27.635Z</time>
      </trkpt>
      <trkpt lat="48.92954" lon="2.81917">
        <ele>100</ele>
        <time>2021-05-04T13:20:32.637Z</time>
      </trkpt>
      <trkpt lat="48.92973" lon="2.81902">
        <ele>99</ele>
        <time>2021-05-04T13:20:36.637Z</time>
      </trkpt>
      <trkpt lat="48.92995" lon="2.81884">
        <ele>99</ele>
        <time>2021-05-04T13:20:41.636Z</time>
      </trkpt>
      <trkpt lat="48.93017" lon="2.81865">
        <ele>99</ele>
        <time>2021-05-04T13:20:46.637Z</time>
      </trkpt>
      <trkpt lat="48.93041" lon="2.81846">
        <ele>99</ele>
        <time>2021-05-04T13:20:51.645Z</time>
      </trkpt>
      <trkpt lat="48.93065" lon="2.8183">
        <ele>99</ele>
        <time>2021-05-04T13:20:56.633Z</time>
      </trkpt>
      <trkpt lat="48.93089" lon="2.81813">
        <ele>99</ele>
        <time>2021-05-04T13:21:01.637Z</time>
      </trkpt>
      <trkpt lat="48.93114" lon="2.81798">
        <ele>99</ele>
        <time>2021-05-04T13:21:06.636Z</time>
      </trkpt>
      <trkpt lat="48.93137" lon="2.81781">
        <ele>99</ele>
        <time>2021-05-04T13:21:11.636Z</time>
      </trkpt>
      <trkpt lat="48.93161" lon="2.81767">
        <ele>99</ele>
        <time>2021-05-04T13:21:16.637Z</time>
      </trkpt>
      <trkpt lat="48.93184" lon="2.81753">
        <ele>99</ele>
        <time>2021-05-04T13:21:21.637Z</time>
      </trkpt>
      <trkpt lat="48.93207" lon="2.81743">
        <ele>99</ele>
        <time>2021-05-04T13:21:26.635Z</time>
      </trkpt>
      <trkpt lat="48.93229" lon="2.8173">
        <ele>99</ele>
        <time>2021-05-04T13:21:31.637Z</time>
      </trkpt>
      <trkpt lat="48.93249" lon="2.81719">
        <ele>99</ele>
        <time>2021-05-04T13:21:36.635Z</time>
      </trkpt>
      <trkpt lat="48.93267" lon="2.8171">
        <ele>99</ele>
        <time>2021-05-04T13:21:40.639Z</time>
      </trkpt>
      <trkpt lat="48.93284" lon="2.817">
        <ele>99</ele>
        <time>2021-05-04T13:21:44.639Z</time>
      </trkpt>
      <trkpt lat="48.93302" lon="2.81692">
        <ele>99</ele>
        <time>2021-05-04T13:21:48.638Z</time>
      </trkpt>
      <trkpt lat="48.93323" lon="2.81683">
        <ele>99</ele>
        <time>2021-05-04T13:21:53.640Z</time>
      </trkpt>
      <trkpt lat="48.93342" lon="2.81676">
        <ele>99</ele>
        <time>2021-05-04T13:21:58.636Z</time>
      </trkpt>
      <trkpt lat="48.93359" lon="2.81668">
        <ele>99</ele>
        <time>2021-05-04T13:22:03.634Z</time>
      </trkpt>
      <trkpt lat="48.93371" lon="2.81666">
        <ele>99</ele>
        <time>2021-05-04T13:22:09.634Z</time>
      </trkpt>
      <trkpt lat="48.93371" lon="2.81666">
        <ele>99</ele>
        <time>2021-05-04T13:22:22.631Z</time>
      </trkpt>
      <trkpt lat="48.93371" lon="2.81666">
        <ele>99</ele>
        <time>2021-05-04T13:36:59.642Z</time>
      </trkpt>
      <trkpt lat="48.93393" lon="2.81656">
        <ele>100</ele>
        <time>2021-05-04T13:37:00.640Z</time>
      </trkpt>
      <trkpt lat="48.93402" lon="2.81653">
        <ele>100</ele>
        <time>2021-05-04T13:37:04.633Z</time>
      </trkpt>
      <trkpt lat="48.93411" lon="2.8165">
        <ele>100</ele>
        <time>2021-05-04T13:37:07.634Z</time>
      </trkpt>
      <trkpt lat="48.9342" lon="2.81646">
        <ele>100</ele>
        <time>2021-05-04T13:37:10.632Z</time>
      </trkpt>
      <trkpt lat="48.93429" lon="2.81642">
        <ele>100</ele>
        <time>2021-05-04T13:37:13.632Z</time>
      </trkpt>
      <trkpt lat="48.93443" lon="2.81636">
        <ele>100</ele>
        <time>2021-05-04T13:37:17.631Z</time>
      </trkpt>
      <trkpt lat="48.93457" lon="2.81632">
        <ele>100</ele>
        <time>2021-05-04T13:37:22.633Z</time>
      </trkpt>
      <trkpt lat="48.93468" lon="2.81628">
        <ele>99</ele>
        <time>2021-05-04T13:37:27.634Z</time>
      </trkpt>
      <trkpt lat="48.93478" lon="2.81624">
        <ele>99</ele>
        <time>2021-05-04T13:37:30.633Z</time>
      </trkpt>
      <trkpt lat="48.93489" lon="2.81621">
        <ele>99</ele>
        <time>2021-05-04T13:37:33.632Z</time>
      </trkpt>
      <trkpt lat="48.93501" lon="2.81619">
        <ele>99</ele>
        <time>2021-05-04T13:37:37.632Z</time>
      </trkpt>
      <trkpt lat="48.93513" lon="2.81612">
        <ele>99</ele>
        <time>2021-05-04T13:37:41.637Z</time>
      </trkpt>
      <trkpt lat="48.93526" lon="2.81605">
        <ele>99</ele>
        <time>2021-05-04T13:37:45.630Z</time>
      </trkpt>
      <trkpt lat="48.93538" lon="2.816">
        <ele>99</ele>
        <time>2021-05-04T13:37:48.630Z</time>
      </trkpt>
      <trkpt lat="48.93555" lon="2.81592">
        <ele>99</ele>
        <time>2021-05-04T13:37:52.633Z</time>
      </trkpt>
      <trkpt lat="48.93573" lon="2.81582">
        <ele>99</ele>
        <time>2021-05-04T13:37:56.632Z</time>
      </trkpt>
      <trkpt lat="48.93591" lon="2.81572">
        <ele>100</ele>
        <time>2021-05-04T13:38:00.633Z</time>
      </trkpt>
      <trkpt lat="48.93609" lon="2.81562">
        <ele>99</ele>
        <time>2021-05-04T13:38:04.630Z</time>
      </trkpt>
      <trkpt lat="48.93631" lon="2.81548">
        <ele>99</ele>
        <time>2021-05-04T13:38:09.633Z</time>
      </trkpt>
      <trkpt lat="48.93649" lon="2.81535">
        <ele>99</ele>
        <time>2021-05-04T13:38:13.633Z</time>
      </trkpt>
      <trkpt lat="48.93671" lon="2.81518">
        <ele>99</ele>
        <time>2021-05-04T13:38:18.634Z</time>
      </trkpt>
      <trkpt lat="48.93693" lon="2.81499">
        <ele>99</ele>
        <time>2021-05-04T13:38:23.633Z</time>
      </trkpt>
      <trkpt lat="48.93714" lon="2.81478">
        <ele>98</ele>
        <time>2021-05-04T13:38:28.634Z</time>
      </trkpt>
      <trkpt lat="48.93733" lon="2.81456">
        <ele>98</ele>
        <time>2021-05-04T13:38:33.634Z</time>
      </trkpt>
      <trkpt lat="48.93752" lon="2.81431">
        <ele>98</ele>
        <time>2021-05-04T13:38:38.635Z</time>
      </trkpt>
      <trkpt lat="48.9377" lon="2.81407">
        <ele>98</ele>
        <time>2021-05-04T13:38:43.630Z</time>
      </trkpt>
      <trkpt lat="48.93786" lon="2.81379">
        <ele>98</ele>
        <time>2021-05-04T13:38:48.634Z</time>
      </trkpt>
      <trkpt lat="48.938" lon="2.8135">
        <ele>98</ele>
        <time>2021-05-04T13:38:53.636Z</time>
      </trkpt>
      <trkpt lat="48.93813" lon="2.81321">
        <ele>99</ele>
        <time>2021-05-04T13:38:58.637Z</time>
      </trkpt>
      <trkpt lat="48.93824" lon="2.81295">
        <ele>99</ele>
        <time>2021-05-04T13:39:02.634Z</time>
      </trkpt>
      <trkpt lat="48.93833" lon="2.81262">
        <ele>99</ele>
        <time>2021-05-04T13:39:07.633Z</time>
      </trkpt>
      <trkpt lat="48.93842" lon="2.81228">
        <ele>100</ele>
        <time>2021-05-04T13:39:12.634Z</time>
      </trkpt>
      <trkpt lat="48.93849" lon="2.812">
        <ele>100</ele>
        <time>2021-05-04T13:39:16.628Z</time>
      </trkpt>
      <trkpt lat="48.93856" lon="2.81167">
        <ele>100</ele>
        <time>2021-05-04T13:39:21.632Z</time>
      </trkpt>
      <trkpt lat="48.93861" lon="2.81138">
        <ele>100</ele>
        <time>2021-05-04T13:39:25.629Z</time>
      </trkpt>
      <trkpt lat="48.93865" lon="2.8111">
        <ele>100</ele>
        <time>2021-05-04T13:39:29.633Z</time>
      </trkpt>
      <trkpt lat="48.93871" lon="2.81076">
        <ele>100</ele>
        <time>2021-05-04T13:39:34.628Z</time>
      </trkpt>
      <trkpt lat="48.93879" lon="2.81049">
        <ele>100</ele>
        <time>2021-05-04T13:39:38.634Z</time>
      </trkpt>
      <trkpt lat="48.93889" lon="2.81023">
        <ele>99</ele>
        <time>2021-05-04T13:39:42.634Z</time>
      </trkpt>
      <trkpt lat="48.93903" lon="2.80995">
        <ele>99</ele>
        <time>2021-05-04T13:39:47.645Z</time>
      </trkpt>
      <trkpt lat="48.93919" lon="2.80971">
        <ele>99</ele>
        <time>2021-05-04T13:39:51.633Z</time>
      </trkpt>
      <trkpt lat="48.93939" lon="2.8095">
        <ele>98</ele>
        <time>2021-05-04T13:39:56.634Z</time>
      </trkpt>
      <trkpt lat="48.9396" lon="2.80933">
        <ele>98</ele>
        <time>2021-05-04T13:40:01.632Z</time>
      </trkpt>
      <trkpt lat="48.93981" lon="2.8092">
        <ele>98</ele>
        <time>2021-05-04T13:40:06.636Z</time>
      </trkpt>
      <trkpt lat="48.93999" lon="2.8091">
        <ele>98</ele>
        <time>2021-05-04T13:40:10.634Z</time>
      </trkpt>
      <trkpt lat="48.94016" lon="2.809">
        <ele>98</ele>
        <time>2021-05-04T13:40:14.633Z</time>
      </trkpt>
      <trkpt lat="48.94035" lon="2.80891">
        <ele>98</ele>
        <time>2021-05-04T13:40:18.633Z</time>
      </trkpt>
      <trkpt lat="48.94054" lon="2.80881">
        <ele>98</ele>
        <time>2021-05-04T13:40:22.632Z</time>
      </trkpt>
      <trkpt lat="48.94077" lon="2.80868">
        <ele>97</ele>
        <time>2021-05-04T13:40:27.632Z</time>
      </trkpt>
      <trkpt lat="48.94101" lon="2.80856">
        <ele>97</ele>
        <time>2021-05-04T13:40:32.633Z</time>
      </trkpt>
      <trkpt lat="48.94126" lon="2.80843">
        <ele>98</ele>
        <time>2021-05-04T13:40:37.632Z</time>
      </trkpt>
      <trkpt lat="48.9415" lon="2.80834">
        <ele>98</ele>
        <time>2021-05-04T13:40:42.632Z</time>
      </trkpt>
      <trkpt lat="48.94176" lon="2.80828">
        <ele>98</ele>
        <time>2021-05-04T13:40:47.632Z</time>
      </trkpt>
      <trkpt lat="48.94201" lon="2.80824">
        <ele>98</ele>
        <time>2021-05-04T13:40:52.626Z</time>
      </trkpt>
      <trkpt lat="48.94226" lon="2.80824">
        <ele>98</ele>
        <time>2021-05-04T13:40:57.632Z</time>
      </trkpt>
      <trkpt lat="48.94251" lon="2.80825">
        <ele>98</ele>
        <time>2021-05-04T13:41:02.632Z</time>
      </trkpt>
      <trkpt lat="48.94275" lon="2.8082">
        <ele>99</ele>
        <time>2021-05-04T13:41:07.634Z</time>
      </trkpt>
      <trkpt lat="48.94298" lon="2.80804">
        <ele>99</ele>
        <time>2021-05-04T13:41:12.626Z</time>
      </trkpt>
      <trkpt lat="48.94317" lon="2.80782">
        <ele>99</ele>
        <time>2021-05-04T13:41:17.629Z</time>
      </trkpt>
      <trkpt lat="48.94329" lon="2.80759">
        <ele>99</ele>
        <time>2021-05-04T13:41:22.634Z</time>
      </trkpt>
      <trkpt lat="48.94333" lon="2.80737">
        <ele>100</ele>
        <time>2021-05-04T13:41:28.645Z</time>
      </trkpt>
      <trkpt lat="48.94337" lon="2.80724">
        <ele>100</ele>
        <time>2021-05-04T13:41:33.629Z</time>
      </trkpt>
      <trkpt lat="48.94343" lon="2.80712">
        <ele>100</ele>
        <time>2021-05-04T13:41:37.631Z</time>
      </trkpt>
      <trkpt lat="48.9435" lon="2.80695">
        <ele>100</ele>
        <time>2021-05-04T13:41:40.631Z</time>
      </trkpt>
      <trkpt lat="48.94356" lon="2.80675">
        <ele>101</ele>
        <time>2021-05-04T13:41:43.635Z</time>
      </trkpt>
      <trkpt lat="48.94365" lon="2.80654">
        <ele>101</ele>
        <time>2021-05-04T13:41:46.632Z</time>
      </trkpt>
      <trkpt lat="48.94381" lon="2.80626">
        <ele>101</ele>
        <time>2021-05-04T13:41:51.632Z</time>
      </trkpt>
      <trkpt lat="48.94401" lon="2.80599">
        <ele>101</ele>
        <time>2021-05-04T13:41:56.634Z</time>
      </trkpt>
      <trkpt lat="48.94422" lon="2.80578">
        <ele>101</ele>
        <time>2021-05-04T13:42:01.631Z</time>
      </trkpt>
      <trkpt lat="48.94442" lon="2.80561">
        <ele>101</ele>
        <time>2021-05-04T13:42:06.632Z</time>
      </trkpt>
      <trkpt lat="48.94462" lon="2.80548">
        <ele>102</ele>
        <time>2021-05-04T13:42:11.634Z</time>
      </trkpt>
      <trkpt lat="48.94478" lon="2.80536">
        <ele>102</ele>
        <time>2021-05-04T13:42:16.633Z</time>
      </trkpt>
      <trkpt lat="48.94496" lon="2.80529">
        <ele>103</ele>
        <time>2021-05-04T13:42:20.632Z</time>
      </trkpt>
      <trkpt lat="48.94516" lon="2.80519">
        <ele>103</ele>
        <time>2021-05-04T13:42:25.637Z</time>
      </trkpt>
      <trkpt lat="48.94533" lon="2.80506">
        <ele>104</ele>
        <time>2021-05-04T13:42:29.632Z</time>
      </trkpt>
      <trkpt lat="48.94553" lon="2.80487">
        <ele>105</ele>
        <time>2021-05-04T13:42:33.633Z</time>
      </trkpt>
      <trkpt lat="48.94569" lon="2.80465">
        <ele>105</ele>
        <time>2021-05-04T13:42:37.629Z</time>
      </trkpt>
      <trkpt lat="48.94586" lon="2.8044">
        <ele>105</ele>
        <time>2021-05-04T13:42:42.633Z</time>
      </trkpt>
      <trkpt lat="48.94602" lon="2.8041">
        <ele>105</ele>
        <time>2021-05-04T13:42:47.630Z</time>
      </trkpt>
      <trkpt lat="48.94615" lon="2.80387">
        <ele>105</ele>
        <time>2021-05-04T13:42:51.632Z</time>
      </trkpt>
      <trkpt lat="48.94628" lon="2.80362">
        <ele>105</ele>
        <time>2021-05-04T13:42:55.633Z</time>
      </trkpt>
      <trkpt lat="48.94645" lon="2.80332">
        <ele>105</ele>
        <time>2021-05-04T13:43:00.631Z</time>
      </trkpt>
      <trkpt lat="48.94662" lon="2.80304">
        <ele>104</ele>
        <time>2021-05-04T13:43:05.631Z</time>
      </trkpt>
      <trkpt lat="48.9468" lon="2.80275">
        <ele>103</ele>
        <time>2021-05-04T13:43:10.632Z</time>
      </trkpt>
      <trkpt lat="48.94697" lon="2.80245">
        <ele>102</ele>
        <time>2021-05-04T13:43:15.632Z</time>
      </trkpt>
      <trkpt lat="48.94715" lon="2.80216">
        <ele>101</ele>
        <time>2021-05-04T13:43:20.632Z</time>
      </trkpt>
      <trkpt lat="48.94732" lon="2.80187">
        <ele>101</ele>
        <time>2021-05-04T13:43:25.631Z</time>
      </trkpt>
      <trkpt lat="48.94749" lon="2.80157">
        <ele>100</ele>
        <time>2021-05-04T13:43:30.631Z</time>
      </trkpt>
      <trkpt lat="48.94765" lon="2.80129">
        <ele>100</ele>
        <time>2021-05-04T13:43:35.631Z</time>
      </trkpt>
      <trkpt lat="48.94782" lon="2.80101">
        <ele>100</ele>
        <time>2021-05-04T13:43:40.632Z</time>
      </trkpt>
      <trkpt lat="48.94798" lon="2.80072">
        <ele>100</ele>
        <time>2021-05-04T13:43:45.633Z</time>
      </trkpt>
      <trkpt lat="48.94814" lon="2.80045">
        <ele>100</ele>
        <time>2021-05-04T13:43:50.633Z</time>
      </trkpt>
      <trkpt lat="48.94827" lon="2.80024">
        <ele>100</ele>
        <time>2021-05-04T13:43:54.630Z</time>
      </trkpt>
      <trkpt lat="48.94843" lon="2.79997">
        <ele>100</ele>
        <time>2021-05-04T13:43:59.631Z</time>
      </trkpt>
      <trkpt lat="48.9486" lon="2.7997">
        <ele>100</ele>
        <time>2021-05-04T13:44:04.631Z</time>
      </trkpt>
      <trkpt lat="48.94872" lon="2.79947">
        <ele>100</ele>
        <time>2021-05-04T13:44:08.633Z</time>
      </trkpt>
      <trkpt lat="48.94886" lon="2.79917">
        <ele>100</ele>
        <time>2021-05-04T13:44:13.637Z</time>
      </trkpt>
      <trkpt lat="48.94897" lon="2.79889">
        <ele>100</ele>
        <time>2021-05-04T13:44:18.635Z</time>
      </trkpt>
      <trkpt lat="48.94903" lon="2.79871">
        <ele>100</ele>
        <time>2021-05-04T13:44:26.628Z</time>
      </trkpt>
      <trkpt lat="48.94896" lon="2.79862">
        <ele>99</ele>
        <time>2021-05-04T13:44:55.628Z</time>
      </trkpt>
      <trkpt lat="48.94896" lon="2.79862">
        <ele>99</ele>
        <time>2021-05-04T13:45:19.632Z</time>
      </trkpt>
      <trkpt lat="48.94913" lon="2.79836">
        <ele>97</ele>
        <time>2021-05-04T13:45:20.633Z</time>
      </trkpt>
      <trkpt lat="48.94919" lon="2.79823">
        <ele>97</ele>
        <time>2021-05-04T13:45:24.632Z</time>
      </trkpt>
      <trkpt lat="48.94922" lon="2.79811">
        <ele>97</ele>
        <time>2021-05-04T13:45:28.632Z</time>
      </trkpt>
      <trkpt lat="48.94928" lon="2.79798">
        <ele>97</ele>
        <time>2021-05-04T13:45:42.629Z</time>
      </trkpt>
      <trkpt lat="48.94932" lon="2.79782">
        <ele>97</ele>
        <time>2021-05-04T13:45:47.636Z</time>
      </trkpt>
      <trkpt lat="48.94936" lon="2.79768">
        <ele>97</ele>
        <time>2021-05-04T13:45:50.631Z</time>
      </trkpt>
      <trkpt lat="48.9494" lon="2.79752">
        <ele>97</ele>
        <time>2021-05-04T13:45:53.641Z</time>
      </trkpt>
      <trkpt lat="48.94945" lon="2.79734">
        <ele>97</ele>
        <time>2021-05-04T13:45:56.631Z</time>
      </trkpt>
      <trkpt lat="48.94952" lon="2.79708">
        <ele>97</ele>
        <time>2021-05-04T13:46:00.632Z</time>
      </trkpt>
      <trkpt lat="48.94958" lon="2.79681">
        <ele>97</ele>
        <time>2021-05-04T13:46:04.635Z</time>
      </trkpt>
      <trkpt lat="48.94965" lon="2.79654">
        <ele>98</ele>
        <time>2021-05-04T13:46:08.633Z</time>
      </trkpt>
      <trkpt lat="48.94972" lon="2.79628">
        <ele>98</ele>
        <time>2021-05-04T13:46:12.636Z</time>
      </trkpt>
      <trkpt lat="48.94977" lon="2.79596">
        <ele>98</ele>
        <time>2021-05-04T13:46:16.632Z</time>
      </trkpt>
      <trkpt lat="48.94981" lon="2.7956">
        <ele>98</ele>
        <time>2021-05-04T13:46:21.640Z</time>
      </trkpt>
      <trkpt lat="48.94986" lon="2.79529">
        <ele>98</ele>
        <time>2021-05-04T13:46:25.632Z</time>
      </trkpt>
      <trkpt lat="48.94989" lon="2.79492">
        <ele>99</ele>
        <time>2021-05-04T13:46:30.641Z</time>
      </trkpt>
      <trkpt lat="48.94992" lon="2.79445">
        <ele>99</ele>
        <time>2021-05-04T13:46:36.634Z</time>
      </trkpt>
      <trkpt lat="48.94995" lon="2.79406">
        <ele>100</ele>
        <time>2021-05-04T13:46:41.637Z</time>
      </trkpt>
      <trkpt lat="48.94996" lon="2.79366">
        <ele>100</ele>
        <time>2021-05-04T13:46:46.635Z</time>
      </trkpt>
      <trkpt lat="48.94996" lon="2.79325">
        <ele>100</ele>
        <time>2021-05-04T13:46:51.636Z</time>
      </trkpt>
      <trkpt lat="48.94995" lon="2.79286">
        <ele>101</ele>
        <time>2021-05-04T13:46:56.635Z</time>
      </trkpt>
      <trkpt lat="48.94994" lon="2.79247">
        <ele>101</ele>
        <time>2021-05-04T13:47:01.631Z</time>
      </trkpt>
      <trkpt lat="48.94994" lon="2.79209">
        <ele>101</ele>
        <time>2021-05-04T13:47:06.926Z</time>
      </trkpt>
      <trkpt lat="48.94993" lon="2.79172">
        <ele>101</ele>
        <time>2021-05-04T13:47:11.629Z</time>
      </trkpt>
      <trkpt lat="48.94993" lon="2.79134">
        <ele>101</ele>
        <time>2021-05-04T13:47:16.638Z</time>
      </trkpt>
      <trkpt lat="48.94992" lon="2.79097">
        <ele>101</ele>
        <time>2021-05-04T13:47:21.636Z</time>
      </trkpt>
      <trkpt lat="48.94992" lon="2.79061">
        <ele>100</ele>
        <time>2021-05-04T13:47:26.629Z</time>
      </trkpt>
      <trkpt lat="48.94991" lon="2.79031">
        <ele>100</ele>
        <time>2021-05-04T13:47:30.627Z</time>
      </trkpt>
      <trkpt lat="48.9499" lon="2.79001">
        <ele>100</ele>
        <time>2021-05-04T13:47:34.629Z</time>
      </trkpt>
      <trkpt lat="48.94989" lon="2.78962">
        <ele>100</ele>
        <time>2021-05-04T13:47:39.633Z</time>
      </trkpt>
      <trkpt lat="48.94988" lon="2.78923">
        <ele>100</ele>
        <time>2021-05-04T13:47:44.633Z</time>
      </trkpt>
      <trkpt lat="48.94988" lon="2.78887">
        <ele>100</ele>
        <time>2021-05-04T13:47:49.633Z</time>
      </trkpt>
      <trkpt lat="48.94988" lon="2.78856">
        <ele>100</ele>
        <time>2021-05-04T13:47:53.633Z</time>
      </trkpt>
      <trkpt lat="48.94987" lon="2.78818">
        <ele>100</ele>
        <time>2021-05-04T13:47:58.629Z</time>
      </trkpt>
      <trkpt lat="48.94987" lon="2.78787">
        <ele>100</ele>
        <time>2021-05-04T13:48:02.631Z</time>
      </trkpt>
      <trkpt lat="48.94986" lon="2.78749">
        <ele>100</ele>
        <time>2021-05-04T13:48:07.630Z</time>
      </trkpt>
      <trkpt lat="48.94986" lon="2.78718">
        <ele>100</ele>
        <time>2021-05-04T13:48:11.633Z</time>
      </trkpt>
      <trkpt lat="48.94987" lon="2.7868">
        <ele>100</ele>
        <time>2021-05-04T13:48:16.633Z</time>
      </trkpt>
      <trkpt lat="48.94988" lon="2.78642">
        <ele>100</ele>
        <time>2021-05-04T13:48:21.634Z</time>
      </trkpt>
      <trkpt lat="48.94991" lon="2.78606">
        <ele>100</ele>
        <time>2021-05-04T13:48:26.633Z</time>
      </trkpt>
      <trkpt lat="48.94996" lon="2.7857">
        <ele>100</ele>
        <time>2021-05-04T13:48:31.633Z</time>
      </trkpt>
      <trkpt lat="48.95004" lon="2.78536">
        <ele>100</ele>
        <time>2021-05-04T13:48:36.633Z</time>
      </trkpt>
      <trkpt lat="48.95014" lon="2.78509">
        <ele>100</ele>
        <time>2021-05-04T13:48:40.634Z</time>
      </trkpt>
      <trkpt lat="48.95027" lon="2.78485">
        <ele>99</ele>
        <time>2021-05-04T13:48:44.635Z</time>
      </trkpt>
      <trkpt lat="48.95049" lon="2.78464">
        <ele>99</ele>
        <time>2021-05-04T13:48:49.632Z</time>
      </trkpt>
      <trkpt lat="48.95074" lon="2.78454">
        <ele>99</ele>
        <time>2021-05-04T13:48:54.635Z</time>
      </trkpt>
      <trkpt lat="48.95098" lon="2.78443">
        <ele>99</ele>
        <time>2021-05-04T13:48:59.634Z</time>
      </trkpt>
      <trkpt lat="48.9512" lon="2.78425">
        <ele>99</ele>
        <time>2021-05-04T13:49:04.634Z</time>
      </trkpt>
      <trkpt lat="48.95131" lon="2.78391">
        <ele>99</ele>
        <time>2021-05-04T13:49:09.633Z</time>
      </trkpt>
      <trkpt lat="48.95134" lon="2.78354">
        <ele>99</ele>
        <time>2021-05-04T13:49:14.630Z</time>
      </trkpt>
      <trkpt lat="48.95132" lon="2.78317">
        <ele>99</ele>
        <time>2021-05-04T13:49:19.636Z</time>
      </trkpt>
      <trkpt lat="48.95123" lon="2.78282">
        <ele>99</ele>
        <time>2021-05-04T13:49:24.634Z</time>
      </trkpt>
      <trkpt lat="48.95111" lon="2.78258">
        <ele>99</ele>
        <time>2021-05-04T13:49:28.634Z</time>
      </trkpt>
      <trkpt lat="48.9509" lon="2.78237">
        <ele>99</ele>
        <time>2021-05-04T13:49:33.629Z</time>
      </trkpt>
      <trkpt lat="48.95065" lon="2.78233">
        <ele>99</ele>
        <time>2021-05-04T13:49:38.634Z</time>
      </trkpt>
      <trkpt lat="48.95041" lon="2.78236">
        <ele>99</ele>
        <time>2021-05-04T13:49:43.641Z</time>
      </trkpt>
      <trkpt lat="48.95016" lon="2.78238">
        <ele>98</ele>
        <time>2021-05-04T13:49:48.632Z</time>
      </trkpt>
      <trkpt lat="48.94992" lon="2.78233">
        <ele>98</ele>
        <time>2021-05-04T13:49:53.632Z</time>
      </trkpt>
      <trkpt lat="48.94972" lon="2.78223">
        <ele>98</ele>
        <time>2021-05-04T13:49:57.635Z</time>
      </trkpt>
      <trkpt lat="48.94952" lon="2.78203">
        <ele>98</ele>
        <time>2021-05-04T13:50:02.633Z</time>
      </trkpt>
      <trkpt lat="48.94939" lon="2.78177">
        <ele>98</ele>
        <time>2021-05-04T13:50:08.636Z</time>
      </trkpt>
      <trkpt lat="48.94935" lon="2.78154">
        <ele>98</ele>
        <time>2021-05-04T13:50:12.639Z</time>
      </trkpt>
      <trkpt lat="48.94933" lon="2.78128">
        <ele>98</ele>
        <time>2021-05-04T13:50:16.635Z</time>
      </trkpt>
      <trkpt lat="48.94928" lon="2.78101">
        <ele>99</ele>
        <time>2021-05-04T13:50:21.635Z</time>
      </trkpt>
      <trkpt lat="48.94924" lon="2.78069">
        <ele>99</ele>
        <time>2021-05-04T13:50:26.627Z</time>
      </trkpt>
      <trkpt lat="48.94919" lon="2.7804">
        <ele>99</ele>
        <time>2021-05-04T13:50:30.633Z</time>
      </trkpt>
      <trkpt lat="48.94911" lon="2.78016">
        <ele>99</ele>
        <time>2021-05-04T13:50:34.632Z</time>
      </trkpt>
      <trkpt lat="48.94898" lon="2.77995">
        <ele>99</ele>
        <time>2021-05-04T13:50:38.631Z</time>
      </trkpt>
      <trkpt lat="48.9488" lon="2.77981">
        <ele>99</ele>
        <time>2021-05-04T13:50:42.632Z</time>
      </trkpt>
      <trkpt lat="48.94858" lon="2.77974">
        <ele>100</ele>
        <time>2021-05-04T13:50:47.637Z</time>
      </trkpt>
      <trkpt lat="48.94834" lon="2.77974">
        <ele>100</ele>
        <time>2021-05-04T13:50:52.631Z</time>
      </trkpt>
      <trkpt lat="48.94812" lon="2.77971">
        <ele>100</ele>
        <time>2021-05-04T13:50:56.633Z</time>
      </trkpt>
      <trkpt lat="48.94788" lon="2.77965">
        <ele>100</ele>
        <time>2021-05-04T13:51:01.631Z</time>
      </trkpt>
      <trkpt lat="48.94768" lon="2.77956">
        <ele>100</ele>
        <time>2021-05-04T13:51:05.632Z</time>
      </trkpt>
      <trkpt lat="48.94749" lon="2.77944">
        <ele>99</ele>
        <time>2021-05-04T13:51:09.628Z</time>
      </trkpt>
      <trkpt lat="48.94726" lon="2.77926">
        <ele>99</ele>
        <time>2021-05-04T13:51:14.632Z</time>
      </trkpt>
      <trkpt lat="48.94705" lon="2.77908">
        <ele>99</ele>
        <time>2021-05-04T13:51:19.628Z</time>
      </trkpt>
      <trkpt lat="48.94683" lon="2.77892">
        <ele>98</ele>
        <time>2021-05-04T13:51:24.634Z</time>
      </trkpt>
      <trkpt lat="48.94661" lon="2.77877">
        <ele>98</ele>
        <time>2021-05-04T13:51:29.631Z</time>
      </trkpt>
      <trkpt lat="48.94641" lon="2.77866">
        <ele>97</ele>
        <time>2021-05-04T13:51:33.634Z</time>
      </trkpt>
      <trkpt lat="48.94619" lon="2.77853">
        <ele>97</ele>
        <time>2021-05-04T13:51:38.633Z</time>
      </trkpt>
      <trkpt lat="48.94596" lon="2.77841">
        <ele>96</ele>
        <time>2021-05-04T13:51:43.636Z</time>
      </trkpt>
      <trkpt lat="48.94572" lon="2.77829">
        <ele>96</ele>
        <time>2021-05-04T13:51:48.631Z</time>
      </trkpt>
      <trkpt lat="48.94553" lon="2.77819">
        <ele>96</ele>
        <time>2021-05-04T13:51:52.632Z</time>
      </trkpt>
      <trkpt lat="48.94534" lon="2.77809">
        <ele>96</ele>
        <time>2021-05-04T13:51:56.631Z</time>
      </trkpt>
      <trkpt lat="48.9451" lon="2.77795">
        <ele>96</ele>
        <time>2021-05-04T13:52:01.633Z</time>
      </trkpt>
      <trkpt lat="48.94487" lon="2.77784">
        <ele>96</ele>
        <time>2021-05-04T13:52:06.631Z</time>
      </trkpt>
      <trkpt lat="48.94466" lon="2.77771">
        <ele>96</ele>
        <time>2021-05-04T13:52:11.631Z</time>
      </trkpt>
      <trkpt lat="48.94443" lon="2.77759">
        <ele>96</ele>
        <time>2021-05-04T13:52:16.631Z</time>
      </trkpt>
      <trkpt lat="48.9442" lon="2.77746">
        <ele>96</ele>
        <time>2021-05-04T13:52:21.632Z</time>
      </trkpt>
      <trkpt lat="48.94401" lon="2.77737">
        <ele>96</ele>
        <time>2021-05-04T13:52:27.632Z</time>
      </trkpt>
      <trkpt lat="48.94384" lon="2.7773">
        <ele>96</ele>
        <time>2021-05-04T13:52:32.631Z</time>
      </trkpt>
      <trkpt lat="48.94369" lon="2.77721">
        <ele>96</ele>
        <time>2021-05-04T13:52:36.632Z</time>
      </trkpt>
      <trkpt lat="48.94355" lon="2.77717">
        <ele>97</ele>
        <time>2021-05-04T13:52:40.631Z</time>
      </trkpt>
      <trkpt lat="48.94338" lon="2.77715">
        <ele>97</ele>
        <time>2021-05-04T13:52:45.626Z</time>
      </trkpt>
      <trkpt lat="48.94322" lon="2.77719">
        <ele>97</ele>
        <time>2021-05-04T13:52:49.632Z</time>
      </trkpt>
      <trkpt lat="48.94305" lon="2.77718">
        <ele>97</ele>
        <time>2021-05-04T13:52:53.633Z</time>
      </trkpt>
      <trkpt lat="48.94289" lon="2.77718">
        <ele>97</ele>
        <time>2021-05-04T13:52:57.631Z</time>
      </trkpt>
      <trkpt lat="48.9427" lon="2.7772">
        <ele>97</ele>
        <time>2021-05-04T13:53:01.631Z</time>
      </trkpt>
      <trkpt lat="48.94252" lon="2.77724">
        <ele>97</ele>
        <time>2021-05-04T13:53:05.632Z</time>
      </trkpt>
      <trkpt lat="48.9423" lon="2.77725">
        <ele>97</ele>
        <time>2021-05-04T13:53:10.630Z</time>
      </trkpt>
      <trkpt lat="48.9421" lon="2.77724">
        <ele>97</ele>
        <time>2021-05-04T13:53:14.632Z</time>
      </trkpt>
      <trkpt lat="48.94188" lon="2.77713">
        <ele>97</ele>
        <time>2021-05-04T13:53:19.631Z</time>
      </trkpt>
      <trkpt lat="48.94166" lon="2.77696">
        <ele>97</ele>
        <time>2021-05-04T13:53:24.631Z</time>
      </trkpt>
      <trkpt lat="48.9415" lon="2.77675">
        <ele>97</ele>
        <time>2021-05-04T13:53:28.631Z</time>
      </trkpt>
      <trkpt lat="48.94136" lon="2.77648">
        <ele>98</ele>
        <time>2021-05-04T13:53:33.631Z</time>
      </trkpt>
      <trkpt lat="48.94123" lon="2.77618">
        <ele>98</ele>
        <time>2021-05-04T13:53:38.632Z</time>
      </trkpt>
      <trkpt lat="48.94116" lon="2.77588">
        <ele>99</ele>
        <time>2021-05-04T13:53:42.644Z</time>
      </trkpt>
      <trkpt lat="48.94106" lon="2.77552">
        <ele>99</ele>
        <time>2021-05-04T13:53:47.630Z</time>
      </trkpt>
      <trkpt lat="48.94097" lon="2.77518">
        <ele>100</ele>
        <time>2021-05-04T13:53:52.631Z</time>
      </trkpt>
      <trkpt lat="48.94081" lon="2.77489">
        <ele>101</ele>
        <time>2021-05-04T13:53:57.632Z</time>
      </trkpt>
      <trkpt lat="48.94064" lon="2.77461">
        <ele>101</ele>
        <time>2021-05-04T13:54:02.631Z</time>
      </trkpt>
      <trkpt lat="48.94046" lon="2.77441">
        <ele>102</ele>
        <time>2021-05-04T13:54:07.632Z</time>
      </trkpt>
      <trkpt lat="48.94028" lon="2.77426">
        <ele>102</ele>
        <time>2021-05-04T13:54:11.629Z</time>
      </trkpt>
      <trkpt lat="48.94011" lon="2.77411">
        <ele>102</ele>
        <time>2021-05-04T13:54:15.634Z</time>
      </trkpt>
      <trkpt lat="48.93988" lon="2.77399">
        <ele>102</ele>
        <time>2021-05-04T13:54:20.631Z</time>
      </trkpt>
      <trkpt lat="48.93965" lon="2.77389">
        <ele>101</ele>
        <time>2021-05-04T13:54:25.633Z</time>
      </trkpt>
      <trkpt lat="48.93945" lon="2.77383">
        <ele>101</ele>
        <time>2021-05-04T13:54:29.630Z</time>
      </trkpt>
      <trkpt lat="48.93925" lon="2.77377">
        <ele>100</ele>
        <time>2021-05-04T13:54:33.631Z</time>
      </trkpt>
      <trkpt lat="48.93899" lon="2.7737">
        <ele>99</ele>
        <time>2021-05-04T13:54:38.630Z</time>
      </trkpt>
      <trkpt lat="48.93873" lon="2.77365">
        <ele>98</ele>
        <time>2021-05-04T13:54:43.631Z</time>
      </trkpt>
      <trkpt lat="48.93846" lon="2.77359">
        <ele>97</ele>
        <time>2021-05-04T13:54:48.631Z</time>
      </trkpt>
      <trkpt lat="48.93822" lon="2.77352">
        <ele>97</ele>
        <time>2021-05-04T13:54:53.626Z</time>
      </trkpt>
      <trkpt lat="48.93798" lon="2.77339">
        <ele>96</ele>
        <time>2021-05-04T13:54:58.631Z</time>
      </trkpt>
      <trkpt lat="48.93779" lon="2.77325">
        <ele>96</ele>
        <time>2021-05-04T13:55:02.631Z</time>
      </trkpt>
      <trkpt lat="48.93757" lon="2.77302">
        <ele>95</ele>
        <time>2021-05-04T13:55:07.629Z</time>
      </trkpt>
      <trkpt lat="48.93742" lon="2.7728">
        <ele>95</ele>
        <time>2021-05-04T13:55:12.633Z</time>
      </trkpt>
      <trkpt lat="48.93729" lon="2.77262">
        <ele>96</ele>
        <time>2021-05-04T13:55:18.633Z</time>
      </trkpt>
      <trkpt lat="48.93723" lon="2.77251">
        <ele>97</ele>
        <time>2021-05-04T13:55:24.637Z</time>
      </trkpt>
      <trkpt lat="48.93718" lon="2.77236">
        <ele>97</ele>
        <time>2021-05-04T13:55:29.650Z</time>
      </trkpt>
      <trkpt lat="48.93713" lon="2.77218">
        <ele>97</ele>
        <time>2021-05-04T13:55:32.633Z</time>
      </trkpt>
      <trkpt lat="48.93708" lon="2.77202">
        <ele>98</ele>
        <time>2021-05-04T13:55:34.632Z</time>
      </trkpt>
      <trkpt lat="48.937" lon="2.77178">
        <ele>98</ele>
        <time>2021-05-04T13:55:37.632Z</time>
      </trkpt>
      <trkpt lat="48.93686" lon="2.77145">
        <ele>98</ele>
        <time>2021-05-04T13:55:42.631Z</time>
      </trkpt>
      <trkpt lat="48.93673" lon="2.77113">
        <ele>98</ele>
        <time>2021-05-04T13:55:47.632Z</time>
      </trkpt>
      <trkpt lat="48.9366" lon="2.77082">
        <ele>98</ele>
        <time>2021-05-04T13:55:52.631Z</time>
      </trkpt>
      <trkpt lat="48.93648" lon="2.77052">
        <ele>98</ele>
        <time>2021-05-04T13:55:57.627Z</time>
      </trkpt>
      <trkpt lat="48.93635" lon="2.77022">
        <ele>98</ele>
        <time>2021-05-04T13:56:02.631Z</time>
      </trkpt>
      <trkpt lat="48.93622" lon="2.76992">
        <ele>97</ele>
        <time>2021-05-04T13:56:07.630Z</time>
      </trkpt>
      <trkpt lat="48.93609" lon="2.76962">
        <ele>97</ele>
        <time>2021-05-04T13:56:12.632Z</time>
      </trkpt>
      <trkpt lat="48.93598" lon="2.76932">
        <ele>97</ele>
        <time>2021-05-04T13:56:17.632Z</time>
      </trkpt>
      <trkpt lat="48.93585" lon="2.76904">
        <ele>97</ele>
        <time>2021-05-04T13:56:22.631Z</time>
      </trkpt>
      <trkpt lat="48.93576" lon="2.76879">
        <ele>97</ele>
        <time>2021-05-04T13:56:26.631Z</time>
      </trkpt>
      <trkpt lat="48.93564" lon="2.7685">
        <ele>97</ele>
        <time>2021-05-04T13:56:31.634Z</time>
      </trkpt>
      <trkpt lat="48.93551" lon="2.76821">
        <ele>96</ele>
        <time>2021-05-04T13:56:36.629Z</time>
      </trkpt>
      <trkpt lat="48.93539" lon="2.76793">
        <ele>96</ele>
        <time>2021-05-04T13:56:41.631Z</time>
      </trkpt>
      <trkpt lat="48.93529" lon="2.76768">
        <ele>96</ele>
        <time>2021-05-04T13:56:45.633Z</time>
      </trkpt>
      <trkpt lat="48.93519" lon="2.76744">
        <ele>96</ele>
        <time>2021-05-04T13:56:49.632Z</time>
      </trkpt>
      <trkpt lat="48.93509" lon="2.76719">
        <ele>95</ele>
        <time>2021-05-04T13:56:53.631Z</time>
      </trkpt>
      <trkpt lat="48.93496" lon="2.76689">
        <ele>95</ele>
        <time>2021-05-04T13:56:58.631Z</time>
      </trkpt>
      <trkpt lat="48.93486" lon="2.76663">
        <ele>95</ele>
        <time>2021-05-04T13:57:02.631Z</time>
      </trkpt>
      <trkpt lat="48.93475" lon="2.76638">
        <ele>95</ele>
        <time>2021-05-04T13:57:06.633Z</time>
      </trkpt>
      <trkpt lat="48.93464" lon="2.76611">
        <ele>95</ele>
        <time>2021-05-04T13:57:10.632Z</time>
      </trkpt>
      <trkpt lat="48.9345" lon="2.7658">
        <ele>95</ele>
        <time>2021-05-04T13:57:15.632Z</time>
      </trkpt>
      <trkpt lat="48.93437" lon="2.76553">
        <ele>95</ele>
        <time>2021-05-04T13:57:20.640Z</time>
      </trkpt>
      <trkpt lat="48.93426" lon="2.76525">
        <ele>95</ele>
        <time>2021-05-04T13:57:25.632Z</time>
      </trkpt>
      <trkpt lat="48.93415" lon="2.76499">
        <ele>95</ele>
        <time>2021-05-04T13:57:30.630Z</time>
      </trkpt>
      <trkpt lat="48.93408" lon="2.76477">
        <ele>95</ele>
        <time>2021-05-04T13:57:34.634Z</time>
      </trkpt>
      <trkpt lat="48.93399" lon="2.76456">
        <ele>96</ele>
        <time>2021-05-04T13:57:38.637Z</time>
      </trkpt>
      <trkpt lat="48.9339" lon="2.76433">
        <ele>96</ele>
        <time>2021-05-04T13:57:42.636Z</time>
      </trkpt>
      <trkpt lat="48.9338" lon="2.76408">
        <ele>96</ele>
        <time>2021-05-04T13:57:46.631Z</time>
      </trkpt>
      <trkpt lat="48.9337" lon="2.76383">
        <ele>96</ele>
        <time>2021-05-04T13:57:50.632Z</time>
      </trkpt>
      <trkpt lat="48.9336" lon="2.76358">
        <ele>96</ele>
        <time>2021-05-04T13:57:54.631Z</time>
      </trkpt>
      <trkpt lat="48.93349" lon="2.76327">
        <ele>96</ele>
        <time>2021-05-04T13:57:59.633Z</time>
      </trkpt>
      <trkpt lat="48.93339" lon="2.76296">
        <ele>96</ele>
        <time>2021-05-04T13:58:04.635Z</time>
      </trkpt>
      <trkpt lat="48.93329" lon="2.76265">
        <ele>97</ele>
        <time>2021-05-04T13:58:09.634Z</time>
      </trkpt>
      <trkpt lat="48.93322" lon="2.76239">
        <ele>97</ele>
        <time>2021-05-04T13:58:13.632Z</time>
      </trkpt>
      <trkpt lat="48.93314" lon="2.76207">
        <ele>97</ele>
        <time>2021-05-04T13:58:18.637Z</time>
      </trkpt>
      <trkpt lat="48.93307" lon="2.76177">
        <ele>97</ele>
        <time>2021-05-04T13:58:23.634Z</time>
      </trkpt>
      <trkpt lat="48.93302" lon="2.7615">
        <ele>97</ele>
        <time>2021-05-04T13:58:28.633Z</time>
      </trkpt>
      <trkpt lat="48.93298" lon="2.76125">
        <ele>97</ele>
        <time>2021-05-04T13:58:33.632Z</time>
      </trkpt>
      <trkpt lat="48.93295" lon="2.76104">
        <ele>98</ele>
        <time>2021-05-04T13:58:37.634Z</time>
      </trkpt>
      <trkpt lat="48.93292" lon="2.76079">
        <ele>98</ele>
        <time>2021-05-04T13:58:41.635Z</time>
      </trkpt>
      <trkpt lat="48.9329" lon="2.76054">
        <ele>98</ele>
        <time>2021-05-04T13:58:45.629Z</time>
      </trkpt>
      <trkpt lat="48.93288" lon="2.76027">
        <ele>98</ele>
        <time>2021-05-04T13:58:49.632Z</time>
      </trkpt>
      <trkpt lat="48.93287" lon="2.75996">
        <ele>98</ele>
        <time>2021-05-04T13:58:54.635Z</time>
      </trkpt>
      <trkpt lat="48.93287" lon="2.7597">
        <ele>98</ele>
        <time>2021-05-04T13:58:58.632Z</time>
      </trkpt>
      <trkpt lat="48.93288" lon="2.75945">
        <ele>98</ele>
        <time>2021-05-04T13:59:02.632Z</time>
      </trkpt>
      <trkpt lat="48.9329" lon="2.75919">
        <ele>98</ele>
        <time>2021-05-04T13:59:06.636Z</time>
      </trkpt>
      <trkpt lat="48.93293" lon="2.75889">
        <ele>98</ele>
        <time>2021-05-04T13:59:11.633Z</time>
      </trkpt>
      <trkpt lat="48.93296" lon="2.75863">
        <ele>99</ele>
        <time>2021-05-04T13:59:16.634Z</time>
      </trkpt>
      <trkpt lat="48.933" lon="2.75842">
        <ele>99</ele>
        <time>2021-05-04T13:59:21.632Z</time>
      </trkpt>
      <trkpt lat="48.93305" lon="2.75821">
        <ele>99</ele>
        <time>2021-05-04T13:59:25.632Z</time>
      </trkpt>
      <trkpt lat="48.9331" lon="2.75803">
        <ele>99</ele>
        <time>2021-05-04T13:59:28.633Z</time>
      </trkpt>
      <trkpt lat="48.93318" lon="2.75779">
        <ele>99</ele>
        <time>2021-05-04T13:59:32.637Z</time>
      </trkpt>
      <trkpt lat="48.93326" lon="2.75756">
        <ele>99</ele>
        <time>2021-05-04T13:59:36.633Z</time>
      </trkpt>
      <trkpt lat="48.93339" lon="2.75729">
        <ele>99</ele>
        <time>2021-05-04T13:59:41.635Z</time>
      </trkpt>
      <trkpt lat="48.9335" lon="2.75706">
        <ele>99</ele>
        <time>2021-05-04T13:59:45.642Z</time>
      </trkpt>
      <trkpt lat="48.93362" lon="2.75686">
        <ele>99</ele>
        <time>2021-05-04T13:59:49.635Z</time>
      </trkpt>
      <trkpt lat="48.93375" lon="2.75665">
        <ele>99</ele>
        <time>2021-05-04T13:59:53.630Z</time>
      </trkpt>
      <trkpt lat="48.9339" lon="2.75646">
        <ele>98</ele>
        <time>2021-05-04T13:59:57.632Z</time>
      </trkpt>
      <trkpt lat="48.93407" lon="2.75627">
        <ele>98</ele>
        <time>2021-05-04T14:00:02.633Z</time>
      </trkpt>
      <trkpt lat="48.93424" lon="2.75612">
        <ele>98</ele>
        <time>2021-05-04T14:00:06.632Z</time>
      </trkpt>
      <trkpt lat="48.93442" lon="2.75601">
        <ele>98</ele>
        <time>2021-05-04T14:00:10.631Z</time>
      </trkpt>
      <trkpt lat="48.93465" lon="2.75591">
        <ele>98</ele>
        <time>2021-05-04T14:00:15.635Z</time>
      </trkpt>
      <trkpt lat="48.93486" lon="2.75589">
        <ele>98</ele>
        <time>2021-05-04T14:00:19.636Z</time>
      </trkpt>
      <trkpt lat="48.93511" lon="2.75586">
        <ele>98</ele>
        <time>2021-05-04T14:00:24.637Z</time>
      </trkpt>
      <trkpt lat="48.93532" lon="2.75587">
        <ele>98</ele>
        <time>2021-05-04T14:00:28.633Z</time>
      </trkpt>
      <trkpt lat="48.93557" lon="2.75592">
        <ele>98</ele>
        <time>2021-05-04T14:00:33.632Z</time>
      </trkpt>
      <trkpt lat="48.93581" lon="2.756">
        <ele>98</ele>
        <time>2021-05-04T14:00:38.632Z</time>
      </trkpt>
      <trkpt lat="48.93602" lon="2.75609">
        <ele>98</ele>
        <time>2021-05-04T14:00:42.635Z</time>
      </trkpt>
      <trkpt lat="48.93625" lon="2.75618">
        <ele>98</ele>
        <time>2021-05-04T14:00:47.633Z</time>
      </trkpt>
      <trkpt lat="48.93646" lon="2.7563">
        <ele>98</ele>
        <time>2021-05-04T14:00:52.633Z</time>
      </trkpt>
      <trkpt lat="48.93665" lon="2.75639">
        <ele>98</ele>
        <time>2021-05-04T14:00:56.635Z</time>
      </trkpt>
      <trkpt lat="48.93686" lon="2.7565">
        <ele>98</ele>
        <time>2021-05-04T14:01:00.635Z</time>
      </trkpt>
      <trkpt lat="48.93708" lon="2.7566">
        <ele>98</ele>
        <time>2021-05-04T14:01:04.633Z</time>
      </trkpt>
      <trkpt lat="48.93735" lon="2.75675">
        <ele>98</ele>
        <time>2021-05-04T14:01:09.635Z</time>
      </trkpt>
      <trkpt lat="48.93763" lon="2.75687">
        <ele>98</ele>
        <time>2021-05-04T14:01:14.633Z</time>
      </trkpt>
      <trkpt lat="48.93791" lon="2.75695">
        <ele>98</ele>
        <time>2021-05-04T14:01:19.635Z</time>
      </trkpt>
      <trkpt lat="48.93819" lon="2.75693">
        <ele>98</ele>
        <time>2021-05-04T14:01:24.632Z</time>
      </trkpt>
      <trkpt lat="48.93845" lon="2.75679">
        <ele>98</ele>
        <time>2021-05-04T14:01:29.631Z</time>
      </trkpt>
      <trkpt lat="48.93865" lon="2.75659">
        <ele>98</ele>
        <time>2021-05-04T14:01:34.646Z</time>
      </trkpt>
      <trkpt lat="48.93881" lon="2.75639">
        <ele>98</ele>
        <time>2021-05-04T14:01:39.633Z</time>
      </trkpt>
      <trkpt lat="48.93895" lon="2.7562">
        <ele>98</ele>
        <time>2021-05-04T14:01:44.633Z</time>
      </trkpt>
      <trkpt lat="48.93897" lon="2.75616">
        <ele>98</ele>
        <time>2021-05-04T14:01:59.630Z</time>
      </trkpt>
      <trkpt lat="48.93897" lon="2.75616">
        <ele>98</ele>
        <time>2021-05-04T14:02:46.632Z</time>
      </trkpt>
      <trkpt lat="48.93913" lon="2.75587">
        <ele>98</ele>
        <time>2021-05-04T14:02:47.630Z</time>
      </trkpt>
      <trkpt lat="48.93921" lon="2.75576">
        <ele>98</ele>
        <time>2021-05-04T14:02:50.630Z</time>
      </trkpt>
      <trkpt lat="48.93928" lon="2.75562">
        <ele>98</ele>
        <time>2021-05-04T14:02:53.633Z</time>
      </trkpt>
      <trkpt lat="48.93938" lon="2.75543">
        <ele>98</ele>
        <time>2021-05-04T14:02:57.628Z</time>
      </trkpt>
      <trkpt lat="48.93947" lon="2.7552">
        <ele>98</ele>
        <time>2021-05-04T14:03:01.637Z</time>
      </trkpt>
      <trkpt lat="48.93954" lon="2.75494">
        <ele>98</ele>
        <time>2021-05-04T14:03:05.630Z</time>
      </trkpt>
      <trkpt lat="48.93957" lon="2.75466">
        <ele>98</ele>
        <time>2021-05-04T14:03:09.632Z</time>
      </trkpt>
      <trkpt lat="48.93958" lon="2.75437">
        <ele>98</ele>
        <time>2021-05-04T14:03:13.629Z</time>
      </trkpt>
      <trkpt lat="48.93956" lon="2.75407">
        <ele>98</ele>
        <time>2021-05-04T14:03:17.629Z</time>
      </trkpt>
      <trkpt lat="48.93951" lon="2.75371">
        <ele>97</ele>
        <time>2021-05-04T14:03:22.630Z</time>
      </trkpt>
      <trkpt lat="48.93943" lon="2.75336">
        <ele>97</ele>
        <time>2021-05-04T14:03:27.630Z</time>
      </trkpt>
      <trkpt lat="48.93935" lon="2.75302">
        <ele>98</ele>
        <time>2021-05-04T14:03:32.632Z</time>
      </trkpt>
      <trkpt lat="48.93928" lon="2.75273">
        <ele>98</ele>
        <time>2021-05-04T14:03:36.638Z</time>
      </trkpt>
      <trkpt lat="48.93922" lon="2.75243">
        <ele>98</ele>
        <time>2021-05-04T14:03:40.632Z</time>
      </trkpt>
      <trkpt lat="48.93915" lon="2.75206">
        <ele>98</ele>
        <time>2021-05-04T14:03:45.636Z</time>
      </trkpt>
      <trkpt lat="48.93911" lon="2.75168">
        <ele>98</ele>
        <time>2021-05-04T14:03:50.632Z</time>
      </trkpt>
      <trkpt lat="48.93909" lon="2.75131">
        <ele>98</ele>
        <time>2021-05-04T14:03:55.633Z</time>
      </trkpt>
      <trkpt lat="48.93909" lon="2.75093">
        <ele>98</ele>
        <time>2021-05-04T14:04:00.632Z</time>
      </trkpt>
      <trkpt lat="48.93911" lon="2.75056">
        <ele>98</ele>
        <time>2021-05-04T14:04:05.632Z</time>
      </trkpt>
      <trkpt lat="48.93914" lon="2.75019">
        <ele>98</ele>
        <time>2021-05-04T14:04:10.631Z</time>
      </trkpt>
      <trkpt lat="48.9392" lon="2.74983">
        <ele>97</ele>
        <time>2021-05-04T14:04:15.632Z</time>
      </trkpt>
      <trkpt lat="48.93926" lon="2.74947">
        <ele>97</ele>
        <time>2021-05-04T14:04:20.635Z</time>
      </trkpt>
      <trkpt lat="48.93932" lon="2.74916">
        <ele>97</ele>
        <time>2021-05-04T14:04:24.629Z</time>
      </trkpt>
      <trkpt lat="48.93938" lon="2.74883">
        <ele>97</ele>
        <time>2021-05-04T14:04:29.626Z</time>
      </trkpt>
      <trkpt lat="48.93946" lon="2.7485">
        <ele>97</ele>
        <time>2021-05-04T14:04:34.630Z</time>
      </trkpt>
      <trkpt lat="48.93953" lon="2.74817">
        <ele>96</ele>
        <time>2021-05-04T14:04:39.631Z</time>
      </trkpt>
      <trkpt lat="48.93958" lon="2.7479">
        <ele>96</ele>
        <time>2021-05-04T14:04:43.630Z</time>
      </trkpt>
      <trkpt lat="48.93963" lon="2.74762">
        <ele>96</ele>
        <time>2021-05-04T14:04:47.627Z</time>
      </trkpt>
      <trkpt lat="48.93968" lon="2.74734">
        <ele>96</ele>
        <time>2021-05-04T14:04:51.630Z</time>
      </trkpt>
      <trkpt lat="48.93975" lon="2.74698">
        <ele>96</ele>
        <time>2021-05-04T14:04:56.626Z</time>
      </trkpt>
      <trkpt lat="48.93984" lon="2.74663">
        <ele>96</ele>
        <time>2021-05-04T14:05:01.653Z</time>
      </trkpt>
      <trkpt lat="48.9399" lon="2.74628">
        <ele>96</ele>
        <time>2021-05-04T14:05:06.631Z</time>
      </trkpt>
      <trkpt lat="48.93997" lon="2.74594">
        <ele>96</ele>
        <time>2021-05-04T14:05:11.629Z</time>
      </trkpt>
      <trkpt lat="48.94004" lon="2.74561">
        <ele>96</ele>
        <time>2021-05-04T14:05:16.637Z</time>
      </trkpt>
      <trkpt lat="48.94009" lon="2.74533">
        <ele>96</ele>
        <time>2021-05-04T14:05:20.631Z</time>
      </trkpt>
      <trkpt lat="48.94017" lon="2.74499">
        <ele>96</ele>
        <time>2021-05-04T14:05:25.626Z</time>
      </trkpt>
      <trkpt lat="48.94023" lon="2.74466">
        <ele>96</ele>
        <time>2021-05-04T14:05:30.630Z</time>
      </trkpt>
      <trkpt lat="48.9403" lon="2.74434">
        <ele>97</ele>
        <time>2021-05-04T14:05:35.632Z</time>
      </trkpt>
      <trkpt lat="48.94036" lon="2.74406">
        <ele>97</ele>
        <time>2021-05-04T14:05:39.631Z</time>
      </trkpt>
      <trkpt lat="48.94042" lon="2.74379">
        <ele>97</ele>
        <time>2021-05-04T14:05:43.631Z</time>
      </trkpt>
      <trkpt lat="48.94047" lon="2.74346">
        <ele>97</ele>
        <time>2021-05-04T14:05:48.635Z</time>
      </trkpt>
      <trkpt lat="48.94051" lon="2.74316">
        <ele>97</ele>
        <time>2021-05-04T14:05:54.631Z</time>
      </trkpt>
      <trkpt lat="48.94051" lon="2.74301">
        <ele>97</ele>
        <time>2021-05-04T14:06:00.634Z</time>
      </trkpt>
      <trkpt lat="48.94051" lon="2.74301">
        <ele>98</ele>
        <time>2021-05-04T14:06:13.629Z</time>
      </trkpt>
      <trkpt lat="48.94051" lon="2.74301">
        <ele>98</ele>
        <time>2021-05-04T14:06:27.630Z</time>
      </trkpt>
      <trkpt lat="48.9406" lon="2.74267">
        <ele>99</ele>
        <time>2021-05-04T14:06:28.630Z</time>
      </trkpt>
      <trkpt lat="48.94064" lon="2.74252">
        <ele>99</ele>
        <time>2021-05-04T14:06:30.630Z</time>
      </trkpt>
      <trkpt lat="48.94068" lon="2.74235">
        <ele>99</ele>
        <time>2021-05-04T14:06:32.629Z</time>
      </trkpt>
      <trkpt lat="48.94073" lon="2.74211">
        <ele>99</ele>
        <time>2021-05-04T14:06:35.629Z</time>
      </trkpt>
      <trkpt lat="48.94081" lon="2.74173">
        <ele>99</ele>
        <time>2021-05-04T14:06:40.633Z</time>
      </trkpt>
      <trkpt lat="48.94089" lon="2.74135">
        <ele>99</ele>
        <time>2021-05-04T14:06:45.630Z</time>
      </trkpt>
      <trkpt lat="48.94097" lon="2.74096">
        <ele>99</ele>
        <time>2021-05-04T14:06:50.631Z</time>
      </trkpt>
      <trkpt lat="48.94105" lon="2.74058">
        <ele>98</ele>
        <time>2021-05-04T14:06:55.633Z</time>
      </trkpt>
      <trkpt lat="48.94112" lon="2.74023">
        <ele>98</ele>
        <time>2021-05-04T14:07:00.631Z</time>
      </trkpt>
      <trkpt lat="48.94118" lon="2.73988">
        <ele>97</ele>
        <time>2021-05-04T14:07:05.630Z</time>
      </trkpt>
      <trkpt lat="48.94125" lon="2.73956">
        <ele>97</ele>
        <time>2021-05-04T14:07:10.629Z</time>
      </trkpt>
      <trkpt lat="48.9413" lon="2.73928">
        <ele>97</ele>
        <time>2021-05-04T14:07:15.634Z</time>
      </trkpt>
      <trkpt lat="48.94134" lon="2.739">
        <ele>96</ele>
        <time>2021-05-04T14:07:20.631Z</time>
      </trkpt>
      <trkpt lat="48.94138" lon="2.73874">
        <ele>96</ele>
        <time>2021-05-04T14:07:24.630Z</time>
      </trkpt>
      <trkpt lat="48.94141" lon="2.73846">
        <ele>96</ele>
        <time>2021-05-04T14:07:28.632Z</time>
      </trkpt>
      <trkpt lat="48.94144" lon="2.73817">
        <ele>96</ele>
        <time>2021-05-04T14:07:32.632Z</time>
      </trkpt>
      <trkpt lat="48.94146" lon="2.73787">
        <ele>95</ele>
        <time>2021-05-04T14:07:36.630Z</time>
      </trkpt>
      <trkpt lat="48.94148" lon="2.7375">
        <ele>95</ele>
        <time>2021-05-04T14:07:41.633Z</time>
      </trkpt>
      <trkpt lat="48.9415" lon="2.73713">
        <ele>95</ele>
        <time>2021-05-04T14:07:46.632Z</time>
      </trkpt>
      <trkpt lat="48.94151" lon="2.7368">
        <ele>95</ele>
        <time>2021-05-04T14:07:50.630Z</time>
      </trkpt>
      <trkpt lat="48.94151" lon="2.73641">
        <ele>95</ele>
        <time>2021-05-04T14:07:55.632Z</time>
      </trkpt>
      <trkpt lat="48.94151" lon="2.73602">
        <ele>95</ele>
        <time>2021-05-04T14:08:00.630Z</time>
      </trkpt>
      <trkpt lat="48.94148" lon="2.73564">
        <ele>95</ele>
        <time>2021-05-04T14:08:05.632Z</time>
      </trkpt>
      <trkpt lat="48.94145" lon="2.73526">
        <ele>95</ele>
        <time>2021-05-04T14:08:10.632Z</time>
      </trkpt>
      <trkpt lat="48.94142" lon="2.73489">
        <ele>95</ele>
        <time>2021-05-04T14:08:15.631Z</time>
      </trkpt>
      <trkpt lat="48.94139" lon="2.73451">
        <ele>95</ele>
        <time>2021-05-04T14:08:20.630Z</time>
      </trkpt>
      <trkpt lat="48.94135" lon="2.73414">
        <ele>95</ele>
        <time>2021-05-04T14:08:25.632Z</time>
      </trkpt>
      <trkpt lat="48.94131" lon="2.73377">
        <ele>95</ele>
        <time>2021-05-04T14:08:30.632Z</time>
      </trkpt>
      <trkpt lat="48.94128" lon="2.73338">
        <ele>95</ele>
        <time>2021-05-04T14:08:35.631Z</time>
      </trkpt>
      <trkpt lat="48.94126" lon="2.73306">
        <ele>95</ele>
        <time>2021-05-04T14:08:39.633Z</time>
      </trkpt>
      <trkpt lat="48.94125" lon="2.73266">
        <ele>95</ele>
        <time>2021-05-04T14:08:44.631Z</time>
      </trkpt>
      <trkpt lat="48.94123" lon="2.73228">
        <ele>95</ele>
        <time>2021-05-04T14:08:49.632Z</time>
      </trkpt>
      <trkpt lat="48.94123" lon="2.73191">
        <ele>95</ele>
        <time>2021-05-04T14:08:54.632Z</time>
      </trkpt>
      <trkpt lat="48.94124" lon="2.73156">
        <ele>95</ele>
        <time>2021-05-04T14:08:59.631Z</time>
      </trkpt>
      <trkpt lat="48.94123" lon="2.73126">
        <ele>95</ele>
        <time>2021-05-04T14:09:03.630Z</time>
      </trkpt>
      <trkpt lat="48.94125" lon="2.7309">
        <ele>95</ele>
        <time>2021-05-04T14:09:08.631Z</time>
      </trkpt>
      <trkpt lat="48.94126" lon="2.73055">
        <ele>95</ele>
        <time>2021-05-04T14:09:13.633Z</time>
      </trkpt>
      <trkpt lat="48.94129" lon="2.73026">
        <ele>95</ele>
        <time>2021-05-04T14:09:17.633Z</time>
      </trkpt>
      <trkpt lat="48.94133" lon="2.72992">
        <ele>95</ele>
        <time>2021-05-04T14:09:22.633Z</time>
      </trkpt>
      <trkpt lat="48.94136" lon="2.72957">
        <ele>95</ele>
        <time>2021-05-04T14:09:27.628Z</time>
      </trkpt>
      <trkpt lat="48.9414" lon="2.72927">
        <ele>95</ele>
        <time>2021-05-04T14:09:31.634Z</time>
      </trkpt>
      <trkpt lat="48.94147" lon="2.72894">
        <ele>95</ele>
        <time>2021-05-04T14:09:36.632Z</time>
      </trkpt>
      <trkpt lat="48.94152" lon="2.72866">
        <ele>95</ele>
        <time>2021-05-04T14:09:40.630Z</time>
      </trkpt>
      <trkpt lat="48.94159" lon="2.72834">
        <ele>96</ele>
        <time>2021-05-04T14:09:45.631Z</time>
      </trkpt>
      <trkpt lat="48.94166" lon="2.72808">
        <ele>96</ele>
        <time>2021-05-04T14:09:49.631Z</time>
      </trkpt>
      <trkpt lat="48.94177" lon="2.72777">
        <ele>96</ele>
        <time>2021-05-04T14:09:54.633Z</time>
      </trkpt>
      <trkpt lat="48.94188" lon="2.72748">
        <ele>96</ele>
        <time>2021-05-04T14:09:59.637Z</time>
      </trkpt>
      <trkpt lat="48.94197" lon="2.72722">
        <ele>96</ele>
        <time>2021-05-04T14:10:03.637Z</time>
      </trkpt>
      <trkpt lat="48.94208" lon="2.72697">
        <ele>97</ele>
        <time>2021-05-04T14:10:07.639Z</time>
      </trkpt>
      <trkpt lat="48.94218" lon="2.72673">
        <ele>97</ele>
        <time>2021-05-04T14:10:11.628Z</time>
      </trkpt>
      <trkpt lat="48.94232" lon="2.7265">
        <ele>97</ele>
        <time>2021-05-04T14:10:15.631Z</time>
      </trkpt>
      <trkpt lat="48.94248" lon="2.72629">
        <ele>97</ele>
        <time>2021-05-04T14:10:19.633Z</time>
      </trkpt>
      <trkpt lat="48.94267" lon="2.72604">
        <ele>97</ele>
        <time>2021-05-04T14:10:24.634Z</time>
      </trkpt>
      <trkpt lat="48.94289" lon="2.72581">
        <ele>97</ele>
        <time>2021-05-04T14:10:29.630Z</time>
      </trkpt>
      <trkpt lat="48.94311" lon="2.7256">
        <ele>97</ele>
        <time>2021-05-04T14:10:34.632Z</time>
      </trkpt>
      <trkpt lat="48.94336" lon="2.72542">
        <ele>97</ele>
        <time>2021-05-04T14:10:39.627Z</time>
      </trkpt>
      <trkpt lat="48.94362" lon="2.72524">
        <ele>96</ele>
        <time>2021-05-04T14:10:44.635Z</time>
      </trkpt>
      <trkpt lat="48.94385" lon="2.72506">
        <ele>96</ele>
        <time>2021-05-04T14:10:49.630Z</time>
      </trkpt>
      <trkpt lat="48.94406" lon="2.72485">
        <ele>95</ele>
        <time>2021-05-04T14:10:54.630Z</time>
      </trkpt>
      <trkpt lat="48.94428" lon="2.72457">
        <ele>95</ele>
        <time>2021-05-04T14:10:59.629Z</time>
      </trkpt>
      <trkpt lat="48.94444" lon="2.72429">
        <ele>95</ele>
        <time>2021-05-04T14:11:04.627Z</time>
      </trkpt>
      <trkpt lat="48.94459" lon="2.72397">
        <ele>95</ele>
        <time>2021-05-04T14:11:09.629Z</time>
      </trkpt>
      <trkpt lat="48.94469" lon="2.72365">
        <ele>95</ele>
        <time>2021-05-04T14:11:14.630Z</time>
      </trkpt>
      <trkpt lat="48.94479" lon="2.72329">
        <ele>95</ele>
        <time>2021-05-04T14:11:19.627Z</time>
      </trkpt>
      <trkpt lat="48.94485" lon="2.72296">
        <ele>96</ele>
        <time>2021-05-04T14:11:24.631Z</time>
      </trkpt>
      <trkpt lat="48.94492" lon="2.72267">
        <ele>96</ele>
        <time>2021-05-04T14:11:28.630Z</time>
      </trkpt>
      <trkpt lat="48.94496" lon="2.7223">
        <ele>96</ele>
        <time>2021-05-04T14:11:33.630Z</time>
      </trkpt>
      <trkpt lat="48.94499" lon="2.72198">
        <ele>97</ele>
        <time>2021-05-04T14:11:37.630Z</time>
      </trkpt>
      <trkpt lat="48.94501" lon="2.72159">
        <ele>97</ele>
        <time>2021-05-04T14:11:42.636Z</time>
      </trkpt>
      <trkpt lat="48.94503" lon="2.72121">
        <ele>96</ele>
        <time>2021-05-04T14:11:47.628Z</time>
      </trkpt>
      <trkpt lat="48.94503" lon="2.72083">
        <ele>96</ele>
        <time>2021-05-04T14:11:52.629Z</time>
      </trkpt>
      <trkpt lat="48.94503" lon="2.72045">
        <ele>96</ele>
        <time>2021-05-04T14:11:57.631Z</time>
      </trkpt>
      <trkpt lat="48.94503" lon="2.72007">
        <ele>95</ele>
        <time>2021-05-04T14:12:02.630Z</time>
      </trkpt>
      <trkpt lat="48.94502" lon="2.71969">
        <ele>95</ele>
        <time>2021-05-04T14:12:07.635Z</time>
      </trkpt>
      <trkpt lat="48.94503" lon="2.71936">
        <ele>95</ele>
        <time>2021-05-04T14:12:11.627Z</time>
      </trkpt>
      <trkpt lat="48.94504" lon="2.71895">
        <ele>95</ele>
        <time>2021-05-04T14:12:16.632Z</time>
      </trkpt>
      <trkpt lat="48.94502" lon="2.71855">
        <ele>95</ele>
        <time>2021-05-04T14:12:21.631Z</time>
      </trkpt>
      <trkpt lat="48.94501" lon="2.71814">
        <ele>95</ele>
        <time>2021-05-04T14:12:26.628Z</time>
      </trkpt>
      <trkpt lat="48.94499" lon="2.71771">
        <ele>95</ele>
        <time>2021-05-04T14:12:32.830Z</time>
      </trkpt>
      <trkpt lat="48.94499" lon="2.71734">
        <ele>96</ele>
        <time>2021-05-04T14:12:37.633Z</time>
      </trkpt>
      <trkpt lat="48.94497" lon="2.71698">
        <ele>96</ele>
        <time>2021-05-04T14:12:42.631Z</time>
      </trkpt>
      <trkpt lat="48.94496" lon="2.71665">
        <ele>96</ele>
        <time>2021-05-04T14:12:47.633Z</time>
      </trkpt>
      <trkpt lat="48.94494" lon="2.71637">
        <ele>96</ele>
        <time>2021-05-04T14:12:51.633Z</time>
      </trkpt>
      <trkpt lat="48.94492" lon="2.71608">
        <ele>96</ele>
        <time>2021-05-04T14:12:55.638Z</time>
      </trkpt>
      <trkpt lat="48.9449" lon="2.71578">
        <ele>96</ele>
        <time>2021-05-04T14:12:59.631Z</time>
      </trkpt>
      <trkpt lat="48.9449" lon="2.71541">
        <ele>96</ele>
        <time>2021-05-04T14:13:04.631Z</time>
      </trkpt>
      <trkpt lat="48.94488" lon="2.71505">
        <ele>96</ele>
        <time>2021-05-04T14:13:09.631Z</time>
      </trkpt>
      <trkpt lat="48.94485" lon="2.71469">
        <ele>96</ele>
        <time>2021-05-04T14:13:14.630Z</time>
      </trkpt>
      <trkpt lat="48.94483" lon="2.71435">
        <ele>96</ele>
        <time>2021-05-04T14:13:19.630Z</time>
      </trkpt>
      <trkpt lat="48.94482" lon="2.71406">
        <ele>96</ele>
        <time>2021-05-04T14:13:23.631Z</time>
      </trkpt>
      <trkpt lat="48.94479" lon="2.71372">
        <ele>95</ele>
        <time>2021-05-04T14:13:28.631Z</time>
      </trkpt>
      <trkpt lat="48.94478" lon="2.71339">
        <ele>95</ele>
        <time>2021-05-04T14:13:33.632Z</time>
      </trkpt>
      <trkpt lat="48.94476" lon="2.7131">
        <ele>95</ele>
        <time>2021-05-04T14:13:37.631Z</time>
      </trkpt>
      <trkpt lat="48.94474" lon="2.71282">
        <ele>95</ele>
        <time>2021-05-04T14:13:41.637Z</time>
      </trkpt>
      <trkpt lat="48.94472" lon="2.71253">
        <ele>94</ele>
        <time>2021-05-04T14:13:45.632Z</time>
      </trkpt>
      <trkpt lat="48.9447" lon="2.71218">
        <ele>94</ele>
        <time>2021-05-04T14:13:50.631Z</time>
      </trkpt>
      <trkpt lat="48.94468" lon="2.71182">
        <ele>94</ele>
        <time>2021-05-04T14:13:55.631Z</time>
      </trkpt>
      <trkpt lat="48.94466" lon="2.71152">
        <ele>94</ele>
        <time>2021-05-04T14:13:59.631Z</time>
      </trkpt>
      <trkpt lat="48.94464" lon="2.71122">
        <ele>94</ele>
        <time>2021-05-04T14:14:03.632Z</time>
      </trkpt>
      <trkpt lat="48.94463" lon="2.71084">
        <ele>94</ele>
        <time>2021-05-04T14:14:08.631Z</time>
      </trkpt>
      <trkpt lat="48.94462" lon="2.71048">
        <ele>94</ele>
        <time>2021-05-04T14:14:13.633Z</time>
      </trkpt>
      <trkpt lat="48.94463" lon="2.71012">
        <ele>94</ele>
        <time>2021-05-04T14:14:18.630Z</time>
      </trkpt>
      <trkpt lat="48.94467" lon="2.70982">
        <ele>94</ele>
        <time>2021-05-04T14:14:22.640Z</time>
      </trkpt>
      <trkpt lat="48.94475" lon="2.70948">
        <ele>95</ele>
        <time>2021-05-04T14:14:27.633Z</time>
      </trkpt>
      <trkpt lat="48.94486" lon="2.70918">
        <ele>95</ele>
        <time>2021-05-04T14:14:32.757Z</time>
      </trkpt>
      <trkpt lat="48.94502" lon="2.70895">
        <ele>95</ele>
        <time>2021-05-04T14:14:36.634Z</time>
      </trkpt>
      <trkpt lat="48.94518" lon="2.7087">
        <ele>95</ele>
        <time>2021-05-04T14:14:40.631Z</time>
      </trkpt>
      <trkpt lat="48.94539" lon="2.70844">
        <ele>94</ele>
        <time>2021-05-04T14:14:45.633Z</time>
      </trkpt>
      <trkpt lat="48.94562" lon="2.70824">
        <ele>95</ele>
        <time>2021-05-04T14:14:50.629Z</time>
      </trkpt>
      <trkpt lat="48.94587" lon="2.70814">
        <ele>95</ele>
        <time>2021-05-04T14:14:55.630Z</time>
      </trkpt>
      <trkpt lat="48.94611" lon="2.7081">
        <ele>95</ele>
        <time>2021-05-04T14:15:00.632Z</time>
      </trkpt>
      <trkpt lat="48.94635" lon="2.7081">
        <ele>95</ele>
        <time>2021-05-04T14:15:05.630Z</time>
      </trkpt>
      <trkpt lat="48.94654" lon="2.70813">
        <ele>95</ele>
        <time>2021-05-04T14:15:10.629Z</time>
      </trkpt>
      <trkpt lat="48.94677" lon="2.70805">
        <ele>95</ele>
        <time>2021-05-04T14:15:14.630Z</time>
      </trkpt>
      <trkpt lat="48.94702" lon="2.70802">
        <ele>95</ele>
        <time>2021-05-04T14:15:19.630Z</time>
      </trkpt>
      <trkpt lat="48.94729" lon="2.70796">
        <ele>96</ele>
        <time>2021-05-04T14:15:24.630Z</time>
      </trkpt>
      <trkpt lat="48.94751" lon="2.70784">
        <ele>96</ele>
        <time>2021-05-04T14:15:28.630Z</time>
      </trkpt>
      <trkpt lat="48.94773" lon="2.70759">
        <ele>96</ele>
        <time>2021-05-04T14:15:33.627Z</time>
      </trkpt>
      <trkpt lat="48.94788" lon="2.70724">
        <ele>97</ele>
        <time>2021-05-04T14:15:38.629Z</time>
      </trkpt>
      <trkpt lat="48.94798" lon="2.7069">
        <ele>97</ele>
        <time>2021-05-04T14:15:43.633Z</time>
      </trkpt>
      <trkpt lat="48.94805" lon="2.70654">
        <ele>97</ele>
        <time>2021-05-04T14:15:48.629Z</time>
      </trkpt>
      <trkpt lat="48.94809" lon="2.70617">
        <ele>97</ele>
        <time>2021-05-04T14:15:53.626Z</time>
      </trkpt>
      <trkpt lat="48.9481" lon="2.70585">
        <ele>97</ele>
        <time>2021-05-04T14:15:57.628Z</time>
      </trkpt>
      <trkpt lat="48.94811" lon="2.70546">
        <ele>97</ele>
        <time>2021-05-04T14:16:02.639Z</time>
      </trkpt>
      <trkpt lat="48.94811" lon="2.70507">
        <ele>96</ele>
        <time>2021-05-04T14:16:07.633Z</time>
      </trkpt>
      <trkpt lat="48.9481" lon="2.70468">
        <ele>96</ele>
        <time>2021-05-04T14:16:12.627Z</time>
      </trkpt>
      <trkpt lat="48.94807" lon="2.70428">
        <ele>96</ele>
        <time>2021-05-04T14:16:17.758Z</time>
      </trkpt>
      <trkpt lat="48.94804" lon="2.70389">
        <ele>96</ele>
        <time>2021-05-04T14:16:22.631Z</time>
      </trkpt>
      <trkpt lat="48.94798" lon="2.7035">
        <ele>95</ele>
        <time>2021-05-04T14:16:27.629Z</time>
      </trkpt>
      <trkpt lat="48.94795" lon="2.70317">
        <ele>95</ele>
        <time>2021-05-04T14:16:32.630Z</time>
      </trkpt>
      <trkpt lat="48.94789" lon="2.70288">
        <ele>95</ele>
        <time>2021-05-04T14:16:37.625Z</time>
      </trkpt>
      <trkpt lat="48.94789" lon="2.70274">
        <ele>96</ele>
        <time>2021-05-04T14:16:52.626Z</time>
      </trkpt>
      <trkpt lat="48.94787" lon="2.70258">
        <ele>96</ele>
        <time>2021-05-04T14:16:56.628Z</time>
      </trkpt>
      <trkpt lat="48.94786" lon="2.70243">
        <ele>96</ele>
        <time>2021-05-04T14:16:59.629Z</time>
      </trkpt>
      <trkpt lat="48.94783" lon="2.70224">
        <ele>96</ele>
        <time>2021-05-04T14:17:02.638Z</time>
      </trkpt>
      <trkpt lat="48.94779" lon="2.70203">
        <ele>97</ele>
        <time>2021-05-04T14:17:05.629Z</time>
      </trkpt>
      <trkpt lat="48.94774" lon="2.70176">
        <ele>97</ele>
        <time>2021-05-04T14:17:09.633Z</time>
      </trkpt>
      <trkpt lat="48.94768" lon="2.70148">
        <ele>97</ele>
        <time>2021-05-04T14:17:13.630Z</time>
      </trkpt>
      <trkpt lat="48.9476" lon="2.70122">
        <ele>97</ele>
        <time>2021-05-04T14:17:17.628Z</time>
      </trkpt>
      <trkpt lat="48.94747" lon="2.70089">
        <ele>97</ele>
        <time>2021-05-04T14:17:22.634Z</time>
      </trkpt>
      <trkpt lat="48.94734" lon="2.70059">
        <ele>97</ele>
        <time>2021-05-04T14:17:27.630Z</time>
      </trkpt>
      <trkpt lat="48.9472" lon="2.70035">
        <ele>97</ele>
        <time>2021-05-04T14:17:31.627Z</time>
      </trkpt>
      <trkpt lat="48.94704" lon="2.70004">
        <ele>97</ele>
        <time>2021-05-04T14:17:36.629Z</time>
      </trkpt>
      <trkpt lat="48.94684" lon="2.69983">
        <ele>97</ele>
        <time>2021-05-04T14:17:41.629Z</time>
      </trkpt>
      <trkpt lat="48.94662" lon="2.69957">
        <ele>97</ele>
        <time>2021-05-04T14:17:46.632Z</time>
      </trkpt>
      <trkpt lat="48.94642" lon="2.69937">
        <ele>97</ele>
        <time>2021-05-04T14:17:51.672Z</time>
      </trkpt>
      <trkpt lat="48.94621" lon="2.69916">
        <ele>96</ele>
        <time>2021-05-04T14:17:56.631Z</time>
      </trkpt>
      <trkpt lat="48.94598" lon="2.69899">
        <ele>96</ele>
        <time>2021-05-04T14:18:01.646Z</time>
      </trkpt>
      <trkpt lat="48.94576" lon="2.69883">
        <ele>96</ele>
        <time>2021-05-04T14:18:06.629Z</time>
      </trkpt>
      <trkpt lat="48.94553" lon="2.69865">
        <ele>96</ele>
        <time>2021-05-04T14:18:11.633Z</time>
      </trkpt>
      <trkpt lat="48.94539" lon="2.69856">
        <ele>95</ele>
        <time>2021-05-04T14:18:19.645Z</time>
      </trkpt>
      <trkpt lat="48.94538" lon="2.69863">
        <ele>95</ele>
        <time>2021-05-04T14:18:37.659Z</time>
      </trkpt>
      <trkpt lat="48.94538" lon="2.69863">
        <ele>95</ele>
        <time>2021-05-04T14:20:12.633Z</time>
      </trkpt>
      <trkpt lat="48.94518" lon="2.6984">
        <ele>97</ele>
        <time>2021-05-04T14:20:13.632Z</time>
      </trkpt>
      <trkpt lat="48.9451" lon="2.69829">
        <ele>97</ele>
        <time>2021-05-04T14:20:17.636Z</time>
      </trkpt>
      <trkpt lat="48.94502" lon="2.69819">
        <ele>97</ele>
        <time>2021-05-04T14:20:21.629Z</time>
      </trkpt>
      <trkpt lat="48.94496" lon="2.69807">
        <ele>97</ele>
        <time>2021-05-04T14:20:25.634Z</time>
      </trkpt>
      <trkpt lat="48.9449" lon="2.69796">
        <ele>97</ele>
        <time>2021-05-04T14:20:28.635Z</time>
      </trkpt>
      <trkpt lat="48.94483" lon="2.69782">
        <ele>98</ele>
        <time>2021-05-04T14:20:31.633Z</time>
      </trkpt>
      <trkpt lat="48.94477" lon="2.69766">
        <ele>98</ele>
        <time>2021-05-04T14:20:34.634Z</time>
      </trkpt>
      <trkpt lat="48.94469" lon="2.69742">
        <ele>98</ele>
        <time>2021-05-04T14:20:38.634Z</time>
      </trkpt>
      <trkpt lat="48.94464" lon="2.69717">
        <ele>98</ele>
        <time>2021-05-04T14:20:42.634Z</time>
      </trkpt>
      <trkpt lat="48.9446" lon="2.69691">
        <ele>98</ele>
        <time>2021-05-04T14:20:46.636Z</time>
      </trkpt>
      <trkpt lat="48.94458" lon="2.69656">
        <ele>98</ele>
        <time>2021-05-04T14:20:51.629Z</time>
      </trkpt>
      <trkpt lat="48.94459" lon="2.69628">
        <ele>98</ele>
        <time>2021-05-04T14:20:55.631Z</time>
      </trkpt>
      <trkpt lat="48.9446" lon="2.69601">
        <ele>98</ele>
        <time>2021-05-04T14:20:59.636Z</time>
      </trkpt>
      <trkpt lat="48.94463" lon="2.69571">
        <ele>98</ele>
        <time>2021-05-04T14:21:03.638Z</time>
      </trkpt>
      <trkpt lat="48.9447" lon="2.69542">
        <ele>98</ele>
        <time>2021-05-04T14:21:07.635Z</time>
      </trkpt>
      <trkpt lat="48.94479" lon="2.69514">
        <ele>97</ele>
        <time>2021-05-04T14:21:11.635Z</time>
      </trkpt>
      <trkpt lat="48.94486" lon="2.69479">
        <ele>96</ele>
        <time>2021-05-04T14:21:16.635Z</time>
      </trkpt>
      <trkpt lat="48.94493" lon="2.69446">
        <ele>95</ele>
        <time>2021-05-04T14:21:21.632Z</time>
      </trkpt>
      <trkpt lat="48.94498" lon="2.69412">
        <ele>94</ele>
        <time>2021-05-04T14:21:26.632Z</time>
      </trkpt>
      <trkpt lat="48.94502" lon="2.6938">
        <ele>94</ele>
        <time>2021-05-04T14:21:31.635Z</time>
      </trkpt>
      <trkpt lat="48.94507" lon="2.69346">
        <ele>93</ele>
        <time>2021-05-04T14:21:36.638Z</time>
      </trkpt>
      <trkpt lat="48.94509" lon="2.69319">
        <ele>93</ele>
        <time>2021-05-04T14:21:40.633Z</time>
      </trkpt>
      <trkpt lat="48.94511" lon="2.69286">
        <ele>93</ele>
        <time>2021-05-04T14:21:45.633Z</time>
      </trkpt>
      <trkpt lat="48.94513" lon="2.69258">
        <ele>92</ele>
        <time>2021-05-04T14:21:49.635Z</time>
      </trkpt>
      <trkpt lat="48.94514" lon="2.6923">
        <ele>92</ele>
        <time>2021-05-04T14:21:53.628Z</time>
      </trkpt>
      <trkpt lat="48.94516" lon="2.69202">
        <ele>92</ele>
        <time>2021-05-04T14:21:57.627Z</time>
      </trkpt>
      <trkpt lat="48.94518" lon="2.69173">
        <ele>92</ele>
        <time>2021-05-04T14:22:01.635Z</time>
      </trkpt>
      <trkpt lat="48.94522" lon="2.69137">
        <ele>92</ele>
        <time>2021-05-04T14:22:06.636Z</time>
      </trkpt>
      <trkpt lat="48.94529" lon="2.69103">
        <ele>92</ele>
        <time>2021-05-04T14:22:11.632Z</time>
      </trkpt>
      <trkpt lat="48.9453" lon="2.69075">
        <ele>92</ele>
        <time>2021-05-04T14:22:17.634Z</time>
      </trkpt>
      <trkpt lat="48.94538" lon="2.69056">
        <ele>91</ele>
        <time>2021-05-04T14:22:21.635Z</time>
      </trkpt>
      <trkpt lat="48.94546" lon="2.69036">
        <ele>91</ele>
        <time>2021-05-04T14:22:25.635Z</time>
      </trkpt>
      <trkpt lat="48.94556" lon="2.69015">
        <ele>91</ele>
        <time>2021-05-04T14:22:29.630Z</time>
      </trkpt>
      <trkpt lat="48.94565" lon="2.68994">
        <ele>92</ele>
        <time>2021-05-04T14:22:33.634Z</time>
      </trkpt>
      <trkpt lat="48.94575" lon="2.68971">
        <ele>92</ele>
        <time>2021-05-04T14:22:38.631Z</time>
      </trkpt>
      <trkpt lat="48.94585" lon="2.68958">
        <ele>93</ele>
        <time>2021-05-04T14:22:43.634Z</time>
      </trkpt>
      <trkpt lat="48.94591" lon="2.68942">
        <ele>93</ele>
        <time>2021-05-04T14:22:48.634Z</time>
      </trkpt>
      <trkpt lat="48.94598" lon="2.6893">
        <ele>94</ele>
        <time>2021-05-04T14:22:52.634Z</time>
      </trkpt>
      <trkpt lat="48.94605" lon="2.68923">
        <ele>96</ele>
        <time>2021-05-04T14:23:22.634Z</time>
      </trkpt>
      <trkpt lat="48.94605" lon="2.68923">
        <ele>96</ele>
        <time>2021-05-04T14:31:27.632Z</time>
      </trkpt>
      <trkpt lat="48.9461" lon="2.68887">
        <ele>97</ele>
        <time>2021-05-04T14:31:28.631Z</time>
      </trkpt>
      <trkpt lat="48.94618" lon="2.68876">
        <ele>97</ele>
        <time>2021-05-04T14:31:33.631Z</time>
      </trkpt>
      <trkpt lat="48.94625" lon="2.68866">
        <ele>97</ele>
        <time>2021-05-04T14:31:38.630Z</time>
      </trkpt>
      <trkpt lat="48.94626" lon="2.68862">
        <ele>98</ele>
        <time>2021-05-04T14:31:54.627Z</time>
      </trkpt>
      <trkpt lat="48.94626" lon="2.68862">
        <ele>98</ele>
        <time>2021-05-04T14:32:21.632Z</time>
      </trkpt>
      <trkpt lat="48.94646" lon="2.68842">
        <ele>98</ele>
        <time>2021-05-04T14:32:22.634Z</time>
      </trkpt>
      <trkpt lat="48.94658" lon="2.68836">
        <ele>98</ele>
        <time>2021-05-04T14:32:26.632Z</time>
      </trkpt>
      <trkpt lat="48.94666" lon="2.68834">
        <ele>98</ele>
        <time>2021-05-04T14:32:29.633Z</time>
      </trkpt>
      <trkpt lat="48.94677" lon="2.68833">
        <ele>98</ele>
        <time>2021-05-04T14:32:33.631Z</time>
      </trkpt>
      <trkpt lat="48.94688" lon="2.68832">
        <ele>99</ele>
        <time>2021-05-04T14:32:37.629Z</time>
      </trkpt>
      <trkpt lat="48.94699" lon="2.68835">
        <ele>99</ele>
        <time>2021-05-04T14:32:41.634Z</time>
      </trkpt>
      <trkpt lat="48.94711" lon="2.68837">
        <ele>99</ele>
        <time>2021-05-04T14:32:45.638Z</time>
      </trkpt>
      <trkpt lat="48.94724" lon="2.68843">
        <ele>100</ele>
        <time>2021-05-04T14:32:49.634Z</time>
      </trkpt>
      <trkpt lat="48.94735" lon="2.6885">
        <ele>101</ele>
        <time>2021-05-04T14:32:52.632Z</time>
      </trkpt>
      <trkpt lat="48.94749" lon="2.68859">
        <ele>102</ele>
        <time>2021-05-04T14:32:56.631Z</time>
      </trkpt>
      <trkpt lat="48.94763" lon="2.68874">
        <ele>102</ele>
        <time>2021-05-04T14:33:01.631Z</time>
      </trkpt>
      <trkpt lat="48.94774" lon="2.68892">
        <ele>103</ele>
        <time>2021-05-04T14:33:05.631Z</time>
      </trkpt>
      <trkpt lat="48.94786" lon="2.68913">
        <ele>104</ele>
        <time>2021-05-04T14:33:09.628Z</time>
      </trkpt>
      <trkpt lat="48.94795" lon="2.68936">
        <ele>104</ele>
        <time>2021-05-04T14:33:13.631Z</time>
      </trkpt>
      <trkpt lat="48.94807" lon="2.6896">
        <ele>105</ele>
        <time>2021-05-04T14:33:17.635Z</time>
      </trkpt>
      <trkpt lat="48.94818" lon="2.68984">
        <ele>105</ele>
        <time>2021-05-04T14:33:21.631Z</time>
      </trkpt>
      <trkpt lat="48.9483" lon="2.6901">
        <ele>105</ele>
        <time>2021-05-04T14:33:25.630Z</time>
      </trkpt>
      <trkpt lat="48.94845" lon="2.69042">
        <ele>105</ele>
        <time>2021-05-04T14:33:30.630Z</time>
      </trkpt>
      <trkpt lat="48.94858" lon="2.69071">
        <ele>105</ele>
        <time>2021-05-04T14:33:35.630Z</time>
      </trkpt>
      <trkpt lat="48.9487" lon="2.69102">
        <ele>104</ele>
        <time>2021-05-04T14:33:40.627Z</time>
      </trkpt>
      <trkpt lat="48.9489" lon="2.69115">
        <ele>104</ele>
        <time>2021-05-04T14:33:44.629Z</time>
      </trkpt>
      <trkpt lat="48.94912" lon="2.69134">
        <ele>104</ele>
        <time>2021-05-04T14:33:49.630Z</time>
      </trkpt>
      <trkpt lat="48.94936" lon="2.69149">
        <ele>103</ele>
        <time>2021-05-04T14:33:54.629Z</time>
      </trkpt>
      <trkpt lat="48.94959" lon="2.69159">
        <ele>103</ele>
        <time>2021-05-04T14:33:59.630Z</time>
      </trkpt>
      <trkpt lat="48.9498" lon="2.69163">
        <ele>102</ele>
        <time>2021-05-04T14:34:03.630Z</time>
      </trkpt>
      <trkpt lat="48.95005" lon="2.6916">
        <ele>102</ele>
        <time>2021-05-04T14:34:08.629Z</time>
      </trkpt>
      <trkpt lat="48.95028" lon="2.69149">
        <ele>101</ele>
        <time>2021-05-04T14:34:12.631Z</time>
      </trkpt>
      <trkpt lat="48.9505" lon="2.69132">
        <ele>101</ele>
        <time>2021-05-04T14:34:17.634Z</time>
      </trkpt>
      <trkpt lat="48.95067" lon="2.69105">
        <ele>100</ele>
        <time>2021-05-04T14:34:22.627Z</time>
      </trkpt>
      <trkpt lat="48.95082" lon="2.69081">
        <ele>99</ele>
        <time>2021-05-04T14:34:26.629Z</time>
      </trkpt>
      <trkpt lat="48.95097" lon="2.69051">
        <ele>99</ele>
        <time>2021-05-04T14:34:31.634Z</time>
      </trkpt>
      <trkpt lat="48.9511" lon="2.6902">
        <ele>98</ele>
        <time>2021-05-04T14:34:36.634Z</time>
      </trkpt>
      <trkpt lat="48.95123" lon="2.68991">
        <ele>98</ele>
        <time>2021-05-04T14:34:41.634Z</time>
      </trkpt>
      <trkpt lat="48.95137" lon="2.68962">
        <ele>97</ele>
        <time>2021-05-04T14:34:46.631Z</time>
      </trkpt>
      <trkpt lat="48.95147" lon="2.68938">
        <ele>96</ele>
        <time>2021-05-04T14:34:50.643Z</time>
      </trkpt>
      <trkpt lat="48.9516" lon="2.68912">
        <ele>96</ele>
        <time>2021-05-04T14:34:54.631Z</time>
      </trkpt>
      <trkpt lat="48.95172" lon="2.68879">
        <ele>95</ele>
        <time>2021-05-04T14:34:59.641Z</time>
      </trkpt>
      <trkpt lat="48.95184" lon="2.68846">
        <ele>94</ele>
        <time>2021-05-04T14:35:04.632Z</time>
      </trkpt>
      <trkpt lat="48.95192" lon="2.68817">
        <ele>94</ele>
        <time>2021-05-04T14:35:08.636Z</time>
      </trkpt>
      <trkpt lat="48.95196" lon="2.68786">
        <ele>94</ele>
        <time>2021-05-04T14:35:12.639Z</time>
      </trkpt>
      <trkpt lat="48.95201" lon="2.68748">
        <ele>93</ele>
        <time>2021-05-04T14:35:17.627Z</time>
      </trkpt>
      <trkpt lat="48.95208" lon="2.68712">
        <ele>93</ele>
        <time>2021-05-04T14:35:22.629Z</time>
      </trkpt>
      <trkpt lat="48.95212" lon="2.68681">
        <ele>93</ele>
        <time>2021-05-04T14:35:26.637Z</time>
      </trkpt>
      <trkpt lat="48.95217" lon="2.68645">
        <ele>92</ele>
        <time>2021-05-04T14:35:31.640Z</time>
      </trkpt>
      <trkpt lat="48.9522" lon="2.6861">
        <ele>93</ele>
        <time>2021-05-04T14:35:36.637Z</time>
      </trkpt>
      <trkpt lat="48.95223" lon="2.68581">
        <ele>93</ele>
        <time>2021-05-04T14:35:40.637Z</time>
      </trkpt>
      <trkpt lat="48.95226" lon="2.68551">
        <ele>93</ele>
        <time>2021-05-04T14:35:44.634Z</time>
      </trkpt>
      <trkpt lat="48.9523" lon="2.68514">
        <ele>93</ele>
        <time>2021-05-04T14:35:49.632Z</time>
      </trkpt>
      <trkpt lat="48.95234" lon="2.68477">
        <ele>94</ele>
        <time>2021-05-04T14:35:54.642Z</time>
      </trkpt>
      <trkpt lat="48.95239" lon="2.68441">
        <ele>94</ele>
        <time>2021-05-04T14:35:59.633Z</time>
      </trkpt>
      <trkpt lat="48.95244" lon="2.68405">
        <ele>94</ele>
        <time>2021-05-04T14:36:04.635Z</time>
      </trkpt>
      <trkpt lat="48.95247" lon="2.68373">
        <ele>94</ele>
        <time>2021-05-04T14:36:08.632Z</time>
      </trkpt>
      <trkpt lat="48.95252" lon="2.68334">
        <ele>94</ele>
        <time>2021-05-04T14:36:13.633Z</time>
      </trkpt>
      <trkpt lat="48.95256" lon="2.68294">
        <ele>94</ele>
        <time>2021-05-04T14:36:18.635Z</time>
      </trkpt>
      <trkpt lat="48.95259" lon="2.68255">
        <ele>94</ele>
        <time>2021-05-04T14:36:23.634Z</time>
      </trkpt>
      <trkpt lat="48.95258" lon="2.68215">
        <ele>94</ele>
        <time>2021-05-04T14:36:28.637Z</time>
      </trkpt>
      <trkpt lat="48.95257" lon="2.68177">
        <ele>94</ele>
        <time>2021-05-04T14:36:33.634Z</time>
      </trkpt>
      <trkpt lat="48.95259" lon="2.68138">
        <ele>94</ele>
        <time>2021-05-04T14:36:38.634Z</time>
      </trkpt>
      <trkpt lat="48.95259" lon="2.68098">
        <ele>94</ele>
        <time>2021-05-04T14:36:43.634Z</time>
      </trkpt>
      <trkpt lat="48.95258" lon="2.68059">
        <ele>94</ele>
        <time>2021-05-04T14:36:48.634Z</time>
      </trkpt>
      <trkpt lat="48.95257" lon="2.68019">
        <ele>94</ele>
        <time>2021-05-04T14:36:53.635Z</time>
      </trkpt>
      <trkpt lat="48.95257" lon="2.6798">
        <ele>94</ele>
        <time>2021-05-04T14:36:58.633Z</time>
      </trkpt>
      <trkpt lat="48.95258" lon="2.6794">
        <ele>95</ele>
        <time>2021-05-04T14:37:03.632Z</time>
      </trkpt>
      <trkpt lat="48.95262" lon="2.67904">
        <ele>95</ele>
        <time>2021-05-04T14:37:08.632Z</time>
      </trkpt>
      <trkpt lat="48.95268" lon="2.67866">
        <ele>95</ele>
        <time>2021-05-04T14:37:13.635Z</time>
      </trkpt>
      <trkpt lat="48.95281" lon="2.67835">
        <ele>95</ele>
        <time>2021-05-04T14:37:18.632Z</time>
      </trkpt>
      <trkpt lat="48.95295" lon="2.67804">
        <ele>95</ele>
        <time>2021-05-04T14:37:23.633Z</time>
      </trkpt>
      <trkpt lat="48.95309" lon="2.67781">
        <ele>95</ele>
        <time>2021-05-04T14:37:27.635Z</time>
      </trkpt>
      <trkpt lat="48.95328" lon="2.67755">
        <ele>94</ele>
        <time>2021-05-04T14:37:32.631Z</time>
      </trkpt>
      <trkpt lat="48.95347" lon="2.6773">
        <ele>94</ele>
        <time>2021-05-04T14:37:37.632Z</time>
      </trkpt>
      <trkpt lat="48.95369" lon="2.67707">
        <ele>94</ele>
        <time>2021-05-04T14:37:42.631Z</time>
      </trkpt>
      <trkpt lat="48.95387" lon="2.6769">
        <ele>94</ele>
        <time>2021-05-04T14:37:46.633Z</time>
      </trkpt>
      <trkpt lat="48.9541" lon="2.67672">
        <ele>94</ele>
        <time>2021-05-04T14:37:51.634Z</time>
      </trkpt>
      <trkpt lat="48.95432" lon="2.67653">
        <ele>94</ele>
        <time>2021-05-04T14:37:56.633Z</time>
      </trkpt>
      <trkpt lat="48.95455" lon="2.67636">
        <ele>94</ele>
        <time>2021-05-04T14:38:01.632Z</time>
      </trkpt>
      <trkpt lat="48.95478" lon="2.67621">
        <ele>95</ele>
        <time>2021-05-04T14:38:06.634Z</time>
      </trkpt>
      <trkpt lat="48.95503" lon="2.67615">
        <ele>95</ele>
        <time>2021-05-04T14:38:11.633Z</time>
      </trkpt>
      <trkpt lat="48.95529" lon="2.67615">
        <ele>95</ele>
        <time>2021-05-04T14:38:16.634Z</time>
      </trkpt>
      <trkpt lat="48.95554" lon="2.67622">
        <ele>96</ele>
        <time>2021-05-04T14:38:21.637Z</time>
      </trkpt>
      <trkpt lat="48.95578" lon="2.67635">
        <ele>96</ele>
        <time>2021-05-04T14:38:26.629Z</time>
      </trkpt>
      <trkpt lat="48.95601" lon="2.67651">
        <ele>97</ele>
        <time>2021-05-04T14:38:31.632Z</time>
      </trkpt>
      <trkpt lat="48.95624" lon="2.67667">
        <ele>98</ele>
        <time>2021-05-04T14:38:36.630Z</time>
      </trkpt>
      <trkpt lat="48.95644" lon="2.67681">
        <ele>98</ele>
        <time>2021-05-04T14:38:40.633Z</time>
      </trkpt>
      <trkpt lat="48.95668" lon="2.67697">
        <ele>99</ele>
        <time>2021-05-04T14:38:45.635Z</time>
      </trkpt>
      <trkpt lat="48.95693" lon="2.67705">
        <ele>99</ele>
        <time>2021-05-04T14:38:50.634Z</time>
      </trkpt>
      <trkpt lat="48.95719" lon="2.67702">
        <ele>100</ele>
        <time>2021-05-04T14:38:55.631Z</time>
      </trkpt>
      <trkpt lat="48.95745" lon="2.67693">
        <ele>100</ele>
        <time>2021-05-04T14:39:00.639Z</time>
      </trkpt>
      <trkpt lat="48.95771" lon="2.67678">
        <ele>100</ele>
        <time>2021-05-04T14:39:05.634Z</time>
      </trkpt>
      <trkpt lat="48.95794" lon="2.67661">
        <ele>100</ele>
        <time>2021-05-04T14:39:10.631Z</time>
      </trkpt>
      <trkpt lat="48.95818" lon="2.6764">
        <ele>100</ele>
        <time>2021-05-04T14:39:15.634Z</time>
      </trkpt>
      <trkpt lat="48.9584" lon="2.67617">
        <ele>99</ele>
        <time>2021-05-04T14:39:20.630Z</time>
      </trkpt>
      <trkpt lat="48.95862" lon="2.6759">
        <ele>99</ele>
        <time>2021-05-04T14:39:25.633Z</time>
      </trkpt>
      <trkpt lat="48.95879" lon="2.67559">
        <ele>98</ele>
        <time>2021-05-04T14:39:30.638Z</time>
      </trkpt>
      <trkpt lat="48.95895" lon="2.67525">
        <ele>97</ele>
        <time>2021-05-04T14:39:35.629Z</time>
      </trkpt>
      <trkpt lat="48.95906" lon="2.67488">
        <ele>97</ele>
        <time>2021-05-04T14:39:40.634Z</time>
      </trkpt>
      <trkpt lat="48.95914" lon="2.6745">
        <ele>96</ele>
        <time>2021-05-04T14:39:45.627Z</time>
      </trkpt>
      <trkpt lat="48.95916" lon="2.67416">
        <ele>95</ele>
        <time>2021-05-04T14:39:49.628Z</time>
      </trkpt>
      <trkpt lat="48.95919" lon="2.67377">
        <ele>95</ele>
        <time>2021-05-04T14:39:54.629Z</time>
      </trkpt>
      <trkpt lat="48.9592" lon="2.67339">
        <ele>94</ele>
        <time>2021-05-04T14:39:59.635Z</time>
      </trkpt>
      <trkpt lat="48.9592" lon="2.67304">
        <ele>94</ele>
        <time>2021-05-04T14:40:04.632Z</time>
      </trkpt>
      <trkpt lat="48.95918" lon="2.67267">
        <ele>94</ele>
        <time>2021-05-04T14:40:09.634Z</time>
      </trkpt>
      <trkpt lat="48.95915" lon="2.6723">
        <ele>94</ele>
        <time>2021-05-04T14:40:14.636Z</time>
      </trkpt>
      <trkpt lat="48.95913" lon="2.67195">
        <ele>94</ele>
        <time>2021-05-04T14:40:19.635Z</time>
      </trkpt>
      <trkpt lat="48.95908" lon="2.67159">
        <ele>94</ele>
        <time>2021-05-04T14:40:24.628Z</time>
      </trkpt>
      <trkpt lat="48.95902" lon="2.67129">
        <ele>94</ele>
        <time>2021-05-04T14:40:28.633Z</time>
      </trkpt>
      <trkpt lat="48.95893" lon="2.671">
        <ele>95</ele>
        <time>2021-05-04T14:40:32.632Z</time>
      </trkpt>
      <trkpt lat="48.95884" lon="2.67066">
        <ele>95</ele>
        <time>2021-05-04T14:40:37.634Z</time>
      </trkpt>
      <trkpt lat="48.95874" lon="2.67034">
        <ele>96</ele>
        <time>2021-05-04T14:40:42.634Z</time>
      </trkpt>
      <trkpt lat="48.95862" lon="2.67009">
        <ele>97</ele>
        <time>2021-05-04T14:40:46.635Z</time>
      </trkpt>
      <trkpt lat="48.95849" lon="2.66983">
        <ele>98</ele>
        <time>2021-05-04T14:40:50.638Z</time>
      </trkpt>
      <trkpt lat="48.95834" lon="2.66952">
        <ele>98</ele>
        <time>2021-05-04T14:40:55.635Z</time>
      </trkpt>
      <trkpt lat="48.95815" lon="2.66923">
        <ele>99</ele>
        <time>2021-05-04T14:41:00.642Z</time>
      </trkpt>
      <trkpt lat="48.95795" lon="2.66898">
        <ele>100</ele>
        <time>2021-05-04T14:41:05.642Z</time>
      </trkpt>
      <trkpt lat="48.95774" lon="2.66873">
        <ele>100</ele>
        <time>2021-05-04T14:41:10.668Z</time>
      </trkpt>
      <trkpt lat="48.95755" lon="2.6685">
        <ele>101</ele>
        <time>2021-05-04T14:41:15.632Z</time>
      </trkpt>
      <trkpt lat="48.95737" lon="2.66825">
        <ele>101</ele>
        <time>2021-05-04T14:41:20.694Z</time>
      </trkpt>
      <trkpt lat="48.95723" lon="2.66802">
        <ele>101</ele>
        <time>2021-05-04T14:41:24.644Z</time>
      </trkpt>
      <trkpt lat="48.9571" lon="2.66776">
        <ele>101</ele>
        <time>2021-05-04T14:41:28.643Z</time>
      </trkpt>
      <trkpt lat="48.95698" lon="2.66741">
        <ele>101</ele>
        <time>2021-05-04T14:41:33.675Z</time>
      </trkpt>
      <trkpt lat="48.95689" lon="2.66704">
        <ele>101</ele>
        <time>2021-05-04T14:41:38.674Z</time>
      </trkpt>
      <trkpt lat="48.95684" lon="2.66667">
        <ele>101</ele>
        <time>2021-05-04T14:41:43.652Z</time>
      </trkpt>
      <trkpt lat="48.95679" lon="2.6663">
        <ele>100</ele>
        <time>2021-05-04T14:41:48.654Z</time>
      </trkpt>
      <trkpt lat="48.95676" lon="2.66598">
        <ele>100</ele>
        <time>2021-05-04T14:41:53.662Z</time>
      </trkpt>
      <trkpt lat="48.95672" lon="2.6657">
        <ele>99</ele>
        <time>2021-05-04T14:41:58.664Z</time>
      </trkpt>
      <trkpt lat="48.95674" lon="2.66546">
        <ele>99</ele>
        <time>2021-05-04T14:42:02.668Z</time>
      </trkpt>
      <trkpt lat="48.9567" lon="2.66521">
        <ele>98</ele>
        <time>2021-05-04T14:42:08.657Z</time>
      </trkpt>
      <trkpt lat="48.95667" lon="2.66496">
        <ele>97</ele>
        <time>2021-05-04T14:42:12.663Z</time>
      </trkpt>
      <trkpt lat="48.95661" lon="2.66479">
        <ele>97</ele>
        <time>2021-05-04T14:42:19.630Z</time>
      </trkpt>
      <trkpt lat="48.95661" lon="2.66464">
        <ele>97</ele>
        <time>2021-05-04T14:42:29.632Z</time>
      </trkpt>
      <trkpt lat="48.9566" lon="2.66449">
        <ele>97</ele>
        <time>2021-05-04T14:42:42.632Z</time>
      </trkpt>
      <trkpt lat="48.95659" lon="2.66434">
        <ele>98</ele>
        <time>2021-05-04T14:42:50.630Z</time>
      </trkpt>
      <trkpt lat="48.95666" lon="2.66423">
        <ele>99</ele>
        <time>2021-05-04T14:43:01.636Z</time>
      </trkpt>
      <trkpt lat="48.95675" lon="2.66413">
        <ele>99</ele>
        <time>2021-05-04T14:43:06.625Z</time>
      </trkpt>
      <trkpt lat="48.95676" lon="2.66399">
        <ele>99</ele>
        <time>2021-05-04T14:43:09.626Z</time>
      </trkpt>
      <trkpt lat="48.95675" lon="2.66384">
        <ele>99</ele>
        <time>2021-05-04T14:43:11.625Z</time>
      </trkpt>
      <trkpt lat="48.95674" lon="2.66367">
        <ele>100</ele>
        <time>2021-05-04T14:43:13.626Z</time>
      </trkpt>
      <trkpt lat="48.95673" lon="2.66338">
        <ele>100</ele>
        <time>2021-05-04T14:43:16.629Z</time>
      </trkpt>
      <trkpt lat="48.95669" lon="2.66295">
        <ele>100</ele>
        <time>2021-05-04T14:43:21.629Z</time>
      </trkpt>
      <trkpt lat="48.95668" lon="2.66255">
        <ele>100</ele>
        <time>2021-05-04T14:43:27.631Z</time>
      </trkpt>
      <trkpt lat="48.95667" lon="2.66218">
        <ele>101</ele>
        <time>2021-05-04T14:43:32.634Z</time>
      </trkpt>
      <trkpt lat="48.95661" lon="2.66191">
        <ele>102</ele>
        <time>2021-05-04T14:43:36.631Z</time>
      </trkpt>
      <trkpt lat="48.95657" lon="2.66154">
        <ele>103</ele>
        <time>2021-05-04T14:43:40.632Z</time>
      </trkpt>
      <trkpt lat="48.95652" lon="2.66115">
        <ele>104</ele>
        <time>2021-05-04T14:43:44.634Z</time>
      </trkpt>
      <trkpt lat="48.95649" lon="2.66069">
        <ele>105</ele>
        <time>2021-05-04T14:43:49.632Z</time>
      </trkpt>
      <trkpt lat="48.95648" lon="2.66027">
        <ele>105</ele>
        <time>2021-05-04T14:43:54.635Z</time>
      </trkpt>
      <trkpt lat="48.95643" lon="2.65984">
        <ele>106</ele>
        <time>2021-05-04T14:43:59.631Z</time>
      </trkpt>
      <trkpt lat="48.95638" lon="2.65949">
        <ele>106</ele>
        <time>2021-05-04T14:44:03.633Z</time>
      </trkpt>
      <trkpt lat="48.95632" lon="2.65912">
        <ele>108</ele>
        <time>2021-05-04T14:44:08.642Z</time>
      </trkpt>
      <trkpt lat="48.95628" lon="2.65877">
        <ele>108</ele>
        <time>2021-05-04T14:44:12.631Z</time>
      </trkpt>
      <trkpt lat="48.95629" lon="2.65838">
        <ele>108</ele>
        <time>2021-05-04T14:44:16.629Z</time>
      </trkpt>
      <trkpt lat="48.95623" lon="2.65791">
        <ele>107</ele>
        <time>2021-05-04T14:44:21.632Z</time>
      </trkpt>
      <trkpt lat="48.95622" lon="2.65748">
        <ele>106</ele>
        <time>2021-05-04T14:44:26.632Z</time>
      </trkpt>
      <trkpt lat="48.95618" lon="2.65708">
        <ele>105</ele>
        <time>2021-05-04T14:44:31.634Z</time>
      </trkpt>
      <trkpt lat="48.95615" lon="2.65668">
        <ele>105</ele>
        <time>2021-05-04T14:44:36.632Z</time>
      </trkpt>
      <trkpt lat="48.95612" lon="2.65627">
        <ele>105</ele>
        <time>2021-05-04T14:44:41.629Z</time>
      </trkpt>
      <trkpt lat="48.95609" lon="2.65586">
        <ele>105</ele>
        <time>2021-05-04T14:44:46.634Z</time>
      </trkpt>
      <trkpt lat="48.95604" lon="2.65551">
        <ele>104</ele>
        <time>2021-05-04T14:44:51.633Z</time>
      </trkpt>
      <trkpt lat="48.95603" lon="2.65519">
        <ele>104</ele>
        <time>2021-05-04T14:44:55.628Z</time>
      </trkpt>
      <trkpt lat="48.95598" lon="2.65481">
        <ele>103</ele>
        <time>2021-05-04T14:45:00.632Z</time>
      </trkpt>
      <trkpt lat="48.95596" lon="2.65445">
        <ele>104</ele>
        <time>2021-05-04T14:45:04.651Z</time>
      </trkpt>
      <trkpt lat="48.95591" lon="2.65401">
        <ele>104</ele>
        <time>2021-05-04T14:45:09.630Z</time>
      </trkpt>
      <trkpt lat="48.95587" lon="2.65352">
        <ele>104</ele>
        <time>2021-05-04T14:45:14.631Z</time>
      </trkpt>
      <trkpt lat="48.95582" lon="2.65304">
        <ele>103</ele>
        <time>2021-05-04T14:45:19.629Z</time>
      </trkpt>
      <trkpt lat="48.95577" lon="2.65261">
        <ele>103</ele>
        <time>2021-05-04T14:45:24.630Z</time>
      </trkpt>
      <trkpt lat="48.95573" lon="2.65217">
        <ele>103</ele>
        <time>2021-05-04T14:45:29.629Z</time>
      </trkpt>
      <trkpt lat="48.95569" lon="2.65174">
        <ele>102</ele>
        <time>2021-05-04T14:45:34.630Z</time>
      </trkpt>
      <trkpt lat="48.95566" lon="2.65133">
        <ele>102</ele>
        <time>2021-05-04T14:45:39.627Z</time>
      </trkpt>
      <trkpt lat="48.95563" lon="2.65093">
        <ele>101</ele>
        <time>2021-05-04T14:45:44.630Z</time>
      </trkpt>
      <trkpt lat="48.9556" lon="2.65057">
        <ele>101</ele>
        <time>2021-05-04T14:45:48.628Z</time>
      </trkpt>
      <trkpt lat="48.95557" lon="2.6502">
        <ele>101</ele>
        <time>2021-05-04T14:45:52.633Z</time>
      </trkpt>
      <trkpt lat="48.95554" lon="2.64978">
        <ele>101</ele>
        <time>2021-05-04T14:45:57.630Z</time>
      </trkpt>
      <trkpt lat="48.9555" lon="2.64939">
        <ele>101</ele>
        <time>2021-05-04T14:46:02.631Z</time>
      </trkpt>
      <trkpt lat="48.95547" lon="2.649">
        <ele>101</ele>
        <time>2021-05-04T14:46:07.632Z</time>
      </trkpt>
      <trkpt lat="48.95542" lon="2.64861">
        <ele>101</ele>
        <time>2021-05-04T14:46:12.648Z</time>
      </trkpt>
      <trkpt lat="48.95538" lon="2.64826">
        <ele>102</ele>
        <time>2021-05-04T14:46:16.633Z</time>
      </trkpt>
      <trkpt lat="48.95534" lon="2.64787">
        <ele>103</ele>
        <time>2021-05-04T14:46:21.630Z</time>
      </trkpt>
      <trkpt lat="48.95532" lon="2.64742">
        <ele>103</ele>
        <time>2021-05-04T14:46:26.629Z</time>
      </trkpt>
      <trkpt lat="48.95527" lon="2.64705">
        <ele>104</ele>
        <time>2021-05-04T14:46:30.634Z</time>
      </trkpt>
      <trkpt lat="48.95523" lon="2.6466">
        <ele>104</ele>
        <time>2021-05-04T14:46:35.630Z</time>
      </trkpt>
      <trkpt lat="48.95518" lon="2.64617">
        <ele>105</ele>
        <time>2021-05-04T14:46:40.635Z</time>
      </trkpt>
      <trkpt lat="48.95515" lon="2.64578">
        <ele>105</ele>
        <time>2021-05-04T14:46:44.631Z</time>
      </trkpt>
      <trkpt lat="48.95512" lon="2.64534">
        <ele>106</ele>
        <time>2021-05-04T14:46:49.627Z</time>
      </trkpt>
      <trkpt lat="48.95509" lon="2.64489">
        <ele>106</ele>
        <time>2021-05-04T14:46:54.624Z</time>
      </trkpt>
      <trkpt lat="48.95504" lon="2.64446">
        <ele>107</ele>
        <time>2021-05-04T14:46:59.630Z</time>
      </trkpt>
      <trkpt lat="48.95502" lon="2.64404">
        <ele>107</ele>
        <time>2021-05-04T14:47:04.630Z</time>
      </trkpt>
      <trkpt lat="48.95498" lon="2.64362">
        <ele>106</ele>
        <time>2021-05-04T14:47:09.627Z</time>
      </trkpt>
      <trkpt lat="48.95495" lon="2.64323">
        <ele>106</ele>
        <time>2021-05-04T14:47:14.627Z</time>
      </trkpt>
      <trkpt lat="48.95492" lon="2.64285">
        <ele>105</ele>
        <time>2021-05-04T14:47:19.626Z</time>
      </trkpt>
      <trkpt lat="48.9549" lon="2.6425">
        <ele>105</ele>
        <time>2021-05-04T14:47:23.631Z</time>
      </trkpt>
      <trkpt lat="48.95487" lon="2.64209">
        <ele>105</ele>
        <time>2021-05-04T14:47:28.631Z</time>
      </trkpt>
      <trkpt lat="48.95481" lon="2.64168">
        <ele>104</ele>
        <time>2021-05-04T14:47:33.631Z</time>
      </trkpt>
      <trkpt lat="48.95477" lon="2.64132">
        <ele>103</ele>
        <time>2021-05-04T14:47:38.628Z</time>
      </trkpt>
      <trkpt lat="48.95474" lon="2.64098">
        <ele>103</ele>
        <time>2021-05-04T14:47:43.636Z</time>
      </trkpt>
      <trkpt lat="48.95471" lon="2.64063">
        <ele>103</ele>
        <time>2021-05-04T14:47:48.630Z</time>
      </trkpt>
      <trkpt lat="48.95469" lon="2.64032">
        <ele>103</ele>
        <time>2021-05-04T14:47:52.632Z</time>
      </trkpt>
      <trkpt lat="48.95466" lon="2.63999">
        <ele>103</ele>
        <time>2021-05-04T14:47:56.629Z</time>
      </trkpt>
      <trkpt lat="48.95463" lon="2.63966">
        <ele>103</ele>
        <time>2021-05-04T14:48:00.626Z</time>
      </trkpt>
      <trkpt lat="48.95459" lon="2.63926">
        <ele>102</ele>
        <time>2021-05-04T14:48:05.626Z</time>
      </trkpt>
      <trkpt lat="48.95455" lon="2.63886">
        <ele>101</ele>
        <time>2021-05-04T14:48:10.628Z</time>
      </trkpt>
      <trkpt lat="48.95452" lon="2.63847">
        <ele>101</ele>
        <time>2021-05-04T14:48:15.630Z</time>
      </trkpt>
      <trkpt lat="48.95448" lon="2.6381">
        <ele>101</ele>
        <time>2021-05-04T14:48:20.634Z</time>
      </trkpt>
      <trkpt lat="48.95446" lon="2.63777">
        <ele>102</ele>
        <time>2021-05-04T14:48:25.634Z</time>
      </trkpt>
      <trkpt lat="48.95444" lon="2.63746">
        <ele>102</ele>
        <time>2021-05-04T14:48:29.629Z</time>
      </trkpt>
      <trkpt lat="48.9544" lon="2.63712">
        <ele>103</ele>
        <time>2021-05-04T14:48:33.631Z</time>
      </trkpt>
      <trkpt lat="48.95437" lon="2.63676">
        <ele>103</ele>
        <time>2021-05-04T14:48:37.631Z</time>
      </trkpt>
      <trkpt lat="48.95434" lon="2.6364">
        <ele>103</ele>
        <time>2021-05-04T14:48:42.630Z</time>
      </trkpt>
      <trkpt lat="48.9543" lon="2.63599">
        <ele>104</ele>
        <time>2021-05-04T14:48:47.629Z</time>
      </trkpt>
      <trkpt lat="48.95425" lon="2.63557">
        <ele>105</ele>
        <time>2021-05-04T14:48:52.628Z</time>
      </trkpt>
      <trkpt lat="48.95422" lon="2.63517">
        <ele>105</ele>
        <time>2021-05-04T14:48:57.630Z</time>
      </trkpt>
      <trkpt lat="48.95419" lon="2.63477">
        <ele>106</ele>
        <time>2021-05-04T14:49:02.639Z</time>
      </trkpt>
      <trkpt lat="48.95414" lon="2.63437">
        <ele>106</ele>
        <time>2021-05-04T14:49:07.629Z</time>
      </trkpt>
      <trkpt lat="48.95412" lon="2.63395">
        <ele>107</ele>
        <time>2021-05-04T14:49:12.626Z</time>
      </trkpt>
      <trkpt lat="48.9541" lon="2.63353">
        <ele>106</ele>
        <time>2021-05-04T14:49:17.627Z</time>
      </trkpt>
      <trkpt lat="48.95405" lon="2.63312">
        <ele>106</ele>
        <time>2021-05-04T14:49:22.627Z</time>
      </trkpt>
      <trkpt lat="48.95401" lon="2.6327">
        <ele>107</ele>
        <time>2021-05-04T14:49:27.630Z</time>
      </trkpt>
      <trkpt lat="48.95398" lon="2.63229">
        <ele>107</ele>
        <time>2021-05-04T14:49:32.630Z</time>
      </trkpt>
      <trkpt lat="48.95394" lon="2.63187">
        <ele>106</ele>
        <time>2021-05-04T14:49:37.631Z</time>
      </trkpt>
      <trkpt lat="48.9539" lon="2.63147">
        <ele>106</ele>
        <time>2021-05-04T14:49:42.628Z</time>
      </trkpt>
      <trkpt lat="48.95387" lon="2.63106">
        <ele>107</ele>
        <time>2021-05-04T14:49:47.628Z</time>
      </trkpt>
      <trkpt lat="48.95384" lon="2.63067">
        <ele>107</ele>
        <time>2021-05-04T14:49:52.627Z</time>
      </trkpt>
      <trkpt lat="48.9538" lon="2.63027">
        <ele>107</ele>
        <time>2021-05-04T14:49:57.649Z</time>
      </trkpt>
      <trkpt lat="48.95377" lon="2.62986">
        <ele>107</ele>
        <time>2021-05-04T14:50:02.629Z</time>
      </trkpt>
      <trkpt lat="48.95375" lon="2.6295">
        <ele>107</ele>
        <time>2021-05-04T14:50:07.629Z</time>
      </trkpt>
      <trkpt lat="48.95372" lon="2.6291">
        <ele>107</ele>
        <time>2021-05-04T14:50:12.626Z</time>
      </trkpt>
      <trkpt lat="48.95367" lon="2.62869">
        <ele>107</ele>
        <time>2021-05-04T14:50:17.630Z</time>
      </trkpt>
      <trkpt lat="48.95363" lon="2.62835">
        <ele>107</ele>
        <time>2021-05-04T14:50:21.625Z</time>
      </trkpt>
      <trkpt lat="48.95356" lon="2.62799">
        <ele>108</ele>
        <time>2021-05-04T14:50:26.629Z</time>
      </trkpt>
      <trkpt lat="48.95355" lon="2.62761">
        <ele>108</ele>
        <time>2021-05-04T14:50:30.626Z</time>
      </trkpt>
      <trkpt lat="48.95351" lon="2.62724">
        <ele>107</ele>
        <time>2021-05-04T14:50:34.633Z</time>
      </trkpt>
      <trkpt lat="48.95348" lon="2.62681">
        <ele>107</ele>
        <time>2021-05-04T14:50:39.626Z</time>
      </trkpt>
      <trkpt lat="48.95344" lon="2.62638">
        <ele>106</ele>
        <time>2021-05-04T14:50:44.629Z</time>
      </trkpt>
      <trkpt lat="48.9534" lon="2.62596">
        <ele>106</ele>
        <time>2021-05-04T14:50:49.697Z</time>
      </trkpt>
      <trkpt lat="48.95337" lon="2.62555">
        <ele>105</ele>
        <time>2021-05-04T14:50:54.621Z</time>
      </trkpt>
      <trkpt lat="48.95332" lon="2.62515">
        <ele>105</ele>
        <time>2021-05-04T14:50:59.629Z</time>
      </trkpt>
      <trkpt lat="48.95327" lon="2.62477">
        <ele>105</ele>
        <time>2021-05-04T14:51:04.625Z</time>
      </trkpt>
      <trkpt lat="48.95324" lon="2.6244">
        <ele>105</ele>
        <time>2021-05-04T14:51:09.627Z</time>
      </trkpt>
      <trkpt lat="48.95322" lon="2.62406">
        <ele>104</ele>
        <time>2021-05-04T14:51:13.629Z</time>
      </trkpt>
      <trkpt lat="48.95324" lon="2.62372">
        <ele>104</ele>
        <time>2021-05-04T14:51:18.628Z</time>
      </trkpt>
      <trkpt lat="48.95322" lon="2.62338">
        <ele>104</ele>
        <time>2021-05-04T14:51:23.630Z</time>
      </trkpt>
      <trkpt lat="48.95319" lon="2.62311">
        <ele>104</ele>
        <time>2021-05-04T14:51:27.627Z</time>
      </trkpt>
      <trkpt lat="48.95317" lon="2.6228">
        <ele>104</ele>
        <time>2021-05-04T14:51:31.628Z</time>
      </trkpt>
      <trkpt lat="48.95313" lon="2.6225">
        <ele>104</ele>
        <time>2021-05-04T14:51:35.627Z</time>
      </trkpt>
      <trkpt lat="48.95309" lon="2.62212">
        <ele>104</ele>
        <time>2021-05-04T14:51:40.634Z</time>
      </trkpt>
      <trkpt lat="48.95306" lon="2.62173">
        <ele>104</ele>
        <time>2021-05-04T14:51:45.634Z</time>
      </trkpt>
      <trkpt lat="48.95304" lon="2.62132">
        <ele>104</ele>
        <time>2021-05-04T14:51:50.627Z</time>
      </trkpt>
      <trkpt lat="48.95301" lon="2.62092">
        <ele>104</ele>
        <time>2021-05-04T14:51:55.628Z</time>
      </trkpt>
      <trkpt lat="48.95298" lon="2.62054">
        <ele>104</ele>
        <time>2021-05-04T14:52:00.629Z</time>
      </trkpt>
      <trkpt lat="48.95293" lon="2.62017">
        <ele>104</ele>
        <time>2021-05-04T14:52:05.623Z</time>
      </trkpt>
      <trkpt lat="48.95287" lon="2.61984">
        <ele>104</ele>
        <time>2021-05-04T14:52:09.625Z</time>
      </trkpt>
      <trkpt lat="48.9528" lon="2.61944">
        <ele>104</ele>
        <time>2021-05-04T14:52:13.622Z</time>
      </trkpt>
      <trkpt lat="48.9527" lon="2.61895">
        <ele>104</ele>
        <time>2021-05-04T14:52:18.626Z</time>
      </trkpt>
      <trkpt lat="48.95263" lon="2.61846">
        <ele>104</ele>
        <time>2021-05-04T14:52:23.626Z</time>
      </trkpt>
      <trkpt lat="48.95254" lon="2.61805">
        <ele>103</ele>
        <time>2021-05-04T14:52:28.626Z</time>
      </trkpt>
      <trkpt lat="48.95243" lon="2.61766">
        <ele>103</ele>
        <time>2021-05-04T14:52:33.627Z</time>
      </trkpt>
      <trkpt lat="48.95231" lon="2.61727">
        <ele>102</ele>
        <time>2021-05-04T14:52:38.626Z</time>
      </trkpt>
      <trkpt lat="48.95216" lon="2.61689">
        <ele>102</ele>
        <time>2021-05-04T14:52:43.627Z</time>
      </trkpt>
      <trkpt lat="48.95201" lon="2.61653">
        <ele>102</ele>
        <time>2021-05-04T14:52:48.628Z</time>
      </trkpt>
      <trkpt lat="48.95186" lon="2.61619">
        <ele>102</ele>
        <time>2021-05-04T14:52:53.629Z</time>
      </trkpt>
      <trkpt lat="48.95172" lon="2.61589">
        <ele>102</ele>
        <time>2021-05-04T14:52:57.626Z</time>
      </trkpt>
      <trkpt lat="48.95156" lon="2.61554">
        <ele>102</ele>
        <time>2021-05-04T14:53:02.626Z</time>
      </trkpt>
      <trkpt lat="48.95138" lon="2.61524">
        <ele>103</ele>
        <time>2021-05-04T14:53:07.629Z</time>
      </trkpt>
      <trkpt lat="48.9512" lon="2.61493">
        <ele>104</ele>
        <time>2021-05-04T14:53:11.627Z</time>
      </trkpt>
      <trkpt lat="48.9511" lon="2.61452">
        <ele>104</ele>
        <time>2021-05-04T14:53:15.626Z</time>
      </trkpt>
      <trkpt lat="48.95106" lon="2.61407">
        <ele>104</ele>
        <time>2021-05-04T14:53:20.630Z</time>
      </trkpt>
      <trkpt lat="48.95099" lon="2.61369">
        <ele>104</ele>
        <time>2021-05-04T14:53:25.628Z</time>
      </trkpt>
      <trkpt lat="48.95094" lon="2.6133">
        <ele>104</ele>
        <time>2021-05-04T14:53:30.628Z</time>
      </trkpt>
      <trkpt lat="48.95093" lon="2.61296">
        <ele>104</ele>
        <time>2021-05-04T14:53:34.624Z</time>
      </trkpt>
      <trkpt lat="48.95094" lon="2.61254">
        <ele>103</ele>
        <time>2021-05-04T14:53:39.628Z</time>
      </trkpt>
      <trkpt lat="48.95094" lon="2.61212">
        <ele>103</ele>
        <time>2021-05-04T14:53:44.628Z</time>
      </trkpt>
      <trkpt lat="48.95098" lon="2.61172">
        <ele>103</ele>
        <time>2021-05-04T14:53:49.621Z</time>
      </trkpt>
      <trkpt lat="48.95103" lon="2.61132">
        <ele>103</ele>
        <time>2021-05-04T14:53:54.628Z</time>
      </trkpt>
      <trkpt lat="48.95109" lon="2.61099">
        <ele>103</ele>
        <time>2021-05-04T14:53:58.634Z</time>
      </trkpt>
      <trkpt lat="48.95117" lon="2.61059">
        <ele>104</ele>
        <time>2021-05-04T14:54:03.627Z</time>
      </trkpt>
      <trkpt lat="48.95126" lon="2.6102">
        <ele>104</ele>
        <time>2021-05-04T14:54:08.629Z</time>
      </trkpt>
      <trkpt lat="48.95136" lon="2.60981">
        <ele>104</ele>
        <time>2021-05-04T14:54:13.629Z</time>
      </trkpt>
      <trkpt lat="48.95144" lon="2.60943">
        <ele>105</ele>
        <time>2021-05-04T14:54:18.627Z</time>
      </trkpt>
      <trkpt lat="48.95152" lon="2.60901">
        <ele>105</ele>
        <time>2021-05-04T14:54:23.626Z</time>
      </trkpt>
      <trkpt lat="48.95161" lon="2.6086">
        <ele>105</ele>
        <time>2021-05-04T14:54:28.626Z</time>
      </trkpt>
      <trkpt lat="48.95171" lon="2.60819">
        <ele>105</ele>
        <time>2021-05-04T14:54:33.626Z</time>
      </trkpt>
      <trkpt lat="48.95181" lon="2.60778">
        <ele>104</ele>
        <time>2021-05-04T14:54:38.625Z</time>
      </trkpt>
      <trkpt lat="48.95189" lon="2.60738">
        <ele>104</ele>
        <time>2021-05-04T14:54:43.624Z</time>
      </trkpt>
      <trkpt lat="48.95198" lon="2.60699">
        <ele>103</ele>
        <time>2021-05-04T14:54:48.626Z</time>
      </trkpt>
      <trkpt lat="48.95205" lon="2.60664">
        <ele>103</ele>
        <time>2021-05-04T14:54:53.626Z</time>
      </trkpt>
      <trkpt lat="48.95207" lon="2.60628">
        <ele>103</ele>
        <time>2021-05-04T14:54:57.628Z</time>
      </trkpt>
      <trkpt lat="48.95211" lon="2.60583">
        <ele>102</ele>
        <time>2021-05-04T14:55:01.624Z</time>
      </trkpt>
      <trkpt lat="48.9523" lon="2.60543">
        <ele>101</ele>
        <time>2021-05-04T14:55:07.632Z</time>
      </trkpt>
      <trkpt lat="48.95238" lon="2.60512">
        <ele>100</ele>
        <time>2021-05-04T14:55:14.628Z</time>
      </trkpt>
      <trkpt lat="48.95244" lon="2.60487">
        <ele>100</ele>
        <time>2021-05-04T14:55:18.626Z</time>
      </trkpt>
      <trkpt lat="48.95249" lon="2.60466">
        <ele>100</ele>
        <time>2021-05-04T14:55:21.625Z</time>
      </trkpt>
      <trkpt lat="48.95254" lon="2.60432">
        <ele>100</ele>
        <time>2021-05-04T14:55:25.621Z</time>
      </trkpt>
      <trkpt lat="48.95259" lon="2.60392">
        <ele>100</ele>
        <time>2021-05-04T14:55:30.626Z</time>
      </trkpt>
      <trkpt lat="48.95262" lon="2.60354">
        <ele>100</ele>
        <time>2021-05-04T14:55:35.623Z</time>
      </trkpt>
      <trkpt lat="48.95258" lon="2.60321">
        <ele>100</ele>
        <time>2021-05-04T14:55:39.623Z</time>
      </trkpt>
      <trkpt lat="48.95248" lon="2.60279">
        <ele>100</ele>
        <time>2021-05-04T14:55:43.622Z</time>
      </trkpt>
      <trkpt lat="48.95235" lon="2.60236">
        <ele>101</ele>
        <time>2021-05-04T14:55:47.622Z</time>
      </trkpt>
      <trkpt lat="48.95229" lon="2.60182">
        <ele>101</ele>
        <time>2021-05-04T14:55:52.624Z</time>
      </trkpt>
      <trkpt lat="48.95226" lon="2.60142">
        <ele>101</ele>
        <time>2021-05-04T14:55:59.623Z</time>
      </trkpt>
      <trkpt lat="48.95214" lon="2.60145">
        <ele>101</ele>
        <time>2021-05-04T14:56:06.627Z</time>
      </trkpt>
      <trkpt lat="48.95203" lon="2.60151">
        <ele>102</ele>
        <time>2021-05-04T14:56:11.626Z</time>
      </trkpt>
      <trkpt lat="48.95193" lon="2.60156">
        <ele>102</ele>
        <time>2021-05-04T14:56:15.627Z</time>
      </trkpt>
      <trkpt lat="48.9519" lon="2.60139">
        <ele>102</ele>
        <time>2021-05-04T14:56:19.628Z</time>
      </trkpt>
      <trkpt lat="48.95189" lon="2.60124">
        <ele>102</ele>
        <time>2021-05-04T14:56:21.626Z</time>
      </trkpt>
      <trkpt lat="48.95185" lon="2.60102">
        <ele>102</ele>
        <time>2021-05-04T14:56:23.628Z</time>
      </trkpt>
      <trkpt lat="48.95177" lon="2.60073">
        <ele>102</ele>
        <time>2021-05-04T14:56:26.624Z</time>
      </trkpt>
      <trkpt lat="48.95164" lon="2.6004">
        <ele>103</ele>
        <time>2021-05-04T14:56:34.624Z</time>
      </trkpt>
      <trkpt lat="48.95156" lon="2.60016">
        <ele>104</ele>
        <time>2021-05-04T14:56:39.632Z</time>
      </trkpt>
      <trkpt lat="48.95152" lon="2.59998">
        <ele>104</ele>
        <time>2021-05-04T14:56:42.629Z</time>
      </trkpt>
      <trkpt lat="48.95146" lon="2.59971">
        <ele>105</ele>
        <time>2021-05-04T14:56:47.628Z</time>
      </trkpt>
      <trkpt lat="48.95143" lon="2.59948">
        <ele>105</ele>
        <time>2021-05-04T14:56:51.626Z</time>
      </trkpt>
      <trkpt lat="48.95134" lon="2.5992">
        <ele>105</ele>
        <time>2021-05-04T14:56:55.626Z</time>
      </trkpt>
      <trkpt lat="48.95126" lon="2.59885">
        <ele>106</ele>
        <time>2021-05-04T14:57:00.630Z</time>
      </trkpt>
      <trkpt lat="48.95116" lon="2.59856">
        <ele>107</ele>
        <time>2021-05-04T14:57:04.629Z</time>
      </trkpt>
      <trkpt lat="48.95108" lon="2.59824">
        <ele>107</ele>
        <time>2021-05-04T14:57:08.626Z</time>
      </trkpt>
      <trkpt lat="48.95097" lon="2.59786">
        <ele>108</ele>
        <time>2021-05-04T14:57:13.627Z</time>
      </trkpt>
      <trkpt lat="48.9509" lon="2.59748">
        <ele>109</ele>
        <time>2021-05-04T14:57:17.624Z</time>
      </trkpt>
      <trkpt lat="48.95087" lon="2.59703">
        <ele>109</ele>
        <time>2021-05-04T14:57:21.627Z</time>
      </trkpt>
      <trkpt lat="48.95072" lon="2.59659">
        <ele>109</ele>
        <time>2021-05-04T14:57:25.627Z</time>
      </trkpt>
      <trkpt lat="48.95061" lon="2.59608">
        <ele>109</ele>
        <time>2021-05-04T14:57:30.626Z</time>
      </trkpt>
      <trkpt lat="48.95051" lon="2.59561">
        <ele>109</ele>
        <time>2021-05-04T14:57:35.626Z</time>
      </trkpt>
      <trkpt lat="48.95043" lon="2.59516">
        <ele>108</ele>
        <time>2021-05-04T14:57:40.625Z</time>
      </trkpt>
      <trkpt lat="48.95031" lon="2.59474">
        <ele>108</ele>
        <time>2021-05-04T14:57:45.628Z</time>
      </trkpt>
      <trkpt lat="48.95018" lon="2.5943">
        <ele>108</ele>
        <time>2021-05-04T14:57:50.626Z</time>
      </trkpt>
      <trkpt lat="48.95004" lon="2.59384">
        <ele>107</ele>
        <time>2021-05-04T14:57:55.632Z</time>
      </trkpt>
      <trkpt lat="48.94993" lon="2.59339">
        <ele>106</ele>
        <time>2021-05-04T14:58:00.627Z</time>
      </trkpt>
      <trkpt lat="48.94984" lon="2.59298">
        <ele>105</ele>
        <time>2021-05-04T14:58:05.624Z</time>
      </trkpt>
      <trkpt lat="48.94975" lon="2.59255">
        <ele>104</ele>
        <time>2021-05-04T14:58:10.628Z</time>
      </trkpt>
      <trkpt lat="48.94965" lon="2.5922">
        <ele>103</ele>
        <time>2021-05-04T14:58:15.627Z</time>
      </trkpt>
      <trkpt lat="48.94956" lon="2.59183">
        <ele>103</ele>
        <time>2021-05-04T14:58:20.626Z</time>
      </trkpt>
      <trkpt lat="48.94946" lon="2.59149">
        <ele>103</ele>
        <time>2021-05-04T14:58:24.628Z</time>
      </trkpt>
      <trkpt lat="48.94935" lon="2.59116">
        <ele>103</ele>
        <time>2021-05-04T14:58:28.625Z</time>
      </trkpt>
      <trkpt lat="48.94918" lon="2.59078">
        <ele>102</ele>
        <time>2021-05-04T14:58:33.627Z</time>
      </trkpt>
      <trkpt lat="48.94906" lon="2.59043">
        <ele>101</ele>
        <time>2021-05-04T14:58:39.627Z</time>
      </trkpt>
      <trkpt lat="48.94896" lon="2.59017">
        <ele>102</ele>
        <time>2021-05-04T14:58:45.627Z</time>
      </trkpt>
      <trkpt lat="48.94892" lon="2.58995">
        <ele>102</ele>
        <time>2021-05-04T14:58:50.628Z</time>
      </trkpt>
      <trkpt lat="48.94888" lon="2.58978">
        <ele>103</ele>
        <time>2021-05-04T14:58:54.624Z</time>
      </trkpt>
      <trkpt lat="48.94886" lon="2.58962">
        <ele>103</ele>
        <time>2021-05-04T14:58:58.629Z</time>
      </trkpt>
      <trkpt lat="48.94882" lon="2.58945">
        <ele>104</ele>
        <time>2021-05-04T14:59:02.624Z</time>
      </trkpt>
      <trkpt lat="48.94879" lon="2.58928">
        <ele>105</ele>
        <time>2021-05-04T14:59:06.628Z</time>
      </trkpt>
      <trkpt lat="48.94875" lon="2.58912">
        <ele>106</ele>
        <time>2021-05-04T14:59:09.634Z</time>
      </trkpt>
      <trkpt lat="48.94869" lon="2.58891">
        <ele>107</ele>
        <time>2021-05-04T14:59:13.627Z</time>
      </trkpt>
      <trkpt lat="48.94864" lon="2.5887">
        <ele>108</ele>
        <time>2021-05-04T14:59:17.629Z</time>
      </trkpt>
      <trkpt lat="48.9486" lon="2.5885">
        <ele>109</ele>
        <time>2021-05-04T14:59:20.629Z</time>
      </trkpt>
      <trkpt lat="48.9485" lon="2.58829">
        <ele>110</ele>
        <time>2021-05-04T14:59:23.629Z</time>
      </trkpt>
      <trkpt lat="48.94835" lon="2.58803">
        <ele>111</ele>
        <time>2021-05-04T14:59:28.627Z</time>
      </trkpt>
      <trkpt lat="48.94828" lon="2.58769">
        <ele>112</ele>
        <time>2021-05-04T14:59:33.626Z</time>
      </trkpt>
      <trkpt lat="48.94823" lon="2.5874">
        <ele>113</ele>
        <time>2021-05-04T14:59:37.628Z</time>
      </trkpt>
      <trkpt lat="48.94816" lon="2.58704">
        <ele>113</ele>
        <time>2021-05-04T14:59:41.627Z</time>
      </trkpt>
      <trkpt lat="48.9481" lon="2.58671">
        <ele>112</ele>
        <time>2021-05-04T14:59:44.626Z</time>
      </trkpt>
      <trkpt lat="48.94798" lon="2.58623">
        <ele>112</ele>
        <time>2021-05-04T14:59:48.627Z</time>
      </trkpt>
      <trkpt lat="48.94798" lon="2.58568">
        <ele>110</ele>
        <time>2021-05-04T14:59:53.623Z</time>
      </trkpt>
      <trkpt lat="48.94787" lon="2.58521">
        <ele>109</ele>
        <time>2021-05-04T14:59:59.627Z</time>
      </trkpt>
      <trkpt lat="48.94778" lon="2.58481">
        <ele>107</ele>
        <time>2021-05-04T15:00:04.630Z</time>
      </trkpt>
      <trkpt lat="48.94767" lon="2.58448">
        <ele>107</ele>
        <time>2021-05-04T15:00:09.629Z</time>
      </trkpt>
      <trkpt lat="48.94754" lon="2.58416">
        <ele>106</ele>
        <time>2021-05-04T15:00:15.623Z</time>
      </trkpt>
      <trkpt lat="48.94749" lon="2.58381">
        <ele>105</ele>
        <time>2021-05-04T15:00:19.628Z</time>
      </trkpt>
      <trkpt lat="48.94742" lon="2.58345">
        <ele>104</ele>
        <time>2021-05-04T15:00:23.626Z</time>
      </trkpt>
      <trkpt lat="48.94726" lon="2.58308">
        <ele>104</ele>
        <time>2021-05-04T15:00:29.624Z</time>
      </trkpt>
      <trkpt lat="48.94717" lon="2.58287">
        <ele>106</ele>
        <time>2021-05-04T15:00:37.625Z</time>
      </trkpt>
      <trkpt lat="48.94714" lon="2.58273">
        <ele>107</ele>
        <time>2021-05-04T15:00:40.629Z</time>
      </trkpt>
      <trkpt lat="48.94711" lon="2.58256">
        <ele>107</ele>
        <time>2021-05-04T15:00:43.633Z</time>
      </trkpt>
      <trkpt lat="48.94707" lon="2.58237">
        <ele>108</ele>
        <time>2021-05-04T15:00:46.626Z</time>
      </trkpt>
      <trkpt lat="48.94702" lon="2.58217">
        <ele>109</ele>
        <time>2021-05-04T15:00:49.627Z</time>
      </trkpt>
      <trkpt lat="48.94695" lon="2.58191">
        <ele>110</ele>
        <time>2021-05-04T15:00:53.628Z</time>
      </trkpt>
      <trkpt lat="48.94689" lon="2.58162">
        <ele>111</ele>
        <time>2021-05-04T15:00:58.628Z</time>
      </trkpt>
      <trkpt lat="48.94683" lon="2.58135">
        <ele>111</ele>
        <time>2021-05-04T15:01:02.625Z</time>
      </trkpt>
      <trkpt lat="48.94675" lon="2.58105">
        <ele>112</ele>
        <time>2021-05-04T15:01:06.627Z</time>
      </trkpt>
      <trkpt lat="48.94669" lon="2.58076">
        <ele>113</ele>
        <time>2021-05-04T15:01:10.627Z</time>
      </trkpt>
      <trkpt lat="48.94656" lon="2.58045">
        <ele>113</ele>
        <time>2021-05-04T15:01:14.627Z</time>
      </trkpt>
      <trkpt lat="48.94649" lon="2.58012">
        <ele>113</ele>
        <time>2021-05-04T15:01:18.626Z</time>
      </trkpt>
      <trkpt lat="48.94641" lon="2.57974">
        <ele>113</ele>
        <time>2021-05-04T15:01:23.629Z</time>
      </trkpt>
      <trkpt lat="48.94626" lon="2.57947">
        <ele>113</ele>
        <time>2021-05-04T15:01:27.626Z</time>
      </trkpt>
      <trkpt lat="48.94612" lon="2.5791">
        <ele>113</ele>
        <time>2021-05-04T15:01:32.628Z</time>
      </trkpt>
      <trkpt lat="48.94603" lon="2.57877">
        <ele>112</ele>
        <time>2021-05-04T15:01:36.627Z</time>
      </trkpt>
      <trkpt lat="48.94592" lon="2.57833">
        <ele>112</ele>
        <time>2021-05-04T15:01:42.628Z</time>
      </trkpt>
      <trkpt lat="48.94582" lon="2.57793">
        <ele>112</ele>
        <time>2021-05-04T15:01:47.630Z</time>
      </trkpt>
      <trkpt lat="48.94579" lon="2.57748">
        <ele>112</ele>
        <time>2021-05-04T15:01:52.632Z</time>
      </trkpt>
      <trkpt lat="48.9457" lon="2.57709">
        <ele>112</ele>
        <time>2021-05-04T15:01:57.633Z</time>
      </trkpt>
      <trkpt lat="48.94562" lon="2.57674">
        <ele>112</ele>
        <time>2021-05-04T15:02:02.636Z</time>
      </trkpt>
      <trkpt lat="48.94553" lon="2.57639">
        <ele>112</ele>
        <time>2021-05-04T15:02:06.625Z</time>
      </trkpt>
      <trkpt lat="48.94544" lon="2.57603">
        <ele>112</ele>
        <time>2021-05-04T15:02:10.635Z</time>
      </trkpt>
      <trkpt lat="48.94535" lon="2.57562">
        <ele>112</ele>
        <time>2021-05-04T15:02:15.626Z</time>
      </trkpt>
      <trkpt lat="48.94525" lon="2.57519">
        <ele>112</ele>
        <time>2021-05-04T15:02:20.626Z</time>
      </trkpt>
      <trkpt lat="48.9452" lon="2.57475">
        <ele>111</ele>
        <time>2021-05-04T15:02:24.626Z</time>
      </trkpt>
      <trkpt lat="48.94512" lon="2.57426">
        <ele>111</ele>
        <time>2021-05-04T15:02:28.626Z</time>
      </trkpt>
      <trkpt lat="48.94491" lon="2.57385">
        <ele>110</ele>
        <time>2021-05-04T15:02:33.630Z</time>
      </trkpt>
      <trkpt lat="48.94483" lon="2.57345">
        <ele>109</ele>
        <time>2021-05-04T15:02:40.627Z</time>
      </trkpt>
      <trkpt lat="48.94475" lon="2.57316">
        <ele>109</ele>
        <time>2021-05-04T15:02:45.637Z</time>
      </trkpt>
      <trkpt lat="48.94468" lon="2.57289">
        <ele>109</ele>
        <time>2021-05-04T15:02:49.627Z</time>
      </trkpt>
      <trkpt lat="48.94462" lon="2.57256">
        <ele>108</ele>
        <time>2021-05-04T15:02:53.624Z</time>
      </trkpt>
      <trkpt lat="48.94455" lon="2.57224">
        <ele>108</ele>
        <time>2021-05-04T15:02:57.629Z</time>
      </trkpt>
      <trkpt lat="48.94446" lon="2.57191">
        <ele>108</ele>
        <time>2021-05-04T15:03:01.627Z</time>
      </trkpt>
      <trkpt lat="48.94437" lon="2.57147">
        <ele>109</ele>
        <time>2021-05-04T15:03:06.626Z</time>
      </trkpt>
      <trkpt lat="48.94426" lon="2.57111">
        <ele>109</ele>
        <time>2021-05-04T15:03:10.624Z</time>
      </trkpt>
      <trkpt lat="48.94414" lon="2.57066">
        <ele>109</ele>
        <time>2021-05-04T15:03:16.631Z</time>
      </trkpt>
      <trkpt lat="48.94406" lon="2.57022">
        <ele>110</ele>
        <time>2021-05-04T15:03:21.627Z</time>
      </trkpt>
      <trkpt lat="48.94399" lon="2.56983">
        <ele>110</ele>
        <time>2021-05-04T15:03:25.627Z</time>
      </trkpt>
      <trkpt lat="48.94394" lon="2.56938">
        <ele>109</ele>
        <time>2021-05-04T15:03:30.626Z</time>
      </trkpt>
      <trkpt lat="48.94388" lon="2.56889">
        <ele>108</ele>
        <time>2021-05-04T15:03:35.625Z</time>
      </trkpt>
      <trkpt lat="48.94379" lon="2.5685">
        <ele>108</ele>
        <time>2021-05-04T15:03:40.625Z</time>
      </trkpt>
      <trkpt lat="48.94365" lon="2.56815">
        <ele>106</ele>
        <time>2021-05-04T15:03:45.625Z</time>
      </trkpt>
      <trkpt lat="48.94349" lon="2.56786">
        <ele>105</ele>
        <time>2021-05-04T15:03:50.627Z</time>
      </trkpt>
      <trkpt lat="48.9434" lon="2.56759">
        <ele>105</ele>
        <time>2021-05-04T15:03:55.626Z</time>
      </trkpt>
      <trkpt lat="48.94334" lon="2.56734">
        <ele>104</ele>
        <time>2021-05-04T15:04:01.628Z</time>
      </trkpt>
      <trkpt lat="48.94328" lon="2.56717">
        <ele>103</ele>
        <time>2021-05-04T15:04:05.627Z</time>
      </trkpt>
      <trkpt lat="48.94322" lon="2.567">
        <ele>103</ele>
        <time>2021-05-04T15:04:09.625Z</time>
      </trkpt>
      <trkpt lat="48.94317" lon="2.56684">
        <ele>103</ele>
        <time>2021-05-04T15:04:13.624Z</time>
      </trkpt>
      <trkpt lat="48.94312" lon="2.56669">
        <ele>104</ele>
        <time>2021-05-04T15:04:17.635Z</time>
      </trkpt>
      <trkpt lat="48.94307" lon="2.56654">
        <ele>104</ele>
        <time>2021-05-04T15:04:21.624Z</time>
      </trkpt>
      <trkpt lat="48.94302" lon="2.5664">
        <ele>105</ele>
        <time>2021-05-04T15:04:24.623Z</time>
      </trkpt>
      <trkpt lat="48.94295" lon="2.56622">
        <ele>106</ele>
        <time>2021-05-04T15:04:28.625Z</time>
      </trkpt>
      <trkpt lat="48.94288" lon="2.56606">
        <ele>107</ele>
        <time>2021-05-04T15:04:32.625Z</time>
      </trkpt>
      <trkpt lat="48.94282" lon="2.56589">
        <ele>109</ele>
        <time>2021-05-04T15:04:36.630Z</time>
      </trkpt>
      <trkpt lat="48.94275" lon="2.56573">
        <ele>110</ele>
        <time>2021-05-04T15:04:41.627Z</time>
      </trkpt>
      <trkpt lat="48.94267" lon="2.5656">
        <ele>113</ele>
        <time>2021-05-04T15:04:48.626Z</time>
      </trkpt>
      <trkpt lat="48.94259" lon="2.5655">
        <ele>114</ele>
        <time>2021-05-04T15:04:53.624Z</time>
      </trkpt>
      <trkpt lat="48.94249" lon="2.56543">
        <ele>115</ele>
        <time>2021-05-04T15:04:58.626Z</time>
      </trkpt>
      <trkpt lat="48.94242" lon="2.56533">
        <ele>116</ele>
        <time>2021-05-04T15:05:02.625Z</time>
      </trkpt>
      <trkpt lat="48.94232" lon="2.56522">
        <ele>117</ele>
        <time>2021-05-04T15:05:06.625Z</time>
      </trkpt>
      <trkpt lat="48.94224" lon="2.56516">
        <ele>117</ele>
        <time>2021-05-04T15:05:08.627Z</time>
      </trkpt>
      <trkpt lat="48.94209" lon="2.56516">
        <ele>117</ele>
        <time>2021-05-04T15:05:11.627Z</time>
      </trkpt>
      <trkpt lat="48.94192" lon="2.56513">
        <ele>118</ele>
        <time>2021-05-04T15:05:16.627Z</time>
      </trkpt>
      <trkpt lat="48.94183" lon="2.56492">
        <ele>118</ele>
        <time>2021-05-04T15:05:22.626Z</time>
      </trkpt>
      <trkpt lat="48.94178" lon="2.56472">
        <ele>118</ele>
        <time>2021-05-04T15:05:26.623Z</time>
      </trkpt>
      <trkpt lat="48.94172" lon="2.56456">
        <ele>118</ele>
        <time>2021-05-04T15:05:29.625Z</time>
      </trkpt>
      <trkpt lat="48.94167" lon="2.56433">
        <ele>119</ele>
        <time>2021-05-04T15:05:32.626Z</time>
      </trkpt>
      <trkpt lat="48.94163" lon="2.56404">
        <ele>118</ele>
        <time>2021-05-04T15:05:36.625Z</time>
      </trkpt>
      <trkpt lat="48.94155" lon="2.56379">
        <ele>118</ele>
        <time>2021-05-04T15:05:40.625Z</time>
      </trkpt>
      <trkpt lat="48.94148" lon="2.56352">
        <ele>118</ele>
        <time>2021-05-04T15:05:44.622Z</time>
      </trkpt>
      <trkpt lat="48.9414" lon="2.56321">
        <ele>117</ele>
        <time>2021-05-04T15:05:48.620Z</time>
      </trkpt>
      <trkpt lat="48.94136" lon="2.56287">
        <ele>117</ele>
        <time>2021-05-04T15:05:52.623Z</time>
      </trkpt>
      <trkpt lat="48.9413" lon="2.56246">
        <ele>116</ele>
        <time>2021-05-04T15:05:58.630Z</time>
      </trkpt>
      <trkpt lat="48.94121" lon="2.56216">
        <ele>116</ele>
        <time>2021-05-04T15:06:02.627Z</time>
      </trkpt>
      <trkpt lat="48.94114" lon="2.56183">
        <ele>116</ele>
        <time>2021-05-04T15:06:06.627Z</time>
      </trkpt>
      <trkpt lat="48.94106" lon="2.5615">
        <ele>116</ele>
        <time>2021-05-04T15:06:10.623Z</time>
      </trkpt>
      <trkpt lat="48.94096" lon="2.56111">
        <ele>115</ele>
        <time>2021-05-04T15:06:15.623Z</time>
      </trkpt>
      <trkpt lat="48.94083" lon="2.56069">
        <ele>114</ele>
        <time>2021-05-04T15:06:20.627Z</time>
      </trkpt>
      <trkpt lat="48.94072" lon="2.56025">
        <ele>113</ele>
        <time>2021-05-04T15:06:25.625Z</time>
      </trkpt>
      <trkpt lat="48.94065" lon="2.55987">
        <ele>113</ele>
        <time>2021-05-04T15:06:30.627Z</time>
      </trkpt>
      <trkpt lat="48.94056" lon="2.55947">
        <ele>112</ele>
        <time>2021-05-04T15:06:35.646Z</time>
      </trkpt>
      <trkpt lat="48.94047" lon="2.55914">
        <ele>112</ele>
        <time>2021-05-04T15:06:39.627Z</time>
      </trkpt>
      <trkpt lat="48.9404" lon="2.55877">
        <ele>111</ele>
        <time>2021-05-04T15:06:44.625Z</time>
      </trkpt>
      <trkpt lat="48.94031" lon="2.55843">
        <ele>110</ele>
        <time>2021-05-04T15:06:48.623Z</time>
      </trkpt>
      <trkpt lat="48.94024" lon="2.55802">
        <ele>110</ele>
        <time>2021-05-04T15:06:53.623Z</time>
      </trkpt>
      <trkpt lat="48.94011" lon="2.55762">
        <ele>109</ele>
        <time>2021-05-04T15:06:58.627Z</time>
      </trkpt>
      <trkpt lat="48.93999" lon="2.55723">
        <ele>109</ele>
        <time>2021-05-04T15:07:03.624Z</time>
      </trkpt>
      <trkpt lat="48.93992" lon="2.55687">
        <ele>110</ele>
        <time>2021-05-04T15:07:08.634Z</time>
      </trkpt>
      <trkpt lat="48.93985" lon="2.55649">
        <ele>110</ele>
        <time>2021-05-04T15:07:13.625Z</time>
      </trkpt>
      <trkpt lat="48.93983" lon="2.55615">
        <ele>110</ele>
        <time>2021-05-04T15:07:17.627Z</time>
      </trkpt>
      <trkpt lat="48.93975" lon="2.5558">
        <ele>111</ele>
        <time>2021-05-04T15:07:22.628Z</time>
      </trkpt>
      <trkpt lat="48.93963" lon="2.55544">
        <ele>112</ele>
        <time>2021-05-04T15:07:26.622Z</time>
      </trkpt>
      <trkpt lat="48.93953" lon="2.55508">
        <ele>113</ele>
        <time>2021-05-04T15:07:31.630Z</time>
      </trkpt>
      <trkpt lat="48.93942" lon="2.55465">
        <ele>114</ele>
        <time>2021-05-04T15:07:36.626Z</time>
      </trkpt>
      <trkpt lat="48.93932" lon="2.55424">
        <ele>115</ele>
        <time>2021-05-04T15:07:41.621Z</time>
      </trkpt>
      <trkpt lat="48.93923" lon="2.55386">
        <ele>116</ele>
        <time>2021-05-04T15:07:46.626Z</time>
      </trkpt>
      <trkpt lat="48.93914" lon="2.5535">
        <ele>116</ele>
        <time>2021-05-04T15:07:50.626Z</time>
      </trkpt>
      <trkpt lat="48.93905" lon="2.55315">
        <ele>117</ele>
        <time>2021-05-04T15:07:55.631Z</time>
      </trkpt>
      <trkpt lat="48.93894" lon="2.55276">
        <ele>117</ele>
        <time>2021-05-04T15:08:00.626Z</time>
      </trkpt>
      <trkpt lat="48.93887" lon="2.55241">
        <ele>118</ele>
        <time>2021-05-04T15:08:04.634Z</time>
      </trkpt>
      <trkpt lat="48.93877" lon="2.55207">
        <ele>118</ele>
        <time>2021-05-04T15:08:08.626Z</time>
      </trkpt>
      <trkpt lat="48.9387" lon="2.5517">
        <ele>118</ele>
        <time>2021-05-04T15:08:13.629Z</time>
      </trkpt>
      <trkpt lat="48.9386" lon="2.55131">
        <ele>119</ele>
        <time>2021-05-04T15:08:18.628Z</time>
      </trkpt>
      <trkpt lat="48.93853" lon="2.5509">
        <ele>119</ele>
        <time>2021-05-04T15:08:23.624Z</time>
      </trkpt>
      <trkpt lat="48.93845" lon="2.55054">
        <ele>120</ele>
        <time>2021-05-04T15:08:27.626Z</time>
      </trkpt>
      <trkpt lat="48.93836" lon="2.55018">
        <ele>120</ele>
        <time>2021-05-04T15:08:32.626Z</time>
      </trkpt>
      <trkpt lat="48.93827" lon="2.54977">
        <ele>120</ele>
        <time>2021-05-04T15:08:37.627Z</time>
      </trkpt>
      <trkpt lat="48.93817" lon="2.54939">
        <ele>120</ele>
        <time>2021-05-04T15:08:42.626Z</time>
      </trkpt>
      <trkpt lat="48.93809" lon="2.54901">
        <ele>120</ele>
        <time>2021-05-04T15:08:47.626Z</time>
      </trkpt>
      <trkpt lat="48.93802" lon="2.54865">
        <ele>119</ele>
        <time>2021-05-04T15:08:52.628Z</time>
      </trkpt>
      <trkpt lat="48.93796" lon="2.54835">
        <ele>119</ele>
        <time>2021-05-04T15:08:57.622Z</time>
      </trkpt>
      <trkpt lat="48.9379" lon="2.54824">
        <ele>117</ele>
        <time>2021-05-04T15:09:06.621Z</time>
      </trkpt>
      <trkpt lat="48.93787" lon="2.54821">
        <ele>114</ele>
        <time>2021-05-04T15:09:20.621Z</time>
      </trkpt>
      <trkpt lat="48.93787" lon="2.54821">
        <ele>114</ele>
        <time>2021-05-04T15:11:15.624Z</time>
      </trkpt>
      <trkpt lat="48.93805" lon="2.54796">
        <ele>110</ele>
        <time>2021-05-04T15:11:16.632Z</time>
      </trkpt>
      <trkpt lat="48.93815" lon="2.54788">
        <ele>110</ele>
        <time>2021-05-04T15:11:19.622Z</time>
      </trkpt>
      <trkpt lat="48.93821" lon="2.54771">
        <ele>110</ele>
        <time>2021-05-04T15:11:23.627Z</time>
      </trkpt>
      <trkpt lat="48.93819" lon="2.54753">
        <ele>111</ele>
        <time>2021-05-04T15:11:28.627Z</time>
      </trkpt>
      <trkpt lat="48.93813" lon="2.54736">
        <ele>111</ele>
        <time>2021-05-04T15:11:32.633Z</time>
      </trkpt>
      <trkpt lat="48.9381" lon="2.54718">
        <ele>111</ele>
        <time>2021-05-04T15:11:35.623Z</time>
      </trkpt>
      <trkpt lat="48.93807" lon="2.54699">
        <ele>112</ele>
        <time>2021-05-04T15:11:39.627Z</time>
      </trkpt>
      <trkpt lat="48.93802" lon="2.54677">
        <ele>113</ele>
        <time>2021-05-04T15:11:43.624Z</time>
      </trkpt>
      <trkpt lat="48.93797" lon="2.54656">
        <ele>113</ele>
        <time>2021-05-04T15:11:46.635Z</time>
      </trkpt>
      <trkpt lat="48.93789" lon="2.54627">
        <ele>113</ele>
        <time>2021-05-04T15:11:50.636Z</time>
      </trkpt>
      <trkpt lat="48.93781" lon="2.54596">
        <ele>113</ele>
        <time>2021-05-04T15:11:54.626Z</time>
      </trkpt>
      <trkpt lat="48.93772" lon="2.54556">
        <ele>113</ele>
        <time>2021-05-04T15:11:59.630Z</time>
      </trkpt>
      <trkpt lat="48.93767" lon="2.54515">
        <ele>113</ele>
        <time>2021-05-04T15:12:04.628Z</time>
      </trkpt>
      <trkpt lat="48.93763" lon="2.54481">
        <ele>112</ele>
        <time>2021-05-04T15:12:09.638Z</time>
      </trkpt>
      <trkpt lat="48.93755" lon="2.54447">
        <ele>112</ele>
        <time>2021-05-04T15:12:13.624Z</time>
      </trkpt>
      <trkpt lat="48.93743" lon="2.54408">
        <ele>112</ele>
        <time>2021-05-04T15:12:18.625Z</time>
      </trkpt>
      <trkpt lat="48.93732" lon="2.54372">
        <ele>111</ele>
        <time>2021-05-04T15:12:23.629Z</time>
      </trkpt>
      <trkpt lat="48.93721" lon="2.54334">
        <ele>110</ele>
        <time>2021-05-04T15:12:28.630Z</time>
      </trkpt>
      <trkpt lat="48.93714" lon="2.543">
        <ele>110</ele>
        <time>2021-05-04T15:12:32.633Z</time>
      </trkpt>
      <trkpt lat="48.93704" lon="2.54261">
        <ele>109</ele>
        <time>2021-05-04T15:12:37.624Z</time>
      </trkpt>
      <trkpt lat="48.93692" lon="2.54223">
        <ele>109</ele>
        <time>2021-05-04T15:12:42.623Z</time>
      </trkpt>
      <trkpt lat="48.93683" lon="2.54183">
        <ele>108</ele>
        <time>2021-05-04T15:12:47.630Z</time>
      </trkpt>
      <trkpt lat="48.93675" lon="2.54142">
        <ele>107</ele>
        <time>2021-05-04T15:12:52.635Z</time>
      </trkpt>
      <trkpt lat="48.93663" lon="2.54103">
        <ele>107</ele>
        <time>2021-05-04T15:12:57.626Z</time>
      </trkpt>
      <trkpt lat="48.93654" lon="2.54069">
        <ele>107</ele>
        <time>2021-05-04T15:13:01.635Z</time>
      </trkpt>
      <trkpt lat="48.93644" lon="2.54029">
        <ele>106</ele>
        <time>2021-05-04T15:13:06.627Z</time>
      </trkpt>
      <trkpt lat="48.93634" lon="2.53986">
        <ele>106</ele>
        <time>2021-05-04T15:13:11.627Z</time>
      </trkpt>
      <trkpt lat="48.93622" lon="2.53948">
        <ele>105</ele>
        <time>2021-05-04T15:13:15.629Z</time>
      </trkpt>
      <trkpt lat="48.93606" lon="2.53902">
        <ele>105</ele>
        <time>2021-05-04T15:13:20.629Z</time>
      </trkpt>
      <trkpt lat="48.93599" lon="2.53855">
        <ele>104</ele>
        <time>2021-05-04T15:13:25.642Z</time>
      </trkpt>
      <trkpt lat="48.93589" lon="2.53811">
        <ele>103</ele>
        <time>2021-05-04T15:13:30.628Z</time>
      </trkpt>
      <trkpt lat="48.93579" lon="2.53768">
        <ele>102</ele>
        <time>2021-05-04T15:13:35.645Z</time>
      </trkpt>
      <trkpt lat="48.93572" lon="2.53725">
        <ele>102</ele>
        <time>2021-05-04T15:13:40.631Z</time>
      </trkpt>
      <trkpt lat="48.93561" lon="2.53686">
        <ele>101</ele>
        <time>2021-05-04T15:13:45.642Z</time>
      </trkpt>
      <trkpt lat="48.93551" lon="2.53643">
        <ele>100</ele>
        <time>2021-05-04T15:13:50.643Z</time>
      </trkpt>
      <trkpt lat="48.93542" lon="2.53605">
        <ele>99</ele>
        <time>2021-05-04T15:13:55.653Z</time>
      </trkpt>
      <trkpt lat="48.93533" lon="2.53565">
        <ele>99</ele>
        <time>2021-05-04T15:14:00.650Z</time>
      </trkpt>
      <trkpt lat="48.93528" lon="2.53526">
        <ele>98</ele>
        <time>2021-05-04T15:14:04.622Z</time>
      </trkpt>
      <trkpt lat="48.93521" lon="2.53483">
        <ele>97</ele>
        <time>2021-05-04T15:14:09.623Z</time>
      </trkpt>
      <trkpt lat="48.93511" lon="2.53442">
        <ele>97</ele>
        <time>2021-05-04T15:14:14.623Z</time>
      </trkpt>
      <trkpt lat="48.93502" lon="2.53402">
        <ele>97</ele>
        <time>2021-05-04T15:14:19.625Z</time>
      </trkpt>
      <trkpt lat="48.93492" lon="2.53362">
        <ele>96</ele>
        <time>2021-05-04T15:14:24.629Z</time>
      </trkpt>
      <trkpt lat="48.93479" lon="2.5333">
        <ele>96</ele>
        <time>2021-05-04T15:14:29.625Z</time>
      </trkpt>
      <trkpt lat="48.93468" lon="2.53302">
        <ele>96</ele>
        <time>2021-05-04T15:14:34.631Z</time>
      </trkpt>
      <trkpt lat="48.9346" lon="2.53273">
        <ele>96</ele>
        <time>2021-05-04T15:14:39.632Z</time>
      </trkpt>
      <trkpt lat="48.93452" lon="2.53248">
        <ele>97</ele>
        <time>2021-05-04T15:14:44.630Z</time>
      </trkpt>
      <trkpt lat="48.93446" lon="2.53225">
        <ele>97</ele>
        <time>2021-05-04T15:14:48.630Z</time>
      </trkpt>
      <trkpt lat="48.9344" lon="2.53199">
        <ele>97</ele>
        <time>2021-05-04T15:14:52.629Z</time>
      </trkpt>
      <trkpt lat="48.93432" lon="2.53171">
        <ele>98</ele>
        <time>2021-05-04T15:14:56.630Z</time>
      </trkpt>
      <trkpt lat="48.93425" lon="2.53143">
        <ele>98</ele>
        <time>2021-05-04T15:15:00.631Z</time>
      </trkpt>
      <trkpt lat="48.93417" lon="2.53108">
        <ele>98</ele>
        <time>2021-05-04T15:15:05.630Z</time>
      </trkpt>
      <trkpt lat="48.9341" lon="2.53079">
        <ele>99</ele>
        <time>2021-05-04T15:15:09.621Z</time>
      </trkpt>
      <trkpt lat="48.934" lon="2.53043">
        <ele>99</ele>
        <time>2021-05-04T15:15:14.626Z</time>
      </trkpt>
      <trkpt lat="48.93393" lon="2.53013">
        <ele>99</ele>
        <time>2021-05-04T15:15:18.623Z</time>
      </trkpt>
      <trkpt lat="48.93385" lon="2.52982">
        <ele>99</ele>
        <time>2021-05-04T15:15:22.628Z</time>
      </trkpt>
      <trkpt lat="48.93375" lon="2.52942">
        <ele>99</ele>
        <time>2021-05-04T15:15:27.627Z</time>
      </trkpt>
      <trkpt lat="48.93366" lon="2.5291">
        <ele>99</ele>
        <time>2021-05-04T15:15:31.628Z</time>
      </trkpt>
      <trkpt lat="48.93355" lon="2.52869">
        <ele>99</ele>
        <time>2021-05-04T15:15:36.626Z</time>
      </trkpt>
      <trkpt lat="48.93344" lon="2.52826">
        <ele>98</ele>
        <time>2021-05-04T15:15:41.621Z</time>
      </trkpt>
      <trkpt lat="48.93332" lon="2.52782">
        <ele>98</ele>
        <time>2021-05-04T15:15:46.623Z</time>
      </trkpt>
      <trkpt lat="48.93323" lon="2.52741">
        <ele>97</ele>
        <time>2021-05-04T15:15:51.633Z</time>
      </trkpt>
      <trkpt lat="48.93312" lon="2.52703">
        <ele>97</ele>
        <time>2021-05-04T15:15:56.629Z</time>
      </trkpt>
      <trkpt lat="48.93302" lon="2.52668">
        <ele>96</ele>
        <time>2021-05-04T15:16:01.639Z</time>
      </trkpt>
      <trkpt lat="48.93288" lon="2.52639">
        <ele>96</ele>
        <time>2021-05-04T15:16:07.629Z</time>
      </trkpt>
      <trkpt lat="48.93281" lon="2.52609">
        <ele>96</ele>
        <time>2021-05-04T15:16:12.631Z</time>
      </trkpt>
      <trkpt lat="48.93275" lon="2.52587">
        <ele>96</ele>
        <time>2021-05-04T15:16:16.632Z</time>
      </trkpt>
      <trkpt lat="48.93268" lon="2.52561">
        <ele>96</ele>
        <time>2021-05-04T15:16:20.629Z</time>
      </trkpt>
      <trkpt lat="48.93261" lon="2.52533">
        <ele>96</ele>
        <time>2021-05-04T15:16:24.630Z</time>
      </trkpt>
      <trkpt lat="48.93257" lon="2.52503">
        <ele>96</ele>
        <time>2021-05-04T15:16:28.627Z</time>
      </trkpt>
      <trkpt lat="48.93261" lon="2.52473">
        <ele>96</ele>
        <time>2021-05-04T15:16:32.626Z</time>
      </trkpt>
      <trkpt lat="48.93253" lon="2.52441">
        <ele>96</ele>
        <time>2021-05-04T15:16:36.629Z</time>
      </trkpt>
      <trkpt lat="48.93242" lon="2.524">
        <ele>96</ele>
        <time>2021-05-04T15:16:41.634Z</time>
      </trkpt>
      <trkpt lat="48.93233" lon="2.52362">
        <ele>96</ele>
        <time>2021-05-04T15:16:46.627Z</time>
      </trkpt>
      <trkpt lat="48.93221" lon="2.52322">
        <ele>96</ele>
        <time>2021-05-04T15:16:51.627Z</time>
      </trkpt>
      <trkpt lat="48.9321" lon="2.52284">
        <ele>96</ele>
        <time>2021-05-04T15:16:56.632Z</time>
      </trkpt>
      <trkpt lat="48.93197" lon="2.52245">
        <ele>95</ele>
        <time>2021-05-04T15:17:01.623Z</time>
      </trkpt>
      <trkpt lat="48.93184" lon="2.52206">
        <ele>95</ele>
        <time>2021-05-04T15:17:06.629Z</time>
      </trkpt>
      <trkpt lat="48.93167" lon="2.52172">
        <ele>95</ele>
        <time>2021-05-04T15:17:11.627Z</time>
      </trkpt>
      <trkpt lat="48.93151" lon="2.52143">
        <ele>95</ele>
        <time>2021-05-04T15:17:16.630Z</time>
      </trkpt>
      <trkpt lat="48.93137" lon="2.52115">
        <ele>95</ele>
        <time>2021-05-04T15:17:21.636Z</time>
      </trkpt>
      <trkpt lat="48.93121" lon="2.52089">
        <ele>95</ele>
        <time>2021-05-04T15:17:26.630Z</time>
      </trkpt>
      <trkpt lat="48.93106" lon="2.52064">
        <ele>95</ele>
        <time>2021-05-04T15:17:31.625Z</time>
      </trkpt>
      <trkpt lat="48.93093" lon="2.52044">
        <ele>95</ele>
        <time>2021-05-04T15:17:35.626Z</time>
      </trkpt>
      <trkpt lat="48.93077" lon="2.52024">
        <ele>95</ele>
        <time>2021-05-04T15:17:39.625Z</time>
      </trkpt>
      <trkpt lat="48.93061" lon="2.52006">
        <ele>95</ele>
        <time>2021-05-04T15:17:43.627Z</time>
      </trkpt>
      <trkpt lat="48.93041" lon="2.51984">
        <ele>95</ele>
        <time>2021-05-04T15:17:48.626Z</time>
      </trkpt>
      <trkpt lat="48.9302" lon="2.51962">
        <ele>95</ele>
        <time>2021-05-04T15:17:53.624Z</time>
      </trkpt>
      <trkpt lat="48.93001" lon="2.51941">
        <ele>95</ele>
        <time>2021-05-04T15:17:58.625Z</time>
      </trkpt>
      <trkpt lat="48.92983" lon="2.51921">
        <ele>95</ele>
        <time>2021-05-04T15:18:03.622Z</time>
      </trkpt>
      <trkpt lat="48.92965" lon="2.519">
        <ele>95</ele>
        <time>2021-05-04T15:18:08.621Z</time>
      </trkpt>
      <trkpt lat="48.9295" lon="2.51884">
        <ele>96</ele>
        <time>2021-05-04T15:18:12.622Z</time>
      </trkpt>
      <trkpt lat="48.92931" lon="2.51865">
        <ele>96</ele>
        <time>2021-05-04T15:18:17.628Z</time>
      </trkpt>
      <trkpt lat="48.92918" lon="2.51842">
        <ele>96</ele>
        <time>2021-05-04T15:18:22.624Z</time>
      </trkpt>
      <trkpt lat="48.92904" lon="2.51822">
        <ele>96</ele>
        <time>2021-05-04T15:18:26.629Z</time>
      </trkpt>
      <trkpt lat="48.92889" lon="2.51801">
        <ele>96</ele>
        <time>2021-05-04T15:18:31.625Z</time>
      </trkpt>
      <trkpt lat="48.92872" lon="2.51785">
        <ele>96</ele>
        <time>2021-05-04T15:18:35.629Z</time>
      </trkpt>
      <trkpt lat="48.92853" lon="2.51773">
        <ele>96</ele>
        <time>2021-05-04T15:18:40.631Z</time>
      </trkpt>
      <trkpt lat="48.92839" lon="2.51761">
        <ele>97</ele>
        <time>2021-05-04T15:18:46.620Z</time>
      </trkpt>
      <trkpt lat="48.92829" lon="2.51755">
        <ele>97</ele>
        <time>2021-05-04T15:18:51.623Z</time>
      </trkpt>
      <trkpt lat="48.9282" lon="2.51749">
        <ele>98</ele>
        <time>2021-05-04T15:18:55.629Z</time>
      </trkpt>
      <trkpt lat="48.92811" lon="2.51739">
        <ele>98</ele>
        <time>2021-05-04T15:18:59.628Z</time>
      </trkpt>
      <trkpt lat="48.92803" lon="2.51731">
        <ele>98</ele>
        <time>2021-05-04T15:19:02.629Z</time>
      </trkpt>
      <trkpt lat="48.92793" lon="2.51722">
        <ele>99</ele>
        <time>2021-05-04T15:19:06.627Z</time>
      </trkpt>
      <trkpt lat="48.92784" lon="2.51714">
        <ele>99</ele>
        <time>2021-05-04T15:19:09.622Z</time>
      </trkpt>
      <trkpt lat="48.92774" lon="2.517">
        <ele>99</ele>
        <time>2021-05-04T15:19:12.629Z</time>
      </trkpt>
      <trkpt lat="48.92761" lon="2.51685">
        <ele>100</ele>
        <time>2021-05-04T15:19:16.624Z</time>
      </trkpt>
      <trkpt lat="48.92746" lon="2.5167">
        <ele>100</ele>
        <time>2021-05-04T15:19:21.623Z</time>
      </trkpt>
      <trkpt lat="48.92731" lon="2.51654">
        <ele>101</ele>
        <time>2021-05-04T15:19:26.626Z</time>
      </trkpt>
      <trkpt lat="48.92719" lon="2.51639">
        <ele>101</ele>
        <time>2021-05-04T15:19:30.628Z</time>
      </trkpt>
      <trkpt lat="48.92706" lon="2.51624">
        <ele>101</ele>
        <time>2021-05-04T15:19:34.638Z</time>
      </trkpt>
      <trkpt lat="48.92691" lon="2.51608">
        <ele>101</ele>
        <time>2021-05-04T15:19:38.623Z</time>
      </trkpt>
      <trkpt lat="48.92676" lon="2.51589">
        <ele>101</ele>
        <time>2021-05-04T15:19:42.624Z</time>
      </trkpt>
      <trkpt lat="48.9266" lon="2.51573">
        <ele>101</ele>
        <time>2021-05-04T15:19:46.624Z</time>
      </trkpt>
      <trkpt lat="48.92644" lon="2.51555">
        <ele>101</ele>
        <time>2021-05-04T15:19:50.627Z</time>
      </trkpt>
      <trkpt lat="48.92625" lon="2.51536">
        <ele>101</ele>
        <time>2021-05-04T15:19:55.624Z</time>
      </trkpt>
      <trkpt lat="48.92607" lon="2.51517">
        <ele>102</ele>
        <time>2021-05-04T15:19:59.625Z</time>
      </trkpt>
      <trkpt lat="48.9259" lon="2.51499">
        <ele>102</ele>
        <time>2021-05-04T15:20:03.624Z</time>
      </trkpt>
      <trkpt lat="48.9257" lon="2.51474">
        <ele>102</ele>
        <time>2021-05-04T15:20:08.626Z</time>
      </trkpt>
      <trkpt lat="48.9255" lon="2.51451">
        <ele>103</ele>
        <time>2021-05-04T15:20:13.621Z</time>
      </trkpt>
      <trkpt lat="48.92528" lon="2.51431">
        <ele>103</ele>
        <time>2021-05-04T15:20:18.626Z</time>
      </trkpt>
      <trkpt lat="48.92507" lon="2.51408">
        <ele>103</ele>
        <time>2021-05-04T15:20:23.626Z</time>
      </trkpt>
      <trkpt lat="48.92487" lon="2.51385">
        <ele>103</ele>
        <time>2021-05-04T15:20:28.625Z</time>
      </trkpt>
      <trkpt lat="48.92466" lon="2.51362">
        <ele>102</ele>
        <time>2021-05-04T15:20:33.624Z</time>
      </trkpt>
      <trkpt lat="48.92446" lon="2.51341">
        <ele>102</ele>
        <time>2021-05-04T15:20:38.625Z</time>
      </trkpt>
      <trkpt lat="48.92434" lon="2.51327">
        <ele>102</ele>
        <time>2021-05-04T15:20:45.621Z</time>
      </trkpt>
      <trkpt lat="48.92443" lon="2.51336">
        <ele>101</ele>
        <time>2021-05-04T15:20:53.623Z</time>
      </trkpt>
      <trkpt lat="48.92451" lon="2.51347">
        <ele>101</ele>
        <time>2021-05-04T15:20:57.625Z</time>
      </trkpt>
      <trkpt lat="48.92459" lon="2.51355">
        <ele>101</ele>
        <time>2021-05-04T15:21:00.624Z</time>
      </trkpt>
      <trkpt lat="48.92469" lon="2.51365">
        <ele>101</ele>
        <time>2021-05-04T15:21:03.623Z</time>
      </trkpt>
      <trkpt lat="48.92481" lon="2.5138">
        <ele>101</ele>
        <time>2021-05-04T15:21:07.625Z</time>
      </trkpt>
      <trkpt lat="48.92493" lon="2.51394">
        <ele>101</ele>
        <time>2021-05-04T15:21:11.627Z</time>
      </trkpt>
      <trkpt lat="48.92485" lon="2.51373">
        <ele>101</ele>
        <time>2021-05-04T15:21:18.625Z</time>
      </trkpt>
      <trkpt lat="48.92475" lon="2.51358">
        <ele>101</ele>
        <time>2021-05-04T15:21:21.627Z</time>
      </trkpt>
      <trkpt lat="48.92462" lon="2.51341">
        <ele>101</ele>
        <time>2021-05-04T15:21:24.627Z</time>
      </trkpt>
      <trkpt lat="48.92448" lon="2.51323">
        <ele>101</ele>
        <time>2021-05-04T15:21:27.623Z</time>
      </trkpt>
      <trkpt lat="48.92429" lon="2.5129">
        <ele>101</ele>
        <time>2021-05-04T15:21:31.624Z</time>
      </trkpt>
      <trkpt lat="48.924" lon="2.51281">
        <ele>100</ele>
        <time>2021-05-04T15:21:36.623Z</time>
      </trkpt>
      <trkpt lat="48.92378" lon="2.51261">
        <ele>100</ele>
        <time>2021-05-04T15:21:42.625Z</time>
      </trkpt>
      <trkpt lat="48.9236" lon="2.51239">
        <ele>100</ele>
        <time>2021-05-04T15:21:47.629Z</time>
      </trkpt>
      <trkpt lat="48.92346" lon="2.51221">
        <ele>100</ele>
        <time>2021-05-04T15:21:51.624Z</time>
      </trkpt>
      <trkpt lat="48.9233" lon="2.51203">
        <ele>100</ele>
        <time>2021-05-04T15:21:55.625Z</time>
      </trkpt>
      <trkpt lat="48.92315" lon="2.51184">
        <ele>100</ele>
        <time>2021-05-04T15:21:59.628Z</time>
      </trkpt>
      <trkpt lat="48.92296" lon="2.51165">
        <ele>100</ele>
        <time>2021-05-04T15:22:03.624Z</time>
      </trkpt>
      <trkpt lat="48.92273" lon="2.51141">
        <ele>100</ele>
        <time>2021-05-04T15:22:08.624Z</time>
      </trkpt>
      <trkpt lat="48.92259" lon="2.51136">
        <ele>100</ele>
        <time>2021-05-04T15:22:18.621Z</time>
      </trkpt>
      <trkpt lat="48.92254" lon="2.5112">
        <ele>100</ele>
        <time>2021-05-04T15:22:23.623Z</time>
      </trkpt>
      <trkpt lat="48.92244" lon="2.51111">
        <ele>100</ele>
        <time>2021-05-04T15:22:27.624Z</time>
      </trkpt>
      <trkpt lat="48.92235" lon="2.51102">
        <ele>100</ele>
        <time>2021-05-04T15:22:30.622Z</time>
      </trkpt>
      <trkpt lat="48.92226" lon="2.51091">
        <ele>100</ele>
        <time>2021-05-04T15:22:33.623Z</time>
      </trkpt>
      <trkpt lat="48.92216" lon="2.5108">
        <ele>100</ele>
        <time>2021-05-04T15:22:36.624Z</time>
      </trkpt>
      <trkpt lat="48.92202" lon="2.51064">
        <ele>100</ele>
        <time>2021-05-04T15:22:40.625Z</time>
      </trkpt>
      <trkpt lat="48.92187" lon="2.5105">
        <ele>99</ele>
        <time>2021-05-04T15:22:44.622Z</time>
      </trkpt>
      <trkpt lat="48.92173" lon="2.51033">
        <ele>99</ele>
        <time>2021-05-04T15:22:48.617Z</time>
      </trkpt>
      <trkpt lat="48.92157" lon="2.51015">
        <ele>99</ele>
        <time>2021-05-04T15:22:52.618Z</time>
      </trkpt>
      <trkpt lat="48.9214" lon="2.50995">
        <ele>99</ele>
        <time>2021-05-04T15:22:56.622Z</time>
      </trkpt>
      <trkpt lat="48.92121" lon="2.50972">
        <ele>99</ele>
        <time>2021-05-04T15:23:01.624Z</time>
      </trkpt>
      <trkpt lat="48.92101" lon="2.5095">
        <ele>99</ele>
        <time>2021-05-04T15:23:06.630Z</time>
      </trkpt>
      <trkpt lat="48.92082" lon="2.50928">
        <ele>100</ele>
        <time>2021-05-04T15:23:11.620Z</time>
      </trkpt>
      <trkpt lat="48.92065" lon="2.50911">
        <ele>100</ele>
        <time>2021-05-04T15:23:15.618Z</time>
      </trkpt>
      <trkpt lat="48.92047" lon="2.50883">
        <ele>100</ele>
        <time>2021-05-04T15:23:20.618Z</time>
      </trkpt>
      <trkpt lat="48.92025" lon="2.50866">
        <ele>99</ele>
        <time>2021-05-04T15:23:25.625Z</time>
      </trkpt>
      <trkpt lat="48.92007" lon="2.50847">
        <ele>99</ele>
        <time>2021-05-04T15:23:31.622Z</time>
      </trkpt>
      <trkpt lat="48.91991" lon="2.5083">
        <ele>99</ele>
        <time>2021-05-04T15:23:36.622Z</time>
      </trkpt>
      <trkpt lat="48.91976" lon="2.50815">
        <ele>98</ele>
        <time>2021-05-04T15:23:40.622Z</time>
      </trkpt>
      <trkpt lat="48.91961" lon="2.50798">
        <ele>98</ele>
        <time>2021-05-04T15:23:44.624Z</time>
      </trkpt>
      <trkpt lat="48.91946" lon="2.50782">
        <ele>98</ele>
        <time>2021-05-04T15:23:48.624Z</time>
      </trkpt>
      <trkpt lat="48.91929" lon="2.50765">
        <ele>97</ele>
        <time>2021-05-04T15:23:52.622Z</time>
      </trkpt>
      <trkpt lat="48.91912" lon="2.50749">
        <ele>97</ele>
        <time>2021-05-04T15:23:56.624Z</time>
      </trkpt>
      <trkpt lat="48.91894" lon="2.50729">
        <ele>97</ele>
        <time>2021-05-04T15:24:01.624Z</time>
      </trkpt>
      <trkpt lat="48.91875" lon="2.50712">
        <ele>96</ele>
        <time>2021-05-04T15:24:06.623Z</time>
      </trkpt>
      <trkpt lat="48.91859" lon="2.50692">
        <ele>97</ele>
        <time>2021-05-04T15:24:10.626Z</time>
      </trkpt>
      <trkpt lat="48.91841" lon="2.50671">
        <ele>97</ele>
        <time>2021-05-04T15:24:14.622Z</time>
      </trkpt>
      <trkpt lat="48.91818" lon="2.50647">
        <ele>97</ele>
        <time>2021-05-04T15:24:19.623Z</time>
      </trkpt>
      <trkpt lat="48.918" lon="2.50624">
        <ele>96</ele>
        <time>2021-05-04T15:24:24.624Z</time>
      </trkpt>
      <trkpt lat="48.91783" lon="2.50605">
        <ele>96</ele>
        <time>2021-05-04T15:24:28.625Z</time>
      </trkpt>
      <trkpt lat="48.91763" lon="2.50582">
        <ele>96</ele>
        <time>2021-05-04T15:24:33.624Z</time>
      </trkpt>
      <trkpt lat="48.91745" lon="2.50564">
        <ele>96</ele>
        <time>2021-05-04T15:24:37.623Z</time>
      </trkpt>
      <trkpt lat="48.91725" lon="2.50543">
        <ele>95</ele>
        <time>2021-05-04T15:24:42.730Z</time>
      </trkpt>
      <trkpt lat="48.91708" lon="2.50525">
        <ele>95</ele>
        <time>2021-05-04T15:24:47.625Z</time>
      </trkpt>
      <trkpt lat="48.91691" lon="2.50505">
        <ele>95</ele>
        <time>2021-05-04T15:24:52.624Z</time>
      </trkpt>
      <trkpt lat="48.91674" lon="2.50487">
        <ele>95</ele>
        <time>2021-05-04T15:24:56.625Z</time>
      </trkpt>
      <trkpt lat="48.91658" lon="2.50468">
        <ele>95</ele>
        <time>2021-05-04T15:25:00.623Z</time>
      </trkpt>
      <trkpt lat="48.9164" lon="2.50447">
        <ele>95</ele>
        <time>2021-05-04T15:25:05.627Z</time>
      </trkpt>
      <trkpt lat="48.9162" lon="2.50426">
        <ele>96</ele>
        <time>2021-05-04T15:25:10.624Z</time>
      </trkpt>
      <trkpt lat="48.91605" lon="2.50408">
        <ele>96</ele>
        <time>2021-05-04T15:25:14.627Z</time>
      </trkpt>
      <trkpt lat="48.91589" lon="2.5039">
        <ele>96</ele>
        <time>2021-05-04T15:25:18.622Z</time>
      </trkpt>
      <trkpt lat="48.91569" lon="2.50369">
        <ele>96</ele>
        <time>2021-05-04T15:25:23.631Z</time>
      </trkpt>
      <trkpt lat="48.91553" lon="2.50351">
        <ele>96</ele>
        <time>2021-05-04T15:25:27.627Z</time>
      </trkpt>
      <trkpt lat="48.91534" lon="2.50327">
        <ele>96</ele>
        <time>2021-05-04T15:25:32.624Z</time>
      </trkpt>
      <trkpt lat="48.91517" lon="2.50309">
        <ele>96</ele>
        <time>2021-05-04T15:25:36.622Z</time>
      </trkpt>
      <trkpt lat="48.91499" lon="2.50289">
        <ele>95</ele>
        <time>2021-05-04T15:25:41.622Z</time>
      </trkpt>
      <trkpt lat="48.91481" lon="2.50269">
        <ele>95</ele>
        <time>2021-05-04T15:25:46.622Z</time>
      </trkpt>
      <trkpt lat="48.91468" lon="2.50244">
        <ele>95</ele>
        <time>2021-05-04T15:25:51.622Z</time>
      </trkpt>
      <trkpt lat="48.91457" lon="2.50219">
        <ele>95</ele>
        <time>2021-05-04T15:25:56.627Z</time>
      </trkpt>
      <trkpt lat="48.91437" lon="2.50217">
        <ele>94</ele>
        <time>2021-05-04T15:26:01.626Z</time>
      </trkpt>
      <trkpt lat="48.91422" lon="2.50199">
        <ele>94</ele>
        <time>2021-05-04T15:26:06.621Z</time>
      </trkpt>
      <trkpt lat="48.91408" lon="2.50186">
        <ele>94</ele>
        <time>2021-05-04T15:26:10.623Z</time>
      </trkpt>
      <trkpt lat="48.91394" lon="2.50171">
        <ele>94</ele>
        <time>2021-05-04T15:26:14.625Z</time>
      </trkpt>
      <trkpt lat="48.91379" lon="2.50155">
        <ele>94</ele>
        <time>2021-05-04T15:26:18.638Z</time>
      </trkpt>
      <trkpt lat="48.91364" lon="2.50137">
        <ele>94</ele>
        <time>2021-05-04T15:26:22.621Z</time>
      </trkpt>
      <trkpt lat="48.91345" lon="2.50115">
        <ele>94</ele>
        <time>2021-05-04T15:26:27.624Z</time>
      </trkpt>
      <trkpt lat="48.9133" lon="2.50097">
        <ele>94</ele>
        <time>2021-05-04T15:26:31.624Z</time>
      </trkpt>
      <trkpt lat="48.9131" lon="2.50073">
        <ele>94</ele>
        <time>2021-05-04T15:26:36.625Z</time>
      </trkpt>
      <trkpt lat="48.9129" lon="2.50049">
        <ele>93</ele>
        <time>2021-05-04T15:26:41.623Z</time>
      </trkpt>
      <trkpt lat="48.91271" lon="2.50026">
        <ele>93</ele>
        <time>2021-05-04T15:26:46.626Z</time>
      </trkpt>
      <trkpt lat="48.91252" lon="2.50005">
        <ele>93</ele>
        <time>2021-05-04T15:26:51.623Z</time>
      </trkpt>
      <trkpt lat="48.91234" lon="2.49986">
        <ele>93</ele>
        <time>2021-05-04T15:26:56.624Z</time>
      </trkpt>
      <trkpt lat="48.91217" lon="2.49967">
        <ele>93</ele>
        <time>2021-05-04T15:27:01.622Z</time>
      </trkpt>
      <trkpt lat="48.91201" lon="2.49951">
        <ele>93</ele>
        <time>2021-05-04T15:27:05.624Z</time>
      </trkpt>
      <trkpt lat="48.91184" lon="2.49928">
        <ele>94</ele>
        <time>2021-05-04T15:27:10.620Z</time>
      </trkpt>
      <trkpt lat="48.91167" lon="2.49907">
        <ele>94</ele>
        <time>2021-05-04T15:27:15.624Z</time>
      </trkpt>
      <trkpt lat="48.91153" lon="2.49885">
        <ele>94</ele>
        <time>2021-05-04T15:27:19.622Z</time>
      </trkpt>
      <trkpt lat="48.91139" lon="2.49864">
        <ele>94</ele>
        <time>2021-05-04T15:27:23.623Z</time>
      </trkpt>
      <trkpt lat="48.91123" lon="2.49839">
        <ele>95</ele>
        <time>2021-05-04T15:27:28.624Z</time>
      </trkpt>
      <trkpt lat="48.91108" lon="2.4982">
        <ele>95</ele>
        <time>2021-05-04T15:27:32.623Z</time>
      </trkpt>
      <trkpt lat="48.91095" lon="2.49797">
        <ele>95</ele>
        <time>2021-05-04T15:27:36.827Z</time>
      </trkpt>
      <trkpt lat="48.91083" lon="2.4977">
        <ele>96</ele>
        <time>2021-05-04T15:27:41.622Z</time>
      </trkpt>
      <trkpt lat="48.91071" lon="2.49741">
        <ele>96</ele>
        <time>2021-05-04T15:27:46.623Z</time>
      </trkpt>
      <trkpt lat="48.91058" lon="2.49712">
        <ele>96</ele>
        <time>2021-05-04T15:27:51.624Z</time>
      </trkpt>
      <trkpt lat="48.91047" lon="2.49684">
        <ele>97</ele>
        <time>2021-05-04T15:27:55.623Z</time>
      </trkpt>
      <trkpt lat="48.91037" lon="2.49655">
        <ele>97</ele>
        <time>2021-05-04T15:27:59.624Z</time>
      </trkpt>
      <trkpt lat="48.91028" lon="2.49618">
        <ele>97</ele>
        <time>2021-05-04T15:28:04.626Z</time>
      </trkpt>
      <trkpt lat="48.91019" lon="2.49585">
        <ele>97</ele>
        <time>2021-05-04T15:28:08.619Z</time>
      </trkpt>
      <trkpt lat="48.9101" lon="2.4955">
        <ele>97</ele>
        <time>2021-05-04T15:28:13.619Z</time>
      </trkpt>
      <trkpt lat="48.91011" lon="2.49518">
        <ele>97</ele>
        <time>2021-05-04T15:28:19.630Z</time>
      </trkpt>
      <trkpt lat="48.91006" lon="2.49494">
        <ele>97</ele>
        <time>2021-05-04T15:28:23.626Z</time>
      </trkpt>
      <trkpt lat="48.91001" lon="2.4947">
        <ele>96</ele>
        <time>2021-05-04T15:28:27.624Z</time>
      </trkpt>
      <trkpt lat="48.90996" lon="2.49446">
        <ele>96</ele>
        <time>2021-05-04T15:28:31.624Z</time>
      </trkpt>
      <trkpt lat="48.90986" lon="2.49426">
        <ele>96</ele>
        <time>2021-05-04T15:28:35.625Z</time>
      </trkpt>
      <trkpt lat="48.90979" lon="2.49402">
        <ele>96</ele>
        <time>2021-05-04T15:28:39.626Z</time>
      </trkpt>
      <trkpt lat="48.90973" lon="2.49375">
        <ele>96</ele>
        <time>2021-05-04T15:28:43.624Z</time>
      </trkpt>
      <trkpt lat="48.90967" lon="2.49343">
        <ele>96</ele>
        <time>2021-05-04T15:28:48.624Z</time>
      </trkpt>
      <trkpt lat="48.90961" lon="2.49316">
        <ele>96</ele>
        <time>2021-05-04T15:28:52.625Z</time>
      </trkpt>
      <trkpt lat="48.90956" lon="2.49289">
        <ele>96</ele>
        <time>2021-05-04T15:28:56.626Z</time>
      </trkpt>
      <trkpt lat="48.9095" lon="2.49255">
        <ele>96</ele>
        <time>2021-05-04T15:29:01.622Z</time>
      </trkpt>
      <trkpt lat="48.90945" lon="2.49228">
        <ele>96</ele>
        <time>2021-05-04T15:29:05.623Z</time>
      </trkpt>
      <trkpt lat="48.90939" lon="2.49201">
        <ele>96</ele>
        <time>2021-05-04T15:29:09.624Z</time>
      </trkpt>
      <trkpt lat="48.90932" lon="2.49169">
        <ele>96</ele>
        <time>2021-05-04T15:29:14.622Z</time>
      </trkpt>
      <trkpt lat="48.90926" lon="2.49141">
        <ele>96</ele>
        <time>2021-05-04T15:29:18.619Z</time>
      </trkpt>
      <trkpt lat="48.90931" lon="2.4911">
        <ele>96</ele>
        <time>2021-05-04T15:29:23.623Z</time>
      </trkpt>
      <trkpt lat="48.90925" lon="2.49083">
        <ele>96</ele>
        <time>2021-05-04T15:29:27.625Z</time>
      </trkpt>
      <trkpt lat="48.90916" lon="2.4905">
        <ele>96</ele>
        <time>2021-05-04T15:29:32.621Z</time>
      </trkpt>
      <trkpt lat="48.90909" lon="2.49016">
        <ele>96</ele>
        <time>2021-05-04T15:29:37.624Z</time>
      </trkpt>
      <trkpt lat="48.90904" lon="2.48987">
        <ele>96</ele>
        <time>2021-05-04T15:29:41.622Z</time>
      </trkpt>
      <trkpt lat="48.90899" lon="2.48951">
        <ele>96</ele>
        <time>2021-05-04T15:29:46.622Z</time>
      </trkpt>
      <trkpt lat="48.90891" lon="2.48917">
        <ele>96</ele>
        <time>2021-05-04T15:29:51.621Z</time>
      </trkpt>
      <trkpt lat="48.90884" lon="2.48881">
        <ele>96</ele>
        <time>2021-05-04T15:29:56.624Z</time>
      </trkpt>
      <trkpt lat="48.90877" lon="2.48847">
        <ele>96</ele>
        <time>2021-05-04T15:30:01.627Z</time>
      </trkpt>
      <trkpt lat="48.90872" lon="2.48813">
        <ele>96</ele>
        <time>2021-05-04T15:30:06.635Z</time>
      </trkpt>
      <trkpt lat="48.90865" lon="2.48781">
        <ele>96</ele>
        <time>2021-05-04T15:30:11.625Z</time>
      </trkpt>
      <trkpt lat="48.90858" lon="2.4875">
        <ele>97</ele>
        <time>2021-05-04T15:30:16.624Z</time>
      </trkpt>
      <trkpt lat="48.90852" lon="2.48718">
        <ele>97</ele>
        <time>2021-05-04T15:30:21.620Z</time>
      </trkpt>
      <trkpt lat="48.90848" lon="2.48691">
        <ele>97</ele>
        <time>2021-05-04T15:30:25.627Z</time>
      </trkpt>
      <trkpt lat="48.90839" lon="2.48661">
        <ele>97</ele>
        <time>2021-05-04T15:30:30.621Z</time>
      </trkpt>
      <trkpt lat="48.90833" lon="2.48631">
        <ele>98</ele>
        <time>2021-05-04T15:30:35.624Z</time>
      </trkpt>
      <trkpt lat="48.90827" lon="2.48605">
        <ele>98</ele>
        <time>2021-05-04T15:30:39.623Z</time>
      </trkpt>
      <trkpt lat="48.90824" lon="2.48579">
        <ele>98</ele>
        <time>2021-05-04T15:30:43.625Z</time>
      </trkpt>
      <trkpt lat="48.90817" lon="2.48547">
        <ele>98</ele>
        <time>2021-05-04T15:30:48.627Z</time>
      </trkpt>
      <trkpt lat="48.9081" lon="2.48516">
        <ele>98</ele>
        <time>2021-05-04T15:30:53.620Z</time>
      </trkpt>
      <trkpt lat="48.90803" lon="2.48485">
        <ele>98</ele>
        <time>2021-05-04T15:30:58.627Z</time>
      </trkpt>
      <trkpt lat="48.90798" lon="2.48458">
        <ele>98</ele>
        <time>2021-05-04T15:31:02.621Z</time>
      </trkpt>
      <trkpt lat="48.90792" lon="2.48432">
        <ele>98</ele>
        <time>2021-05-04T15:31:06.629Z</time>
      </trkpt>
      <trkpt lat="48.90786" lon="2.48405">
        <ele>98</ele>
        <time>2021-05-04T15:31:10.623Z</time>
      </trkpt>
      <trkpt lat="48.9078" lon="2.48372">
        <ele>98</ele>
        <time>2021-05-04T15:31:15.628Z</time>
      </trkpt>
      <trkpt lat="48.90774" lon="2.48341">
        <ele>98</ele>
        <time>2021-05-04T15:31:20.628Z</time>
      </trkpt>
      <trkpt lat="48.90768" lon="2.48312">
        <ele>98</ele>
        <time>2021-05-04T15:31:25.624Z</time>
      </trkpt>
      <trkpt lat="48.90764" lon="2.48288">
        <ele>98</ele>
        <time>2021-05-04T15:31:29.621Z</time>
      </trkpt>
      <trkpt lat="48.90758" lon="2.48263">
        <ele>98</ele>
        <time>2021-05-04T15:31:33.626Z</time>
      </trkpt>
      <trkpt lat="48.90752" lon="2.48238">
        <ele>98</ele>
        <time>2021-05-04T15:31:37.628Z</time>
      </trkpt>
      <trkpt lat="48.90747" lon="2.48207">
        <ele>98</ele>
        <time>2021-05-04T15:31:42.624Z</time>
      </trkpt>
      <trkpt lat="48.90741" lon="2.48181">
        <ele>98</ele>
        <time>2021-05-04T15:31:46.627Z</time>
      </trkpt>
      <trkpt lat="48.90738" lon="2.48155">
        <ele>98</ele>
        <time>2021-05-04T15:31:50.628Z</time>
      </trkpt>
      <trkpt lat="48.90731" lon="2.48127">
        <ele>98</ele>
        <time>2021-05-04T15:31:54.629Z</time>
      </trkpt>
      <trkpt lat="48.90725" lon="2.481">
        <ele>98</ele>
        <time>2021-05-04T15:31:58.623Z</time>
      </trkpt>
      <trkpt lat="48.9072" lon="2.48072">
        <ele>98</ele>
        <time>2021-05-04T15:32:02.628Z</time>
      </trkpt>
      <trkpt lat="48.90715" lon="2.48039">
        <ele>98</ele>
        <time>2021-05-04T15:32:07.632Z</time>
      </trkpt>
      <trkpt lat="48.90709" lon="2.4801">
        <ele>98</ele>
        <time>2021-05-04T15:32:12.624Z</time>
      </trkpt>
      <trkpt lat="48.90704" lon="2.47985">
        <ele>98</ele>
        <time>2021-05-04T15:32:16.626Z</time>
      </trkpt>
      <trkpt lat="48.90698" lon="2.4796">
        <ele>98</ele>
        <time>2021-05-04T15:32:20.629Z</time>
      </trkpt>
      <trkpt lat="48.90693" lon="2.47936">
        <ele>99</ele>
        <time>2021-05-04T15:32:24.627Z</time>
      </trkpt>
      <trkpt lat="48.90688" lon="2.4791">
        <ele>99</ele>
        <time>2021-05-04T15:32:28.627Z</time>
      </trkpt>
      <trkpt lat="48.90681" lon="2.4788">
        <ele>99</ele>
        <time>2021-05-04T15:32:33.628Z</time>
      </trkpt>
      <trkpt lat="48.90675" lon="2.4785">
        <ele>100</ele>
        <time>2021-05-04T15:32:38.630Z</time>
      </trkpt>
      <trkpt lat="48.90669" lon="2.47825">
        <ele>100</ele>
        <time>2021-05-04T15:32:42.629Z</time>
      </trkpt>
      <trkpt lat="48.90664" lon="2.47795">
        <ele>100</ele>
        <time>2021-05-04T15:32:47.631Z</time>
      </trkpt>
      <trkpt lat="48.90657" lon="2.47766">
        <ele>101</ele>
        <time>2021-05-04T15:32:52.622Z</time>
      </trkpt>
      <trkpt lat="48.90652" lon="2.47742">
        <ele>101</ele>
        <time>2021-05-04T15:32:56.627Z</time>
      </trkpt>
      <trkpt lat="48.90647" lon="2.47717">
        <ele>102</ele>
        <time>2021-05-04T15:33:00.628Z</time>
      </trkpt>
      <trkpt lat="48.90641" lon="2.47692">
        <ele>102</ele>
        <time>2021-05-04T15:33:04.629Z</time>
      </trkpt>
      <trkpt lat="48.90635" lon="2.47662">
        <ele>103</ele>
        <time>2021-05-04T15:33:09.627Z</time>
      </trkpt>
      <trkpt lat="48.9063" lon="2.47637">
        <ele>103</ele>
        <time>2021-05-04T15:33:13.628Z</time>
      </trkpt>
      <trkpt lat="48.90625" lon="2.47613">
        <ele>103</ele>
        <time>2021-05-04T15:33:17.627Z</time>
      </trkpt>
      <trkpt lat="48.90621" lon="2.47587">
        <ele>103</ele>
        <time>2021-05-04T15:33:21.632Z</time>
      </trkpt>
      <trkpt lat="48.90616" lon="2.47562">
        <ele>103</ele>
        <time>2021-05-04T15:33:25.630Z</time>
      </trkpt>
      <trkpt lat="48.9061" lon="2.47537">
        <ele>103</ele>
        <time>2021-05-04T15:33:29.627Z</time>
      </trkpt>
      <trkpt lat="48.90604" lon="2.47512">
        <ele>103</ele>
        <time>2021-05-04T15:33:33.625Z</time>
      </trkpt>
      <trkpt lat="48.90597" lon="2.47481">
        <ele>102</ele>
        <time>2021-05-04T15:33:38.627Z</time>
      </trkpt>
      <trkpt lat="48.9059" lon="2.47456">
        <ele>102</ele>
        <time>2021-05-04T15:33:42.628Z</time>
      </trkpt>
      <trkpt lat="48.90585" lon="2.47431">
        <ele>102</ele>
        <time>2021-05-04T15:33:48.627Z</time>
      </trkpt>
      <trkpt lat="48.90581" lon="2.47416">
        <ele>102</ele>
        <time>2021-05-04T15:33:54.624Z</time>
      </trkpt>
      <trkpt lat="48.90583" lon="2.47402">
        <ele>102</ele>
        <time>2021-05-04T15:33:59.626Z</time>
      </trkpt>
      <trkpt lat="48.90591" lon="2.4739">
        <ele>102</ele>
        <time>2021-05-04T15:34:04.632Z</time>
      </trkpt>
      <trkpt lat="48.90598" lon="2.47379">
        <ele>103</ele>
        <time>2021-05-04T15:34:08.633Z</time>
      </trkpt>
      <trkpt lat="48.90605" lon="2.47366">
        <ele>103</ele>
        <time>2021-05-04T15:34:12.633Z</time>
      </trkpt>
      <trkpt lat="48.90603" lon="2.47351">
        <ele>103</ele>
        <time>2021-05-04T15:34:15.623Z</time>
      </trkpt>
      <trkpt lat="48.90599" lon="2.47332">
        <ele>103</ele>
        <time>2021-05-04T15:34:18.623Z</time>
      </trkpt>
      <trkpt lat="48.90596" lon="2.47315">
        <ele>103</ele>
        <time>2021-05-04T15:34:20.625Z</time>
      </trkpt>
      <trkpt lat="48.9059" lon="2.47285">
        <ele>102</ele>
        <time>2021-05-04T15:34:23.625Z</time>
      </trkpt>
      <trkpt lat="48.9058" lon="2.4725">
        <ele>102</ele>
        <time>2021-05-04T15:34:27.632Z</time>
      </trkpt>
      <trkpt lat="48.90572" lon="2.47209">
        <ele>101</ele>
        <time>2021-05-04T15:34:32.624Z</time>
      </trkpt>
      <trkpt lat="48.90566" lon="2.47172">
        <ele>100</ele>
        <time>2021-05-04T15:34:37.626Z</time>
      </trkpt>
      <trkpt lat="48.90559" lon="2.47141">
        <ele>99</ele>
        <time>2021-05-04T15:34:42.639Z</time>
      </trkpt>
      <trkpt lat="48.90551" lon="2.47107">
        <ele>98</ele>
        <time>2021-05-04T15:34:47.633Z</time>
      </trkpt>
      <trkpt lat="48.90544" lon="2.47078">
        <ele>97</ele>
        <time>2021-05-04T15:34:51.626Z</time>
      </trkpt>
      <trkpt lat="48.90537" lon="2.47042">
        <ele>96</ele>
        <time>2021-05-04T15:34:56.648Z</time>
      </trkpt>
      <trkpt lat="48.90532" lon="2.4701">
        <ele>96</ele>
        <time>2021-05-04T15:35:01.636Z</time>
      </trkpt>
      <trkpt lat="48.90525" lon="2.46981">
        <ele>96</ele>
        <time>2021-05-04T15:35:05.652Z</time>
      </trkpt>
      <trkpt lat="48.90518" lon="2.46948">
        <ele>95</ele>
        <time>2021-05-04T15:35:10.688Z</time>
      </trkpt>
      <trkpt lat="48.90511" lon="2.46915">
        <ele>96</ele>
        <time>2021-05-04T15:35:15.664Z</time>
      </trkpt>
      <trkpt lat="48.90505" lon="2.46881">
        <ele>96</ele>
        <time>2021-05-04T15:35:20.658Z</time>
      </trkpt>
      <trkpt lat="48.905" lon="2.46853">
        <ele>96</ele>
        <time>2021-05-04T15:35:24.648Z</time>
      </trkpt>
      <trkpt lat="48.90495" lon="2.46824">
        <ele>96</ele>
        <time>2021-05-04T15:35:28.632Z</time>
      </trkpt>
      <trkpt lat="48.90489" lon="2.4679">
        <ele>96</ele>
        <time>2021-05-04T15:35:33.624Z</time>
      </trkpt>
      <trkpt lat="48.90485" lon="2.46759">
        <ele>96</ele>
        <time>2021-05-04T15:35:38.624Z</time>
      </trkpt>
      <trkpt lat="48.90492" lon="2.46752">
        <ele>96</ele>
        <time>2021-05-04T15:36:04.624Z</time>
      </trkpt>
      <trkpt lat="48.90492" lon="2.46752">
        <ele>96</ele>
        <time>2021-05-04T15:38:15.626Z</time>
      </trkpt>
      <trkpt lat="48.90478" lon="2.46723">
        <ele>96</ele>
        <time>2021-05-04T15:38:16.627Z</time>
      </trkpt>
      <trkpt lat="48.90474" lon="2.46709">
        <ele>97</ele>
        <time>2021-05-04T15:38:19.626Z</time>
      </trkpt>
      <trkpt lat="48.90472" lon="2.46694">
        <ele>97</ele>
        <time>2021-05-04T15:38:22.623Z</time>
      </trkpt>
      <trkpt lat="48.90468" lon="2.46678">
        <ele>98</ele>
        <time>2021-05-04T15:38:25.626Z</time>
      </trkpt>
      <trkpt lat="48.90464" lon="2.46655">
        <ele>98</ele>
        <time>2021-05-04T15:38:29.623Z</time>
      </trkpt>
      <trkpt lat="48.90459" lon="2.46631">
        <ele>98</ele>
        <time>2021-05-04T15:38:33.624Z</time>
      </trkpt>
      <trkpt lat="48.90454" lon="2.46606">
        <ele>99</ele>
        <time>2021-05-04T15:38:37.622Z</time>
      </trkpt>
      <trkpt lat="48.90449" lon="2.4658">
        <ele>99</ele>
        <time>2021-05-04T15:38:41.623Z</time>
      </trkpt>
      <trkpt lat="48.90446" lon="2.4655">
        <ele>100</ele>
        <time>2021-05-04T15:38:45.619Z</time>
      </trkpt>
      <trkpt lat="48.90435" lon="2.46527">
        <ele>100</ele>
        <time>2021-05-04T15:38:50.627Z</time>
      </trkpt>
      <trkpt lat="48.90428" lon="2.46501">
        <ele>100</ele>
        <time>2021-05-04T15:38:55.623Z</time>
      </trkpt>
      <trkpt lat="48.90427" lon="2.46479">
        <ele>100</ele>
        <time>2021-05-04T15:38:59.627Z</time>
      </trkpt>
      <trkpt lat="48.90423" lon="2.46457">
        <ele>100</ele>
        <time>2021-05-04T15:39:03.623Z</time>
      </trkpt>
      <trkpt lat="48.90419" lon="2.46434">
        <ele>100</ele>
        <time>2021-05-04T15:39:07.627Z</time>
      </trkpt>
      <trkpt lat="48.90414" lon="2.46409">
        <ele>99</ele>
        <time>2021-05-04T15:39:11.624Z</time>
      </trkpt>
      <trkpt lat="48.90409" lon="2.46384">
        <ele>99</ele>
        <time>2021-05-04T15:39:15.622Z</time>
      </trkpt>
      <trkpt lat="48.90404" lon="2.46357">
        <ele>99</ele>
        <time>2021-05-04T15:39:19.622Z</time>
      </trkpt>
      <trkpt lat="48.90398" lon="2.46327">
        <ele>99</ele>
        <time>2021-05-04T15:39:24.623Z</time>
      </trkpt>
      <trkpt lat="48.90392" lon="2.46296">
        <ele>99</ele>
        <time>2021-05-04T15:39:29.633Z</time>
      </trkpt>
      <trkpt lat="48.90387" lon="2.46271">
        <ele>99</ele>
        <time>2021-05-04T15:39:33.624Z</time>
      </trkpt>
      <trkpt lat="48.90382" lon="2.46247">
        <ele>99</ele>
        <time>2021-05-04T15:39:37.626Z</time>
      </trkpt>
      <trkpt lat="48.90376" lon="2.46217">
        <ele>98</ele>
        <time>2021-05-04T15:39:42.623Z</time>
      </trkpt>
      <trkpt lat="48.9037" lon="2.46189">
        <ele>98</ele>
        <time>2021-05-04T15:39:47.623Z</time>
      </trkpt>
      <trkpt lat="48.90366" lon="2.46166">
        <ele>98</ele>
        <time>2021-05-04T15:39:51.626Z</time>
      </trkpt>
      <trkpt lat="48.90362" lon="2.46144">
        <ele>98</ele>
        <time>2021-05-04T15:39:55.623Z</time>
      </trkpt>
      <trkpt lat="48.90358" lon="2.46122">
        <ele>98</ele>
        <time>2021-05-04T15:39:59.623Z</time>
      </trkpt>
      <trkpt lat="48.90353" lon="2.46099">
        <ele>98</ele>
        <time>2021-05-04T15:40:03.630Z</time>
      </trkpt>
      <trkpt lat="48.90348" lon="2.46076">
        <ele>98</ele>
        <time>2021-05-04T15:40:07.626Z</time>
      </trkpt>
      <trkpt lat="48.90344" lon="2.46051">
        <ele>98</ele>
        <time>2021-05-04T15:40:11.628Z</time>
      </trkpt>
      <trkpt lat="48.90339" lon="2.46028">
        <ele>98</ele>
        <time>2021-05-04T15:40:15.626Z</time>
      </trkpt>
      <trkpt lat="48.90334" lon="2.46002">
        <ele>98</ele>
        <time>2021-05-04T15:40:19.625Z</time>
      </trkpt>
      <trkpt lat="48.90329" lon="2.45975">
        <ele>98</ele>
        <time>2021-05-04T15:40:23.626Z</time>
      </trkpt>
      <trkpt lat="48.90322" lon="2.45944">
        <ele>98</ele>
        <time>2021-05-04T15:40:28.626Z</time>
      </trkpt>
      <trkpt lat="48.90315" lon="2.45914">
        <ele>98</ele>
        <time>2021-05-04T15:40:33.621Z</time>
      </trkpt>
      <trkpt lat="48.9031" lon="2.45884">
        <ele>98</ele>
        <time>2021-05-04T15:40:38.623Z</time>
      </trkpt>
      <trkpt lat="48.90307" lon="2.45857">
        <ele>98</ele>
        <time>2021-05-04T15:40:43.622Z</time>
      </trkpt>
      <trkpt lat="48.90307" lon="2.45835">
        <ele>98</ele>
        <time>2021-05-04T15:40:49.624Z</time>
      </trkpt>
      <trkpt lat="48.90309" lon="2.45824">
        <ele>98</ele>
        <time>2021-05-04T15:41:09.623Z</time>
      </trkpt>
      <trkpt lat="48.90309" lon="2.45824">
        <ele>98</ele>
        <time>2021-05-04T15:45:30.624Z</time>
      </trkpt>
      <trkpt lat="48.90298" lon="2.45792">
        <ele>98</ele>
        <time>2021-05-04T15:45:31.625Z</time>
      </trkpt>
      <trkpt lat="48.90296" lon="2.45777">
        <ele>98</ele>
        <time>2021-05-04T15:45:35.621Z</time>
      </trkpt>
      <trkpt lat="48.90289" lon="2.45763">
        <ele>98</ele>
        <time>2021-05-04T15:45:39.627Z</time>
      </trkpt>
      <trkpt lat="48.90284" lon="2.4575">
        <ele>98</ele>
        <time>2021-05-04T15:45:42.627Z</time>
      </trkpt>
      <trkpt lat="48.90279" lon="2.45735">
        <ele>98</ele>
        <time>2021-05-04T15:45:45.629Z</time>
      </trkpt>
      <trkpt lat="48.90274" lon="2.45713">
        <ele>99</ele>
        <time>2021-05-04T15:45:49.628Z</time>
      </trkpt>
      <trkpt lat="48.9027" lon="2.45691">
        <ele>99</ele>
        <time>2021-05-04T15:45:53.632Z</time>
      </trkpt>
      <trkpt lat="48.90266" lon="2.45668">
        <ele>99</ele>
        <time>2021-05-04T15:45:57.623Z</time>
      </trkpt>
      <trkpt lat="48.9026" lon="2.45644">
        <ele>99</ele>
        <time>2021-05-04T15:46:01.620Z</time>
      </trkpt>
      <trkpt lat="48.90256" lon="2.45621">
        <ele>99</ele>
        <time>2021-05-04T15:46:05.622Z</time>
      </trkpt>
      <trkpt lat="48.9025" lon="2.45593">
        <ele>99</ele>
        <time>2021-05-04T15:46:10.627Z</time>
      </trkpt>
      <trkpt lat="48.90246" lon="2.45571">
        <ele>99</ele>
        <time>2021-05-04T15:46:14.631Z</time>
      </trkpt>
      <trkpt lat="48.90242" lon="2.45548">
        <ele>99</ele>
        <time>2021-05-04T15:46:18.625Z</time>
      </trkpt>
      <trkpt lat="48.90238" lon="2.45524">
        <ele>99</ele>
        <time>2021-05-04T15:46:22.623Z</time>
      </trkpt>
      <trkpt lat="48.90233" lon="2.45501">
        <ele>99</ele>
        <time>2021-05-04T15:46:26.628Z</time>
      </trkpt>
      <trkpt lat="48.90228" lon="2.45478">
        <ele>99</ele>
        <time>2021-05-04T15:46:30.622Z</time>
      </trkpt>
      <trkpt lat="48.90223" lon="2.45455">
        <ele>99</ele>
        <time>2021-05-04T15:46:34.623Z</time>
      </trkpt>
      <trkpt lat="48.90219" lon="2.45432">
        <ele>99</ele>
        <time>2021-05-04T15:46:38.623Z</time>
      </trkpt>
      <trkpt lat="48.90214" lon="2.45409">
        <ele>99</ele>
        <time>2021-05-04T15:46:42.624Z</time>
      </trkpt>
      <trkpt lat="48.9021" lon="2.45386">
        <ele>99</ele>
        <time>2021-05-04T15:46:46.629Z</time>
      </trkpt>
      <trkpt lat="48.90204" lon="2.45361">
        <ele>99</ele>
        <time>2021-05-04T15:46:50.627Z</time>
      </trkpt>
      <trkpt lat="48.90199" lon="2.45336">
        <ele>99</ele>
        <time>2021-05-04T15:46:54.628Z</time>
      </trkpt>
      <trkpt lat="48.90194" lon="2.4531">
        <ele>99</ele>
        <time>2021-05-04T15:46:58.622Z</time>
      </trkpt>
      <trkpt lat="48.90189" lon="2.45284">
        <ele>99</ele>
        <time>2021-05-04T15:47:02.625Z</time>
      </trkpt>
      <trkpt lat="48.90184" lon="2.45257">
        <ele>99</ele>
        <time>2021-05-04T15:47:06.625Z</time>
      </trkpt>
      <trkpt lat="48.90178" lon="2.45231">
        <ele>99</ele>
        <time>2021-05-04T15:47:10.624Z</time>
      </trkpt>
      <trkpt lat="48.90171" lon="2.45198">
        <ele>99</ele>
        <time>2021-05-04T15:47:15.629Z</time>
      </trkpt>
      <trkpt lat="48.90164" lon="2.45165">
        <ele>99</ele>
        <time>2021-05-04T15:47:20.626Z</time>
      </trkpt>
      <trkpt lat="48.90158" lon="2.45133">
        <ele>99</ele>
        <time>2021-05-04T15:47:25.623Z</time>
      </trkpt>
      <trkpt lat="48.90152" lon="2.45101">
        <ele>99</ele>
        <time>2021-05-04T15:47:30.626Z</time>
      </trkpt>
      <trkpt lat="48.90147" lon="2.45076">
        <ele>99</ele>
        <time>2021-05-04T15:47:34.626Z</time>
      </trkpt>
      <trkpt lat="48.90141" lon="2.45049">
        <ele>99</ele>
        <time>2021-05-04T15:47:38.623Z</time>
      </trkpt>
      <trkpt lat="48.90136" lon="2.45023">
        <ele>99</ele>
        <time>2021-05-04T15:47:42.623Z</time>
      </trkpt>
      <trkpt lat="48.90131" lon="2.44994">
        <ele>99</ele>
        <time>2021-05-04T15:47:46.627Z</time>
      </trkpt>
      <trkpt lat="48.90125" lon="2.44965">
        <ele>99</ele>
        <time>2021-05-04T15:47:50.626Z</time>
      </trkpt>
      <trkpt lat="48.90119" lon="2.44929">
        <ele>99</ele>
        <time>2021-05-04T15:47:55.623Z</time>
      </trkpt>
      <trkpt lat="48.90112" lon="2.44894">
        <ele>99</ele>
        <time>2021-05-04T15:48:00.624Z</time>
      </trkpt>
      <trkpt lat="48.90106" lon="2.4486">
        <ele>99</ele>
        <time>2021-05-04T15:48:05.625Z</time>
      </trkpt>
      <trkpt lat="48.90099" lon="2.44825">
        <ele>98</ele>
        <time>2021-05-04T15:48:10.624Z</time>
      </trkpt>
      <trkpt lat="48.90092" lon="2.44793">
        <ele>98</ele>
        <time>2021-05-04T15:48:15.625Z</time>
      </trkpt>
      <trkpt lat="48.90086" lon="2.44762">
        <ele>97</ele>
        <time>2021-05-04T15:48:20.625Z</time>
      </trkpt>
      <trkpt lat="48.9008" lon="2.44736">
        <ele>97</ele>
        <time>2021-05-04T15:48:24.628Z</time>
      </trkpt>
      <trkpt lat="48.90075" lon="2.44704">
        <ele>97</ele>
        <time>2021-05-04T15:48:29.622Z</time>
      </trkpt>
      <trkpt lat="48.90068" lon="2.44675">
        <ele>97</ele>
        <time>2021-05-04T15:48:34.625Z</time>
      </trkpt>
      <trkpt lat="48.90064" lon="2.44651">
        <ele>97</ele>
        <time>2021-05-04T15:48:38.624Z</time>
      </trkpt>
      <trkpt lat="48.90059" lon="2.44627">
        <ele>96</ele>
        <time>2021-05-04T15:48:42.630Z</time>
      </trkpt>
      <trkpt lat="48.90051" lon="2.44606">
        <ele>97</ele>
        <time>2021-05-04T15:48:46.624Z</time>
      </trkpt>
      <trkpt lat="48.90044" lon="2.44584">
        <ele>96</ele>
        <time>2021-05-04T15:48:50.623Z</time>
      </trkpt>
      <trkpt lat="48.90037" lon="2.44561">
        <ele>96</ele>
        <time>2021-05-04T15:48:54.623Z</time>
      </trkpt>
      <trkpt lat="48.9003" lon="2.44536">
        <ele>96</ele>
        <time>2021-05-04T15:48:58.631Z</time>
      </trkpt>
      <trkpt lat="48.90024" lon="2.44513">
        <ele>97</ele>
        <time>2021-05-04T15:49:02.623Z</time>
      </trkpt>
      <trkpt lat="48.90017" lon="2.44483">
        <ele>97</ele>
        <time>2021-05-04T15:49:07.628Z</time>
      </trkpt>
      <trkpt lat="48.90012" lon="2.44456">
        <ele>97</ele>
        <time>2021-05-04T15:49:11.626Z</time>
      </trkpt>
      <trkpt lat="48.90007" lon="2.44429">
        <ele>97</ele>
        <time>2021-05-04T15:49:15.626Z</time>
      </trkpt>
      <trkpt lat="48.90001" lon="2.44397">
        <ele>97</ele>
        <time>2021-05-04T15:49:20.629Z</time>
      </trkpt>
      <trkpt lat="48.89994" lon="2.44365">
        <ele>97</ele>
        <time>2021-05-04T15:49:25.627Z</time>
      </trkpt>
      <trkpt lat="48.89989" lon="2.44339">
        <ele>97</ele>
        <time>2021-05-04T15:49:29.629Z</time>
      </trkpt>
      <trkpt lat="48.89982" lon="2.44307">
        <ele>97</ele>
        <time>2021-05-04T15:49:34.626Z</time>
      </trkpt>
      <trkpt lat="48.89976" lon="2.4428">
        <ele>97</ele>
        <time>2021-05-04T15:49:38.628Z</time>
      </trkpt>
      <trkpt lat="48.89972" lon="2.44253">
        <ele>97</ele>
        <time>2021-05-04T15:49:42.618Z</time>
      </trkpt>
      <trkpt lat="48.89966" lon="2.44226">
        <ele>97</ele>
        <time>2021-05-04T15:49:46.618Z</time>
      </trkpt>
      <trkpt lat="48.8996" lon="2.44199">
        <ele>97</ele>
        <time>2021-05-04T15:49:50.622Z</time>
      </trkpt>
      <trkpt lat="48.89952" lon="2.44167">
        <ele>97</ele>
        <time>2021-05-04T15:49:55.621Z</time>
      </trkpt>
      <trkpt lat="48.89949" lon="2.44136">
        <ele>97</ele>
        <time>2021-05-04T15:49:59.623Z</time>
      </trkpt>
      <trkpt lat="48.89943" lon="2.44104">
        <ele>98</ele>
        <time>2021-05-04T15:50:04.626Z</time>
      </trkpt>
      <trkpt lat="48.89937" lon="2.44071">
        <ele>98</ele>
        <time>2021-05-04T15:50:09.624Z</time>
      </trkpt>
      <trkpt lat="48.89932" lon="2.44044">
        <ele>98</ele>
        <time>2021-05-04T15:50:13.630Z</time>
      </trkpt>
      <trkpt lat="48.89925" lon="2.44011">
        <ele>98</ele>
        <time>2021-05-04T15:50:18.629Z</time>
      </trkpt>
      <trkpt lat="48.89919" lon="2.43979">
        <ele>98</ele>
        <time>2021-05-04T15:50:23.630Z</time>
      </trkpt>
      <trkpt lat="48.89914" lon="2.43953">
        <ele>98</ele>
        <time>2021-05-04T15:50:27.625Z</time>
      </trkpt>
      <trkpt lat="48.89908" lon="2.43926">
        <ele>98</ele>
        <time>2021-05-04T15:50:31.625Z</time>
      </trkpt>
      <trkpt lat="48.89903" lon="2.43899">
        <ele>98</ele>
        <time>2021-05-04T15:50:35.629Z</time>
      </trkpt>
      <trkpt lat="48.89898" lon="2.43871">
        <ele>97</ele>
        <time>2021-05-04T15:50:39.625Z</time>
      </trkpt>
      <trkpt lat="48.89892" lon="2.43843">
        <ele>97</ele>
        <time>2021-05-04T15:50:43.624Z</time>
      </trkpt>
      <trkpt lat="48.89885" lon="2.43808">
        <ele>97</ele>
        <time>2021-05-04T15:50:48.626Z</time>
      </trkpt>
      <trkpt lat="48.89879" lon="2.4378">
        <ele>97</ele>
        <time>2021-05-04T15:50:52.626Z</time>
      </trkpt>
      <trkpt lat="48.89872" lon="2.43744">
        <ele>97</ele>
        <time>2021-05-04T15:50:57.633Z</time>
      </trkpt>
      <trkpt lat="48.89866" lon="2.43711">
        <ele>97</ele>
        <time>2021-05-04T15:51:02.622Z</time>
      </trkpt>
      <trkpt lat="48.89857" lon="2.43681">
        <ele>97</ele>
        <time>2021-05-04T15:51:07.624Z</time>
      </trkpt>
      <trkpt lat="48.8985" lon="2.43653">
        <ele>97</ele>
        <time>2021-05-04T15:51:12.625Z</time>
      </trkpt>
      <trkpt lat="48.89848" lon="2.43626">
        <ele>97</ele>
        <time>2021-05-04T15:51:16.627Z</time>
      </trkpt>
      <trkpt lat="48.89842" lon="2.436">
        <ele>97</ele>
        <time>2021-05-04T15:51:20.623Z</time>
      </trkpt>
      <trkpt lat="48.89836" lon="2.43572">
        <ele>96</ele>
        <time>2021-05-04T15:51:25.622Z</time>
      </trkpt>
      <trkpt lat="48.89827" lon="2.43554">
        <ele>96</ele>
        <time>2021-05-04T15:51:31.622Z</time>
      </trkpt>
      <trkpt lat="48.8982" lon="2.43535">
        <ele>96</ele>
        <time>2021-05-04T15:51:35.623Z</time>
      </trkpt>
      <trkpt lat="48.89812" lon="2.43519">
        <ele>95</ele>
        <time>2021-05-04T15:51:39.627Z</time>
      </trkpt>
      <trkpt lat="48.89806" lon="2.43492">
        <ele>95</ele>
        <time>2021-05-04T15:51:42.623Z</time>
      </trkpt>
      <trkpt lat="48.89806" lon="2.43458">
        <ele>95</ele>
        <time>2021-05-04T15:51:46.628Z</time>
      </trkpt>
      <trkpt lat="48.89806" lon="2.43419">
        <ele>95</ele>
        <time>2021-05-04T15:51:51.629Z</time>
      </trkpt>
      <trkpt lat="48.89802" lon="2.43385">
        <ele>95</ele>
        <time>2021-05-04T15:51:56.627Z</time>
      </trkpt>
      <trkpt lat="48.89795" lon="2.43352">
        <ele>96</ele>
        <time>2021-05-04T15:52:01.630Z</time>
      </trkpt>
      <trkpt lat="48.8979" lon="2.43325">
        <ele>96</ele>
        <time>2021-05-04T15:52:05.629Z</time>
      </trkpt>
      <trkpt lat="48.89783" lon="2.43291">
        <ele>97</ele>
        <time>2021-05-04T15:52:10.632Z</time>
      </trkpt>
      <trkpt lat="48.89777" lon="2.43263">
        <ele>97</ele>
        <time>2021-05-04T15:52:14.623Z</time>
      </trkpt>
      <trkpt lat="48.89771" lon="2.43234">
        <ele>97</ele>
        <time>2021-05-04T15:52:18.635Z</time>
      </trkpt>
      <trkpt lat="48.89764" lon="2.43198">
        <ele>98</ele>
        <time>2021-05-04T15:52:23.626Z</time>
      </trkpt>
      <trkpt lat="48.89758" lon="2.43162">
        <ele>99</ele>
        <time>2021-05-04T15:52:28.627Z</time>
      </trkpt>
      <trkpt lat="48.89752" lon="2.43126">
        <ele>99</ele>
        <time>2021-05-04T15:52:33.630Z</time>
      </trkpt>
      <trkpt lat="48.89746" lon="2.43091">
        <ele>99</ele>
        <time>2021-05-04T15:52:38.628Z</time>
      </trkpt>
      <trkpt lat="48.89739" lon="2.43056">
        <ele>99</ele>
        <time>2021-05-04T15:52:43.624Z</time>
      </trkpt>
      <trkpt lat="48.89732" lon="2.43021">
        <ele>99</ele>
        <time>2021-05-04T15:52:48.628Z</time>
      </trkpt>
      <trkpt lat="48.89724" lon="2.42985">
        <ele>99</ele>
        <time>2021-05-04T15:52:53.630Z</time>
      </trkpt>
      <trkpt lat="48.89717" lon="2.42952">
        <ele>99</ele>
        <time>2021-05-04T15:52:58.628Z</time>
      </trkpt>
      <trkpt lat="48.8971" lon="2.42917">
        <ele>99</ele>
        <time>2021-05-04T15:53:03.623Z</time>
      </trkpt>
      <trkpt lat="48.89703" lon="2.42882">
        <ele>99</ele>
        <time>2021-05-04T15:53:08.619Z</time>
      </trkpt>
      <trkpt lat="48.89696" lon="2.42848">
        <ele>99</ele>
        <time>2021-05-04T15:53:13.628Z</time>
      </trkpt>
      <trkpt lat="48.89689" lon="2.4282">
        <ele>98</ele>
        <time>2021-05-04T15:53:17.620Z</time>
      </trkpt>
      <trkpt lat="48.89684" lon="2.42784">
        <ele>98</ele>
        <time>2021-05-04T15:53:22.626Z</time>
      </trkpt>
      <trkpt lat="48.89682" lon="2.42751">
        <ele>99</ele>
        <time>2021-05-04T15:53:27.624Z</time>
      </trkpt>
      <trkpt lat="48.89674" lon="2.4272">
        <ele>99</ele>
        <time>2021-05-04T15:53:32.625Z</time>
      </trkpt>
      <trkpt lat="48.89671" lon="2.42691">
        <ele>99</ele>
        <time>2021-05-04T15:53:36.623Z</time>
      </trkpt>
      <trkpt lat="48.89666" lon="2.42662">
        <ele>99</ele>
        <time>2021-05-04T15:53:40.630Z</time>
      </trkpt>
      <trkpt lat="48.89661" lon="2.42626">
        <ele>100</ele>
        <time>2021-05-04T15:53:45.622Z</time>
      </trkpt>
      <trkpt lat="48.89656" lon="2.42591">
        <ele>100</ele>
        <time>2021-05-04T15:53:50.624Z</time>
      </trkpt>
      <trkpt lat="48.89653" lon="2.42558">
        <ele>101</ele>
        <time>2021-05-04T15:53:55.626Z</time>
      </trkpt>
      <trkpt lat="48.89658" lon="2.42535">
        <ele>102</ele>
        <time>2021-05-04T15:54:01.627Z</time>
      </trkpt>
      <trkpt lat="48.89667" lon="2.42516">
        <ele>102</ele>
        <time>2021-05-04T15:54:06.628Z</time>
      </trkpt>
      <trkpt lat="48.89669" lon="2.42499">
        <ele>102</ele>
        <time>2021-05-04T15:54:09.627Z</time>
      </trkpt>
      <trkpt lat="48.8967" lon="2.42479">
        <ele>102</ele>
        <time>2021-05-04T15:54:12.626Z</time>
      </trkpt>
      <trkpt lat="48.89671" lon="2.42449">
        <ele>102</ele>
        <time>2021-05-04T15:54:16.626Z</time>
      </trkpt>
      <trkpt lat="48.89672" lon="2.42419">
        <ele>102</ele>
        <time>2021-05-04T15:54:20.628Z</time>
      </trkpt>
      <trkpt lat="48.89672" lon="2.42386">
        <ele>101</ele>
        <time>2021-05-04T15:54:24.625Z</time>
      </trkpt>
      <trkpt lat="48.89672" lon="2.42347">
        <ele>101</ele>
        <time>2021-05-04T15:54:29.629Z</time>
      </trkpt>
      <trkpt lat="48.8967" lon="2.42308">
        <ele>100</ele>
        <time>2021-05-04T15:54:34.625Z</time>
      </trkpt>
      <trkpt lat="48.89669" lon="2.42269">
        <ele>99</ele>
        <time>2021-05-04T15:54:39.627Z</time>
      </trkpt>
      <trkpt lat="48.89668" lon="2.42232">
        <ele>98</ele>
        <time>2021-05-04T15:54:44.626Z</time>
      </trkpt>
      <trkpt lat="48.89668" lon="2.42196">
        <ele>97</ele>
        <time>2021-05-04T15:54:49.624Z</time>
      </trkpt>
      <trkpt lat="48.89666" lon="2.42162">
        <ele>96</ele>
        <time>2021-05-04T15:54:54.622Z</time>
      </trkpt>
      <trkpt lat="48.89665" lon="2.4213">
        <ele>96</ele>
        <time>2021-05-04T15:54:59.626Z</time>
      </trkpt>
      <trkpt lat="48.89664" lon="2.42103">
        <ele>96</ele>
        <time>2021-05-04T15:55:03.626Z</time>
      </trkpt>
      <trkpt lat="48.89663" lon="2.42076">
        <ele>96</ele>
        <time>2021-05-04T15:55:07.627Z</time>
      </trkpt>
      <trkpt lat="48.89661" lon="2.4205">
        <ele>96</ele>
        <time>2021-05-04T15:55:11.626Z</time>
      </trkpt>
      <trkpt lat="48.8966" lon="2.42017">
        <ele>96</ele>
        <time>2021-05-04T15:55:16.627Z</time>
      </trkpt>
      <trkpt lat="48.8966" lon="2.4199">
        <ele>96</ele>
        <time>2021-05-04T15:55:20.629Z</time>
      </trkpt>
      <trkpt lat="48.8966" lon="2.41958">
        <ele>96</ele>
        <time>2021-05-04T15:55:25.624Z</time>
      </trkpt>
      <trkpt lat="48.89658" lon="2.4193">
        <ele>96</ele>
        <time>2021-05-04T15:55:29.623Z</time>
      </trkpt>
      <trkpt lat="48.89657" lon="2.41902">
        <ele>96</ele>
        <time>2021-05-04T15:55:33.624Z</time>
      </trkpt>
      <trkpt lat="48.89657" lon="2.4187">
        <ele>97</ele>
        <time>2021-05-04T15:55:38.627Z</time>
      </trkpt>
      <trkpt lat="48.89657" lon="2.41839">
        <ele>97</ele>
        <time>2021-05-04T15:55:43.626Z</time>
      </trkpt>
      <trkpt lat="48.89657" lon="2.41812">
        <ele>97</ele>
        <time>2021-05-04T15:55:47.627Z</time>
      </trkpt>
      <trkpt lat="48.89657" lon="2.41786">
        <ele>97</ele>
        <time>2021-05-04T15:55:51.624Z</time>
      </trkpt>
      <trkpt lat="48.89657" lon="2.41759">
        <ele>98</ele>
        <time>2021-05-04T15:55:55.632Z</time>
      </trkpt>
      <trkpt lat="48.89657" lon="2.41726">
        <ele>98</ele>
        <time>2021-05-04T15:56:00.618Z</time>
      </trkpt>
      <trkpt lat="48.89656" lon="2.41697">
        <ele>98</ele>
        <time>2021-05-04T15:56:04.624Z</time>
      </trkpt>
      <trkpt lat="48.89655" lon="2.41666">
        <ele>99</ele>
        <time>2021-05-04T15:56:08.626Z</time>
      </trkpt>
      <trkpt lat="48.89653" lon="2.41631">
        <ele>99</ele>
        <time>2021-05-04T15:56:13.632Z</time>
      </trkpt>
      <trkpt lat="48.89653" lon="2.41599">
        <ele>100</ele>
        <time>2021-05-04T15:56:17.621Z</time>
      </trkpt>
      <trkpt lat="48.8965" lon="2.41567">
        <ele>100</ele>
        <time>2021-05-04T15:56:21.624Z</time>
      </trkpt>
      <trkpt lat="48.89647" lon="2.41531">
        <ele>101</ele>
        <time>2021-05-04T15:56:27.622Z</time>
      </trkpt>
      <trkpt lat="48.89646" lon="2.41527">
        <ele>101</ele>
        <time>2021-05-04T15:56:42.620Z</time>
      </trkpt>
      <trkpt lat="48.89646" lon="2.41527">
        <ele>101</ele>
        <time>2021-05-04T15:56:54.622Z</time>
      </trkpt>
      <trkpt lat="48.89623" lon="2.41512">
        <ele>100</ele>
        <time>2021-05-04T15:56:55.621Z</time>
      </trkpt>
      <trkpt lat="48.89612" lon="2.4151">
        <ele>100</ele>
        <time>2021-05-04T15:56:59.621Z</time>
      </trkpt>
      <trkpt lat="48.89601" lon="2.41508">
        <ele>100</ele>
        <time>2021-05-04T15:57:03.620Z</time>
      </trkpt>
      <trkpt lat="48.8959" lon="2.41505">
        <ele>100</ele>
        <time>2021-05-04T15:57:07.622Z</time>
      </trkpt>
      <trkpt lat="48.89578" lon="2.41504">
        <ele>100</ele>
        <time>2021-05-04T15:57:11.623Z</time>
      </trkpt>
      <trkpt lat="48.89566" lon="2.41501">
        <ele>100</ele>
        <time>2021-05-04T15:57:15.616Z</time>
      </trkpt>
      <trkpt lat="48.89554" lon="2.41498">
        <ele>100</ele>
        <time>2021-05-04T15:57:19.618Z</time>
      </trkpt>
      <trkpt lat="48.89543" lon="2.41496">
        <ele>100</ele>
        <time>2021-05-04T15:57:23.617Z</time>
      </trkpt>
      <trkpt lat="48.8954" lon="2.41482">
        <ele>100</ele>
        <time>2021-05-04T15:57:27.621Z</time>
      </trkpt>
      <trkpt lat="48.89538" lon="2.41467">
        <ele>100</ele>
        <time>2021-05-04T15:57:30.625Z</time>
      </trkpt>
      <trkpt lat="48.89534" lon="2.41447">
        <ele>100</ele>
        <time>2021-05-04T15:57:34.622Z</time>
      </trkpt>
      <trkpt lat="48.89531" lon="2.41425">
        <ele>100</ele>
        <time>2021-05-04T15:57:38.622Z</time>
      </trkpt>
      <trkpt lat="48.89528" lon="2.41402">
        <ele>100</ele>
        <time>2021-05-04T15:57:42.622Z</time>
      </trkpt>
      <trkpt lat="48.89525" lon="2.41376">
        <ele>100</ele>
        <time>2021-05-04T15:57:46.623Z</time>
      </trkpt>
      <trkpt lat="48.89522" lon="2.41349">
        <ele>100</ele>
        <time>2021-05-04T15:57:50.619Z</time>
      </trkpt>
      <trkpt lat="48.89518" lon="2.4132">
        <ele>100</ele>
        <time>2021-05-04T15:57:54.625Z</time>
      </trkpt>
      <trkpt lat="48.89516" lon="2.41289">
        <ele>101</ele>
        <time>2021-05-04T15:57:58.621Z</time>
      </trkpt>
      <trkpt lat="48.89515" lon="2.41257">
        <ele>101</ele>
        <time>2021-05-04T15:58:02.618Z</time>
      </trkpt>
      <trkpt lat="48.89513" lon="2.41223">
        <ele>100</ele>
        <time>2021-05-04T15:58:07.619Z</time>
      </trkpt>
      <trkpt lat="48.89513" lon="2.41189">
        <ele>101</ele>
        <time>2021-05-04T15:58:12.619Z</time>
      </trkpt>
      <trkpt lat="48.89515" lon="2.41159">
        <ele>101</ele>
        <time>2021-05-04T15:58:16.624Z</time>
      </trkpt>
      <trkpt lat="48.8952" lon="2.41127">
        <ele>101</ele>
        <time>2021-05-04T15:58:21.620Z</time>
      </trkpt>
      <trkpt lat="48.89521" lon="2.41098">
        <ele>101</ele>
        <time>2021-05-04T15:58:25.621Z</time>
      </trkpt>
      <trkpt lat="48.89524" lon="2.4107">
        <ele>101</ele>
        <time>2021-05-04T15:58:29.622Z</time>
      </trkpt>
      <trkpt lat="48.89527" lon="2.41037">
        <ele>100</ele>
        <time>2021-05-04T15:58:34.621Z</time>
      </trkpt>
      <trkpt lat="48.89528" lon="2.41005">
        <ele>100</ele>
        <time>2021-05-04T15:58:39.628Z</time>
      </trkpt>
      <trkpt lat="48.89526" lon="2.4098">
        <ele>100</ele>
        <time>2021-05-04T15:58:43.619Z</time>
      </trkpt>
      <trkpt lat="48.89525" lon="2.40951">
        <ele>100</ele>
        <time>2021-05-04T15:58:48.618Z</time>
      </trkpt>
      <trkpt lat="48.89529" lon="2.40912">
        <ele>101</ele>
        <time>2021-05-04T15:58:53.618Z</time>
      </trkpt>
      <trkpt lat="48.89533" lon="2.40881">
        <ele>101</ele>
        <time>2021-05-04T15:58:57.617Z</time>
      </trkpt>
      <trkpt lat="48.89536" lon="2.40847">
        <ele>101</ele>
        <time>2021-05-04T15:59:02.618Z</time>
      </trkpt>
      <trkpt lat="48.89538" lon="2.40814">
        <ele>101</ele>
        <time>2021-05-04T15:59:07.619Z</time>
      </trkpt>
      <trkpt lat="48.89543" lon="2.40784">
        <ele>101</ele>
        <time>2021-05-04T15:59:12.620Z</time>
      </trkpt>
      <trkpt lat="48.89546" lon="2.40758">
        <ele>101</ele>
        <time>2021-05-04T15:59:16.615Z</time>
      </trkpt>
      <trkpt lat="48.89548" lon="2.40733">
        <ele>101</ele>
        <time>2021-05-04T15:59:20.615Z</time>
      </trkpt>
      <trkpt lat="48.89552" lon="2.40705">
        <ele>101</ele>
        <time>2021-05-04T15:59:25.619Z</time>
      </trkpt>
      <trkpt lat="48.89555" lon="2.40682">
        <ele>100</ele>
        <time>2021-05-04T15:59:29.622Z</time>
      </trkpt>
      <trkpt lat="48.89558" lon="2.40657">
        <ele>100</ele>
        <time>2021-05-04T15:59:34.621Z</time>
      </trkpt>
      <trkpt lat="48.8956" lon="2.4064">
        <ele>100</ele>
        <time>2021-05-04T15:59:39.616Z</time>
      </trkpt>
      <trkpt lat="48.89558" lon="2.40625">
        <ele>100</ele>
        <time>2021-05-04T15:59:44.618Z</time>
      </trkpt>
      <trkpt lat="48.8955" lon="2.40617">
        <ele>100</ele>
        <time>2021-05-04T15:59:49.617Z</time>
      </trkpt>
      <trkpt lat="48.89541" lon="2.40609">
        <ele>99</ele>
        <time>2021-05-04T15:59:54.618Z</time>
      </trkpt>
      <trkpt lat="48.8954" lon="2.40592">
        <ele>99</ele>
        <time>2021-05-04T15:59:58.622Z</time>
      </trkpt>
      <trkpt lat="48.89541" lon="2.40576">
        <ele>100</ele>
        <time>2021-05-04T16:00:02.620Z</time>
      </trkpt>
      <trkpt lat="48.89541" lon="2.40558">
        <ele>100</ele>
        <time>2021-05-04T16:00:05.619Z</time>
      </trkpt>
      <trkpt lat="48.89543" lon="2.4054">
        <ele>100</ele>
        <time>2021-05-04T16:00:08.621Z</time>
      </trkpt>
      <trkpt lat="48.89547" lon="2.40518">
        <ele>100</ele>
        <time>2021-05-04T16:00:12.621Z</time>
      </trkpt>
      <trkpt lat="48.89551" lon="2.40493">
        <ele>100</ele>
        <time>2021-05-04T16:00:17.647Z</time>
      </trkpt>
      <trkpt lat="48.89552" lon="2.40472">
        <ele>99</ele>
        <time>2021-05-04T16:00:22.623Z</time>
      </trkpt>
      <trkpt lat="48.89553" lon="2.40451">
        <ele>99</ele>
        <time>2021-05-04T16:00:26.623Z</time>
      </trkpt>
      <trkpt lat="48.89556" lon="2.40429">
        <ele>99</ele>
        <time>2021-05-04T16:00:30.624Z</time>
      </trkpt>
      <trkpt lat="48.89559" lon="2.40405">
        <ele>99</ele>
        <time>2021-05-04T16:00:34.624Z</time>
      </trkpt>
      <trkpt lat="48.89561" lon="2.40379">
        <ele>99</ele>
        <time>2021-05-04T16:00:38.620Z</time>
      </trkpt>
      <trkpt lat="48.89564" lon="2.40354">
        <ele>99</ele>
        <time>2021-05-04T16:00:42.622Z</time>
      </trkpt>
      <trkpt lat="48.89566" lon="2.40328">
        <ele>99</ele>
        <time>2021-05-04T16:00:46.618Z</time>
      </trkpt>
      <trkpt lat="48.89568" lon="2.40296">
        <ele>99</ele>
        <time>2021-05-04T16:00:51.622Z</time>
      </trkpt>
      <trkpt lat="48.89572" lon="2.40265">
        <ele>99</ele>
        <time>2021-05-04T16:00:56.637Z</time>
      </trkpt>
      <trkpt lat="48.89575" lon="2.40238">
        <ele>99</ele>
        <time>2021-05-04T16:01:00.619Z</time>
      </trkpt>
      <trkpt lat="48.89578" lon="2.4021">
        <ele>99</ele>
        <time>2021-05-04T16:01:05.620Z</time>
      </trkpt>
      <trkpt lat="48.8958" lon="2.40185">
        <ele>98</ele>
        <time>2021-05-04T16:01:10.619Z</time>
      </trkpt>
      <trkpt lat="48.89585" lon="2.40162">
        <ele>98</ele>
        <time>2021-05-04T16:01:14.620Z</time>
      </trkpt>
      <trkpt lat="48.89586" lon="2.4014">
        <ele>98</ele>
        <time>2021-05-04T16:01:18.619Z</time>
      </trkpt>
      <trkpt lat="48.8959" lon="2.40117">
        <ele>98</ele>
        <time>2021-05-04T16:01:23.619Z</time>
      </trkpt>
      <trkpt lat="48.8959" lon="2.40093">
        <ele>99</ele>
        <time>2021-05-04T16:01:28.619Z</time>
      </trkpt>
      <trkpt lat="48.89593" lon="2.40072">
        <ele>99</ele>
        <time>2021-05-04T16:01:33.622Z</time>
      </trkpt>
      <trkpt lat="48.89594" lon="2.40049">
        <ele>99</ele>
        <time>2021-05-04T16:01:37.628Z</time>
      </trkpt>
      <trkpt lat="48.89596" lon="2.40024">
        <ele>99</ele>
        <time>2021-05-04T16:01:41.620Z</time>
      </trkpt>
      <trkpt lat="48.89597" lon="2.4">
        <ele>99</ele>
        <time>2021-05-04T16:01:45.622Z</time>
      </trkpt>
      <trkpt lat="48.89588" lon="2.39976">
        <ele>99</ele>
        <time>2021-05-04T16:01:50.615Z</time>
      </trkpt>
      <trkpt lat="48.89589" lon="2.39949">
        <ele>99</ele>
        <time>2021-05-04T16:01:55.619Z</time>
      </trkpt>
      <trkpt lat="48.89591" lon="2.39926">
        <ele>99</ele>
        <time>2021-05-04T16:01:59.622Z</time>
      </trkpt>
      <trkpt lat="48.89591" lon="2.399">
        <ele>99</ele>
        <time>2021-05-04T16:02:03.622Z</time>
      </trkpt>
      <trkpt lat="48.89592" lon="2.39874">
        <ele>99</ele>
        <time>2021-05-04T16:02:07.623Z</time>
      </trkpt>
      <trkpt lat="48.89591" lon="2.39842">
        <ele>99</ele>
        <time>2021-05-04T16:02:12.623Z</time>
      </trkpt>
      <trkpt lat="48.89592" lon="2.39815">
        <ele>99</ele>
        <time>2021-05-04T16:02:16.625Z</time>
      </trkpt>
      <trkpt lat="48.89593" lon="2.39788">
        <ele>99</ele>
        <time>2021-05-04T16:02:20.620Z</time>
      </trkpt>
      <trkpt lat="48.89592" lon="2.3976">
        <ele>99</ele>
        <time>2021-05-04T16:02:24.620Z</time>
      </trkpt>
      <trkpt lat="48.89589" lon="2.39727">
        <ele>99</ele>
        <time>2021-05-04T16:02:29.622Z</time>
      </trkpt>
      <trkpt lat="48.89579" lon="2.39698">
        <ele>99</ele>
        <time>2021-05-04T16:02:34.622Z</time>
      </trkpt>
      <trkpt lat="48.89562" lon="2.39709">
        <ele>99</ele>
        <time>2021-05-04T16:02:40.620Z</time>
      </trkpt>
      <trkpt lat="48.89547" lon="2.39722">
        <ele>99</ele>
        <time>2021-05-04T16:02:45.620Z</time>
      </trkpt>
      <trkpt lat="48.89531" lon="2.39725">
        <ele>99</ele>
        <time>2021-05-04T16:02:49.626Z</time>
      </trkpt>
      <trkpt lat="48.89516" lon="2.39731">
        <ele>99</ele>
        <time>2021-05-04T16:02:53.624Z</time>
      </trkpt>
      <trkpt lat="48.89501" lon="2.3974">
        <ele>99</ele>
        <time>2021-05-04T16:02:57.630Z</time>
      </trkpt>
      <trkpt lat="48.89484" lon="2.39749">
        <ele>98</ele>
        <time>2021-05-04T16:03:01.627Z</time>
      </trkpt>
      <trkpt lat="48.89468" lon="2.39758">
        <ele>98</ele>
        <time>2021-05-04T16:03:05.629Z</time>
      </trkpt>
      <trkpt lat="48.89448" lon="2.39764">
        <ele>98</ele>
        <time>2021-05-04T16:03:10.619Z</time>
      </trkpt>
      <trkpt lat="48.89432" lon="2.39769">
        <ele>98</ele>
        <time>2021-05-04T16:03:15.622Z</time>
      </trkpt>
      <trkpt lat="48.89419" lon="2.39775">
        <ele>98</ele>
        <time>2021-05-04T16:03:19.620Z</time>
      </trkpt>
      <trkpt lat="48.89406" lon="2.39778">
        <ele>99</ele>
        <time>2021-05-04T16:03:23.620Z</time>
      </trkpt>
      <trkpt lat="48.89394" lon="2.39782">
        <ele>99</ele>
        <time>2021-05-04T16:03:27.617Z</time>
      </trkpt>
      <trkpt lat="48.89382" lon="2.39787">
        <ele>99</ele>
        <time>2021-05-04T16:03:31.618Z</time>
      </trkpt>
      <trkpt lat="48.89371" lon="2.39788">
        <ele>100</ele>
        <time>2021-05-04T16:03:36.622Z</time>
      </trkpt>
      <trkpt lat="48.8937" lon="2.39789">
        <ele>101</ele>
        <time>2021-05-04T16:03:50.620Z</time>
      </trkpt>
      <trkpt lat="48.8937" lon="2.39789">
        <ele>101</ele>
        <time>2021-05-04T16:04:33.620Z</time>
      </trkpt>
      <trkpt lat="48.89348" lon="2.39779">
        <ele>103</ele>
        <time>2021-05-04T16:04:34.617Z</time>
      </trkpt>
      <trkpt lat="48.89339" lon="2.39782">
        <ele>103</ele>
        <time>2021-05-04T16:04:37.621Z</time>
      </trkpt>
      <trkpt lat="48.89329" lon="2.39784">
        <ele>103</ele>
        <time>2021-05-04T16:04:40.613Z</time>
      </trkpt>
      <trkpt lat="48.89317" lon="2.39786">
        <ele>102</ele>
        <time>2021-05-04T16:04:43.617Z</time>
      </trkpt>
      <trkpt lat="48.89303" lon="2.39789">
        <ele>102</ele>
        <time>2021-05-04T16:04:47.617Z</time>
      </trkpt>
      <trkpt lat="48.89289" lon="2.39792">
        <ele>102</ele>
        <time>2021-05-04T16:04:51.618Z</time>
      </trkpt>
      <trkpt lat="48.89273" lon="2.39796">
        <ele>101</ele>
        <time>2021-05-04T16:04:55.617Z</time>
      </trkpt>
      <trkpt lat="48.89258" lon="2.398">
        <ele>101</ele>
        <time>2021-05-04T16:04:59.632Z</time>
      </trkpt>
      <trkpt lat="48.8924" lon="2.39806">
        <ele>101</ele>
        <time>2021-05-04T16:05:04.619Z</time>
      </trkpt>
      <trkpt lat="48.89225" lon="2.39811">
        <ele>101</ele>
        <time>2021-05-04T16:05:08.714Z</time>
      </trkpt>
      <trkpt lat="48.89208" lon="2.39818">
        <ele>100</ele>
        <time>2021-05-04T16:05:13.621Z</time>
      </trkpt>
      <trkpt lat="48.89193" lon="2.39822">
        <ele>100</ele>
        <time>2021-05-04T16:05:18.617Z</time>
      </trkpt>
      <trkpt lat="48.89175" lon="2.3983">
        <ele>101</ele>
        <time>2021-05-04T16:05:22.620Z</time>
      </trkpt>
      <trkpt lat="48.89154" lon="2.39837">
        <ele>101</ele>
        <time>2021-05-04T16:05:26.620Z</time>
      </trkpt>
      <trkpt lat="48.89134" lon="2.39846">
        <ele>102</ele>
        <time>2021-05-04T16:05:30.619Z</time>
      </trkpt>
      <trkpt lat="48.89109" lon="2.39855">
        <ele>103</ele>
        <time>2021-05-04T16:05:36.619Z</time>
      </trkpt>
      <trkpt lat="48.8909" lon="2.39861">
        <ele>105</ele>
        <time>2021-05-04T16:05:41.616Z</time>
      </trkpt>
      <trkpt lat="48.89071" lon="2.39858">
        <ele>106</ele>
        <time>2021-05-04T16:05:46.619Z</time>
      </trkpt>
      <trkpt lat="48.89058" lon="2.39844">
        <ele>107</ele>
        <time>2021-05-04T16:05:50.624Z</time>
      </trkpt>
      <trkpt lat="48.89049" lon="2.39823">
        <ele>108</ele>
        <time>2021-05-04T16:05:54.622Z</time>
      </trkpt>
      <trkpt lat="48.89041" lon="2.39799">
        <ele>108</ele>
        <time>2021-05-04T16:05:58.618Z</time>
      </trkpt>
      <trkpt lat="48.89035" lon="2.39774">
        <ele>108</ele>
        <time>2021-05-04T16:06:02.617Z</time>
      </trkpt>
      <trkpt lat="48.89027" lon="2.39742">
        <ele>108</ele>
        <time>2021-05-04T16:06:07.620Z</time>
      </trkpt>
      <trkpt lat="48.89027" lon="2.39712">
        <ele>108</ele>
        <time>2021-05-04T16:06:12.619Z</time>
      </trkpt>
      <trkpt lat="48.89021" lon="2.39688">
        <ele>108</ele>
        <time>2021-05-04T16:06:17.616Z</time>
      </trkpt>
      <trkpt lat="48.89016" lon="2.39667">
        <ele>108</ele>
        <time>2021-05-04T16:06:21.617Z</time>
      </trkpt>
      <trkpt lat="48.89008" lon="2.3965">
        <ele>107</ele>
        <time>2021-05-04T16:06:25.618Z</time>
      </trkpt>
      <trkpt lat="48.89" lon="2.39629">
        <ele>107</ele>
        <time>2021-05-04T16:06:30.620Z</time>
      </trkpt>
      <trkpt lat="48.88995" lon="2.3961">
        <ele>106</ele>
        <time>2021-05-04T16:06:34.621Z</time>
      </trkpt>
      <trkpt lat="48.88991" lon="2.39586">
        <ele>106</ele>
        <time>2021-05-04T16:06:39.620Z</time>
      </trkpt>
      <trkpt lat="48.88987" lon="2.39574">
        <ele>104</ele>
        <time>2021-05-04T16:06:55.621Z</time>
      </trkpt>
      <trkpt lat="48.88983" lon="2.3956">
        <ele>104</ele>
        <time>2021-05-04T16:07:00.620Z</time>
      </trkpt>
      <trkpt lat="48.88975" lon="2.39551">
        <ele>104</ele>
        <time>2021-05-04T16:07:04.623Z</time>
      </trkpt>
      <trkpt lat="48.88965" lon="2.39545">
        <ele>104</ele>
        <time>2021-05-04T16:07:09.618Z</time>
      </trkpt>
      <trkpt lat="48.88956" lon="2.39537">
        <ele>104</ele>
        <time>2021-05-04T16:07:14.621Z</time>
      </trkpt>
      <trkpt lat="48.88949" lon="2.39528">
        <ele>105</ele>
        <time>2021-05-04T16:07:22.615Z</time>
      </trkpt>
      <trkpt lat="48.88948" lon="2.3953">
        <ele>106</ele>
        <time>2021-05-04T16:07:40.617Z</time>
      </trkpt>
      <trkpt lat="48.88948" lon="2.3953">
        <ele>106</ele>
        <time>2021-05-04T16:08:50.620Z</time>
      </trkpt>
      <trkpt lat="48.88925" lon="2.39536">
        <ele>106</ele>
        <time>2021-05-04T16:08:51.620Z</time>
      </trkpt>
      <trkpt lat="48.88915" lon="2.39538">
        <ele>106</ele>
        <time>2021-05-04T16:08:56.619Z</time>
      </trkpt>
      <trkpt lat="48.88904" lon="2.39542">
        <ele>106</ele>
        <time>2021-05-04T16:09:00.617Z</time>
      </trkpt>
      <trkpt lat="48.88893" lon="2.39545">
        <ele>106</ele>
        <time>2021-05-04T16:09:03.633Z</time>
      </trkpt>
      <trkpt lat="48.8888" lon="2.39548">
        <ele>106</ele>
        <time>2021-05-04T16:09:06.620Z</time>
      </trkpt>
      <trkpt lat="48.88864" lon="2.39553">
        <ele>106</ele>
        <time>2021-05-04T16:09:10.621Z</time>
      </trkpt>
      <trkpt lat="48.88847" lon="2.39558">
        <ele>106</ele>
        <time>2021-05-04T16:09:14.620Z</time>
      </trkpt>
      <trkpt lat="48.88828" lon="2.39563">
        <ele>106</ele>
        <time>2021-05-04T16:09:19.620Z</time>
      </trkpt>
      <trkpt lat="48.88812" lon="2.39572">
        <ele>105</ele>
        <time>2021-05-04T16:09:24.619Z</time>
      </trkpt>
      <trkpt lat="48.88799" lon="2.39582">
        <ele>105</ele>
        <time>2021-05-04T16:09:28.621Z</time>
      </trkpt>
      <trkpt lat="48.88784" lon="2.39586">
        <ele>105</ele>
        <time>2021-05-04T16:09:32.620Z</time>
      </trkpt>
      <trkpt lat="48.88768" lon="2.3959">
        <ele>104</ele>
        <time>2021-05-04T16:09:36.619Z</time>
      </trkpt>
      <trkpt lat="48.88753" lon="2.39594">
        <ele>104</ele>
        <time>2021-05-04T16:09:40.619Z</time>
      </trkpt>
      <trkpt lat="48.88737" lon="2.39598">
        <ele>104</ele>
        <time>2021-05-04T16:09:44.618Z</time>
      </trkpt>
      <trkpt lat="48.88721" lon="2.39602">
        <ele>104</ele>
        <time>2021-05-04T16:09:48.618Z</time>
      </trkpt>
      <trkpt lat="48.88706" lon="2.39607">
        <ele>104</ele>
        <time>2021-05-04T16:09:52.619Z</time>
      </trkpt>
      <trkpt lat="48.8869" lon="2.39612">
        <ele>103</ele>
        <time>2021-05-04T16:09:56.618Z</time>
      </trkpt>
      <trkpt lat="48.88674" lon="2.39616">
        <ele>103</ele>
        <time>2021-05-04T16:10:00.619Z</time>
      </trkpt>
      <trkpt lat="48.88659" lon="2.39621">
        <ele>103</ele>
        <time>2021-05-04T16:10:04.620Z</time>
      </trkpt>
      <trkpt lat="48.88644" lon="2.39622">
        <ele>103</ele>
        <time>2021-05-04T16:10:09.616Z</time>
      </trkpt>
      <trkpt lat="48.88628" lon="2.39621">
        <ele>104</ele>
        <time>2021-05-04T16:10:14.620Z</time>
      </trkpt>
      <trkpt lat="48.88615" lon="2.39623">
        <ele>104</ele>
        <time>2021-05-04T16:10:18.625Z</time>
      </trkpt>
      <trkpt lat="48.88603" lon="2.39631">
        <ele>104</ele>
        <time>2021-05-04T16:10:23.621Z</time>
      </trkpt>
      <trkpt lat="48.88591" lon="2.3963">
        <ele>104</ele>
        <time>2021-05-04T16:10:28.620Z</time>
      </trkpt>
      <trkpt lat="48.88583" lon="2.39618">
        <ele>104</ele>
        <time>2021-05-04T16:10:32.621Z</time>
      </trkpt>
      <trkpt lat="48.88577" lon="2.39607">
        <ele>105</ele>
        <time>2021-05-04T16:10:36.620Z</time>
      </trkpt>
      <trkpt lat="48.88571" lon="2.39596">
        <ele>105</ele>
        <time>2021-05-04T16:10:40.619Z</time>
      </trkpt>
      <trkpt lat="48.88565" lon="2.39581">
        <ele>106</ele>
        <time>2021-05-04T16:10:44.624Z</time>
      </trkpt>
      <trkpt lat="48.88558" lon="2.39568">
        <ele>106</ele>
        <time>2021-05-04T16:10:48.618Z</time>
      </trkpt>
      <trkpt lat="48.88551" lon="2.39557">
        <ele>107</ele>
        <time>2021-05-04T16:10:52.619Z</time>
      </trkpt>
      <trkpt lat="48.88542" lon="2.39561">
        <ele>107</ele>
        <time>2021-05-04T16:10:56.621Z</time>
      </trkpt>
      <trkpt lat="48.88533" lon="2.39573">
        <ele>107</ele>
        <time>2021-05-04T16:11:00.620Z</time>
      </trkpt>
      <trkpt lat="48.88525" lon="2.39581">
        <ele>108</ele>
        <time>2021-05-04T16:11:03.619Z</time>
      </trkpt>
      <trkpt lat="48.88516" lon="2.39588">
        <ele>108</ele>
        <time>2021-05-04T16:11:07.623Z</time>
      </trkpt>
      <trkpt lat="48.88504" lon="2.39591">
        <ele>109</ele>
        <time>2021-05-04T16:11:11.621Z</time>
      </trkpt>
      <trkpt lat="48.88493" lon="2.39593">
        <ele>110</ele>
        <time>2021-05-04T16:11:15.620Z</time>
      </trkpt>
      <trkpt lat="48.88479" lon="2.39592">
        <ele>111</ele>
        <time>2021-05-04T16:11:20.618Z</time>
      </trkpt>
      <trkpt lat="48.88469" lon="2.39594">
        <ele>112</ele>
        <time>2021-05-04T16:11:24.617Z</time>
      </trkpt>
      <trkpt lat="48.8846" lon="2.39589">
        <ele>113</ele>
        <time>2021-05-04T16:11:28.618Z</time>
      </trkpt>
      <trkpt lat="48.8845" lon="2.39584">
        <ele>114</ele>
        <time>2021-05-04T16:11:33.617Z</time>
      </trkpt>
      <trkpt lat="48.88442" lon="2.39576">
        <ele>114</ele>
        <time>2021-05-04T16:11:37.615Z</time>
      </trkpt>
      <trkpt lat="48.88441" lon="2.3956">
        <ele>115</ele>
        <time>2021-05-04T16:11:42.620Z</time>
      </trkpt>
      <trkpt lat="48.88445" lon="2.39542">
        <ele>115</ele>
        <time>2021-05-04T16:11:46.621Z</time>
      </trkpt>
      <trkpt lat="48.8845" lon="2.3953">
        <ele>115</ele>
        <time>2021-05-04T16:11:49.620Z</time>
      </trkpt>
      <trkpt lat="48.88458" lon="2.39515">
        <ele>115</ele>
        <time>2021-05-04T16:11:53.619Z</time>
      </trkpt>
      <trkpt lat="48.88457" lon="2.39497">
        <ele>115</ele>
        <time>2021-05-04T16:11:57.615Z</time>
      </trkpt>
      <trkpt lat="48.88462" lon="2.3948">
        <ele>115</ele>
        <time>2021-05-04T16:12:01.623Z</time>
      </trkpt>
      <trkpt lat="48.88453" lon="2.39469">
        <ele>115</ele>
        <time>2021-05-04T16:12:06.622Z</time>
      </trkpt>
      <trkpt lat="48.88446" lon="2.39459">
        <ele>114</ele>
        <time>2021-05-04T16:12:25.620Z</time>
      </trkpt>
      <trkpt lat="48.88438" lon="2.39451">
        <ele>115</ele>
        <time>2021-05-04T16:12:29.616Z</time>
      </trkpt>
      <trkpt lat="48.88428" lon="2.39454">
        <ele>115</ele>
        <time>2021-05-04T16:12:33.621Z</time>
      </trkpt>
      <trkpt lat="48.8842" lon="2.39461">
        <ele>116</ele>
        <time>2021-05-04T16:12:40.619Z</time>
      </trkpt>
      <trkpt lat="48.8841" lon="2.39466">
        <ele>117</ele>
        <time>2021-05-04T16:12:45.617Z</time>
      </trkpt>
      <trkpt lat="48.88399" lon="2.39466">
        <ele>117</ele>
        <time>2021-05-04T16:12:49.620Z</time>
      </trkpt>
      <trkpt lat="48.88391" lon="2.39471">
        <ele>118</ele>
        <time>2021-05-04T16:12:53.619Z</time>
      </trkpt>
      <trkpt lat="48.88381" lon="2.39474">
        <ele>119</ele>
        <time>2021-05-04T16:12:57.619Z</time>
      </trkpt>
      <trkpt lat="48.8837" lon="2.39477">
        <ele>120</ele>
        <time>2021-05-04T16:13:01.621Z</time>
      </trkpt>
      <trkpt lat="48.88361" lon="2.3948">
        <ele>120</ele>
        <time>2021-05-04T16:13:05.619Z</time>
      </trkpt>
      <trkpt lat="48.88351" lon="2.39484">
        <ele>121</ele>
        <time>2021-05-04T16:13:09.620Z</time>
      </trkpt>
      <trkpt lat="48.88342" lon="2.39488">
        <ele>122</ele>
        <time>2021-05-04T16:13:13.618Z</time>
      </trkpt>
      <trkpt lat="48.88333" lon="2.3949">
        <ele>122</ele>
        <time>2021-05-04T16:13:17.614Z</time>
      </trkpt>
      <trkpt lat="48.88322" lon="2.39494">
        <ele>123</ele>
        <time>2021-05-04T16:13:21.618Z</time>
      </trkpt>
      <trkpt lat="48.88312" lon="2.39501">
        <ele>123</ele>
        <time>2021-05-04T16:13:25.618Z</time>
      </trkpt>
      <trkpt lat="48.88302" lon="2.39504">
        <ele>124</ele>
        <time>2021-05-04T16:13:29.620Z</time>
      </trkpt>
      <trkpt lat="48.88293" lon="2.39517">
        <ele>125</ele>
        <time>2021-05-04T16:13:34.617Z</time>
      </trkpt>
      <trkpt lat="48.88288" lon="2.39531">
        <ele>126</ele>
        <time>2021-05-04T16:13:39.618Z</time>
      </trkpt>
      <trkpt lat="48.88284" lon="2.39546">
        <ele>127</ele>
        <time>2021-05-04T16:13:44.619Z</time>
      </trkpt>
      <trkpt lat="48.8828" lon="2.39559">
        <ele>128</ele>
        <time>2021-05-04T16:13:48.616Z</time>
      </trkpt>
      <trkpt lat="48.88277" lon="2.39573">
        <ele>129</ele>
        <time>2021-05-04T16:13:52.617Z</time>
      </trkpt>
      <trkpt lat="48.88271" lon="2.39585">
        <ele>130</ele>
        <time>2021-05-04T16:13:56.624Z</time>
      </trkpt>
      <trkpt lat="48.88263" lon="2.39594">
        <ele>131</ele>
        <time>2021-05-04T16:14:00.620Z</time>
      </trkpt>
      <trkpt lat="48.88254" lon="2.39603">
        <ele>132</ele>
        <time>2021-05-04T16:14:05.617Z</time>
      </trkpt>
      <trkpt lat="48.88245" lon="2.39605">
        <ele>133</ele>
        <time>2021-05-04T16:14:09.621Z</time>
      </trkpt>
      <trkpt lat="48.88236" lon="2.3961">
        <ele>134</ele>
        <time>2021-05-04T16:14:13.619Z</time>
      </trkpt>
      <trkpt lat="48.88225" lon="2.39609">
        <ele>135</ele>
        <time>2021-05-04T16:14:18.620Z</time>
      </trkpt>
      <trkpt lat="48.88215" lon="2.39608">
        <ele>135</ele>
        <time>2021-05-04T16:14:23.620Z</time>
      </trkpt>
      <trkpt lat="48.88204" lon="2.39608">
        <ele>135</ele>
        <time>2021-05-04T16:14:28.619Z</time>
      </trkpt>
      <trkpt lat="48.88193" lon="2.3961">
        <ele>135</ele>
        <time>2021-05-04T16:14:32.619Z</time>
      </trkpt>
      <trkpt lat="48.88183" lon="2.39614">
        <ele>136</ele>
        <time>2021-05-04T16:14:35.620Z</time>
      </trkpt>
      <trkpt lat="48.88174" lon="2.3962">
        <ele>136</ele>
        <time>2021-05-04T16:14:39.620Z</time>
      </trkpt>
      <trkpt lat="48.88163" lon="2.39627">
        <ele>137</ele>
        <time>2021-05-04T16:14:43.621Z</time>
      </trkpt>
      <trkpt lat="48.88153" lon="2.39632">
        <ele>138</ele>
        <time>2021-05-04T16:14:48.620Z</time>
      </trkpt>
      <trkpt lat="48.88142" lon="2.39639">
        <ele>140</ele>
        <time>2021-05-04T16:14:53.615Z</time>
      </trkpt>
      <trkpt lat="48.88136" lon="2.39648">
        <ele>142</ele>
        <time>2021-05-04T16:14:59.620Z</time>
      </trkpt>
      <trkpt lat="48.88129" lon="2.39659">
        <ele>147</ele>
        <time>2021-05-04T16:15:13.617Z</time>
      </trkpt>
      <trkpt lat="48.88121" lon="2.39668">
        <ele>149</ele>
        <time>2021-05-04T16:15:20.614Z</time>
      </trkpt>
      <trkpt lat="48.88114" lon="2.39678">
        <ele>149</ele>
        <time>2021-05-04T16:15:26.617Z</time>
      </trkpt>
      <trkpt lat="48.88107" lon="2.3969">
        <ele>149</ele>
        <time>2021-05-04T16:15:31.619Z</time>
      </trkpt>
      <trkpt lat="48.88099" lon="2.39699">
        <ele>149</ele>
        <time>2021-05-04T16:15:36.618Z</time>
      </trkpt>
      <trkpt lat="48.88092" lon="2.39709">
        <ele>148</ele>
        <time>2021-05-04T16:15:41.618Z</time>
      </trkpt>
      <trkpt lat="48.88086" lon="2.39721">
        <ele>147</ele>
        <time>2021-05-04T16:15:46.617Z</time>
      </trkpt>
      <trkpt lat="48.88081" lon="2.39733">
        <ele>147</ele>
        <time>2021-05-04T16:15:51.618Z</time>
      </trkpt>
      <trkpt lat="48.88072" lon="2.39743">
        <ele>146</ele>
        <time>2021-05-04T16:15:56.620Z</time>
      </trkpt>
      <trkpt lat="48.88066" lon="2.39755">
        <ele>145</ele>
        <time>2021-05-04T16:16:01.619Z</time>
      </trkpt>
      <trkpt lat="48.88058" lon="2.39766">
        <ele>144</ele>
        <time>2021-05-04T16:16:06.618Z</time>
      </trkpt>
      <trkpt lat="48.88052" lon="2.39775">
        <ele>144</ele>
        <time>2021-05-04T16:16:11.618Z</time>
      </trkpt>
      <trkpt lat="48.88047" lon="2.39787">
        <ele>143</ele>
        <time>2021-05-04T16:16:16.617Z</time>
      </trkpt>
      <trkpt lat="48.88041" lon="2.39801">
        <ele>143</ele>
        <time>2021-05-04T16:16:22.619Z</time>
      </trkpt>
      <trkpt lat="48.88035" lon="2.39814">
        <ele>143</ele>
        <time>2021-05-04T16:16:26.617Z</time>
      </trkpt>
      <trkpt lat="48.88028" lon="2.39827">
        <ele>143</ele>
        <time>2021-05-04T16:16:32.619Z</time>
      </trkpt>
      <trkpt lat="48.88023" lon="2.39838">
        <ele>143</ele>
        <time>2021-05-04T16:16:37.617Z</time>
      </trkpt>
      <trkpt lat="48.88013" lon="2.39842">
        <ele>143</ele>
        <time>2021-05-04T16:16:43.618Z</time>
      </trkpt>
      <trkpt lat="48.88015" lon="2.39826">
        <ele>143</ele>
        <time>2021-05-04T16:16:48.618Z</time>
      </trkpt>
      <trkpt lat="48.8802" lon="2.39812">
        <ele>144</ele>
        <time>2021-05-04T16:16:52.618Z</time>
      </trkpt>
      <trkpt lat="48.88022" lon="2.39798">
        <ele>144</ele>
        <time>2021-05-04T16:16:56.618Z</time>
      </trkpt>
      <trkpt lat="48.88022" lon="2.39784">
        <ele>145</ele>
        <time>2021-05-04T16:17:01.615Z</time>
      </trkpt>
      <trkpt lat="48.88023" lon="2.39769">
        <ele>145</ele>
        <time>2021-05-04T16:17:05.618Z</time>
      </trkpt>
      <trkpt lat="48.88026" lon="2.39755">
        <ele>146</ele>
        <time>2021-05-04T16:17:10.618Z</time>
      </trkpt>
      <trkpt lat="48.88029" lon="2.39742">
        <ele>147</ele>
        <time>2021-05-04T16:17:15.620Z</time>
      </trkpt>
      <trkpt lat="48.88035" lon="2.39727">
        <ele>147</ele>
        <time>2021-05-04T16:17:19.615Z</time>
      </trkpt>
      <trkpt lat="48.88039" lon="2.39714">
        <ele>148</ele>
        <time>2021-05-04T16:17:23.619Z</time>
      </trkpt>
      <trkpt lat="48.88038" lon="2.39698">
        <ele>149</ele>
        <time>2021-05-04T16:17:28.620Z</time>
      </trkpt>
      <trkpt lat="48.88039" lon="2.39682">
        <ele>150</ele>
        <time>2021-05-04T16:17:33.617Z</time>
      </trkpt>
      <trkpt lat="48.88029" lon="2.39675">
        <ele>151</ele>
        <time>2021-05-04T16:17:38.619Z</time>
      </trkpt>
      <trkpt lat="48.88019" lon="2.39671">
        <ele>151</ele>
        <time>2021-05-04T16:17:43.622Z</time>
      </trkpt>
      <trkpt lat="48.88009" lon="2.39672">
        <ele>152</ele>
        <time>2021-05-04T16:17:48.616Z</time>
      </trkpt>
      <trkpt lat="48.87999" lon="2.39672">
        <ele>153</ele>
        <time>2021-05-04T16:17:52.617Z</time>
      </trkpt>
      <trkpt lat="48.8799" lon="2.39667">
        <ele>153</ele>
        <time>2021-05-04T16:17:57.616Z</time>
      </trkpt>
      <trkpt lat="48.87981" lon="2.39663">
        <ele>154</ele>
        <time>2021-05-04T16:18:02.616Z</time>
      </trkpt>
      <trkpt lat="48.87972" lon="2.39658">
        <ele>155</ele>
        <time>2021-05-04T16:18:06.614Z</time>
      </trkpt>
      <trkpt lat="48.87963" lon="2.39654">
        <ele>155</ele>
        <time>2021-05-04T16:18:11.617Z</time>
      </trkpt>
      <trkpt lat="48.87953" lon="2.39649">
        <ele>155</ele>
        <time>2021-05-04T16:18:17.618Z</time>
      </trkpt>
      <trkpt lat="48.87943" lon="2.39644">
        <ele>156</ele>
        <time>2021-05-04T16:18:22.614Z</time>
      </trkpt>
      <trkpt lat="48.87933" lon="2.39641">
        <ele>157</ele>
        <time>2021-05-04T16:18:27.616Z</time>
      </trkpt>
      <trkpt lat="48.87923" lon="2.39637">
        <ele>158</ele>
        <time>2021-05-04T16:18:32.626Z</time>
      </trkpt>
      <trkpt lat="48.87913" lon="2.3963">
        <ele>158</ele>
        <time>2021-05-04T16:18:37.613Z</time>
      </trkpt>
      <trkpt lat="48.87905" lon="2.39624">
        <ele>159</ele>
        <time>2021-05-04T16:18:41.618Z</time>
      </trkpt>
      <trkpt lat="48.87896" lon="2.3963">
        <ele>159</ele>
        <time>2021-05-04T16:18:44.617Z</time>
      </trkpt>
      <trkpt lat="48.87887" lon="2.39627">
        <ele>160</ele>
        <time>2021-05-04T16:18:49.616Z</time>
      </trkpt>
      <trkpt lat="48.8788" lon="2.39618">
        <ele>161</ele>
        <time>2021-05-04T16:18:54.617Z</time>
      </trkpt>
      <trkpt lat="48.87872" lon="2.3961">
        <ele>163</ele>
        <time>2021-05-04T16:18:59.617Z</time>
      </trkpt>
      <trkpt lat="48.87864" lon="2.396">
        <ele>164</ele>
        <time>2021-05-04T16:19:03.622Z</time>
      </trkpt>
      <trkpt lat="48.87855" lon="2.39594">
        <ele>164</ele>
        <time>2021-05-04T16:19:06.617Z</time>
      </trkpt>
      <trkpt lat="48.87846" lon="2.39589">
        <ele>165</ele>
        <time>2021-05-04T16:19:10.614Z</time>
      </trkpt>
      <trkpt lat="48.87837" lon="2.39579">
        <ele>165</ele>
        <time>2021-05-04T16:19:14.617Z</time>
      </trkpt>
      <trkpt lat="48.87828" lon="2.39574">
        <ele>166</ele>
        <time>2021-05-04T16:19:18.616Z</time>
      </trkpt>
      <trkpt lat="48.8782" lon="2.39569">
        <ele>167</ele>
        <time>2021-05-04T16:19:22.616Z</time>
      </trkpt>
      <trkpt lat="48.87807" lon="2.39564">
        <ele>167</ele>
        <time>2021-05-04T16:19:25.614Z</time>
      </trkpt>
      <trkpt lat="48.87797" lon="2.39561">
        <ele>167</ele>
        <time>2021-05-04T16:19:28.618Z</time>
      </trkpt>
      <trkpt lat="48.87783" lon="2.39557">
        <ele>167</ele>
        <time>2021-05-04T16:19:33.617Z</time>
      </trkpt>
      <trkpt lat="48.87778" lon="2.39549">
        <ele>164</ele>
        <time>2021-05-04T16:19:53.616Z</time>
      </trkpt>
      <trkpt lat="48.87778" lon="2.39549">
        <ele>164</ele>
        <time>2021-05-04T16:20:15.612Z</time>
      </trkpt>
      <trkpt lat="48.87767" lon="2.39516">
        <ele>162</ele>
        <time>2021-05-04T16:20:16.613Z</time>
      </trkpt>
      <trkpt lat="48.87765" lon="2.39501">
        <ele>161</ele>
        <time>2021-05-04T16:20:20.618Z</time>
      </trkpt>
      <trkpt lat="48.87764" lon="2.39485">
        <ele>161</ele>
        <time>2021-05-04T16:20:24.617Z</time>
      </trkpt>
      <trkpt lat="48.87762" lon="2.39469">
        <ele>160</ele>
        <time>2021-05-04T16:20:29.614Z</time>
      </trkpt>
      <trkpt lat="48.8776" lon="2.39455">
        <ele>160</ele>
        <time>2021-05-04T16:20:33.620Z</time>
      </trkpt>
      <trkpt lat="48.87759" lon="2.3944">
        <ele>161</ele>
        <time>2021-05-04T16:20:39.618Z</time>
      </trkpt>
      <trkpt lat="48.8776" lon="2.3943">
        <ele>161</ele>
        <time>2021-05-04T16:20:46.621Z</time>
      </trkpt>
    </trkseg>
  </trk>
</gpx>